# Wetter Temperatur Luftdruck Luftfeuchtigkeit Sichtweite Windgeschwindigkeit Windrichtung Zeit
1 Drizzle 3 1014 100 10000 2.1 100 09:58 29.01.2020
2 Drizzle 3 1014 100 10000 2.1 100 09:39 29.01.2020
3 Drizzle 3 1014 100 10000 2.1 100 09:19 29.01.2020
4 Rain 3 1013 90 4000 1 140 08:44 29.01.2020
5 Rain 2 1013 100 5000 3.1 340 08:24 29.01.2020
6 Rain 2 1013 100 5000 3.1 340 08:24 29.01.2020
7 Rain 2 1012 96 6000 4.1 300 07:45 29.01.2020
8 Rain 2 1012 86 8000 5.1 270 07:26 29.01.2020
9 Rain 2 1012 86 10000 6.2 260 06:56 29.01.2020
10 Rain 2 1012 86 10000 7.2 260 06:38 29.01.2020
11 Rain 3 1012 86 10000 7.2 260 06:19 29.01.2020
12 Drizzle 3 1011 80 10000 6.2 260 05:50 29.01.2020
13 Rain 3 1011 86 7000 4.6 310 05:32 29.01.2020
14 Rain 3 1010 75 10000 5.7 250 04:39 29.01.2020
15 Rain 3 1010 75 10000 5.7 250 04:39 29.01.2020
16 Rain 3 1010 80 10000 7.2 260 03:59 29.01.2020
17 Rain 3 1009 75 10000 6.2 250 02:34 29.01.2020
18 Rain 3 1009 80 10000 6.2 230 01:18 29.01.2020
19 Rain 3 1009 80 10000 6.2 230 01:18 29.01.2020
20 Rain 3 1009 95 10000 2.6 340 00:39 29.01.2020
21 Rain 3 1009 95 10000 2.6 340 00:20 29.01.2020
22 Rain 3 1008 95 10000 1.5 0 23:40 28.01.2020
23 Rain 3 1009 88 10000 2.6 0 23:20 28.01.2020
24 Rain 3 1009 88 10000 3.6 210 22:51 28.01.2020
25 Snow 3 1009 60 10000 4.1 220 22:27 28.01.2020
26 Clouds 4 1010 60 10000 4.1 210 21:58 28.01.2020
27 Clouds 4 1010 60 10000 4.1 210 21:39 28.01.2020
28 Clouds 4 1010 65 10000 4.1 210 21:19 28.01.2020
29 Clouds 4 1010 65 10000 3.6 240 20:46 28.01.2020
30 Clouds 4 1010 65 10000 4.6 240 20:26 28.01.2020
31 Clouds 4 1010 65 10000 5.7 230 19:56 28.01.2020
32 Clouds 4 1010 60 10000 4.6 230 19:37 28.01.2020
33 Clouds 4 1010 60 10000 4.6 230 19:19 28.01.2020
34 Clouds 3 1010 60 10000 5.7 230 18:42 28.01.2020
35 Clouds 3 1009 60 10000 5.1 230 18:23 28.01.2020
36 Clouds 4 1009 60 10000 5.7 240 17:59 28.01.2020
37 Clouds 4 1009 60 10000 5.7 240 17:40 28.01.2020
38 Clouds 4 1009 56 10000 5.7 250 17:22 28.01.2020
39 Clouds 4 1009 60 10000 8.2 240 16:59 28.01.2020
40 Clouds 4 1009 60 10000 8.2 240 16:41 28.01.2020
41 Clouds 4 1008 65 10000 4.6 220 16:22 28.01.2020
42 Clouds 4 1008 87 10000 4.6 0 15:55 28.01.2020
43 Clouds 4 1008 87 10000 3.6 0 15:37 28.01.2020
44 Clouds 4 1008 87 10000 3.6 0 15:18 28.01.2020
45 Clouds 4 1008 87 10000 4.1 250 14:43 28.01.2020
46 Rain 4 1008 82 10000 2.1 230 14:19 28.01.2020
47 Rain 4 1008 86 10000 3.6 270 13:42 28.01.2020
48 Rain 4 1008 75 10000 3.1 290 13:24 28.01.2020
49 Rain 4 1008 71 10000 4.1 190 12:45 28.01.2020
50 Rain 4 1008 71 10000 6.7 210 12:25 28.01.2020
51 Rain 4 1008 71 10000 4.6 200 11:59 28.01.2020
52 Rain 4 1008 71 10000 4.6 200 11:41 28.01.2020
53 Rain 4 1008 82 10000 5.7 250 11:21 28.01.2020
54 Rain 3 1007 93 10000 6.7 260 10:55 28.01.2020
55 Thunderstorm 3 1005 75 10000 11.8 310 10:36 28.01.2020
56 Thunderstorm 4 1005 75 10000 11.8 310 10:18 28.01.2020
57 Rain 5 1004 65 10000 6.7 210 09:41 28.01.2020
58 Rain 6 1004 57 10000 6.7 220 09:20 28.01.2020
59 Rain 6 1004 57 10000 6.7 220 09:20 28.01.2020
60 Clouds 6 1005 82 10000 5.1 210 08:45 28.01.2020
61 Clouds 6 1004 57 10000 4.6 220 08:25 28.01.2020
62 Clouds 6 1004 81 10000 2.6 240 07:53 28.01.2020
63 Rain 5 1004 87 8000 6.2 300 07:31 28.01.2020
64 Rain 5 1004 87 6000 4.1 300 06:47 28.01.2020
65 Rain 5 1004 93 8000 1.5 0 06:24 28.01.2020
66 Rain 5 1004 81 10000 4.1 250 05:38 28.01.2020
67 Rain 5 1005 86 10000 4.1 280 05:20 28.01.2020
68 Rain 5 1006 93 4400 0.5 0 03:47 28.01.2020
69 Rain 5 1007 93 3800 0.5 0 02:46 28.01.2020
70 Rain 5 1007 93 3800 0.5 0 02:46 28.01.2020
71 Rain 5 1007 93 6000 0.5 0 02:25 28.01.2020
72 Rain 5 1007 93 10000 0.5 0 01:53 28.01.2020
73 Rain 5 1007 93 10000 1.5 120 01:20 28.01.2020
74 Rain 5 1008 93 8000 1 0 00:43 28.01.2020
75 Clouds 5 1008 86 10000 1 0 00:19 28.01.2020
76 Clouds 5 1008 93 10000 2.1 120 23:43 27.01.2020
77 Clouds 5 1009 93 10000 2.1 90 23:19 27.01.2020
78 Clouds 5 1009 93 10000 2.1 120 22:45 27.01.2020
79 Drizzle 5 1010 86 10000 1.5 120 22:20 27.01.2020
80 Drizzle 5 1010 86 10000 1.5 120 22:20 27.01.2020
81 Drizzle 5 1010 86 10000 2.6 280 21:57 27.01.2020
82 Drizzle 5 1010 86 10000 2.6 280 21:57 27.01.2020
83 Drizzle 5 1010 86 10000 2.6 280 21:39 27.01.2020
84 Drizzle 5 1010 86 10000 2.1 190 21:19 27.01.2020
85 Clouds 5 1010 86 10000 2.6 140 20:56 27.01.2020
86 Clouds 5 1010 86 10000 1.5 140 20:37 27.01.2020
87 Clouds 5 1010 86 10000 1.5 140 20:19 27.01.2020
88 Clouds 5 1010 93 10000 2.1 100 19:55 27.01.2020
89 Clouds 5 1010 86 10000 1 0 19:37 27.01.2020
90 Clouds 5 1010 86 10000 1 0 19:19 27.01.2020
91 Clouds 5 1011 86 10000 1.5 100 18:39 27.01.2020
92 Clouds 5 1011 93 10000 2.6 110 18:21 27.01.2020
93 Clouds 5 1011 86 10000 1 110 17:57 27.01.2020
94 Clouds 5 1011 86 10000 1 110 17:57 27.01.2020
95 Clouds 6 1012 81 10000 1 170 17:37 27.01.2020
96 Clouds 6 1012 81 10000 1 170 17:18 27.01.2020
97 Clouds 6 1012 81 10000 1 170 16:55 27.01.2020
98 Clouds 6 1012 81 10000 1.5 220 16:36 27.01.2020
99 Clouds 6 1012 81 10000 1.5 220 16:36 27.01.2020
100 Clouds 6 1012 81 10000 1.5 220 16:18 27.01.2020
101 Clouds 6 1012 75 10000 1.5 230 15:41 27.01.2020
102 Clouds 7 1013 81 10000 1.5 290 15:19 27.01.2020
103 Clouds 7 1013 81 10000 2.1 280 14:56 27.01.2020
104 Clouds 7 1013 75 10000 2.1 290 14:37 27.01.2020
105 Clouds 7 1013 75 10000 2.1 290 14:37 27.01.2020
106 Clouds 6 1013 75 10000 2.1 290 14:19 27.01.2020
107 Clouds 6 1014 75 10000 2.1 290 13:42 27.01.2020
108 Clouds 6 1015 81 10000 0.5 0 13:22 27.01.2020
109 Clouds 6 1015 75 10000 1 0 12:57 27.01.2020
110 Clouds 6 1015 75 10000 1 0 12:57 27.01.2020
111 Clouds 6 1016 80 10000 1 0 12:38 27.01.2020
112 Clouds 6 1016 80 10000 1 0 12:20 27.01.2020
113 Clouds 5 1017 86 8000 1 0 11:42 27.01.2020
114 Clouds 5 1017 86 8000 1 0 11:42 27.01.2020
115 Clouds 4 1017 100 7000 1 0 11:21 27.01.2020
116 Fog 4 1017 80 6000 0.35 230 10:55 27.01.2020
117 Fog 3 1017 80 3500 0.35 230 10:36 27.01.2020
118 Fog 3 1017 80 3500 0.35 230 10:18 27.01.2020
119 Fog 2 1018 100 3000 0.5 0 09:39 27.01.2020
120 Fog 2 1018 100 3000 0.5 0 09:19 27.01.2020
121 Rain 2 1018 100 2500 1 0 08:48 27.01.2020
122 Rain 2 1018 100 3700 1 150 08:23 27.01.2020
123 Rain 2 1018 92 5000 1 0 07:56 27.01.2020
124 Fog 2 1018 92 3600 0.5 0 07:37 27.01.2020
125 Fog 2 1018 92 3600 0.5 0 07:19 27.01.2020
126 Mist 2 1019 92 2800 0.5 0 06:37 27.01.2020
127 Clouds 2 1019 100 5000 1 0 05:38 27.01.2020
128 Mist 2 1019 100 2500 0.5 0 05:38 27.01.2020
129 Mist 2 1019 100 1600 1 0 04:37 27.01.2020
130 Mist 2 1019 94 3200 0.5 0 03:35 27.01.2020
131 Mist 2 1019 100 4500 0.5 0 01:47 27.01.2020
132 Mist 2 1019 100 4600 1 0 01:22 27.01.2020
133 Mist 3 1019 100 3900 0.5 0 00:40 27.01.2020
134 Mist 3 1019 100 4000 1 130 00:21 27.01.2020
135 Mist 3 1019 93 4100 1.5 150 23:43 26.01.2020
136 Mist 3 1019 93 2600 0.5 130 23:21 26.01.2020
137 Mist 3 1020 93 3900 1.5 150 22:58 26.01.2020
138 Mist 3 1020 93 3900 1.5 150 22:38 26.01.2020
139 Mist 3 1020 100 3800 1 150 22:20 26.01.2020
140 Mist 3 1020 100 3800 1 0 21:57 26.01.2020
141 Mist 3 1020 100 3800 1 0 21:38 26.01.2020
142 Rain 3 1020 100 4000 1 0 21:20 26.01.2020
143 Rain 3 1020 100 3200 0.5 0 20:57 26.01.2020
144 Rain 3 1020 100 3200 0.5 0 20:57 26.01.2020
145 Rain 3 1020 100 3200 0.5 0 20:38 26.01.2020
146 Drizzle 3 1019 100 5000 0.5 0 20:18 26.01.2020
147 Drizzle 3 1019 100 7000 0.5 0 19:57 26.01.2020
148 Drizzle 3 1018 86 10000 1.5 240 19:38 26.01.2020
149 Drizzle 3 1019 93 5000 0.5 0 19:18 26.01.2020
150 Rain 3 1019 93 7000 0.5 150 18:54 26.01.2020
151 Clouds 3 1019 93 7000 1 350 18:36 26.01.2020
152 Clouds 3 1019 93 7000 1 350 18:18 26.01.2020
153 Rain 3 1019 86 10000 1.5 0 17:40 26.01.2020
154 Rain 4 1019 86 10000 0.5 0 17:20 26.01.2020
155 Rain 4 1019 86 8000 1 0 16:59 26.01.2020
156 Rain 4 1019 86 8000 1 0 16:40 26.01.2020
157 Drizzle 4 1019 75 10000 2.1 360 16:22 26.01.2020
158 Drizzle 4 1019 75 10000 2.1 360 16:22 26.01.2020
159 Clouds 4 925 57 0 1.34 315 15:58 26.01.2020
160 Clouds 4 925 57 0 1.34 315 15:58 26.01.2020
161 Clouds 4 925 57 0 1.34 315 15:58 26.01.2020
162 Clouds 5 1020 76 0 0.45 295 15:40 26.01.2020
163 Clouds 5 1020 86 0 1.79 243 15:19 26.01.2020
164 Clouds 4 1020 79 0 2.24 260 14:41 26.01.2020
165 Clouds 4 1020 80 0 1.34 270 14:23 26.01.2020
166 Clouds 4 1020 80 0 1.34 270 14:23 26.01.2020
167 Clouds 4 1020 80 0 1.34 255 13:59 26.01.2020
168 Clouds 4 1020 81 0 0.45 246 13:38 26.01.2020
169 Clouds 4 1020 81 0 0.89 246 13:18 26.01.2020
170 Clouds 5 925 55 0 0.45 0 12:43 26.01.2020
171 Clouds 4 925 55 0 0.45 45 12:24 26.01.2020
172 Clouds 4 925 51 0 1.11 262 11:58 26.01.2020
173 Clouds 3 926 51 0 0.89 180 11:40 26.01.2020
174 Clouds 2 1020 92 9000 0.5 0 11:19 26.01.2020
175 Clouds 1 1020 92 9000 0.5 0 10:59 26.01.2020
176 Clouds 0 1020 92 9000 0.5 0 10:39 26.01.2020
177 Rain 0 1020 92 9000 0.5 0 10:21 26.01.2020
178 Clouds 0 1020 92 6000 1 0 09:58 26.01.2020
179 Clouds 0 1020 92 6000 1 0 09:40 26.01.2020
180 Fog -1 1020 100 5000 1.5 170 09:21 26.01.2020
181 Mist -1 1020 92 2900 1.5 170 08:45 26.01.2020
182 Fog -1 1020 92 500 1.5 150 08:23 26.01.2020
183 Fog -1 1020 92 150 1.18 159 07:58 26.01.2020
184 Fog -1 1020 92 150 1.18 159 07:40 26.01.2020
185 Fog -1 1020 100 150 1.18 159 07:21 26.01.2020
186 Fog -1 1020 100 150 1 210 06:31 26.01.2020
187 Fog -1 1020 92 200 1.18 159 05:32 26.01.2020
188 Fog -1 1020 100 150 0.5 0 04:45 26.01.2020
189 Fog -1 1020 100 100 0.5 0 02:59 26.01.2020
190 Fog -1 1020 100 150 0.5 0 01:57 26.01.2020
191 Fog -1 1020 100 100 1 170 01:37 26.01.2020
192 Fog -1 1020 100 100 1 170 01:18 26.01.2020
193 Fog -1 1021 100 100 0.5 0 00:38 26.01.2020
194 Fog -1 1021 100 100 1 0 00:20 26.01.2020
195 Clouds 0 1021 91 0 1.11 171 23:37 25.01.2020
196 Clouds 0 1021 91 0 1.05 174 23:18 25.01.2020
197 Clouds 0 1022 90 0 1.05 174 22:43 25.01.2020
198 Clouds 0 1022 80 0 1.05 174 22:20 25.01.2020
199 Clouds 0 1022 91 0 1.05 174 21:57 25.01.2020
200 Clouds 0 1022 90 0 1.05 174 21:39 25.01.2020
201 Clouds 1 1022 87 0 1.05 174 21:20 25.01.2020
202 Clouds 1 1022 91 0 1.05 174 20:45 25.01.2020
203 Clouds 1 1022 85 0 1.03 155 20:26 25.01.2020
204 Clouds 1 1022 85 0 1.03 155 19:56 25.01.2020
205 Clouds 1 1022 85 0 1.03 155 19:56 25.01.2020
206 Clouds 1 1025 95 0 1.03 155 19:37 25.01.2020
207 Clouds 1 1022 91 0 0.89 206 19:19 25.01.2020
208 Clouds 1 1022 91 0 1.03 152 18:55 25.01.2020
209 Clouds 2 1025 95 0 1.03 155 18:37 25.01.2020
210 Clouds 2 1025 95 0 1.03 155 18:18 25.01.2020
211 Clouds 2 1025 95 0 1.03 155 18:18 25.01.2020
212 Clouds 2 1021 87 0 1.34 206 17:39 25.01.2020
213 Clouds 4 1021 84 0 0.51 266 17:19 25.01.2020
214 Clouds 4 1021 84 0 0.51 266 16:56 25.01.2020
215 Clouds 4 1021 82 0 1.34 161 16:37 25.01.2020
216 Clouds 6 926 58 0 0.51 266 16:18 25.01.2020
217 Clouds 6 1021 79 0 0.51 266 15:42 25.01.2020
218 Clouds 6 1077 93 0 0.51 266 15:23 25.01.2020
219 Clouds 5 1021 79 0 1.79 240 14:46 25.01.2020
220 Clear 5 1021 80 0 1.79 244 14:19 25.01.2020
221 Clear 5 927 56 0 0.45 45 13:57 25.01.2020
222 Clear 5 1022 79 0 1.34 259 13:39 25.01.2020
223 Clear 5 927 58 0 0.8 299 13:18 25.01.2020
224 Clear 5 927 57 0 0.66 301 13:18 25.01.2020
225 Mist 4 1023 100 1400 1 0 12:42 25.01.2020
226 Mist 3 1023 100 1400 1 0 12:21 25.01.2020
227 Mist 2 1023 100 1400 1 0 11:43 25.01.2020
228 Fog 1 1023 100 450 0.5 0 11:21 25.01.2020
229 Fog 0 1023 100 200 0.5 0 10:56 25.01.2020
230 Fog 0 1023 100 200 0.5 0 10:38 25.01.2020
231 Fog 0 1023 100 200 0.5 0 10:19 25.01.2020
232 Fog 0 1023 100 150 1 0 09:40 25.01.2020
233 Fog -1 1022 100 150 0.5 0 09:21 25.01.2020
234 Fog -1 1022 100 100 0.5 0 08:43 25.01.2020
235 Fog -1 1022 100 100 1 210 08:21 25.01.2020
236 Fog -1 1022 100 150 1.5 180 07:41 25.01.2020
237 Fog -1 1022 92 300 1 160 06:44 25.01.2020
238 Fog -1 1021 92 500 1.5 120 06:24 25.01.2020
239 Mist -1 1022 100 1500 1.5 130 05:44 25.01.2020
240 Fog -1 1022 100 2300 1 170 04:25 25.01.2020
241 Fog -1 1022 100 450 2.1 140 03:50 25.01.2020
242 Mist -1 1022 92 4200 1.5 140 02:48 25.01.2020
243 Mist -1 1022 100 2700 0.5 120 01:58 25.01.2020
244 Mist -1 1023 100 3200 0.5 0 01:35 25.01.2020
245 Mist -1 1023 100 4100 0.5 200 00:41 25.01.2020
246 Mist -1 1023 100 3300 1.07 175 00:23 25.01.2020
247 Mist -1 1023 100 2600 1 330 23:42 24.01.2020
248 Mist -1 1023 100 3300 1 150 23:24 24.01.2020
249 Mist -1 1023 100 4400 0.5 130 22:56 24.01.2020
250 Mist -1 1023 100 4900 0.5 0 22:37 24.01.2020
251 Mist -1 1023 100 4900 0.5 0 22:19 24.01.2020
252 Mist 0 1023 100 4200 0.5 0 21:41 24.01.2020
253 Clouds 0 1023 82 5000 1 300 21:19 24.01.2020
254 Clouds 0 1023 82 6000 0.5 0 20:44 24.01.2020
255 Clouds 0 1023 82 8000 0.5 0 20:23 24.01.2020
256 Clouds 0 1023 82 8000 1 120 19:59 24.01.2020
257 Clouds 0 1023 82 8000 1 120 19:41 24.01.2020
258 Clouds 0 1023 82 8000 0.5 180 19:22 24.01.2020
259 Clouds 0 1022 82 8000 1.23 172 18:58 24.01.2020
260 Clouds 0 1022 82 8000 1.23 172 18:40 24.01.2020
261 Clouds 1 1022 82 8000 1.5 100 18:21 24.01.2020
262 Clouds 1 1022 82 7000 1.5 130 17:44 24.01.2020
263 Clouds 2 1022 82 8000 2.1 140 17:22 24.01.2020
264 Clouds 2 1022 86 7000 1.5 140 16:57 24.01.2020
265 Clouds 2 1022 86 7000 1.5 140 16:38 24.01.2020
266 Clouds 3 1023 80 7000 1.5 0 16:18 24.01.2020
267 Clouds 3 1023 69 7000 1 0 15:41 24.01.2020
268 Clouds 3 1023 80 7000 1 0 15:21 24.01.2020
269 Clouds 3 1023 80 7000 1 0 14:42 24.01.2020
270 Clouds 3 1023 86 5000 1.5 0 14:24 24.01.2020
271 Clouds 3 1024 49 6000 0.5 0 13:58 24.01.2020
272 Clouds 3 1024 49 6000 0.5 0 13:40 24.01.2020
273 Mist 3 1025 92 5000 1 0 13:21 24.01.2020
274 Mist 2 1025 92 2500 1.5 230 12:42 24.01.2020
275 Mist 2 1025 92 2500 0.5 0 12:20 24.01.2020
276 Mist 2 1025 92 2500 1.5 0 11:44 24.01.2020
277 Mist 0 1025 92 1500 1.5 140 11:19 24.01.2020
278 Fog -1 1025 100 900 2.6 150 10:44 24.01.2020
279 Fog -1 1026 100 900 2.1 140 10:23 24.01.2020
280 Mist -1 1026 92 1500 2.1 150 10:00 24.01.2020
281 Mist -1 1026 92 1500 2.1 150 09:40 24.01.2020
282 Mist -1 1026 92 2000 2.1 150 09:22 24.01.2020
283 Mist -2 1026 92 2000 2.1 150 08:41 24.01.2020
284 Mist -2 1026 92 2000 2.1 150 08:20 24.01.2020
285 Mist -2 1025 100 2000 1 200 07:53 24.01.2020
286 Mist -2 1026 100 3000 1.5 280 07:35 24.01.2020
287 Mist -2 1026 100 3700 2.1 310 06:48 24.01.2020
288 Mist -2 1026 100 4000 2.1 300 06:29 24.01.2020
289 Mist -2 1025 100 2700 1.5 0 05:59 24.01.2020
290 Mist -2 1026 100 2200 1.5 120 04:58 24.01.2020
291 Mist -2 1027 100 3100 2.6 150 02:53 24.01.2020
292 Mist -2 1027 100 4500 2.6 130 02:26 24.01.2020
293 Mist -2 1027 100 4500 2.6 130 02:26 24.01.2020
294 Clouds -2 1027 100 5000 2.6 160 01:49 24.01.2020
295 Mist -2 1027 100 4800 2.6 160 01:31 24.01.2020
296 Mist -2 1027 92 4700 1.5 0 00:26 24.01.2020
297 Clouds -2 1027 92 5000 1.5 0 23:51 23.01.2020
298 Clouds -2 1027 92 5000 1.5 0 23:31 23.01.2020
299 Clouds -2 1027 92 5000 1 0 22:59 23.01.2020
300 Clouds -2 1027 92 5000 1 0 22:38 23.01.2020
301 Clouds -2 1027 92 5000 1.5 0 22:19 23.01.2020
302 Clouds -2 1027 92 4900 1 0 21:58 23.01.2020
303 Clouds -2 1027 92 4900 1 0 21:39 23.01.2020
304 Clouds -2 1026 92 7000 1 0 21:20 23.01.2020
305 Clouds -2 1026 92 5000 0.5 0 20:59 23.01.2020
306 Clouds -2 1026 92 5000 0.5 0 20:39 23.01.2020
307 Clouds -2 1026 86 5000 1 0 20:20 23.01.2020
308 Clouds -2 1026 86 4000 1 0 19:56 23.01.2020
309 Clouds -2 1026 86 4000 1 0 19:38 23.01.2020
310 Clouds -2 1026 86 4000 1 0 19:19 23.01.2020
311 Clouds -2 1026 86 3500 1 170 18:55 23.01.2020
312 Clouds -2 1025 86 3500 1 0 18:36 23.01.2020
313 Clouds -2 1025 86 3500 1 0 18:18 23.01.2020
314 Clouds -2 1025 86 3500 0.5 0 17:42 23.01.2020
315 Clouds -1 1025 86 3500 1 0 17:20 23.01.2020
316 Clouds -1 1025 86 3500 1.5 0 16:57 23.01.2020
317 Clouds -1 1025 86 7000 2.1 330 16:37 23.01.2020
318 Clouds 0 1025 86 7000 2.1 330 16:18 23.01.2020
319 Clouds 0 1026 86 4000 2.6 340 15:56 23.01.2020
320 Clouds 0 1026 86 4000 2.6 310 15:37 23.01.2020
321 Clouds 0 1026 86 4000 2.6 310 15:18 23.01.2020
322 Clouds 0 1026 86 4000 2.6 310 15:18 23.01.2020
323 Clouds 0 1026 86 4000 0.74 333 14:55 23.01.2020
324 Clouds 0 1026 86 4000 1 0 14:37 23.01.2020
325 Clouds -1 1026 86 4000 1 0 14:19 23.01.2020
326 Clouds -1 1027 86 4000 1.5 190 13:43 23.01.2020
327 Clouds -1 1027 86 4000 1 0 13:20 23.01.2020
328 Clouds 1 1028 92 4000 1 0 12:47 23.01.2020
329 Clouds 1 1028 92 4000 1 0 12:26 23.01.2020
330 Mist 1 1029 100 5000 1 0 11:59 23.01.2020
331 Mist 1 1029 100 5000 1 0 11:59 23.01.2020
332 Mist 0 1029 100 5000 1 0 11:39 23.01.2020
333 Clouds -2 1029 92 4000 1 0 11:20 23.01.2020
334 Clouds -2 1029 92 4000 1 0 10:55 23.01.2020
335 Clouds -2 1029 92 4000 1.5 20 10:36 23.01.2020
336 Clouds -2 1029 92 4000 1.5 20 10:18 23.01.2020
337 Clouds -2 1029 92 4000 2.1 350 09:39 23.01.2020
338 Clouds -2 1029 92 4000 1.5 340 09:20 23.01.2020
339 Clouds -3 1029 92 4000 2.1 310 08:43 23.01.2020
340 Clouds -3 1028 92 4000 1.5 350 08:24 23.01.2020
341 Clouds -3 1029 92 5000 2.6 320 07:49 23.01.2020
342 Clouds -3 1028 92 3000 2.6 330 07:27 23.01.2020
343 Mist -3 1028 92 3000 3.1 320 06:54 23.01.2020
344 Mist -3 1029 100 3900 3.1 310 06:25 23.01.2020
345 Mist -3 1029 100 3500 2.6 300 05:59 23.01.2020
346 Fog -3 1030 100 600 1 0 04:24 23.01.2020
347 Fog -3 1031 100 150 1 180 02:48 23.01.2020
348 Fog -2 1031 100 250 1 0 01:50 23.01.2020
349 Snow -2 1032 92 1500 2.6 310 00:29 23.01.2020
350 Mist -2 1032 92 1300 3.1 320 23:57 22.01.2020
351 Mist -2 1032 92 1300 3.1 320 23:39 22.01.2020
352 Mist -2 1032 100 2100 2.1 320 23:20 22.01.2020
353 Mist -2 1031 92 3300 2.1 310 22:42 22.01.2020
354 Mist -2 1031 92 3300 2.1 310 22:23 22.01.2020
355 Mist -1 1031 92 3900 1.5 330 21:56 22.01.2020
356 Mist -1 1031 92 3700 1 350 21:36 22.01.2020
357 Mist -1 1031 92 3700 1 350 21:18 22.01.2020
358 Mist -1 1031 92 5000 1 340 20:41 22.01.2020
359 Clear -1 1031 92 5000 1 0 20:23 22.01.2020
360 Clear -1 1031 92 5000 1 0 19:58 22.01.2020
361 Clear -1 1031 92 7000 0.5 0 19:39 22.01.2020
362 Clear -1 1031 92 7000 0.5 0 19:20 22.01.2020
363 Clear 0 1031 92 7000 1 0 18:57 22.01.2020
364 Clear 0 1031 92 7000 1 0 18:38 22.01.2020
365 Clear 0 1031 76 10000 0.5 0 18:20 22.01.2020
366 Clear 0 1031 74 10000 2.6 320 17:55 22.01.2020
367 Clear 1 1031 74 10000 3.6 330 17:37 22.01.2020
368 Clear 2 1031 74 10000 3.6 330 17:19 22.01.2020
369 Clear 3 1030 60 10000 3.6 310 16:43 22.01.2020
370 Clear 3 1030 60 10000 3.6 310 16:23 22.01.2020
371 Clear 4 1030 60 10000 2.6 280 15:59 22.01.2020
372 Clear 4 1030 60 10000 2.6 270 15:40 22.01.2020
373 Clear 5 1030 60 10000 2.6 270 15:22 22.01.2020
374 Clear 5 1030 60 10000 1 0 14:57 22.01.2020
375 Clear 5 1031 60 10000 1 0 14:37 22.01.2020
376 Clear 4 1031 60 10000 1 0 14:18 22.01.2020
377 Clear 4 1031 65 10000 1 0 13:54 22.01.2020
378 Clear 4 1032 69 10000 0.8 344 13:36 22.01.2020
379 Clear 3 1032 69 10000 0.77 357 13:18 22.01.2020
380 Clear 3 1032 80 10000 0.5 0 12:55 22.01.2020
381 Clear 4 1033 80 10000 1 0 12:37 22.01.2020
382 Clear 3 1033 80 10000 1 0 12:18 22.01.2020
383 Clear 3 1033 80 9000 1 0 11:56 22.01.2020
384 Clear 2 1033 48 8000 0.77 357 11:37 22.01.2020
385 Clear 1 1033 58 8000 0.42 22 11:18 22.01.2020
386 Clear 0 1033 100 8000 1 0 10:43 22.01.2020
387 Clear -1 1033 92 7000 1 220 10:20 22.01.2020
388 Clear -2 1033 92 7000 1 0 09:43 22.01.2020
389 Clear -3 1033 100 6000 1 0 09:25 22.01.2020
390 Clear -3 1033 100 5000 1 0 08:57 22.01.2020
391 Clear -3 1033 100 5000 1 0 08:39 22.01.2020
392 Mist -3 1033 92 5000 1 90 08:21 22.01.2020
393 Mist -3 1033 92 5000 1 0 07:48 22.01.2020
394 Clouds -3 1033 100 5000 1 90 07:30 22.01.2020
395 Clouds -3 1033 100 5000 1 0 06:50 22.01.2020
396 Clouds -3 1033 100 5000 0.5 0 06:26 22.01.2020
397 Mist -3 1033 92 4800 1 300 05:33 22.01.2020
398 Clouds -3 1033 92 5000 1.5 150 04:18 22.01.2020
399 Clouds -3 1034 100 7000 1 0 03:21 22.01.2020
400 Clouds -3 1035 92 5000 0.5 0 01:43 22.01.2020
401 Clouds -3 1035 100 4900 0.5 0 00:44 22.01.2020
402 Mist -3 1035 92 4700 0.5 0 00:26 22.01.2020
403 Mist -3 1035 92 4300 0.5 0 23:38 21.01.2020
404 Mist -2 1035 100 3500 0.5 0 23:20 21.01.2020
405 Mist -2 1035 92 4500 0.5 0 22:56 21.01.2020
406 Mist -2 1035 92 4500 0.5 0 22:56 21.01.2020
407 Clouds -2 1035 92 6000 0.5 0 22:37 21.01.2020
408 Clouds -2 1035 92 6000 0.5 0 22:37 21.01.2020
409 Clouds -2 1035 92 6000 0.5 0 22:19 21.01.2020
410 Clouds -2 1035 92 6000 0.5 0 21:55 21.01.2020
411 Clouds -2 1035 92 10000 0.5 0 21:37 21.01.2020
412 Clouds -2 1035 92 10000 0.5 0 21:18 21.01.2020
413 Clouds -2 1035 92 10000 0.5 0 20:55 21.01.2020
414 Clouds -2 1035 86 10000 0.72 16 20:36 21.01.2020
415 Clear -2 1035 86 10000 0.84 77 20:18 21.01.2020
416 Clear -1 1035 92 10000 0.5 0 19:55 21.01.2020
417 Clear -1 1035 86 7000 1 0 19:36 21.01.2020
418 Clear -1 1035 86 7000 1 0 19:18 21.01.2020
419 Clear -1 1035 86 10000 0.84 77 18:54 21.01.2020
420 Clear -1 1035 74 10000 2.1 260 18:36 21.01.2020
421 Clear -1 1035 74 10000 2.1 260 18:18 21.01.2020
422 Clear 0 1035 75 10000 1.5 300 17:42 21.01.2020
423 Clear 1 1035 69 10000 2.1 260 17:19 21.01.2020
424 Clear 1 1035 69 10000 2.1 260 17:19 21.01.2020
425 Clear 2 1035 64 10000 1.5 270 16:56 21.01.2020
426 Clear 2 1036 55 10000 2.1 260 16:36 21.01.2020
427 Clear 3 1036 55 10000 2.1 260 16:18 21.01.2020
428 Clear 3 1036 55 10000 2.6 270 15:39 21.01.2020
429 Clear 3 1036 55 10000 1.5 250 15:20 21.01.2020
430 Clear 3 1036 59 10000 2.1 260 14:54 21.01.2020
431 Clear 3 1037 59 10000 2.1 250 14:36 21.01.2020
432 Clouds 3 1037 59 10000 2.1 250 14:18 21.01.2020
433 Clouds 2 1037 64 10000 1.5 0 13:38 21.01.2020
434 Clouds 2 1038 64 10000 1 0 13:18 21.01.2020
435 Clouds 2 1038 69 10000 1.5 0 12:43 21.01.2020
436 Clouds 1 1038 40 10000 1 0 12:24 21.01.2020
437 Clouds 1 1039 80 10000 1 0 11:56 21.01.2020
438 Clouds 0 1039 86 10000 1 0 11:38 21.01.2020
439 Clouds 0 1039 86 10000 1 0 11:38 21.01.2020
440 Clouds 0 1039 86 10000 1 0 11:38 21.01.2020
441 Clouds -1 1039 86 10000 1 0 11:19 21.01.2020
442 Clouds -2 1039 92 10000 0.5 0 10:43 21.01.2020
443 Clouds -3 1039 92 10000 0.5 0 10:23 21.01.2020
444 Clouds -3 1039 100 9000 0.5 0 09:57 21.01.2020
445 Clouds -3 1039 100 9000 0.5 0 09:39 21.01.2020
446 Mist -3 1040 100 4500 0.86 360 09:21 21.01.2020
447 Clouds -4 1040 100 5000 0.86 360 08:45 21.01.2020
448 Clouds -4 1039 92 8000 1 280 08:27 21.01.2020
449 Clouds -4 1039 92 10000 1.5 150 07:45 21.01.2020
450 Clouds -4 1039 92 10000 1.5 220 07:26 21.01.2020
451 Clouds -4 1040 100 10000 0.95 34 06:58 21.01.2020
452 Clouds -4 1040 100 10000 0.95 34 06:39 21.01.2020
453 Clouds -4 1040 92 10000 0.5 70 06:20 21.01.2020
454 Clouds -4 1040 92 9000 2.1 60 05:40 21.01.2020
455 Clear -4 1039 92 10000 0.5 200 04:38 21.01.2020
456 Clear -3 1039 92 10000 1 0 02:34 21.01.2020
457 Clear -3 1039 92 10000 0.5 140 01:37 21.01.2020
458 Clear -3 1039 85 10000 0.5 0 00:52 21.01.2020
459 Clear -3 1039 92 10000 1 0 00:29 21.01.2020
460 Clear -3 1039 92 10000 1.5 120 23:56 20.01.2020
461 Clear -2 1039 92 10000 1.5 110 23:36 20.01.2020
462 Clear -2 1039 92 10000 1.5 110 23:18 20.01.2020
463 Clear -2 1038 85 10000 0.5 0 22:54 20.01.2020
464 Clouds -2 1039 85 10000 1 110 22:36 20.01.2020
465 Clouds -2 1039 85 10000 1 110 22:18 20.01.2020
466 Clear -2 1038 85 10000 0.5 0 21:54 20.01.2020
467 Clear -1 1038 85 10000 0.5 0 21:36 20.01.2020
468 Clear -1 1038 85 10000 0.5 0 21:18 20.01.2020
469 Clear -1 1038 86 10000 0.5 0 20:42 20.01.2020
470 Clouds -1 1038 86 10000 0.5 0 20:20 20.01.2020
471 Clear -1 1038 86 10000 0.5 50 19:59 20.01.2020
472 Clear -1 1038 86 10000 0.5 50 19:40 20.01.2020
473 Clear -1 1038 74 10000 1.5 160 19:19 20.01.2020
474 Clear 0 1038 85 10000 1.5 60 18:55 20.01.2020
475 Clear 0 1038 85 10000 2.1 60 18:37 20.01.2020
476 Clear 0 1038 85 10000 2.1 60 18:19 20.01.2020
477 Clouds 1 1036 73 10000 5.1 60 17:38 20.01.2020
478 Clear 1 1038 59 10000 3.6 50 17:19 20.01.2020
479 Clouds 2 1038 59 10000 3.1 50 16:46 20.01.2020
480 Clouds 2 1038 51 10000 3.1 50 16:26 20.01.2020
481 Clouds 2 1038 55 10000 3.1 50 15:59 20.01.2020
482 Clouds 3 1038 55 10000 3.1 50 15:40 20.01.2020
483 Clouds 3 1038 51 10000 3.1 40 15:22 20.01.2020
484 Clear 3 1038 51 10000 3.1 40 14:58 20.01.2020
485 Clouds 3 1038 51 10000 3.6 50 14:39 20.01.2020
486 Clouds 3 1038 51 10000 3.6 50 14:20 20.01.2020
487 Clouds 2 1039 55 10000 2.6 130 13:44 20.01.2020
488 Clouds 2 1039 55 10000 2.6 130 13:24 20.01.2020
489 Clouds 2 1039 59 10000 1.5 110 12:58 20.01.2020
490 Clouds 2 1039 59 10000 2.1 130 12:40 20.01.2020
491 Clouds 2 1039 59 10000 2.1 130 12:21 20.01.2020
492 Clouds 1 1040 59 10000 2.6 60 11:55 20.01.2020
493 Clouds 1 1040 58 10000 2.6 60 11:36 20.01.2020
494 Clouds 1 1040 76 10000 2.6 60 11:18 20.01.2020
495 Clouds 0 1040 76 10000 2.1 70 10:41 20.01.2020
496 Clouds 0 1040 79 10000 1 0 10:20 20.01.2020
497 Clouds -1 1040 86 10000 1.5 0 09:42 20.01.2020
498 Clouds -1 1039 85 10000 2.1 140 09:24 20.01.2020
499 Clouds -1 1039 85 10000 2.1 90 08:55 20.01.2020
500 Clouds -1 1039 74 10000 2.6 60 08:34 20.01.2020
501 Clouds -2 1039 92 10000 2.1 20 07:56 20.01.2020
502 Clear -2 1038 92 10000 1.5 30 07:38 20.01.2020
503 Clear -2 1038 92 10000 1.5 30 07:19 20.01.2020
504 Clear -1 1038 86 9000 0.5 0 06:42 20.01.2020
505 Clear -2 1038 92 10000 1 0 06:21 20.01.2020
506 Clear -1 1038 92 10000 1.5 330 05:38 20.01.2020
507 Clear -1 1038 92 10000 1.5 330 05:19 20.01.2020
508 Clear -1 1038 80 10000 2.1 80 03:55 20.01.2020
509 Clouds -1 1038 82 10000 3.6 40 01:58 20.01.2020
510 Clouds -1 1038 82 10000 3.6 40 01:39 20.01.2020
511 Clouds 0 1038 69 10000 4.1 40 00:56 20.01.2020
512 Clouds 0 1038 69 10000 2.6 30 00:38 20.01.2020
513 Clouds 0 1038 69 10000 2.6 30 00:20 20.01.2020
514 Clouds 0 1037 69 10000 2.6 60 23:38 19.01.2020
515 Clouds 0 1037 69 10000 2.6 60 23:18 19.01.2020
516 Clouds 0 1037 74 10000 2.6 80 22:55 19.01.2020
517 Clouds 0 1037 83 10000 2.6 0 22:37 19.01.2020
518 Clouds 0 1037 83 10000 2.6 0 22:19 19.01.2020
519 Clouds 0 1037 74 10000 1 0 21:56 19.01.2020
520 Clouds 0 1036 74 10000 2.1 0 21:37 19.01.2020
521 Clouds 0 1036 74 10000 2.1 0 21:19 19.01.2020
522 Clouds 0 1036 74 10000 1.5 0 20:56 19.01.2020
523 Clouds 0 1036 74 10000 2.6 0 20:38 19.01.2020
524 Snow 0 1036 74 10000 2.6 0 20:19 19.01.2020
525 Clouds 0 1035 74 10000 2.1 0 19:55 19.01.2020
526 Clouds 0 1035 74 10000 2.6 0 19:37 19.01.2020
527 Clouds 0 1035 74 10000 2.6 0 19:19 19.01.2020
528 Clouds 1 1035 74 10000 2.1 0 18:55 19.01.2020
529 Snow 0 1035 96 10000 3.6 50 18:37 19.01.2020
530 Snow 1 1035 96 10000 3.6 50 18:18 19.01.2020
531 Snow 1 1035 96 10000 3.6 50 18:18 19.01.2020
532 Clouds 1 1034 69 10000 2.6 50 17:57 19.01.2020
533 Clouds 1 1034 69 10000 2.6 50 17:38 19.01.2020
534 Clouds 2 1034 69 10000 3.1 60 17:19 19.01.2020
535 Clouds 2 1034 64 10000 3.1 70 16:57 19.01.2020
536 Clouds 2 1033 59 10000 2.6 80 16:37 19.01.2020
537 Clouds 2 1033 59 10000 2.6 80 16:37 19.01.2020
538 Clouds 2 1033 59 10000 2.6 80 16:19 19.01.2020
539 Clouds 2 1033 59 10000 2.6 60 15:55 19.01.2020
540 Clouds 2 1033 59 10000 3.1 40 15:36 19.01.2020
541 Clouds 3 1033 59 10000 3.1 40 15:18 19.01.2020
542 Clouds 3 1032 55 10000 3.6 20 14:41 19.01.2020
543 Clouds 3 1032 55 10000 3.6 20 14:41 19.01.2020
544 Clouds 3 1032 51 10000 4.1 60 14:21 19.01.2020
545 Clouds 3 1032 55 10000 4.1 50 13:59 19.01.2020
546 Clouds 3 1032 55 10000 4.1 50 13:40 19.01.2020
547 Clouds 3 1032 59 10000 3.1 50 13:22 19.01.2020
548 Clouds 3 1032 59 10000 3.1 50 13:22 19.01.2020
549 Clouds 3 1032 60 10000 2.6 60 12:59 19.01.2020
550 Clouds 3 1032 60 10000 2.6 60 12:41 19.01.2020
551 Clouds 3 1032 69 10000 2.6 30 12:21 19.01.2020
552 Clouds 2 1032 74 10000 1.5 0 11:57 19.01.2020
553 Clouds 2 1032 80 10000 1 260 11:38 19.01.2020
554 Clouds 1 1032 80 10000 1 260 11:18 19.01.2020
555 Clouds 0 1032 100 10000 1 140 10:41 19.01.2020
556 Clouds 0 1031 100 10000 1.5 140 10:21 19.01.2020
557 Clouds -1 1031 100 10000 4.03 51 09:58 19.01.2020
558 Clouds -1 1031 100 10000 4.03 51 09:39 19.01.2020
559 Clouds -2 1031 92 10000 1 0 09:21 19.01.2020
560 Clouds -2 1031 92 10000 0.5 0 08:56 19.01.2020
561 Clouds -2 1030 92 10000 4.03 51 08:38 19.01.2020
562 Clouds -2 1030 92 10000 3.04 50 08:19 19.01.2020
563 Fog -2 1030 100 10000 1 0 07:29 19.01.2020
564 Clouds -2 1029 92 10000 3.04 50 06:55 19.01.2020
565 Clouds -2 1029 100 10000 3.04 50 06:23 19.01.2020
566 Fog -1 1029 92 8000 0.5 120 04:19 19.01.2020
567 Clouds -1 1028 92 10000 0.5 0 02:35 19.01.2020
568 Clouds -1 1027 92 10000 1 100 01:58 19.01.2020
569 Clouds -1 1027 100 7000 0.5 0 01:22 19.01.2020
570 Clouds -1 1027 100 10000 0.5 0 00:45 19.01.2020
571 Clouds -1 1027 92 10000 1.5 320 00:26 19.01.2020
572 Clouds -1 1027 92 10000 1.5 320 23:55 18.01.2020
573 Clouds 0 1027 92 10000 0.5 0 23:36 18.01.2020
574 Clear 0 1027 92 10000 0.5 0 23:18 18.01.2020
575 Clouds 0 1027 92 10000 0.5 0 22:54 18.01.2020
576 Clouds 0 1027 92 10000 0.5 0 22:54 18.01.2020
577 Clouds 0 1027 86 10000 0.5 0 22:36 18.01.2020
578 Clouds 0 1027 86 10000 0.5 0 22:36 18.01.2020
579 Clouds 0 1027 86 10000 0.5 0 22:18 18.01.2020
580 Clouds 1 1027 94 10000 0.5 0 21:55 18.01.2020
581 Clouds 0 1027 86 10000 0.5 0 21:36 18.01.2020
582 Clouds 1 1027 86 10000 0.5 0 21:18 18.01.2020
583 Clouds 1 1027 86 10000 0.5 0 20:41 18.01.2020
584 Clouds 2 1027 86 10000 0.5 0 20:19 18.01.2020
585 Clouds 2 1027 86 10000 1 300 19:44 18.01.2020
586 Clouds 2 1027 86 10000 0.5 0 19:25 18.01.2020
587 Clouds 2 1027 86 10000 0.5 0 18:56 18.01.2020
588 Clouds 1 1027 86 10000 1 0 18:37 18.01.2020
589 Clouds 2 1027 86 10000 1 0 18:19 18.01.2020
590 Clouds 2 1026 74 10000 1 0 17:41 18.01.2020
591 Clouds 4 1026 69 10000 2.1 250 17:21 18.01.2020
592 Clouds 4 1026 60 10000 2.6 280 16:57 18.01.2020
593 Clouds 4 1025 73 10000 2.1 280 16:38 18.01.2020
594 Clouds 5 1026 56 10000 2.6 300 16:19 18.01.2020
595 Clouds 5 1026 56 10000 2.1 320 15:47 18.01.2020
596 Clouds 5 1026 56 10000 3.1 300 15:26 18.01.2020
597 Clouds 5 1026 56 10000 3.1 300 15:26 18.01.2020
598 Clouds 5 1026 60 10000 2.1 310 15:00 18.01.2020
599 Clouds 5 1026 60 10000 2.1 310 14:41 18.01.2020
600 Clouds 6 1027 60 10000 2.6 300 14:19 18.01.2020
601 Clouds 6 1027 60 10000 2.6 300 14:19 18.01.2020
602 Clouds 5 1027 65 10000 2.6 240 13:57 18.01.2020
603 Clouds 6 1027 71 10000 1.5 0 13:36 18.01.2020
604 Clouds 6 1027 71 10000 1.5 0 13:36 18.01.2020
605 Clouds 5 1027 71 10000 1.5 0 13:18 18.01.2020
606 Clouds 5 1028 70 10000 1 0 12:41 18.01.2020
607 Clear 5 1028 70 10000 1 0 12:22 18.01.2020
608 Clouds 5 1028 80 10000 1 0 11:57 18.01.2020
609 Clear 4 1028 93 10000 1.5 130 11:38 18.01.2020
610 Clear 4 1028 93 10000 1.5 130 11:38 18.01.2020
611 Clouds 4 1028 93 10000 1.5 130 11:19 18.01.2020
612 Clouds 3 1028 93 10000 1 0 10:43 18.01.2020
613 Clouds 2 1028 100 10000 1 170 10:21 18.01.2020
614 Clouds 2 1027 86 10000 0.5 0 09:56 18.01.2020
615 Clouds 2 1026 92 10000 0.5 0 09:38 18.01.2020
616 Clouds 1 1028 100 10000 2.1 100 09:18 18.01.2020
617 Clouds 1 1028 100 10000 0.5 0 08:42 18.01.2020
618 Clouds 2 1028 94 10000 0.5 0 08:20 18.01.2020
619 Clouds 2 1028 94 10000 0.5 0 08:20 18.01.2020
620 Clouds 2 1028 92 10000 0.5 0 07:58 18.01.2020
621 Clouds 2 1027 92 10000 1 0 07:37 18.01.2020
622 Clouds 2 1027 100 10000 0.5 0 06:50 18.01.2020
623 Clouds 3 1027 93 10000 1.5 0 06:27 18.01.2020
624 Clouds 3 1027 93 10000 1 0 05:45 18.01.2020
625 Rain 3 1027 93 10000 1.5 0 04:24 18.01.2020
626 Rain 4 1026 86 10000 2.6 240 02:33 18.01.2020
627 Rain 4 1025 80 10000 3.1 240 01:36 18.01.2020
628 Drizzle 4 1025 86 10000 3.6 240 00:39 18.01.2020
629 Rain 4 1025 93 10000 1.5 0 00:39 18.01.2020
630 Drizzle 4 1025 86 10000 3.6 240 00:19 18.01.2020
631 Rain 4 1025 86 10000 4.1 250 23:58 17.01.2020
632 Rain 4 1025 86 10000 4.1 250 23:38 17.01.2020
633 Rain 4 1024 100 8000 1 0 23:18 17.01.2020
634 Rain 4 1024 93 2600 1.5 90 22:41 17.01.2020
635 Rain 4 1024 93 2600 1.5 90 22:19 17.01.2020
636 Rain 4 1024 100 5000 1.5 310 21:54 17.01.2020
637 Rain 4 1023 100 8000 1 0 21:36 17.01.2020
638 Rain 4 1023 100 8000 1 0 21:18 17.01.2020
639 Rain 4 1023 100 9000 2.6 130 20:41 17.01.2020
640 Rain 4 1023 100 9000 2.6 130 20:21 17.01.2020
641 Rain 4 1023 100 10000 2.1 130 19:57 17.01.2020
642 Rain 4 1023 100 10000 2.1 130 19:38 17.01.2020
643 Drizzle 4 1022 100 10000 2.6 140 19:20 17.01.2020
644 -273 0 0 0 0 0 18:58 17.01.2020
645 Rain 4 1022 93 10000 1.5 70 18:38 17.01.2020
646 Rain 4 1022 93 10000 1.5 70 18:20 17.01.2020
647 Rain 5 1021 81 9000 5.1 250 17:40 17.01.2020
648 Rain 5 1021 81 9000 5.1 250 17:21 17.01.2020
649 Rain 5 1021 87 9000 4.6 230 16:57 17.01.2020
650 Rain 5 1021 87 9000 4.6 230 16:57 17.01.2020
651 Rain 5 1021 81 5000 5.7 270 16:38 17.01.2020
652 Rain 5 1021 81 5000 5.7 270 16:18 17.01.2020
653 Rain 5 1021 80 8000 4.1 280 15:44 17.01.2020
654 Drizzle 5 1020 75 10000 4.1 320 15:26 17.01.2020
655 Rain 5 1020 92 10000 2.1 340 14:44 17.01.2020
656 Clouds 5 1021 75 10000 1.5 330 14:26 17.01.2020
657 Clouds 6 1021 75 10000 1 270 13:58 17.01.2020
658 Clouds 6 1021 75 10000 0.5 0 13:37 17.01.2020
659 Clouds 6 1021 75 10000 0.5 0 13:18 17.01.2020
660 Clouds 6 1021 75 10000 2.1 310 12:42 17.01.2020
661 Clouds 5 1022 80 10000 1.5 120 12:21 17.01.2020
662 Clouds 4 1023 86 10000 1.5 250 11:38 17.01.2020
663 Clouds 4 1023 86 10000 1.5 250 11:18 17.01.2020
664 Clouds 3 1023 61 10000 1.5 180 10:44 17.01.2020
665 Clear 2 1023 92 10000 1 0 10:23 17.01.2020
666 Clear 2 1023 100 10000 1.5 0 09:58 17.01.2020
667 Clear 1 1023 100 10000 1.5 0 09:39 17.01.2020
668 Mist 1 1024 100 2500 1 270 09:39 17.01.2020
669 Clear 1 1023 92 10000 1 0 09:19 17.01.2020
670 Clear 0 1023 92 10000 1 320 08:43 17.01.2020
671 Clear -1 1023 92 10000 0.5 0 08:25 17.01.2020
672 Clear -1 1023 92 10000 0.5 0 07:54 17.01.2020
673 Clear -1 1023 100 10000 0.5 0 07:31 17.01.2020
674 Clear 0 1023 100 10000 1.5 120 06:58 17.01.2020
675 Clear 0 1023 100 10000 1.5 120 06:58 17.01.2020
676 Clear -1 1023 100 10000 1.5 120 06:40 17.01.2020
677 Clear -1 1023 100 10000 0.5 0 05:56 17.01.2020
678 Clear 0 1025 80 0 0.45 165 03:39 17.01.2020
679 Clear 1 930 53 0 1.08 157 02:52 17.01.2020
680 Clear 1 930 53 0 1.23 190 01:47 17.01.2020
681 Clear 1 1025 81 0 1.23 190 01:29 17.01.2020
682 Clear 2 1025 79 0 1.26 196 00:50 17.01.2020
683 Clear 1 1026 78 0 1.26 196 00:26 17.01.2020
684 Clear 1 1025 100 10000 0.5 130 23:44 16.01.2020
685 Clear 1 1025 100 10000 0.5 130 23:26 16.01.2020
686 Clear 1 1025 92 9000 0.5 0 22:57 16.01.2020
687 Clear 1 1026 92 10000 1 0 22:39 16.01.2020
688 Clear 1 1026 92 10000 1 0 22:20 16.01.2020
689 Clear 1 1026 88 10000 0.5 0 21:55 16.01.2020
690 Clear 2 1026 92 10000 0.5 0 21:36 16.01.2020
691 Clear 2 1026 92 10000 0.5 0 21:18 16.01.2020
692 Clear 2 1026 88 10000 1.5 140 20:41 16.01.2020
693 Clear 3 1026 100 10000 0.5 250 20:21 16.01.2020
694 Clear 3 1026 88 10000 1 0 19:59 16.01.2020
695 Clear 3 1026 88 10000 1 0 19:41 16.01.2020
696 Clear 3 1026 86 10000 0.5 0 19:22 16.01.2020
697 Clear 3 1026 86 10000 1 0 18:57 16.01.2020
698 Clear 4 1026 80 10000 0.5 0 18:39 16.01.2020
699 Clear 4 1026 80 10000 0.5 0 18:20 16.01.2020
700 Clear 5 1026 88 10000 1 0 17:59 16.01.2020
701 Clear 5 1026 88 10000 1 0 17:40 16.01.2020
702 Clear 6 1026 65 10000 1.5 0 17:20 16.01.2020
703 Clear 8 1025 61 10000 2.6 250 16:42 16.01.2020
704 Clear 8 1025 57 10000 2.1 240 16:24 16.01.2020
705 Clear 9 1025 50 10000 2.1 270 15:59 16.01.2020
706 Clear 9 1025 50 10000 2.1 270 15:40 16.01.2020
707 Clear 9 1026 53 10000 1.5 300 15:21 16.01.2020
708 Clear 9 1026 53 10000 1.5 310 14:45 16.01.2020
709 Clear 9 1026 61 10000 1.5 260 14:24 16.01.2020
710 Clear 9 1027 61 10000 0.5 0 13:56 16.01.2020
711 Clear 9 1027 61 10000 1.5 0 13:37 16.01.2020
712 Clear 9 1027 60 10000 1.5 0 13:19 16.01.2020
713 Clear 8 1027 60 10000 1 0 12:43 16.01.2020
714 Clear 8 1028 60 10000 1.5 0 12:25 16.01.2020
715 Clear 6 1029 80 10000 1 210 11:43 16.01.2020
716 Clear 5 1029 80 10000 1 210 11:25 16.01.2020
717 Clear 4 1029 80 10000 1 260 10:59 16.01.2020
718 Clear 3 1029 86 10000 1 120 10:38 16.01.2020
719 Clear 3 1029 86 10000 1 120 10:20 16.01.2020
720 Clear 2 1029 92 10000 2.1 170 09:56 16.01.2020
721 Clear 2 1029 86 10000 3.6 130 09:37 16.01.2020
722 Clear 1 1029 86 10000 3.6 130 09:19 16.01.2020
723 Clear 1 1029 86 10000 2.1 100 08:48 16.01.2020
724 Clear 1 1028 86 10000 3.6 130 08:29 16.01.2020
725 Clouds 1 1029 92 10000 2.1 150 07:44 16.01.2020
726 Clouds 1 1029 92 10000 1.5 170 07:25 16.01.2020
727 Clouds 1 1028 86 10000 1.5 0 06:59 16.01.2020
728 Clouds 2 1028 92 10000 2.1 100 06:37 16.01.2020
729 Clouds 2 1028 78 10000 3.1 110 05:58 16.01.2020
730 Clouds 2 1028 78 10000 1 0 05:39 16.01.2020
731 Clouds 3 1029 86 10000 3.1 110 04:37 16.01.2020
732 Clouds 3 1029 86 10000 3.1 110 04:37 16.01.2020
733 Clouds 3 1029 86 10000 1.5 130 03:28 16.01.2020
734 Clouds 3 1028 86 10000 1.5 140 02:36 16.01.2020
735 Clouds 3 1028 92 10000 1.5 160 00:48 16.01.2020
736 Clouds 3 1028 92 10000 1.75 162 00:24 16.01.2020
737 Clouds 3 1028 92 10000 1 0 23:48 15.01.2020
738 Clouds 3 1027 86 10000 1 0 23:23 15.01.2020
739 Clouds 3 1027 83 10000 1 0 22:57 15.01.2020
740 Clouds 3 1027 83 10000 1 0 22:57 15.01.2020
741 Clouds 3 1027 83 10000 1 0 22:39 15.01.2020
742 Clouds 3 1026 83 10000 2.1 210 22:19 15.01.2020
743 Clouds 3 1026 83 10000 1 0 21:57 15.01.2020
744 Clouds 3 1026 83 10000 1.5 0 21:37 15.01.2020
745 Clouds 3 1026 83 10000 1.5 0 21:19 15.01.2020
746 Clouds 4 1025 83 10000 1 0 20:57 15.01.2020
747 Clouds 4 1025 83 10000 1 0 20:39 15.01.2020
748 Clouds 4 1025 80 10000 1 0 20:20 15.01.2020
749 Clear 4 1025 80 10000 1.5 140 19:55 15.01.2020
750 Clear 5 1025 74 10000 2.1 70 19:37 15.01.2020
751 Clear 5 1025 74 10000 2.1 70 19:19 15.01.2020
752 Clear 6 1024 74 10000 1.5 0 18:56 15.01.2020
753 Clear 6 1023 69 10000 2.1 90 18:38 15.01.2020
754 Clear 6 1023 69 10000 2.1 90 18:38 15.01.2020
755 Clear 6 1023 69 10000 2.1 90 18:19 15.01.2020
756 Clear 6 1023 65 10000 1 0 17:56 15.01.2020
757 Clear 7 1022 86 10000 3.6 110 17:37 15.01.2020
758 Clear 8 1022 71 10000 3.6 110 17:18 15.01.2020
759 Clear 9 1022 53 10000 3.6 150 16:40 15.01.2020
760 Clear 9 1022 53 10000 3.6 150 16:22 15.01.2020
761 Clear 9 1022 50 10000 4.1 0 15:57 15.01.2020
762 Clear 9 1022 50 10000 4.1 0 15:39 15.01.2020
763 Clear 9 1021 71 10000 3.1 170 15:19 15.01.2020
764 Clear 9 1021 71 10000 3.1 200 14:43 15.01.2020
765 Clear 9 1021 50 10000 1.5 150 14:20 15.01.2020
766 Clear 9 1021 49 10000 1 0 13:46 15.01.2020
767 Clear 9 1021 59 10000 2.1 130 13:27 15.01.2020
768 Clear 8 1021 56 10000 1.5 140 12:59 15.01.2020
769 Clear 8 1021 56 10000 1.5 140 12:40 15.01.2020
770 Clear 7 1021 69 10000 0.5 0 12:20 15.01.2020
771 Clear 6 1021 74 10000 1 0 11:57 15.01.2020
772 Clear 5 1021 80 10000 1 0 11:37 15.01.2020
773 Clear 4 1021 80 10000 1 0 11:19 15.01.2020
774 Clear 3 1021 80 10000 1 0 10:43 15.01.2020
775 Clear 3 1021 64 10000 1 0 10:25 15.01.2020
776 Clear 1 1021 86 10000 1 0 09:45 15.01.2020
777 Clear 0 1021 92 10000 1.5 0 09:26 15.01.2020
778 Clear 0 1021 92 10000 0.5 0 08:58 15.01.2020
779 Clear 0 1020 92 10000 0.5 0 08:39 15.01.2020
780 Clear -1 1020 92 10000 0.5 0 08:21 15.01.2020
781 Clear 0 1020 92 10000 1 130 07:51 15.01.2020
782 Clear -1 1020 92 10000 1 120 07:31 15.01.2020
783 Clear 0 1020 92 10000 0.95 171 06:46 15.01.2020
784 Clear 0 1020 92 10000 0.95 171 06:20 15.01.2020
785 Clear 0 1020 86 10000 0.5 0 04:44 15.01.2020
786 Clear 1 1020 92 10000 0.5 0 02:38 15.01.2020
787 Clouds 1 1020 86 10000 1.5 110 01:28 15.01.2020
788 Clouds 1 1020 92 10000 0.5 0 00:46 15.01.2020
789 Clouds 1 1020 86 10000 0.5 0 00:27 15.01.2020
790 Clouds 2 1020 92 10000 0.5 0 23:56 14.01.2020
791 Clouds 2 1019 92 10000 0.5 0 23:38 14.01.2020
792 Clouds 2 1019 92 10000 0.5 0 23:19 14.01.2020
793 Clouds 2 1020 86 10000 1.5 140 22:41 14.01.2020
794 Clouds 2 1020 86 10000 1.5 140 22:19 14.01.2020
795 Clouds 2 1020 86 10000 0.5 0 21:58 14.01.2020
796 Clouds 2 1020 67 10000 1 0 21:40 14.01.2020
797 Clouds 2 1020 67 10000 1 0 21:21 14.01.2020
798 Clouds 2 1020 67 10000 1 0 21:21 14.01.2020
799 Clouds 3 1020 67 10000 3.1 110 20:59 14.01.2020
800 Clouds 3 1020 67 10000 3.1 110 20:40 14.01.2020
801 Clouds 4 1019 80 10000 3.6 100 20:20 14.01.2020
802 Clouds 4 1019 80 10000 3.6 100 19:56 14.01.2020
803 Clouds 4 1019 74 10000 3.6 110 19:38 14.01.2020
804 Clouds 4 1019 74 10000 3.6 110 19:18 14.01.2020
805 Clouds 4 1019 80 10000 3.1 130 18:55 14.01.2020
806 Clouds 4 1019 74 10000 1.5 110 18:37 14.01.2020
807 Clouds 5 1019 74 10000 1.5 110 18:18 14.01.2020
808 Clouds 5 1019 69 10000 1 0 17:38 14.01.2020
809 Clouds 6 1019 69 10000 1 0 17:19 14.01.2020
810 Clouds 6 1019 60 10000 2.6 120 16:55 14.01.2020
811 Clouds 7 1019 52 10000 3.6 140 16:37 14.01.2020
812 Clouds 7 1019 52 10000 3.6 140 16:19 14.01.2020
813 Clouds 7 1019 52 10000 4.1 140 15:42 14.01.2020
814 Clouds 8 1018 49 10000 3.6 140 15:19 14.01.2020
815 Clouds 8 1019 45 10000 3.1 150 14:47 14.01.2020
816 Clouds 8 1019 52 10000 2.1 150 14:23 14.01.2020
817 Clouds 7 1019 52 10000 2.1 140 13:59 14.01.2020
818 Clouds 7 1019 52 10000 2.1 140 13:40 14.01.2020
819 Clouds 7 1019 47 10000 1.5 150 13:19 14.01.2020
820 Clouds 6 1020 47 10000 1.5 0 12:42 14.01.2020
821 Clouds 6 1020 74 10000 2.1 120 12:23 14.01.2020
822 Clouds 5 1020 80 10000 1.5 150 11:57 14.01.2020
823 Clouds 4 1020 47 10000 1.5 160 11:39 14.01.2020
824 Clouds 3 1020 50 10000 1.5 160 11:20 14.01.2020
825 Clouds 2 1020 92 10000 1 120 10:56 14.01.2020
826 Clouds 1 1019 92 10000 1 0 10:37 14.01.2020
827 Clouds 1 1019 92 10000 1 0 10:19 14.01.2020
828 Clouds 0 1019 86 10000 1 0 09:42 14.01.2020
829 Clouds 0 1019 92 10000 1 0 09:23 14.01.2020
830 Clouds -1 1019 85 10000 2.1 110 08:58 14.01.2020
831 Clouds -1 1019 85 10000 2.1 110 08:39 14.01.2020
832 Clouds -2 1019 92 10000 1.5 90 08:20 14.01.2020
833 Clouds -2 1019 92 10000 1.5 80 07:46 14.01.2020
834 Fog -1 1019 100 50 0.5 280 07:18 14.01.2020
835 Clouds -1 1019 92 10000 0.93 186 06:42 14.01.2020
836 Clouds -1 1018 100 10000 0.5 0 05:57 14.01.2020
837 Fog -1 1019 100 50 1.5 250 04:49 14.01.2020
838 Clouds -1 1019 85 10000 0.5 0 03:45 14.01.2020
839 Clouds -1 1019 92 10000 0.5 0 02:32 14.01.2020
840 Clouds -1 1019 100 10000 1.5 0 01:19 14.01.2020
841 Clouds -1 1019 100 10000 1.5 0 00:47 14.01.2020
842 Mist -1 1020 100 1700 0.66 197 00:21 14.01.2020
843 Mist -1 1020 100 1700 0.66 197 00:21 14.01.2020
844 Fog 0 1020 92 100 0.5 0 23:42 13.01.2020
845 Clouds -1 1019 92 10000 0.5 0 23:19 13.01.2020
846 Mist 0 1019 100 3300 1 290 22:56 13.01.2020
847 Mist 0 1019 100 2200 0.5 150 22:37 13.01.2020
848 Mist 0 1019 100 2200 0.5 150 22:19 13.01.2020
849 Clouds 0 1019 86 10000 0.5 0 21:55 13.01.2020
850 Clouds 0 1019 92 10000 1.5 0 21:36 13.01.2020
851 Clouds 0 1019 92 10000 1.5 0 21:18 13.01.2020
852 Clouds 0 1020 92 10000 0.5 0 20:42 13.01.2020
853 Clouds 1 1020 92 10000 1.5 0 20:23 13.01.2020
854 Clouds 1 1020 92 10000 1.5 0 20:23 13.01.2020
855 Clouds 1 1020 92 10000 1.5 0 20:00 13.01.2020
856 Clouds 1 1020 92 10000 1.5 0 19:41 13.01.2020
857 Clouds 1 1020 86 10000 1 0 19:20 13.01.2020
858 Clouds 1 1020 86 10000 1 0 18:58 13.01.2020
859 Clouds 1 1020 73 10000 0.5 0 18:38 13.01.2020
860 Clouds 2 1020 73 10000 0.5 0 18:19 13.01.2020
861 Clouds 2 1020 73 10000 0.5 0 18:19 13.01.2020
862 Clouds 2 1020 74 10000 1 300 17:58 13.01.2020
863 Clouds 2 1020 74 10000 1 300 17:38 13.01.2020
864 Clouds 3 1019 80 10000 1.5 320 17:20 13.01.2020
865 Clouds 4 1021 71 0 0.89 314 16:42 13.01.2020
866 Clouds 5 1021 69 0 0.68 228 16:22 13.01.2020
867 Clouds 6 926 43 0 0.68 228 15:58 13.01.2020
868 Clouds 6 1021 66 0 0.68 228 15:40 13.01.2020
869 Clouds 6 1021 67 0 0.89 309 15:20 13.01.2020
870 Clouds 5 1022 70 0 1.79 323 14:43 13.01.2020
871 Clouds 5 927 45 0 0.68 228 14:24 13.01.2020
872 Clouds 5 927 44 0 0.82 306 13:59 13.01.2020
873 Clouds 4 1022 68 0 0.89 211 13:40 13.01.2020
874 Clouds 4 1023 70 0 0.82 306 13:21 13.01.2020
875 Clouds 4 1023 73 0 0.68 290 12:57 13.01.2020
876 Clouds 4 1024 80 10000 1 0 12:39 13.01.2020
877 -273 0 0 0 0 0 12:21 13.01.2020
878 Clouds 3 1024 80 10000 1.5 0 11:39 13.01.2020
879 Clouds 2 1024 80 10000 1.5 0 11:20 13.01.2020
880 Clouds 1 1024 92 10000 1.5 140 10:57 13.01.2020
881 Clouds 1 1024 92 10000 1.5 150 10:39 13.01.2020
882 Clouds 1 1024 92 10000 1.5 150 10:39 13.01.2020
883 Clouds 1 1024 92 10000 1.5 150 10:20 13.01.2020
884 Clouds 0 1024 100 10000 1 160 09:58 13.01.2020
885 Clouds 0 1024 92 10000 1.04 185 09:38 13.01.2020
886 Clouds 0 1024 92 10000 1.04 185 09:19 13.01.2020
887 Clouds 0 1024 92 10000 1.04 185 08:41 13.01.2020
888 Clouds -1 1024 92 10000 0.5 0 08:20 13.01.2020
889 Clouds -1 1024 100 10000 0.5 0 07:48 13.01.2020
890 Clouds -1 1024 100 10000 1.5 140 07:27 13.01.2020
891 Clouds -1 1025 92 10000 0.5 0 06:43 13.01.2020
892 Clouds -1 1025 92 10000 0.5 0 06:21 13.01.2020
893 Clouds -1 1025 92 10000 0.5 0 05:27 13.01.2020
894 Clouds -1 1026 100 10000 0.5 0 03:55 13.01.2020
895 Clouds -1 1026 92 10000 0.99 173 03:24 13.01.2020
896 Clouds -1 1026 92 10000 1 0 02:45 13.01.2020
897 Clouds -1 1026 100 10000 0.5 90 02:26 13.01.2020
898 Clouds -1 1027 92 10000 0.5 0 01:21 13.01.2020
899 Clouds 0 1027 92 10000 1 0 00:41 13.01.2020
900 Clouds 0 1027 92 10000 0.5 0 00:23 13.01.2020
901 Clouds 0 1027 92 10000 2.1 160 23:54 12.01.2020
902 Clouds 0 1028 92 10000 0.5 0 23:36 12.01.2020
903 Clouds 0 1028 92 10000 0.5 0 23:18 12.01.2020
904 Clouds 0 1028 92 10000 1.5 0 22:41 12.01.2020
905 Clouds 0 1028 92 10000 1.5 0 22:23 12.01.2020
906 Clouds 0 1028 86 10000 1.5 140 21:56 12.01.2020
907 Clouds 0 1028 72 10000 1.5 160 21:38 12.01.2020
908 Clouds 0 1028 72 10000 1.5 160 21:38 12.01.2020
909 Clouds 1 1028 72 10000 1.5 160 21:19 12.01.2020
910 Clouds 1 1028 86 10000 1.5 0 20:56 12.01.2020
911 Clouds 1 1028 86 10000 1.5 0 20:56 12.01.2020
912 Clouds 1 1028 92 10000 0.5 0 20:38 12.01.2020
913 Clouds 1 1028 92 10000 0.5 0 20:20 12.01.2020
914 Clouds 1 1028 72 10000 1.5 0 19:56 12.01.2020
915 Clouds 1 1028 72 10000 2.6 90 19:37 12.01.2020
916 Clouds 1 1028 72 10000 2.6 90 19:18 12.01.2020
917 Clouds 2 1028 80 10000 3.6 100 18:57 12.01.2020
918 Clouds 2 1027 80 10000 3.6 120 18:39 12.01.2020
919 Clouds 2 1027 80 10000 3.6 120 18:21 12.01.2020
920 Clouds 3 1027 80 10000 2.1 100 17:43 12.01.2020
921 Clouds 4 1027 74 10000 1 0 17:23 12.01.2020
922 Clouds 4 1027 74 10000 1 0 17:23 12.01.2020
923 Clouds 4 1027 60 10000 2.6 140 16:59 12.01.2020
924 Clouds 5 1027 60 10000 2.6 140 16:40 12.01.2020
925 Clouds 5 1027 60 10000 1.5 150 16:21 12.01.2020
926 Clouds 6 1027 56 10000 2.1 160 15:58 12.01.2020
927 Clouds 6 1027 70 10000 2.1 170 15:39 12.01.2020
928 Clouds 6 1027 70 10000 2.1 170 15:21 12.01.2020
929 Clouds 6 1027 70 10000 2.1 160 14:43 12.01.2020
930 Clouds 6 1028 60 10000 1.5 0 14:25 12.01.2020
931 Clouds 5 1028 58 10000 1.5 150 13:57 12.01.2020
932 Clouds 5 1028 58 10000 1.5 150 13:57 12.01.2020
933 Clouds 5 1028 58 10000 1.5 150 13:39 12.01.2020
934 Clouds 5 1028 58 10000 1 0 13:20 12.01.2020
935 Clouds 4 1029 69 10000 1.5 180 12:57 12.01.2020
936 Clouds 4 1029 56 10000 1.5 150 12:38 12.01.2020
937 Clouds 4 1029 56 10000 1.5 150 12:19 12.01.2020
938 Clouds 3 1029 80 10000 1 0 11:42 12.01.2020
939 Clouds 2 1029 56 10000 1 0 11:22 12.01.2020
940 Clouds 1 1029 92 10000 2.1 170 10:57 12.01.2020
941 Clouds 1 1029 92 10000 2.1 170 10:39 12.01.2020
942 Clouds 1 1029 92 10000 2.1 170 10:39 12.01.2020
943 Clouds 0 1029 100 10000 2.1 160 10:20 12.01.2020
944 Clouds 0 1029 92 10000 2.1 140 09:42 12.01.2020
945 Clouds 0 1029 92 10000 2.1 130 09:23 12.01.2020
946 Clouds -1 1029 92 10000 1.5 130 08:48 12.01.2020
947 Clouds -1 1029 92 10000 2.6 140 08:24 12.01.2020
948 Clouds -1 1029 100 10000 1.5 150 07:56 12.01.2020
949 Clouds -1 1028 92 10000 2.1 130 07:37 12.01.2020
950 Clouds -1 1028 92 10000 2.1 130 07:19 12.01.2020
951 Clouds -1 1028 100 10000 1.5 150 06:40 12.01.2020
952 Clouds -1 1028 100 5000 0.5 0 05:58 12.01.2020
953 Fog -1 1029 100 150 0.5 0 05:18 12.01.2020
954 Clear -1 1029 100 6000 0.5 0 03:44 12.01.2020
955 Clouds -1 1029 92 5000 0.5 0 02:52 12.01.2020
956 Fog -1 1029 100 50 1.04 216 02:27 12.01.2020
957 Fog 0 1030 92 250 0.82 180 01:35 12.01.2020
958 Fog -1 1029 100 2200 0.5 0 00:57 12.01.2020
959 Clear 0 1030 92 7000 0.5 0 00:37 12.01.2020
960 Clear 0 1030 92 7000 0.5 0 00:18 12.01.2020
961 Mist 0 1030 100 2100 0.5 180 23:41 11.01.2020
962 Fog 0 1030 100 700 0.64 119 23:19 11.01.2020
963 Clear 0 1030 92 6000 1 150 22:56 11.01.2020
964 Clear 0 1030 100 9000 0.5 210 22:38 11.01.2020
965 Clear 1 1030 100 9000 0.5 210 22:20 11.01.2020
966 Clear 1 1030 94 10000 0.5 240 21:54 11.01.2020
967 Clear 0 1030 92 8000 0.5 0 21:36 11.01.2020
968 Clear 1 1030 92 8000 0.5 0 21:18 11.01.2020
969 Clear 1 1030 94 10000 0.5 180 20:39 11.01.2020
970 Clouds 2 1030 100 8000 0.5 0 20:20 11.01.2020
971 Clouds 2 1030 100 10000 1 120 19:57 11.01.2020
972 Clouds 2 1030 95 10000 0.5 300 19:38 11.01.2020
973 Clouds 2 1030 95 10000 0.5 300 19:20 11.01.2020
974 Clouds 2 1030 95 10000 0.79 46 18:56 11.01.2020
975 Clouds 3 1030 95 10000 1.5 250 18:37 11.01.2020
976 Clouds 3 1030 95 10000 1.5 250 18:19 11.01.2020
977 Clouds 4 1030 75 10000 1 0 17:57 11.01.2020
978 Clouds 4 1030 75 10000 1 0 17:39 11.01.2020
979 Clouds 5 1030 70 10000 2.1 20 17:18 11.01.2020
980 Clouds 6 1030 65 10000 1.5 40 16:44 11.01.2020
981 Clouds 6 1030 70 10000 2.6 360 16:25 11.01.2020
982 Clouds 6 1030 65 10000 2.1 10 15:56 11.01.2020
983 Clouds 6 1030 65 10000 1 0 15:38 11.01.2020
984 Clouds 6 1030 65 10000 1 0 15:20 11.01.2020
985 Clouds 7 1030 65 10000 3.1 320 14:46 11.01.2020
986 Clouds 7 1030 65 10000 3.1 320 14:25 11.01.2020
987 Clouds 7 1031 65 10000 3.6 250 13:57 11.01.2020
988 Clouds 7 1031 65 10000 2.1 240 13:38 11.01.2020
989 Clouds 7 1031 65 10000 2.1 240 13:20 11.01.2020
990 Clouds 7 1031 70 10000 1.5 270 12:55 11.01.2020
991 Clouds 6 1031 80 10000 0.5 0 12:36 11.01.2020
992 Clouds 6 1031 80 10000 0.5 0 12:18 11.01.2020
993 Clouds 5 1031 86 10000 0.5 0 11:42 11.01.2020
994 Clouds 4 1032 93 10000 1 0 11:23 11.01.2020
995 Clear 4 1032 100 10000 1 140 10:46 11.01.2020
996 Clear 3 1032 91 10000 1.33 57 10:24 11.01.2020
997 Fog 3 1032 91 10000 1 0 09:43 11.01.2020
998 Fog 2 1032 100 8000 0.5 0 09:21 11.01.2020
999 Fog 2 1032 100 10000 1 120 08:43 11.01.2020
1000 Fog 2 1032 100 10000 1.48 50 08:24 11.01.2020
1001 Fog 2 1032 100 10000 1 0 07:59 11.01.2020
1002 Clouds 2 1031 100 10000 1.5 150 07:41 11.01.2020
1003 Clouds 2 1031 100 10000 1.5 150 07:22 11.01.2020
1004 Clouds 2 1031 97 10000 1 320 06:42 11.01.2020
1005 Clouds 3 1031 100 10000 1 0 05:22 11.01.2020
1006 Clouds 3 1032 93 10000 1 130 04:38 11.01.2020
1007 Clouds 3 1032 93 10000 1 130 04:20 11.01.2020
1008 Rain 3 1031 93 10000 1.5 150 02:46 11.01.2020
1009 Clouds 4 1030 93 10000 0.5 0 01:45 11.01.2020
1010 Clouds 4 1030 93 10000 0.5 0 01:25 11.01.2020
1011 Clouds 4 1030 86 10000 0.88 149 00:52 11.01.2020
1012 Clouds 4 1030 86 10000 1 0 00:24 11.01.2020
1013 Clouds 4 1030 86 10000 0.5 0 23:58 10.01.2020
1014 Clouds 4 1030 93 10000 0.5 0 23:38 10.01.2020
1015 Clouds 4 1030 93 10000 0.5 0 23:20 10.01.2020
1016 Clouds 4 1029 93 10000 1 0 22:41 10.01.2020
1017 Clouds 4 1029 86 10000 1 0 22:22 10.01.2020
1018 Clouds 5 1029 93 10000 1 120 21:58 10.01.2020
1019 Clouds 5 1029 93 10000 1 120 21:40 10.01.2020
1020 Clouds 5 1029 93 10000 0.5 0 21:20 10.01.2020
1021 Clouds 5 1029 93 10000 0.5 0 21:20 10.01.2020
1022 Clouds 5 1028 86 10000 1 280 20:56 10.01.2020
1023 Clouds 5 1028 86 10000 0.5 0 20:38 10.01.2020
1024 Clouds 5 1028 86 10000 0.5 0 20:19 10.01.2020
1025 Clouds 5 1027 80 10000 2.1 200 19:40 10.01.2020
1026 Clouds 5 1027 86 10000 1.5 60 19:20 10.01.2020
1027 Clouds 6 1027 75 10000 1.5 0 18:54 10.01.2020
1028 Clouds 6 1027 80 10000 1 20 18:36 10.01.2020
1029 Clouds 6 1027 80 10000 1 20 18:18 10.01.2020
1030 Clouds 6 1027 80 10000 1 20 18:18 10.01.2020
1031 Clouds 6 1026 70 10000 1.5 240 17:55 10.01.2020
1032 Clouds 6 1026 65 10000 3.6 290 17:37 10.01.2020
1033 Clouds 7 1026 65 10000 3.6 290 17:18 10.01.2020
1034 Clouds 8 1025 61 10000 3.6 270 16:41 10.01.2020
1035 Clouds 8 1025 61 10000 3.6 270 16:21 10.01.2020
1036 Clouds 8 1024 61 10000 3.6 290 15:56 10.01.2020
1037 Clouds 8 1024 61 10000 5.1 280 15:37 10.01.2020
1038 Clouds 8 1024 61 10000 5.1 280 15:19 10.01.2020
1039 Clouds 8 1024 61 10000 5.1 280 15:19 10.01.2020
1040 Clouds 8 1023 61 10000 5.1 280 14:57 10.01.2020
1041 Clouds 8 1023 57 10000 6.2 270 14:39 10.01.2020
1042 Clouds 8 1023 57 10000 6.2 270 14:19 10.01.2020
1043 Clouds 9 1023 57 10000 4.1 270 13:54 10.01.2020
1044 Clouds 9 1023 61 10000 4.1 260 13:36 10.01.2020
1045 Clouds 9 1023 61 10000 4.1 260 13:18 10.01.2020
1046 Clouds 8 1022 66 10000 4.6 290 12:54 10.01.2020
1047 Clouds 8 1022 70 10000 3.6 270 12:36 10.01.2020
1048 Clouds 8 1022 70 10000 3.6 270 12:18 10.01.2020
1049 Clouds 7 1022 80 10000 1 250 11:42 10.01.2020
1050 Clouds 7 1022 80 10000 1 250 11:42 10.01.2020
1051 Clouds 7 1022 80 10000 1 250 11:42 10.01.2020
1052 Clouds 7 1022 80 10000 1 250 11:42 10.01.2020
1053 Clouds 7 1023 70 10000 1.5 30 11:42 10.01.2020
1054 Clouds 6 1022 80 10000 1 250 11:21 10.01.2020
1055 Clouds 6 1022 86 10000 1 130 10:59 10.01.2020
1056 Clouds 5 1022 93 10000 0.5 0 10:38 10.01.2020
1057 Clouds 5 1022 93 10000 0.5 0 10:19 10.01.2020
1058 Clouds 4 1022 84 10000 1 260 09:46 10.01.2020
1059 Clouds 4 1021 86 10000 1 0 09:26 10.01.2020
1060 Clouds 4 1021 86 10000 0.5 0 08:58 10.01.2020
1061 Clouds 4 1021 86 10000 1 0 08:38 10.01.2020
1062 Clouds 4 1021 86 10000 1 0 08:20 10.01.2020
1063 Clouds 4 1021 86 10000 1.75 188 07:41 10.01.2020
1064 Clouds 4 1021 80 10000 1 150 07:41 10.01.2020
1065 Clouds 4 1021 80 10000 1 150 07:22 10.01.2020
1066 Clouds 4 1021 80 10000 2.1 170 06:42 10.01.2020
1067 Clouds 4 1021 80 10000 2.1 170 06:24 10.01.2020
1068 Clouds 4 1020 65 10000 4.1 320 05:33 10.01.2020
1069 Clouds 5 1020 49 10000 7.2 270 03:34 10.01.2020
1070 Clouds 5 1019 49 10000 8.2 270 02:54 10.01.2020
1071 Clouds 5 1019 45 10000 6.7 270 02:33 10.01.2020
1072 Clouds 4 1019 74 10000 1.5 0 01:34 10.01.2020
1073 Clouds 4 1019 75 10000 1 0 00:56 10.01.2020
1074 Clouds 3 1019 92 10000 0.5 0 00:38 10.01.2020
1075 Clouds 3 1019 75 10000 2.1 150 23:57 09.01.2020
1076 Clouds 3 1019 75 10000 1 0 23:37 09.01.2020
1077 Clouds 3 1019 79 10000 1 0 23:19 09.01.2020
1078 Clouds 3 1019 79 10000 1 0 23:19 09.01.2020
1079 Clouds 3 1018 100 10000 1.5 120 22:56 09.01.2020
1080 Clouds 3 1019 92 10000 0.5 0 22:37 09.01.2020
1081 Clouds 3 1019 92 10000 0.5 0 22:18 09.01.2020
1082 Clouds 3 1019 92 10000 0.5 0 21:55 09.01.2020
1083 Clouds 2 1019 79 10000 0.5 0 21:37 09.01.2020
1084 Clouds 3 1019 79 10000 0.5 0 21:18 09.01.2020
1085 Clouds 3 1019 86 10000 1 0 20:55 09.01.2020
1086 Clouds 3 1019 80 10000 2.6 110 20:37 09.01.2020
1087 Clouds 4 1019 80 10000 2.6 110 20:19 09.01.2020
1088 Clouds 3 1019 80 10000 2.6 110 19:54 09.01.2020
1089 Clouds 3 1020 77 10000 2.1 120 19:36 09.01.2020
1090 Clouds 4 1020 80 10000 2.1 120 19:18 09.01.2020
1091 Clouds 4 1020 86 10000 1.58 165 18:40 09.01.2020
1092 Clouds 4 1020 80 10000 2.6 120 18:22 09.01.2020
1093 Clouds 4 1020 80 10000 2.6 120 17:58 09.01.2020
1094 Clouds 5 1020 74 10000 1.5 110 17:40 09.01.2020
1095 Clouds 6 1020 64 10000 1.5 140 17:18 09.01.2020
1096 Clouds 7 1020 60 10000 2.1 140 16:46 09.01.2020
1097 Clouds 7 1020 52 10000 2.1 120 16:22 09.01.2020
1098 Clouds 8 1021 52 10000 2.6 160 15:43 09.01.2020
1099 Clouds 8 1021 46 10000 1.5 200 15:25 09.01.2020
1100 Clouds 8 1021 46 10000 1.5 200 14:59 09.01.2020
1101 Clouds 8 1021 65 10000 1.5 190 14:41 09.01.2020
1102 Clouds 8 1022 56 10000 1 210 14:19 09.01.2020
1103 Clouds 8 1022 56 10000 1 210 13:56 09.01.2020
1104 Clouds 7 1022 52 10000 1 220 13:38 09.01.2020
1105 Clouds 7 1023 52 10000 1.5 0 13:19 09.01.2020
1106 Clouds 7 1023 52 10000 1.5 0 12:56 09.01.2020
1107 Clouds 7 1023 52 10000 1.15 281 12:38 09.01.2020
1108 Clouds 6 1024 52 10000 1 0 12:18 09.01.2020
1109 Clouds 5 1024 74 10000 1 0 11:42 09.01.2020
1110 Clouds 4 1025 80 10000 1 0 11:24 09.01.2020
1111 Clouds 4 1025 80 10000 1 0 10:59 09.01.2020
1112 Clouds 3 1025 80 10000 1 250 10:41 09.01.2020
1113 Clouds 2 1025 92 10000 1 150 10:21 09.01.2020
1114 Clouds 2 1025 92 10000 0.88 218 09:47 09.01.2020
1115 Clouds 2 1025 92 10000 1 140 09:25 09.01.2020
1116 Clouds 1 1025 92 10000 1 140 08:59 09.01.2020
1117 Clouds 1 1025 92 10000 1.5 130 08:39 09.01.2020
1118 Clouds 1 1026 92 10000 1 0 08:21 09.01.2020
1119 Clouds 1 1026 92 10000 1 0 07:53 09.01.2020
1120 Clouds 1 1026 92 10000 1 0 07:33 09.01.2020
1121 Clouds 1 1026 92 10000 2.6 130 06:52 09.01.2020
1122 Clouds 1 1026 92 10000 2.6 130 06:32 09.01.2020
1123 Clouds 1 1027 92 10000 0.5 0 05:52 09.01.2020
1124 Clouds 1 1027 92 10000 0.5 0 05:26 09.01.2020
1125 Clouds 1 1027 92 10000 1 0 04:40 09.01.2020
1126 Clouds 2 1028 86 10000 2.1 340 03:27 09.01.2020
1127 Clouds 2 1028 92 10000 2.6 120 02:46 09.01.2020
1128 Clouds 2 1029 57 10000 0.5 0 01:42 09.01.2020
1129 Clouds 2 1029 58 10000 0.5 0 01:18 09.01.2020
1130 Clouds 2 1029 100 10000 0.5 0 00:38 09.01.2020
1131 Clouds 2 1029 100 10000 1 0 00:19 09.01.2020
1132 Clouds 2 1029 100 10000 1 0 00:19 09.01.2020
1133 Clouds 1 1030 92 10000 1 0 23:40 08.01.2020
1134 Clouds 2 1030 100 9000 1 0 23:22 08.01.2020
1135 Clouds 2 1030 100 9000 1 0 22:56 08.01.2020
1136 Clouds 2 1029 100 10000 2.1 130 22:37 08.01.2020
1137 Clouds 2 1029 100 8000 0.5 0 22:18 08.01.2020
1138 Clouds 2 1029 100 8000 0.5 0 21:55 08.01.2020
1139 Clouds 2 1030 92 9000 1.22 187 21:37 08.01.2020
1140 Clouds 2 1030 63 9000 0.5 0 21:18 08.01.2020
1141 Clouds 2 1029 63 10000 0.5 0 20:41 08.01.2020
1142 Clouds 2 1030 66 10000 0.5 0 20:21 08.01.2020
1143 Clouds 2 1030 66 10000 0.5 0 19:59 08.01.2020
1144 Clouds 2 1030 66 10000 1.52 160 19:38 08.01.2020
1145 Clouds 2 1030 66 10000 1.5 0 19:20 08.01.2020
1146 Clouds 2 1030 66 10000 1.5 0 18:58 08.01.2020
1147 Clouds 3 1030 86 10000 1 0 18:39 08.01.2020
1148 Clouds 3 1030 86 10000 1 0 18:19 08.01.2020
1149 Clouds 3 1030 86 10000 1 0 17:57 08.01.2020
1150 Clouds 3 1029 66 10000 1 0 17:38 08.01.2020
1151 Clouds 4 1029 75 10000 1 0 17:19 08.01.2020
1152 Clouds 4 1029 75 10000 1 0 16:56 08.01.2020
1153 Clouds 5 1029 70 10000 2.1 230 16:38 08.01.2020
1154 Clouds 5 1029 65 10000 1.5 250 16:18 08.01.2020
1155 Clouds 6 1029 65 10000 2.1 240 15:44 08.01.2020
1156 Clouds 6 1029 65 10000 1.5 260 15:21 08.01.2020
1157 Clouds 6 1029 65 10000 1.5 260 14:58 08.01.2020
1158 Clouds 6 1030 63 10000 2.1 300 14:40 08.01.2020
1159 Clouds 6 1030 63 10000 2.1 300 14:40 08.01.2020
1160 Clouds 6 1030 63 10000 2.1 300 14:40 08.01.2020
1161 Clouds 6 1030 50 10000 2.1 260 14:21 08.01.2020
1162 Clouds 5 1030 75 10000 1.5 0 13:41 08.01.2020
1163 Clouds 5 1030 75 10000 1.5 0 13:22 08.01.2020
1164 Clouds 5 1030 75 10000 1.5 0 13:22 08.01.2020
1165 Clouds 5 1030 75 10000 1.5 0 12:55 08.01.2020
1166 Clouds 5 1031 100 10000 1 0 12:37 08.01.2020
1167 Clouds 4 1032 100 10000 1 0 12:18 08.01.2020
1168 Clouds 3 1032 50 10000 0.5 0 11:48 08.01.2020
1169 Clouds 3 1032 50 10000 0.5 0 11:48 08.01.2020
1170 Clouds 2 1032 62 10000 1 0 11:19 08.01.2020
1171 Clouds 2 1032 62 10000 1 0 10:59 08.01.2020
1172 Clouds 2 1032 62 10000 1 0 10:59 08.01.2020
1173 Clouds 1 1032 100 9000 1 120 10:40 08.01.2020
1174 Clouds 1 1032 100 8000 1.5 160 10:21 08.01.2020
1175 Clouds 0 1032 100 8000 1.5 160 10:21 08.01.2020
1176 Fog 0 1032 62 500 1 280 09:43 08.01.2020
1177 Fog 0 1032 62 500 1 300 09:20 08.01.2020
1178 Fog -1 1032 62 500 1 300 08:58 08.01.2020
1179 Fog -1 1031 92 10000 0.5 0 08:39 08.01.2020
1180 Fog -1 1031 74 150 1 240 08:20 08.01.2020
1181 Fog -1 1031 74 250 1 260 07:52 08.01.2020
1182 Fog -1 1031 74 250 1 260 07:33 08.01.2020
1183 Fog -1 1031 74 250 1.5 280 06:58 08.01.2020
1184 Fog -1 1030 92 350 2.6 140 06:40 08.01.2020
1185 Fog -1 1030 100 100 0.5 0 05:54 08.01.2020
1186 Fog -1 1030 100 100 0.5 0 05:25 08.01.2020
1187 Fog -1 1030 92 100 1 0 04:35 08.01.2020
1188 Fog 0 1030 100 100 0.5 0 02:46 08.01.2020
1189 Fog -1 1030 100 100 0.5 0 02:28 08.01.2020
1190 Fog 0 1030 100 100 0.5 0 01:54 08.01.2020
1191 Fog 0 1029 100 100 0.5 160 01:29 08.01.2020
1192 Mist 0 1030 87 2300 2.1 180 00:42 08.01.2020
1193 Fog 0 1030 100 350 2.1 260 00:21 08.01.2020
1194 Fog 0 1030 100 550 1 220 23:45 07.01.2020
1195 Mist 1 1031 92 3000 0.5 170 23:20 07.01.2020
1196 Fog 1 1030 100 5000 0.5 0 22:41 07.01.2020
1197 Fog 1 1030 92 3400 1 320 22:21 07.01.2020
1198 Fog 1 1030 92 3400 1 320 21:58 07.01.2020
1199 Clouds 2 1030 100 5000 1 10 21:40 07.01.2020
1200 Clouds 2 1030 92 9000 0.5 0 21:21 07.01.2020
1201 Clouds 2 1030 92 9000 0.5 0 20:57 07.01.2020
1202 Clouds 2 1030 92 10000 1.5 90 20:39 07.01.2020
1203 Clouds 3 1030 100 8000 1 330 20:21 07.01.2020
1204 Clouds 3 1030 100 8000 1 330 19:56 07.01.2020
1205 Clouds 3 1030 93 7000 0.5 0 19:37 07.01.2020
1206 Clouds 3 1030 93 10000 0.92 79 19:18 07.01.2020
1207 Clouds 3 1030 93 10000 0.92 79 19:18 07.01.2020
1208 Clouds 3 1030 93 10000 0.5 0 18:55 07.01.2020
1209 Clouds 3 1030 93 10000 0.5 0 18:37 07.01.2020
1210 Clouds 3 1029 93 10000 0.92 79 18:18 07.01.2020
1211 Clouds 4 1029 80 10000 3.1 300 17:40 07.01.2020
1212 Clouds 5 1028 84 10000 1.5 0 17:22 07.01.2020
1213 Clouds 5 1028 84 10000 1.5 0 16:57 07.01.2020
1214 Clouds 6 1028 65 10000 1 240 16:38 07.01.2020
1215 Clouds 6 1028 65 10000 1 240 16:38 07.01.2020
1216 Clouds 6 1028 65 10000 1 240 16:38 07.01.2020
1217 Clear 6 1028 65 10000 1 0 16:19 07.01.2020
1218 Clear 6 1028 65 10000 1 0 15:59 07.01.2020
1219 Clear 6 1028 61 10000 2.1 240 15:40 07.01.2020
1220 Clear 7 1028 65 10000 2.1 250 15:22 07.01.2020
1221 Clear 7 1028 65 10000 2.1 250 14:56 07.01.2020
1222 Clear 7 1029 70 10000 1 0 14:37 07.01.2020
1223 Clouds 7 1029 61 10000 1.5 0 14:19 07.01.2020
1224 Clouds 6 1029 70 10000 1.5 140 13:40 07.01.2020
1225 Clouds 6 1030 80 10000 1.5 0 13:19 07.01.2020
1226 Clouds 5 1030 86 10000 0.5 0 12:42 07.01.2020
1227 Clouds 4 1031 93 10000 1 320 12:21 07.01.2020
1228 Clouds 4 1031 93 10000 1 320 11:59 07.01.2020
1229 Clouds 3 1031 66 10000 1 210 11:40 07.01.2020
1230 Clouds 2 1031 72 10000 1.5 110 11:21 07.01.2020
1231 Clouds 2 1031 72 10000 1.5 0 10:42 07.01.2020
1232 Clouds 2 1031 72 10000 1.5 0 10:24 07.01.2020
1233 Clouds 1 1030 100 10000 1 230 09:59 07.01.2020
1234 Clouds 1 1030 92 10000 0.61 175 09:38 07.01.2020
1235 Clouds 1 1030 100 10000 1.5 0 09:20 07.01.2020
1236 Clouds 0 1030 92 8000 0.61 175 08:46 07.01.2020
1237 Fog 0 1029 72 250 2.1 250 08:26 07.01.2020
1238 Drizzle 0 1028 93 9000 2.6 230 07:54 07.01.2020
1239 Fog 0 1029 74 200 1 230 07:29 07.01.2020
1240 Mist 0 1029 74 1200 1.5 220 06:54 07.01.2020
1241 Mist 0 1029 74 1200 1.5 220 06:54 07.01.2020
1242 Mist 0 1029 74 1200 1.5 220 06:35 07.01.2020
1243 Clouds 0 1028 92 6000 1 0 05:57 07.01.2020
1244 Clouds 0 1029 92 7000 1.5 280 05:35 07.01.2020
1245 Clouds -1 1029 92 7000 1 280 03:29 07.01.2020
1246 Fog -1 1028 100 4500 1.5 180 02:25 07.01.2020
1247 Fog -1 1028 100 4500 1.5 180 01:57 07.01.2020
1248 Snow -1 1028 92 4100 1 0 01:32 07.01.2020
1249 Fog -1 1028 100 300 1.5 130 00:40 07.01.2020
1250 Fog -1 1029 100 100 1 0 00:20 07.01.2020
1251 Fog -1 1029 100 100 1 0 23:55 06.01.2020
1252 Fog -1 1029 100 100 0.5 0 23:36 06.01.2020
1253 Fog 0 1029 92 100 1 0 23:18 06.01.2020
1254 Fog 0 1029 92 50 1 0 22:43 06.01.2020
1255 Fog 0 1029 100 50 1 0 22:23 06.01.2020
1256 Fog 0 1029 100 50 1 0 21:57 06.01.2020
1257 Fog 0 1029 100 100 1 0 21:39 06.01.2020
1258 Fog 0 1029 92 150 0.5 0 21:20 06.01.2020
1259 Fog 0 1029 92 150 0.5 0 21:20 06.01.2020
1260 Fog 0 1029 92 150 0.5 0 20:56 06.01.2020
1261 Fog 0 1028 100 150 1 290 20:38 06.01.2020
1262 Fog 0 1028 100 350 1 0 20:20 06.01.2020
1263 Fog 0 1028 100 350 1 0 19:56 06.01.2020
1264 Mist 0 1028 100 1500 2.1 330 19:38 06.01.2020
1265 Clear 0 1027 83 10000 2.1 290 19:19 06.01.2020
1266 Clear 0 1027 83 6000 1.5 300 18:47 06.01.2020
1267 Clear 0 1027 83 6000 1.5 300 18:47 06.01.2020
1268 Clear 0 1027 83 10000 0.5 290 18:21 06.01.2020
1269 Clear 1 1027 83 10000 0.5 290 17:58 06.01.2020
1270 Clear 1 1027 86 10000 1 310 17:37 06.01.2020
1271 Clear 2 1027 86 10000 2.1 300 17:18 06.01.2020
1272 Clear 2 1027 73 10000 3.1 280 16:44 06.01.2020
1273 Clear 2 1027 73 10000 2.1 280 16:25 06.01.2020
1274 Clear 3 1027 73 10000 2.1 280 15:59 06.01.2020
1275 Clear 4 1027 65 10000 1 230 15:38 06.01.2020
1276 Clear 4 1027 60 10000 1 0 15:18 06.01.2020
1277 Clear 4 1027 60 10000 1 0 14:56 06.01.2020
1278 Rain 4 1027 60 10000 1 0 14:37 06.01.2020
1279 Rain 4 1027 60 10000 1 0 14:18 06.01.2020
1280 Clear 3 1028 69 10000 1 0 13:41 06.01.2020
1281 Clear 3 1029 53 10000 1 0 13:22 06.01.2020
1282 Clear 3 1029 54 10000 1 0 12:59 06.01.2020
1283 Clear 4 1029 54 10000 0.83 245 12:41 06.01.2020
1284 Clear 3 1030 54 10000 0.83 245 12:20 06.01.2020
1285 Clear 3 1030 54 10000 0.83 245 12:20 06.01.2020
1286 Clear 3 1030 54 10000 0.83 245 11:56 06.01.2020
1287 Clear 3 1030 54 10000 0.5 0 11:38 06.01.2020
1288 Clear 1 1030 92 10000 1 0 11:20 06.01.2020
1289 Clear 0 1030 100 10000 1 150 10:42 06.01.2020
1290 Clear 0 1030 100 10000 1 150 10:42 06.01.2020
1291 Clear 0 1030 92 10000 0.75 242 10:21 06.01.2020
1292 Mist -1 1031 100 2000 1 250 09:42 06.01.2020
1293 Clear -2 1030 100 10000 0.75 242 09:24 06.01.2020
1294 Clear -2 1030 100 10000 0.75 242 08:58 06.01.2020
1295 Clear -2 1030 100 10000 0.75 242 08:58 06.01.2020
1296 Clear -2 1030 100 10000 0.75 242 08:58 06.01.2020
1297 Clear -2 1030 92 10000 0.5 330 08:39 06.01.2020
1298 Fog -2 1031 92 400 1 240 08:21 06.01.2020
1299 Fog -2 1031 92 400 1 240 08:21 06.01.2020
1300 Mist -2 1031 100 1500 0.5 240 07:46 06.01.2020
1301 Mist -2 1031 100 1300 1 150 07:21 06.01.2020
1302 Fog -2 1031 100 350 0.5 20 06:41 06.01.2020
1303 Clouds -2 1031 92 5000 0.5 0 05:51 06.01.2020
1304 Clouds -2 1031 92 5000 0.5 0 05:29 06.01.2020
1305 Fog -2 1031 100 250 0.5 230 04:25 06.01.2020
1306 Fog -2 1031 92 7000 0.5 0 03:52 06.01.2020
1307 Fog -2 1031 92 9000 0.5 0 02:32 06.01.2020
1308 Clear -2 1031 100 6000 1 200 01:55 06.01.2020
1309 Clear -2 1032 92 10000 1 320 01:32 06.01.2020
1310 Clear -1 1032 92 10000 0.3 22 00:48 06.01.2020
1311 Clear -1 1032 92 10000 0.3 22 00:29 06.01.2020
1312 Clouds -1 1032 92 7000 0.3 22 23:59 05.01.2020
1313 Clear -1 1032 100 7000 0.5 0 23:40 05.01.2020
1314 Clear -1 1032 100 10000 0.5 210 23:21 05.01.2020
1315 Clear -1 1032 92 10000 0.5 0 22:40 05.01.2020
1316 Clear -1 1032 92 9000 1 0 22:21 05.01.2020
1317 Clear 0 1032 92 9000 1 0 21:59 05.01.2020
1318 Clear 0 1032 92 10000 0.5 0 21:40 05.01.2020
1319 Clear 0 1032 92 10000 0.5 0 21:20 05.01.2020
1320 Clear 0 1032 92 10000 0.5 0 20:58 05.01.2020
1321 Clear 0 1032 92 10000 0.5 0 20:39 05.01.2020
1322 Clear 0 1032 92 10000 0.5 0 20:19 05.01.2020
1323 Clear 1 1032 92 10000 0.5 0 19:58 05.01.2020
1324 Clear 1 1032 86 10000 1.5 0 19:39 05.01.2020
1325 Clear 1 1032 86 10000 1.5 0 19:39 05.01.2020
1326 Clear 1 1032 95 10000 1 0 19:20 05.01.2020
1327 Clear 1 1032 95 10000 1 0 18:56 05.01.2020
1328 Clear 1 1032 80 10000 1 0 18:37 05.01.2020
1329 Clear 2 1032 80 10000 1 30 18:19 05.01.2020
1330 Clear 2 1032 80 10000 1 30 17:58 05.01.2020
1331 Clear 2 1032 74 10000 2.1 320 17:39 05.01.2020
1332 Clear 3 1032 69 10000 1.5 0 17:20 05.01.2020
1333 Clear 3 1032 69 10000 1.5 0 17:20 05.01.2020
1334 Clear 4 1032 65 10000 1.5 30 16:56 05.01.2020
1335 Clear 4 1032 65 10000 1.5 30 16:56 05.01.2020
1336 Clear 4 1032 65 10000 1.5 30 16:38 05.01.2020
1337 Clear 4 1032 82 10000 2.1 10 16:19 05.01.2020
1338 Clear 4 1032 82 10000 2.1 360 15:39 05.01.2020
1339 Clear 5 1032 70 10000 2.1 300 15:20 05.01.2020
1340 Clear 5 1032 70 10000 2.1 300 14:56 05.01.2020
1341 Clear 5 1032 82 10000 2.6 260 14:38 05.01.2020
1342 Clear 5 1032 75 10000 3.6 240 14:20 05.01.2020
1343 Clear 5 1032 75 10000 3.6 240 13:56 05.01.2020
1344 Clear 5 1033 75 10000 3.1 260 13:38 05.01.2020
1345 Clear 4 1033 74 10000 2.6 260 13:19 05.01.2020
1346 Clear 4 1033 74 10000 2.6 260 12:55 05.01.2020
1347 Clear 4 1033 74 10000 2.6 260 12:55 05.01.2020
1348 Clear 4 1033 74 10000 1.5 260 12:37 05.01.2020
1349 Clear 4 1033 74 10000 1 0 12:18 05.01.2020
1350 Clear 4 1033 74 10000 1 0 12:18 05.01.2020
1351 Clear 3 1034 80 10000 3.38 38 11:43 05.01.2020
1352 Clear 2 1034 89 10000 1 0 11:20 05.01.2020
1353 Clear 2 1034 89 10000 1 0 10:58 05.01.2020
1354 Clear 1 1034 100 10000 0.5 0 10:39 05.01.2020
1355 Clear 1 1034 100 10000 0.5 0 10:39 05.01.2020
1356 Clear 0 1034 100 10000 0.5 0 10:19 05.01.2020
1357 Clouds -1 1034 100 10000 2.05 47 09:42 05.01.2020
1358 Clear -1 1035 92 10000 2.6 40 09:22 05.01.2020
1359 Fog -1 1034 100 10000 0.5 0 08:50 05.01.2020
1360 Fog -1 1034 100 10000 0.5 0 08:31 05.01.2020
1361 Fog -1 1034 100 10000 0.5 0 07:57 05.01.2020
1362 Clouds -1 1034 100 9000 0.5 320 07:39 05.01.2020
1363 Clouds -1 1035 92 10000 2.6 20 07:20 05.01.2020
1364 Clouds -1 1034 100 10000 1 320 06:21 05.01.2020
1365 Clouds -1 1034 92 10000 0.5 0 05:33 05.01.2020
1366 Clouds -1 1034 92 10000 0.5 0 05:33 05.01.2020
1367 Clouds -1 1034 92 10000 1 320 04:48 05.01.2020
1368 Clouds 0 1034 92 10000 1 0 04:18 05.01.2020
1369 Clouds 0 1034 95 10000 0.5 0 02:46 05.01.2020
1370 Clouds 0 1034 95 10000 0.5 0 02:24 05.01.2020
1371 Clouds 1 1034 80 10000 0.5 0 01:48 05.01.2020
1372 Clouds 1 1035 74 10000 0.5 0 01:19 05.01.2020
1373 Clouds 1 1035 80 10000 1 0 00:54 05.01.2020
1374 Clouds 2 1035 80 10000 1 0 00:36 05.01.2020
1375 Clouds 2 1034 80 10000 0.5 0 00:18 05.01.2020
1376 Clouds 1 1034 95 10000 0.5 0 23:40 04.01.2020
1377 Clouds 2 1034 86 10000 1 0 23:19 04.01.2020
1378 Clouds 2 1034 86 10000 1.5 320 22:40 04.01.2020
1379 Clouds 2 1034 80 10000 1.5 310 22:22 04.01.2020
1380 Clouds 2 1034 80 10000 1.5 310 21:58 04.01.2020
1381 Clouds 2 1034 74 10000 1.5 290 21:40 04.01.2020
1382 Clouds 2 1034 93 10000 1 0 21:20 04.01.2020
1383 Clouds 3 1034 93 10000 1 0 20:59 04.01.2020
1384 Clouds 3 1033 93 10000 0.5 0 20:40 04.01.2020
1385 Clouds 3 1034 93 10000 1 310 20:21 04.01.2020
1386 Clouds 3 1034 93 10000 1 310 19:57 04.01.2020
1387 Clouds 3 1034 93 10000 1 310 19:57 04.01.2020
1388 Clouds 3 1033 93 10000 1 310 19:38 04.01.2020
1389 Clouds 3 1033 86 10000 1.5 330 19:20 04.01.2020
1390 Clouds 3 1033 93 10000 0.5 0 18:55 04.01.2020
1391 Clouds 3 1033 93 10000 0.5 0 18:36 04.01.2020
1392 Clouds 3 1032 92 10000 1 0 18:18 04.01.2020
1393 Clouds 4 1032 70 10000 1.5 10 17:41 04.01.2020
1394 Clouds 4 1032 70 10000 1.5 10 17:41 04.01.2020
1395 Clouds 4 1032 75 10000 2.1 350 17:23 04.01.2020
1396 Clouds 5 1032 75 10000 2.1 350 16:58 04.01.2020
1397 Clouds 6 1032 70 10000 2.1 280 16:39 04.01.2020
1398 Clouds 6 1032 70 10000 2.1 280 16:39 04.01.2020
1399 Clouds 6 1032 75 10000 3.1 290 16:21 04.01.2020
1400 Clouds 6 1032 75 10000 1.5 280 15:54 04.01.2020
1401 Clouds 6 1032 75 10000 1.5 280 15:36 04.01.2020
1402 Clouds 6 1031 70 10000 2.1 290 15:18 04.01.2020
1403 Clouds 6 1031 75 10000 1.5 330 14:42 04.01.2020
1404 Clouds 7 1031 75 10000 1.5 0 14:20 04.01.2020
1405 Clouds 7 1031 75 10000 1.5 0 14:20 04.01.2020
1406 Clouds 7 1032 87 10000 1 280 13:59 04.01.2020
1407 Clouds 7 1032 87 10000 1 280 13:38 04.01.2020
1408 Clouds 7 1032 87 10000 3.1 320 13:19 04.01.2020
1409 Clouds 7 1032 87 10000 3.1 310 12:57 04.01.2020
1410 Clouds 7 1032 87 10000 3.1 310 12:38 04.01.2020
1411 Clouds 7 1032 93 10000 1.5 300 12:18 04.01.2020
1412 Clouds 6 1032 93 10000 1 300 11:55 04.01.2020
1413 Clouds 6 1032 93 10000 1 300 11:36 04.01.2020
1414 Clouds 5 1032 93 8000 1 130 11:18 04.01.2020
1415 Fog 5 1032 100 3000 0.77 202 10:40 04.01.2020
1416 Fog 5 1032 93 2300 1 130 10:21 04.01.2020
1417 Fog 5 1031 100 2500 1 160 09:47 04.01.2020
1418 Fog 4 1031 100 2500 1 160 09:26 04.01.2020
1419 Fog 5 1031 100 1100 1.5 130 08:49 04.01.2020
1420 Fog 4 1031 100 1100 1.5 130 08:29 04.01.2020
1421 Fog 4 1031 100 3100 1.5 120 07:56 04.01.2020
1422 Mist 4 1031 100 3000 1 150 07:38 04.01.2020
1423 Mist 5 1030 100 4000 1.39 192 06:44 04.01.2020
1424 Clouds 5 1030 100 5000 0.5 0 05:59 04.01.2020
1425 Clouds 5 1030 93 5000 0.5 0 04:51 04.01.2020
1426 Clouds 5 1030 93 5000 0.5 0 04:30 04.01.2020
1427 Clouds 5 1030 93 6000 1 210 03:29 04.01.2020
1428 Clouds 5 1030 93 10000 2.1 110 02:49 04.01.2020
1429 Clouds 5 1030 100 6000 1.5 0 02:18 04.01.2020
1430 Clouds 5 1030 100 8000 2.6 110 01:42 04.01.2020
1431 Rain 5 1030 100 8000 1.5 0 01:23 04.01.2020
1432 Clouds 5 1030 93 6000 0.5 0 00:29 04.01.2020
1433 Mist 5 1030 93 5000 1 0 23:57 03.01.2020
1434 Clouds 5 1030 100 10000 1 0 23:30 03.01.2020
1435 Clouds 5 1030 100 10000 1 0 23:30 03.01.2020
1436 Clouds 4 1030 100 5000 3.1 100 22:59 03.01.2020
1437 Mist 4 1030 93 4200 2.6 110 22:40 03.01.2020
1438 Mist 4 1030 93 3600 2.1 130 22:19 03.01.2020
1439 Mist 5 1030 93 3600 2.1 130 21:57 03.01.2020
1440 Mist 4 1030 93 3500 2.1 150 21:38 03.01.2020
1441 Mist 5 1030 93 4600 1.5 0 21:19 03.01.2020
1442 Mist 4 1029 93 3900 1 0 20:55 03.01.2020
1443 Mist 4 1029 93 3900 1 0 20:36 03.01.2020
1444 Clouds 5 1029 100 5000 0.5 0 20:18 03.01.2020
1445 Rain 5 1029 93 4400 2.1 110 19:44 03.01.2020
1446 Rain 5 1029 93 2800 2.6 140 19:23 03.01.2020
1447 Rain 5 1029 93 2800 2.6 140 18:57 03.01.2020
1448 -273 0 0 0 0 0 18:38 03.01.2020
1449 Rain 5 1028 93 10000 2.1 90 18:20 03.01.2020
1450 Clouds 5 1028 86 10000 2.1 90 17:42 03.01.2020
1451 Clouds 5 1028 86 8000 3.6 110 17:22 03.01.2020
1452 Clouds 5 1028 86 8000 3.6 110 16:59 03.01.2020
1453 Clouds 5 1027 93 9000 3.1 120 16:40 03.01.2020
1454 Clouds 6 1027 93 9000 2.1 140 16:21 03.01.2020
1455 Clouds 5 1027 100 5000 2.6 130 15:42 03.01.2020
1456 Clouds 5 1027 100 4000 2.1 150 15:19 03.01.2020
1457 Clouds 5 1028 100 3000 2.1 130 14:40 03.01.2020
1458 Clouds 5 1028 100 3000 2.1 130 14:40 03.01.2020
1459 Mist 5 1027 100 3500 2.6 160 14:21 03.01.2020
1460 Mist 5 1027 100 3500 2.6 160 13:59 03.01.2020
1461 Mist 4 1028 100 1100 1.5 170 13:40 03.01.2020
1462 Fog 4 1028 66 800 1.5 140 13:22 03.01.2020
1463 Fog 4 1028 66 650 1.5 180 12:41 03.01.2020
1464 Fog 4 1028 100 400 1.5 0 12:22 03.01.2020
1465 Fog 3 1028 66 350 1.5 110 11:57 03.01.2020
1466 Fog 4 1028 100 400 1.5 0 11:57 03.01.2020
1467 Fog 3 1028 66 350 1.5 110 11:39 03.01.2020
1468 Fog 2 1028 100 300 1 70 10:59 03.01.2020
1469 Fog 1 1028 100 250 1.5 100 10:40 03.01.2020
1470 Fog 2 1028 100 150 1.5 130 10:22 03.01.2020
1471 Fog 1 1028 100 150 1.5 130 09:56 03.01.2020
1472 Fog 1 1028 100 150 0.95 205 09:38 03.01.2020
1473 Fog 1 1027 100 250 1 80 09:20 03.01.2020
1474 Fog 1 1027 100 300 0.5 0 08:45 03.01.2020
1475 Fog 1 1027 100 400 1 230 08:23 03.01.2020
1476 Fog 1 1027 100 400 1 230 07:57 03.01.2020
1477 Fog 1 1027 100 900 1 90 07:38 03.01.2020
1478 Fog 1 1027 100 800 2.1 110 07:18 03.01.2020
1479 Fog 1 1027 100 450 1.5 150 06:42 03.01.2020
1480 Fog 1 1027 100 900 1.5 150 06:23 03.01.2020
1481 Rain 1 1027 100 2200 1.5 100 05:20 03.01.2020
1482 Mist 0 1028 100 2900 2.1 80 03:45 03.01.2020
1483 Mist 0 1028 100 2900 2.6 110 02:54 03.01.2020
1484 Clouds 0 1026 74 10000 1.5 220 01:54 03.01.2020
1485 Mist 0 1028 100 3200 2.6 100 01:36 03.01.2020
1486 Mist 0 1029 92 4000 3.6 120 00:46 03.01.2020
1487 Mist 0 1029 92 4000 3.6 120 00:26 03.01.2020
1488 Clouds 0 1029 92 6000 4.1 140 23:39 02.01.2020
1489 Clouds 0 1029 100 5000 4.1 150 23:21 02.01.2020
1490 Clouds 0 1029 100 5000 4.1 150 22:59 02.01.2020
1491 Mist 0 1029 100 4200 3.6 150 22:41 02.01.2020
1492 Mist 0 1029 100 3100 4.1 150 22:20 02.01.2020
1493 Mist 0 1029 100 3100 4.1 150 21:57 02.01.2020
1494 Clouds 0 1029 100 6000 3.6 120 21:38 02.01.2020
1495 Clouds 0 1029 100 6000 3.6 120 21:19 02.01.2020
1496 Clouds 0 1029 100 6000 3.6 120 20:56 02.01.2020
1497 Mist 0 1029 100 3500 3.6 120 20:37 02.01.2020
1498 Clouds 0 1030 100 4000 3.1 130 20:19 02.01.2020
1499 Mist 0 1030 92 4500 2.6 120 19:54 02.01.2020
1500 Mist 0 1030 92 4500 2.6 120 19:54 02.01.2020
1501 Mist 0 1030 92 4500 2.6 120 19:36 02.01.2020
1502 Clouds 0 1029 92 4000 2.1 130 19:18 02.01.2020
1503 Clouds 0 1029 92 4000 2.1 130 19:18 02.01.2020
1504 Mist 0 1029 100 4000 2.6 140 18:43 02.01.2020
1505 Clouds 0 1029 100 3500 2.1 150 18:25 02.01.2020
1506 Clouds 0 1029 100 3500 2.1 150 17:58 02.01.2020
1507 Clouds 0 1029 100 3500 1 160 17:39 02.01.2020
1508 Clouds 0 1029 100 3500 0.79 230 17:21 02.01.2020
1509 Clouds 0 1029 100 3500 0.79 230 16:59 02.01.2020
1510 Clouds 0 1029 100 4000 1 130 16:41 02.01.2020
1511 Mist 1 1029 92 3500 0.79 230 16:20 02.01.2020
1512 Mist 1 1029 92 3500 0.79 230 15:58 02.01.2020
1513 Mist 1 1029 92 3500 0.79 230 15:58 02.01.2020
1514 Clouds 1 1029 92 3500 0.79 230 15:40 02.01.2020
1515 Mist 1 1029 100 3500 0.79 230 15:21 02.01.2020
1516 Clouds 1 1029 100 3500 0.79 230 14:57 02.01.2020
1517 Clouds 1 1029 100 3500 0.79 230 14:36 02.01.2020
1518 Clouds 1 1029 100 3500 0.79 230 14:36 02.01.2020
1519 Clouds 1 1029 100 3500 0.79 230 14:36 02.01.2020
1520 Clouds 1 1029 100 3000 1 0 14:18 02.01.2020
1521 Clouds 1 1030 100 3000 1 0 13:49 02.01.2020
1522 Clouds 2 1030 100 3000 1 0 13:31 02.01.2020
1523 Mist 2 1031 100 3500 1 0 12:46 02.01.2020
1524 Mist 2 1031 92 4000 1.5 160 12:26 02.01.2020
1525 Mist 1 1031 92 4000 1.5 160 11:59 02.01.2020
1526 Mist 1 1031 92 4000 1.5 160 11:40 02.01.2020
1527 Mist -1 1031 100 3500 1.5 150 11:20 02.01.2020
1528 Mist -1 1031 100 3500 1.5 150 11:20 02.01.2020
1529 Mist -1 1031 100 3500 1.5 170 10:44 02.01.2020
1530 Mist -1 1031 100 3500 1.5 170 10:26 02.01.2020
1531 Mist -1 1031 100 3000 1.5 190 09:51 02.01.2020
1532 Mist -2 1031 100 3000 1.5 190 09:33 02.01.2020
1533 Mist -2 1031 100 2000 1.5 280 08:47 02.01.2020
1534 Mist -2 1031 100 2000 1.5 280 08:27 02.01.2020
1535 Mist -2 1030 100 1000 1.5 280 07:54 02.01.2020
1536 Mist -2 1030 100 1000 1.5 280 07:30 02.01.2020
1537 Mist -2 1030 100 2700 1 270 06:55 02.01.2020
1538 Mist -2 1030 100 2700 1 270 06:36 02.01.2020
1539 Clouds -2 1030 100 5000 0.5 0 05:36 02.01.2020
1540 Clouds -2 1030 100 8000 1.5 220 04:33 02.01.2020
1541 Clouds -2 1031 100 5000 0.5 0 02:54 02.01.2020
1542 Clouds -2 1031 100 9000 1 0 02:20 02.01.2020
1543 Clouds -1 1031 100 7000 0.5 0 01:46 02.01.2020
1544 Clouds -2 1031 100 6000 1.5 230 01:19 02.01.2020
1545 Clouds -2 1031 92 5000 1 0 00:34 02.01.2020
1546 Clouds -1 1031 92 6000 1.5 180 23:58 01.01.2020
1547 Mist -2 1031 92 4100 1 0 23:40 01.01.2020
1548 Clouds -1 1031 92 5000 1.5 190 23:19 01.01.2020
1549 Fog -1 1031 100 3400 1 0 22:38 01.01.2020
1550 Fog -1 1031 100 500 1 0 22:19 01.01.2020
1551 Fog -1 1031 100 500 1 0 21:56 01.01.2020
1552 Fog -1 1031 100 600 0.5 0 21:38 01.01.2020
1553 Fog -1 1031 100 450 1.5 190 21:19 01.01.2020
1554 Fog -1 1031 100 450 1.5 190 21:19 01.01.2020
1555 Fog -1 1031 100 450 1.5 190 20:55 01.01.2020
1556 Fog -1 1032 100 550 1.5 160 20:37 01.01.2020
1557 Mist -1 1032 100 2500 1 0 20:19 01.01.2020
1558 Mist -1 1032 100 2500 1 0 20:19 01.01.2020
1559 Mist -1 1032 100 2500 1 0 19:55 01.01.2020
1560 Mist -1 1032 100 2500 1 0 19:55 01.01.2020
1561 Mist -1 1032 100 2700 0.5 0 19:37 01.01.2020
1562 Mist -1 1031 100 2500 1 0 19:19 01.01.2020
1563 Mist -1 1031 100 2500 1 0 18:55 01.01.2020
1564 Mist -1 1031 100 2800 1 0 18:36 01.01.2020
1565 Mist -1 1031 100 2600 1.5 0 18:18 01.01.2020
1566 Mist -1 1031 100 2600 1.5 0 17:56 01.01.2020
1567 Mist -1 1031 100 2600 1.5 0 17:56 01.01.2020
1568 Mist -1 1031 100 3000 0.58 131 17:37 01.01.2020
1569 Mist 0 1031 100 2000 1.5 0 17:18 01.01.2020
1570 Mist 0 1031 100 1500 1 0 16:40 01.01.2020
1571 Mist 0 1031 100 1500 1 0 16:40 01.01.2020
1572 Mist 0 1031 100 1500 1.5 0 16:21 01.01.2020
1573 Mist 0 1031 100 1500 1.5 0 15:57 01.01.2020
1574 Mist 0 1031 100 1500 1.5 0 15:57 01.01.2020
1575 Mist 0 1031 100 1000 1.5 170 15:39 01.01.2020
1576 Mist 0 1031 92 1000 1 110 15:20 01.01.2020
1577 Mist 0 1031 92 1000 1 110 14:58 01.01.2020
1578 Fog 0 1031 92 1000 1.5 0 14:40 01.01.2020
1579 Fog 0 1031 100 900 1 0 14:21 01.01.2020
1580 Fog 0 1031 100 900 1 0 14:21 01.01.2020
1581 Mist 0 1032 100 1100 1 0 13:56 01.01.2020
1582 Mist 0 1032 100 1100 1 0 13:37 01.01.2020
1583 Mist 0 1032 100 1100 1 0 13:37 01.01.2020
1584 Mist 0 1032 100 1100 1 0 13:37 01.01.2020
1585 Fog 1 1032 100 500 1 210 13:18 01.01.2020
1586 Fog 1 1032 100 500 1 0 12:55 01.01.2020
1587 Fog 1 1032 100 500 1 0 12:37 01.01.2020
1588 Fog 1 1033 100 900 1 0 12:18 01.01.2020
1589 Fog 1 1033 100 500 1 240 11:43 01.01.2020
1590 Fog -1 1033 92 200 1 0 11:22 01.01.2020
1591 Fog -1 1033 92 200 1 0 10:58 01.01.2020
1592 Fog -1 1033 100 200 1 0 10:40 01.01.2020
1593 Fog -1 1032 100 200 2.1 280 10:20 01.01.2020
1594 Fog -2 1032 100 200 2.1 280 09:55 01.01.2020
1595 Fog -2 1032 100 200 1 170 09:36 01.01.2020
1596 Fog -2 1032 100 200 1 250 09:18 01.01.2020
1597 Fog -2 1032 92 300 1.5 260 08:54 01.01.2020
1598 Fog -2 1032 92 300 1.5 260 08:36 01.01.2020
1599 Fog -2 1032 100 400 1.5 180 08:18 01.01.2020
1600 Fog -2 1032 100 400 1 240 07:45 01.01.2020
1601 Fog -2 1032 100 400 1 240 07:26 01.01.2020
1602 Fog -2 1031 100 250 1.5 200 06:44 01.01.2020
1603 Fog -2 1031 100 350 1 200 06:19 01.01.2020
1604 Fog -1 1031 100 550 2.1 270 04:38 01.01.2020
1605 Fog -1 1031 100 200 0.5 0 03:41 01.01.2020
1606 Fog -1 1032 92 150 1 0 03:22 01.01.2020
1607 Fog -1 1032 92 150 1 0 03:22 01.01.2020
1608 Fog -1 1032 92 150 1 0 02:55 01.01.2020
1609 Fog -1 1032 100 250 1 0 02:32 01.01.2020
1610 Fog -1 1032 100 200 1.5 0 01:45 01.01.2020
1611 Fog -1 1032 100 250 1 0 01:24 01.01.2020
1612 Fog -1 1032 100 250 1 0 00:56 01.01.2020
1613 Fog -1 1032 100 200 1 180 00:37 01.01.2020
1614 Fog -1 1033 100 200 1 0 00:18 01.01.2020
1615 Fog -1 1033 100 200 1 0 23:39 31.12.2019
1616 Fog -1 1033 100 200 1 0 23:19 31.12.2019
1617 Fog -1 1033 100 200 1 0 22:57 31.12.2019
1618 Fog -1 1032 100 250 1 0 22:38 31.12.2019
1619 Fog -1 1032 100 250 1 0 22:18 31.12.2019
1620 Fog -1 1032 100 200 1 0 21:54 31.12.2019
1621 Fog 0 1032 100 200 1 0 21:36 31.12.2019
1622 Fog 0 1033 100 200 0.5 0 21:18 31.12.2019
1623 Fog 0 1033 85 200 1 0 20:40 31.12.2019
1624 Fog 0 1033 81 200 1 0 20:21 31.12.2019
1625 Fog 0 1033 82 200 1 0 19:59 31.12.2019
1626 Fog 0 1033 82 150 0.5 0 19:40 31.12.2019
1627 Fog 0 1032 82 200 0.5 0 19:22 31.12.2019
1628 Fog 0 1032 82 200 0.5 0 18:57 31.12.2019
1629 Fog 0 1032 82 200 1 0 18:39 31.12.2019
1630 Fog 1 1032 82 300 0.5 0 18:19 31.12.2019
1631 Fog 1 1032 82 300 0.5 0 17:56 31.12.2019
1632 Fog 1 1032 82 500 1.5 130 17:37 31.12.2019
1633 Mist 1 1032 72 1100 1 0 17:19 31.12.2019
1634 Mist 1 1032 72 1100 1.5 150 16:56 31.12.2019
1635 Mist 1 1032 72 1100 1.5 150 16:37 31.12.2019
1636 Mist 2 1032 72 1600 1 0 16:19 31.12.2019
1637 Mist 2 1032 72 1600 1 0 15:56 31.12.2019
1638 Mist 2 1032 72 3000 1.5 160 15:38 31.12.2019
1639 Mist 2 1032 72 3000 1.5 170 15:20 31.12.2019
1640 Mist 2 1032 72 3000 1.5 170 14:56 31.12.2019
1641 Mist 2 1032 72 3000 1.5 230 14:37 31.12.2019
1642 Clouds 3 1033 55 3000 1 0 14:19 31.12.2019
1643 Clouds 3 1033 55 3000 1 0 13:56 31.12.2019
1644 Mist 3 1033 55 3500 1 190 13:38 31.12.2019
1645 Mist 3 1033 57 3500 1.5 140 13:20 31.12.2019
1646 Mist 3 1033 57 3500 1.5 140 12:56 31.12.2019
1647 Mist 4 1033 57 3000 1 0 12:38 31.12.2019
1648 Mist 4 1034 100 2500 1.5 310 12:19 31.12.2019
1649 Fog 4 1034 100 1200 2.6 300 11:55 31.12.2019
1650 Fog 3 1034 100 1200 2.6 300 11:37 31.12.2019
1651 Fog 3 1034 100 1200 2.6 300 11:37 31.12.2019
1652 Fog 0 1034 100 900 0.27 125 11:19 31.12.2019
1653 Fog 0 1034 100 900 0.27 125 10:56 31.12.2019
1654 Fog 0 1033 100 650 1.5 160 10:37 31.12.2019
1655 Fog 0 1033 100 600 1.5 180 10:19 31.12.2019
1656 Fog 0 1033 100 600 1.5 180 09:57 31.12.2019
1657 Fog 0 1033 66 700 1.5 150 09:38 31.12.2019
1658 Fog -1 1033 100 750 1 0 09:19 31.12.2019
1659 Fog -1 1033 100 300 1.5 170 08:43 31.12.2019
1660 Fog -1 1033 100 600 1.5 160 08:23 31.12.2019
1661 Fog -1 1033 100 600 1.5 160 07:58 31.12.2019
1662 Fog -1 1033 100 800 1.5 200 07:40 31.12.2019
1663 Fog -1 1033 100 800 2.6 170 07:19 31.12.2019
1664 Fog -1 1033 100 450 1 180 06:41 31.12.2019
1665 Fog -1 1033 100 900 1.5 100 05:45 31.12.2019
1666 Fog -1 1033 100 650 1 110 04:27 31.12.2019
1667 Mist -1 1033 100 3000 1.5 180 03:24 31.12.2019
1668 Mist -1 1033 100 2600 2.1 160 02:36 31.12.2019
1669 Mist -1 1033 92 3100 0.5 0 01:53 31.12.2019
1670 Mist -1 1033 92 3100 0.5 0 01:32 31.12.2019
1671 Mist -1 1033 92 2600 1 0 00:56 31.12.2019
1672 Mist -1 1033 100 4000 1.5 230 00:37 31.12.2019
1673 Mist -1 1033 92 3400 1 0 00:18 31.12.2019
1674 Mist -1 1033 92 3400 1 0 00:18 31.12.2019
1675 Clear -1 1031 81 10000 1.5 250 23:55 30.12.2019
1676 Mist -1 1033 92 3300 0.5 0 23:36 30.12.2019
1677 Mist -1 1033 92 3500 1 0 23:18 30.12.2019
1678 Mist -1 1033 100 2700 1 0 22:54 30.12.2019
1679 Mist -1 1033 100 2700 1 0 22:54 30.12.2019
1680 Mist -1 1033 100 2700 1 0 22:36 30.12.2019
1681 Mist -1 1033 92 4100 1.5 190 22:18 30.12.2019
1682 Mist -1 1033 92 4100 1.5 190 21:55 30.12.2019
1683 Mist -1 1033 92 4100 1.5 190 21:55 30.12.2019
1684 Mist -1 1033 92 4000 0.5 0 21:37 30.12.2019
1685 Mist -1 1033 92 4400 0.5 0 21:18 30.12.2019
1686 Mist -1 1033 92 4700 1 0 20:42 30.12.2019
1687 Mist 0 1032 92 3000 1.5 0 20:21 30.12.2019
1688 Clouds 0 1032 100 3000 1 0 19:59 30.12.2019
1689 Mist 0 1032 92 3000 1.5 0 19:59 30.12.2019
1690 Clouds 0 1032 100 3000 1 0 19:40 30.12.2019
1691 Mist 0 1033 92 3000 1.5 100 19:20 30.12.2019
1692 Mist 0 1033 92 3000 1.5 100 19:20 30.12.2019
1693 Mist 0 1033 92 3000 1.5 100 18:59 30.12.2019
1694 Clouds 0 1033 92 3000 1.5 130 18:41 30.12.2019
1695 Mist 0 1033 92 3000 1 0 18:21 30.12.2019
1696 Mist 0 1033 92 3000 1 0 17:59 30.12.2019
1697 Clouds 0 1033 100 3000 1.5 170 17:40 30.12.2019
1698 Clouds 0 1033 100 5000 1.5 160 17:19 30.12.2019
1699 Clouds 0 1033 100 5000 1.5 160 16:59 30.12.2019
1700 Clouds 0 1033 62 3000 1.5 0 16:39 30.12.2019
1701 Clouds 1 1033 62 3000 2.1 130 16:20 30.12.2019
1702 Clouds 1 1033 62 3000 2.1 130 15:56 30.12.2019
1703 Clouds 1 1033 62 4000 1.5 0 15:38 30.12.2019
1704 Clouds 1 1033 92 4000 1 0 15:19 30.12.2019
1705 Clouds 1 1033 62 4000 1 0 14:43 30.12.2019
1706 Clouds 1 1033 48 4500 0.7 307 14:21 30.12.2019
1707 Clouds 1 1033 48 4500 0.7 307 13:59 30.12.2019
1708 Clouds 1 1033 92 4500 1 0 13:41 30.12.2019
1709 Clouds 1 1034 92 5000 0.5 0 13:22 30.12.2019
1710 Clouds 0 1034 92 5000 0.5 0 12:57 30.12.2019
1711 Mist 3 1034 92 4500 0.5 0 12:38 30.12.2019
1712 Mist 3 1034 92 3000 1.5 130 12:18 30.12.2019
1713 Mist 3 1034 92 3000 1.5 130 12:18 30.12.2019
1714 Mist 3 1034 92 3000 2.1 160 11:45 30.12.2019
1715 Mist 0 1034 100 3400 1 0 11:22 30.12.2019
1716 Mist 0 1034 100 3400 1 0 10:59 30.12.2019
1717 Mist -1 1034 100 3800 1 0 10:40 30.12.2019
1718 Mist -1 1034 92 4000 1.5 50 10:19 30.12.2019
1719 Mist -1 1034 100 2400 1.5 110 09:42 30.12.2019
1720 Mist -2 1034 100 1500 1 70 09:21 30.12.2019
1721 Mist -2 1034 100 1500 1 70 08:57 30.12.2019
1722 Mist -2 1034 100 1800 1.5 260 08:38 30.12.2019
1723 Mist -2 1034 100 2800 1.5 250 08:19 30.12.2019
1724 Mist -2 1034 100 3200 1.5 250 07:44 30.12.2019
1725 Mist -2 1034 100 3400 1 180 07:23 30.12.2019
1726 Mist -2 1034 100 3000 2.1 320 06:30 30.12.2019
1727 Mist -2 1034 92 3000 1.5 0 04:29 30.12.2019
1728 Mist -1 1034 92 3500 1.5 220 03:47 30.12.2019
1729 Mist -2 1034 92 4300 0.5 0 02:45 30.12.2019
1730 Mist -2 1034 100 4600 1 260 02:25 30.12.2019
1731 Mist -2 1034 100 3500 0.5 0 01:27 30.12.2019
1732 Mist -2 1034 92 3100 0.5 0 00:56 30.12.2019
1733 Mist -2 1034 92 3100 0.5 0 00:36 30.12.2019
1734 Fog -2 1034 100 2600 0.5 150 23:42 29.12.2019
1735 Fog -2 1034 100 900 0.5 200 23:24 29.12.2019
1736 Fog -1 1034 100 900 0.5 200 22:58 29.12.2019
1737 Fog -1 1034 100 100 0.5 0 22:38 29.12.2019
1738 Fog -1 1034 92 250 0.5 0 22:20 29.12.2019
1739 Fog -1 1034 92 250 0.5 0 21:55 29.12.2019
1740 Fog -1 1034 92 250 0.5 0 21:55 29.12.2019
1741 Fog -1 1034 100 2400 1.48 51 21:37 29.12.2019
1742 Fog -1 1034 100 2400 1.48 51 21:37 29.12.2019
1743 Fog -1 1034 100 2200 0.5 0 21:18 29.12.2019
1744 Fog -1 1034 100 2200 0.5 0 20:55 29.12.2019
1745 Mist -1 1034 100 3400 1.48 51 20:37 29.12.2019
1746 Mist -1 1034 92 4500 1.84 44 20:18 29.12.2019
1747 Mist -1 1034 92 4500 1.84 44 19:55 29.12.2019
1748 Clear -1 1034 92 5000 1.84 44 19:37 29.12.2019
1749 Mist -1 1034 92 4500 1.84 44 19:18 29.12.2019
1750 Clear -1 1034 92 5000 1.84 44 18:54 29.12.2019
1751 Clear -1 1034 92 5000 1.84 44 18:54 29.12.2019
1752 Clear -1 1034 92 5000 1.84 44 18:36 29.12.2019
1753 Clear 0 1034 92 6000 1.84 44 18:18 29.12.2019
1754 Clear 0 1034 86 6000 0.5 0 17:54 29.12.2019
1755 Clear 0 1034 86 6000 0.5 0 17:36 29.12.2019
1756 Clouds 0 1034 68 9000 2.1 260 17:18 29.12.2019
1757 Clouds 1 1034 80 9000 2.1 290 16:54 29.12.2019
1758 Clouds 1 1034 80 9000 2.1 290 16:54 29.12.2019
1759 Clouds 1 1034 80 9000 2.1 290 16:36 29.12.2019
1760 Clouds 1 1034 80 10000 3.1 300 16:18 29.12.2019
1761 Clouds 1 1034 74 10000 2.6 310 15:54 29.12.2019
1762 Clouds 1 1034 74 10000 2.6 310 15:36 29.12.2019
1763 Clouds 2 1034 74 10000 1 180 15:18 29.12.2019
1764 Clouds 2 1034 74 10000 1.5 200 14:46 29.12.2019
1765 Clouds 1 1034 80 10000 1.5 250 14:19 29.12.2019
1766 Clouds 1 1034 80 10000 1.5 250 13:59 29.12.2019
1767 Clouds 1 1034 80 10000 1 190 13:40 29.12.2019
1768 Clouds 1 1035 80 10000 2.1 190 13:22 29.12.2019
1769 Clouds 1 1035 67 7000 2.1 160 12:58 29.12.2019
1770 Clouds 1 1035 67 7000 2.1 160 12:39 29.12.2019
1771 Clouds 1 1035 67 10000 2.6 130 12:21 29.12.2019
1772 Clouds 1 1036 67 10000 2.6 110 11:43 29.12.2019
1773 Clouds 0 1036 84 10000 2.1 80 11:22 29.12.2019
1774 Clouds 0 1036 84 10000 2.1 80 10:57 29.12.2019
1775 Clouds 0 1036 84 10000 1.52 36 10:39 29.12.2019
1776 Clouds 0 1036 84 6000 1 0 10:18 29.12.2019
1777 Clouds -1 1036 84 6000 1.5 0 09:46 29.12.2019
1778 Clouds -1 1036 84 6000 1.5 0 09:28 29.12.2019
1779 Clouds -1 1036 84 6000 2.1 10 08:56 29.12.2019
1780 Clouds -1 1035 84 7000 1.52 36 08:38 29.12.2019
1781 Clouds -1 1035 96 10000 1.5 0 08:20 29.12.2019
1782 Clouds -1 1035 96 8000 1 350 07:44 29.12.2019
1783 Clouds -1 1035 96 8000 1 350 07:25 29.12.2019
1784 Clouds -1 1035 92 7000 1.39 41 06:38 29.12.2019
1785 Clouds -1 1035 92 5000 1 300 06:18 29.12.2019
1786 Clouds -1 1035 92 7000 1.5 280 05:44 29.12.2019
1787 Mist -1 1035 100 4300 1 330 04:32 29.12.2019
1788 Mist -1 1035 100 2800 0.5 0 03:35 29.12.2019
1789 Clouds 0 1035 100 5000 2.6 300 02:30 29.12.2019
1790 Clouds 0 1035 100 5000 2.6 300 02:30 29.12.2019
1791 Mist 0 1035 100 4600 0.5 0 01:52 29.12.2019
1792 Mist 0 1035 100 4600 0.5 0 01:29 29.12.2019
1793 Clouds 0 1035 92 6000 3.1 290 00:45 29.12.2019
1794 Clouds 0 1035 92 6000 3.1 290 00:25 29.12.2019
1795 Clouds 0 1035 92 6000 3.1 290 00:25 29.12.2019
1796 Clouds 0 1035 100 6000 3.1 290 23:55 28.12.2019
1797 Clouds 0 1035 100 5000 1 330 23:37 28.12.2019
1798 Clouds 0 1035 95 6000 1 0 23:18 28.12.2019
1799 Clouds 1 1035 95 6000 0.5 0 22:37 28.12.2019
1800 Clouds 0 1035 92 6000 1.5 320 22:18 28.12.2019
1801 Clouds 1 1035 92 6000 1.5 320 21:56 28.12.2019
1802 Clouds 1 1035 95 7000 1 330 21:37 28.12.2019
1803 Clouds 1 1035 86 10000 0.5 0 21:19 28.12.2019
1804 Clouds 1 1035 95 8000 0.5 0 20:54 28.12.2019
1805 Clouds 1 1035 95 8000 0.5 0 20:36 28.12.2019
1806 Clouds 1 1035 86 9000 2.1 290 20:18 28.12.2019
1807 Clouds 1 1035 86 10000 1.5 0 19:41 28.12.2019
1808 Clouds 2 1035 91 10000 0.5 0 19:23 28.12.2019
1809 Clouds 2 1035 91 10000 0.5 0 18:59 28.12.2019
1810 Clouds 2 1035 91 10000 2.1 320 18:41 28.12.2019
1811 Clouds 2 1035 91 10000 1.5 0 18:20 28.12.2019
1812 Clouds 2 1035 91 10000 1.5 0 17:59 28.12.2019
1813 Clouds 2 1035 86 10000 1.5 340 17:39 28.12.2019
1814 Clouds 3 1035 80 10000 1.5 20 17:20 28.12.2019
1815 Clouds 3 1034 80 10000 3.1 20 16:49 28.12.2019
1816 Clouds 3 1034 80 10000 3.1 20 16:27 28.12.2019
1817 Clouds 3 1034 75 10000 2.6 30 15:57 28.12.2019
1818 Clouds 3 1034 75 10000 2.6 30 15:57 28.12.2019
1819 Clouds 4 1034 80 10000 4.1 40 15:39 28.12.2019
1820 Clouds 4 1034 80 10000 2.6 50 15:21 28.12.2019
1821 Clouds 4 1033 75 10000 4.1 50 14:46 28.12.2019
1822 Clouds 5 1033 75 10000 3.6 360 14:24 28.12.2019
1823 Clouds 5 1033 75 10000 3.6 360 13:58 28.12.2019
1824 Clouds 4 1033 75 10000 3.6 360 13:39 28.12.2019
1825 Clouds 5 1033 70 10000 2.1 70 13:19 28.12.2019
1826 Clouds 5 1033 75 10000 3.1 50 12:44 28.12.2019
1827 Clouds 5 1033 75 10000 3.6 80 12:25 28.12.2019
1828 Clouds 5 1033 75 10000 3.6 80 11:59 28.12.2019
1829 Clouds 5 1034 75 10000 3.1 100 11:39 28.12.2019
1830 Clouds 4 1034 93 10000 2.1 90 11:20 28.12.2019
1831 Clouds 4 1034 100 10000 1 230 10:46 28.12.2019
1832 Clouds 3 1035 100 9000 1 0 10:23 28.12.2019
1833 Clouds 3 1035 100 9000 1 0 09:58 28.12.2019
1834 Fog 3 1034 100 10000 1 0 09:40 28.12.2019
1835 Fog 3 1034 100 150 1 0 09:21 28.12.2019
1836 Fog 3 1034 100 10000 1.5 330 08:45 28.12.2019
1837 Fog 3 1034 100 10000 1.5 330 08:27 28.12.2019
1838 Clouds 3 1033 100 6000 1.5 100 07:59 28.12.2019
1839 Clouds 3 1033 100 6000 1.5 160 07:39 28.12.2019
1840 Clouds 4 1033 100 8000 1 130 06:50 28.12.2019
1841 Clouds 4 1033 100 7000 1 0 05:31 28.12.2019
1842 Mist 4 1033 100 4400 1 140 03:47 28.12.2019
1843 Mist 4 1032 100 4700 1 0 02:49 28.12.2019
1844 Clouds 4 1032 100 5000 1.5 90 02:19 28.12.2019
1845 Mist 4 1032 100 3900 2.1 190 01:50 28.12.2019
1846 Mist 4 1032 100 3500 1 0 01:20 28.12.2019
1847 Mist 4 1032 100 4200 1.5 100 00:41 28.12.2019
1848 Clouds 4 1032 93 5000 1.5 90 00:23 28.12.2019
1849 Mist 4 1032 100 4700 1.5 90 23:45 27.12.2019
1850 Clouds 5 1031 100 7000 1.5 120 23:20 27.12.2019
1851 Clouds 5 1031 100 7000 1.5 120 22:58 27.12.2019
1852 Clouds 5 1031 93 10000 2.1 90 22:39 27.12.2019
1853 Clouds 5 1031 93 10000 2.1 110 22:21 27.12.2019
1854 Clouds 5 1031 93 10000 2.1 110 22:21 27.12.2019
1855 Clouds 5 1031 93 10000 2.1 110 21:59 27.12.2019
1856 Clouds 5 1031 100 8000 2.1 120 21:40 27.12.2019
1857 Clouds 5 1031 100 9000 3.1 100 21:22 27.12.2019
1858 Clouds 5 1030 100 8000 2.6 110 20:42 27.12.2019
1859 Clouds 5 1030 100 10000 2.1 120 20:23 27.12.2019
1860 Clouds 5 1030 100 10000 2.1 120 19:55 27.12.2019
1861 Clouds 5 1030 93 10000 2.1 140 19:36 27.12.2019
1862 Clouds 5 1030 93 10000 2.1 160 19:18 27.12.2019
1863 Clouds 5 1030 93 10000 2.1 160 19:18 27.12.2019
1864 Clouds 5 1029 93 10000 0.51 159 18:41 27.12.2019
1865 Clouds 5 1028 93 10000 1 100 18:23 27.12.2019
1866 Clouds 5 1028 93 10000 1 100 17:59 27.12.2019
1867 Clouds 5 1027 87 10000 1.5 150 17:41 27.12.2019
1868 Clouds 6 1027 87 10000 2.6 160 17:19 27.12.2019
1869 Clouds 6 1027 87 10000 2.6 160 16:59 27.12.2019
1870 Clouds 6 1027 87 10000 2.6 160 16:39 27.12.2019
1871 Clouds 6 1027 81 10000 2.1 110 16:21 27.12.2019
1872 Clouds 6 1027 76 10000 1.5 40 15:46 27.12.2019
1873 Clouds 6 1027 75 10000 3.1 300 15:24 27.12.2019
1874 Clouds 6 1027 75 10000 3.1 300 14:59 27.12.2019
1875 Clouds 6 1026 81 10000 1.5 210 14:40 27.12.2019
1876 Clouds 6 1026 81 10000 1 0 14:22 27.12.2019
1877 Clouds 6 1026 81 10000 1 0 13:58 27.12.2019
1878 Clouds 6 1025 87 10000 1.5 0 13:40 27.12.2019
1879 Clouds 6 1025 81 10000 3.6 120 13:21 27.12.2019
1880 Clouds 6 1025 87 10000 4.6 150 12:44 27.12.2019
1881 Clouds 6 1025 87 10000 4.6 150 12:26 27.12.2019
1882 Clouds 6 1025 87 10000 4.6 150 12:26 27.12.2019
1883 Clouds 5 1025 93 10000 2.1 130 11:56 27.12.2019
1884 Clouds 5 1025 93 10000 2.1 130 11:38 27.12.2019
1885 Drizzle 5 1024 100 6000 2.6 140 11:19 27.12.2019
1886 Rain 5 1024 100 5000 1.5 100 10:45 27.12.2019
1887 Rain 5 1023 100 5000 1 0 10:23 27.12.2019
1888 Rain 5 1023 93 5000 0.5 0 09:50 27.12.2019
1889 Rain 5 1023 93 5000 0.5 0 09:22 27.12.2019
1890 Rain 4 1023 93 5000 0.5 0 08:59 27.12.2019
1891 Rain 5 1022 100 6000 2.1 0 08:41 27.12.2019
1892 Rain 5 1022 93 9000 1 0 08:22 27.12.2019
1893 Rain 5 1022 100 5000 1 100 07:38 27.12.2019
1894 Rain 5 1022 93 7000 1.5 140 06:59 27.12.2019
1895 Rain 5 1022 87 10000 1.5 0 06:23 27.12.2019
1896 Rain 5 1023 100 10000 1 0 04:37 27.12.2019
1897 Drizzle 5 1024 93 10000 2.6 110 02:28 27.12.2019
1898 Clouds 5 1025 93 9000 2.6 150 01:44 27.12.2019
1899 Rain 5 1025 93 6000 0.5 0 01:21 27.12.2019
1900 Drizzle 5 1025 100 7000 1.5 100 00:47 27.12.2019
1901 Rain 5 1026 93 3400 1.5 0 00:25 27.12.2019
1902 Rain 5 1026 93 3400 1.5 0 23:56 26.12.2019
1903 Drizzle 5 1026 93 10000 2.1 100 23:37 26.12.2019
1904 Clouds 5 1026 93 10000 2.1 100 23:19 26.12.2019
1905 Clouds 4 1026 93 10000 1.5 160 22:40 26.12.2019
1906 Drizzle 4 1026 86 10000 0.5 0 22:18 26.12.2019
1907 Drizzle 4 1027 86 10000 1.5 70 21:40 26.12.2019
1908 Clouds 4 1027 86 9000 2.1 110 21:21 26.12.2019
1909 Clouds 4 1027 86 9000 2.1 110 20:58 26.12.2019
1910 Clouds 4 1027 93 10000 1.5 100 20:38 26.12.2019
1911 Clouds 4 1027 93 10000 1.5 100 20:38 26.12.2019
1912 Clouds 4 1027 93 10000 1.5 0 20:20 26.12.2019
1913 Clouds 4 1026 93 10000 2.1 120 19:55 26.12.2019
1914 Clouds 4 1026 93 10000 2.1 120 19:37 26.12.2019
1915 Drizzle 4 1026 93 10000 1 90 19:19 26.12.2019
1916 Drizzle 4 1026 93 10000 1 90 19:19 26.12.2019
1917 Drizzle 4 1026 93 10000 1 90 18:55 26.12.2019
1918 Clouds 4 1025 86 10000 2.1 170 18:36 26.12.2019
1919 Clouds 4 1025 93 10000 2.6 130 18:18 26.12.2019
1920 Clouds 4 1024 86 10000 1 0 17:41 26.12.2019
1921 Rain 4 1024 93 10000 0.46 226 17:21 26.12.2019
1922 Rain 4 1024 93 10000 0.46 226 17:21 26.12.2019
1923 Rain 4 1024 80 10000 1 0 16:49 26.12.2019
1924 Clouds 4 1023 80 10000 1 0 16:26 26.12.2019
1925 Clouds 4 1023 80 10000 1 0 15:57 26.12.2019
1926 Clouds 4 1023 80 10000 1 0 15:38 26.12.2019
1927 Clouds 4 1023 80 10000 1.5 0 15:19 26.12.2019
1928 Clouds 4 1024 80 10000 2.6 110 14:41 26.12.2019
1929 Clouds 4 1024 86 10000 0.46 226 14:23 26.12.2019
1930 Clouds 4 1024 86 10000 1.34 263 13:55 26.12.2019
1931 Clouds 4 1024 93 10000 1 20 13:36 26.12.2019
1932 Clouds 3 1024 93 10000 1.5 0 13:18 26.12.2019
1933 Clouds 3 1024 93 10000 1.5 0 12:44 26.12.2019
1934 Fog 3 1025 100 7000 1 320 12:24 26.12.2019
1935 Fog 3 1025 100 7000 1 320 11:59 26.12.2019
1936 Mist 3 1024 76 2800 1 210 11:40 26.12.2019
1937 Mist 2 1024 86 1000 1 140 11:21 26.12.2019
1938 Fog 2 1025 86 300 1 140 10:50 26.12.2019
1939 Rain 1 1024 86 350 0.46 23 10:25 26.12.2019
1940 Rain 1 1024 86 350 0.46 23 09:55 26.12.2019
1941 Rain 1 1024 86 300 1 160 09:33 26.12.2019
1942 Fog 0 1024 100 400 0.46 23 08:59 26.12.2019
1943 Fog 0 1024 100 400 0.46 23 08:39 26.12.2019
1944 Fog 0 1024 100 350 1 200 08:20 26.12.2019
1945 Fog 0 1024 100 250 1 220 07:38 26.12.2019
1946 Fog 0 1024 100 150 0.5 50 07:19 26.12.2019
1947 Fog 0 1024 92 350 1 300 06:37 26.12.2019
1948 Fog 0 1023 100 200 0.5 320 06:19 26.12.2019
1949 Fog 0 1023 100 200 0.5 0 05:41 26.12.2019
1950 Fog 0 1024 100 100 0.82 92 04:33 26.12.2019
1951 Fog 1 1024 100 3000 0.5 0 03:31 26.12.2019
1952 Fog 1 1024 100 200 0.5 0 02:46 26.12.2019
1953 Fog 1 1024 100 200 0.5 0 02:27 26.12.2019
1954 Fog 1 1024 100 5000 0.5 0 01:44 26.12.2019
1955 Clouds 1 1022 100 10000 0.5 0 01:24 26.12.2019
1956 Clouds 2 1024 100 7000 0.5 0 00:44 26.12.2019
1957 Clouds 2 1024 92 5000 1 0 00:23 26.12.2019
1958 Clouds 2 1024 92 5000 1 0 23:57 25.12.2019
1959 Clouds 2 1024 95 10000 1 0 23:37 25.12.2019
1960 Clouds 2 1024 100 10000 0.5 0 23:18 25.12.2019
1961 Clouds 2 1025 94 10000 0.5 0 22:55 25.12.2019
1962 Clouds 2 1025 94 10000 0.5 0 22:37 25.12.2019
1963 Clouds 3 1024 100 10000 0.5 0 22:18 25.12.2019
1964 Clouds 3 1024 100 10000 0.5 0 21:55 25.12.2019
1965 Clouds 3 1025 94 10000 0.5 0 21:37 25.12.2019
1966 Clouds 3 1025 94 10000 1 0 21:18 25.12.2019
1967 Clouds 4 1025 86 10000 1 0 20:40 25.12.2019
1968 Clouds 4 1025 86 10000 1 0 20:20 25.12.2019
1969 Clouds 4 1025 86 10000 1 0 19:57 25.12.2019
1970 Clouds 4 1025 86 10000 1 0 19:39 25.12.2019
1971 Clouds 5 1025 86 10000 2.1 310 19:21 25.12.2019
1972 Clouds 5 1025 81 10000 0.5 0 18:39 25.12.2019
1973 Clouds 5 1025 86 10000 1.5 50 18:20 25.12.2019
1974 Clouds 5 1025 86 10000 1.5 50 17:57 25.12.2019
1975 Clouds 6 1025 81 10000 1.5 290 17:36 25.12.2019
1976 Clouds 6 1024 81 10000 2.6 310 17:18 25.12.2019
1977 Clouds 7 1024 81 10000 5.1 310 16:39 25.12.2019
1978 Clouds 7 1024 70 10000 5.7 290 16:19 25.12.2019
1979 Clouds 7 1024 70 10000 5.7 290 15:58 25.12.2019
1980 Clouds 7 1023 66 10000 5.1 280 15:39 25.12.2019
1981 Clouds 7 1023 66 10000 4.6 290 15:21 25.12.2019
1982 Clouds 7 1023 66 10000 4.6 290 14:59 25.12.2019
1983 Clouds 8 1023 61 10000 3.6 280 14:40 25.12.2019
1984 Clouds 8 1023 61 10000 3.6 280 14:40 25.12.2019
1985 Clouds 8 1023 57 10000 4.6 260 14:21 25.12.2019
1986 Clouds 8 1023 57 10000 4.6 260 14:21 25.12.2019
1987 Clouds 8 1023 57 10000 4.6 260 13:57 25.12.2019
1988 Clouds 8 1023 57 10000 4.6 270 13:38 25.12.2019
1989 Clouds 8 1023 57 10000 4.6 260 13:19 25.12.2019
1990 Clouds 8 1023 66 10000 5.7 260 12:42 25.12.2019
1991 Clouds 8 1023 61 10000 5.1 260 12:21 25.12.2019
1992 Clouds 8 1023 61 10000 5.1 260 11:57 25.12.2019
1993 Clouds 8 1023 61 10000 6.7 240 11:38 25.12.2019
1994 Clouds 7 1022 57 10000 6.7 230 11:18 25.12.2019
1995 Clouds 7 1022 57 10000 5.7 240 10:38 25.12.2019
1996 Clouds 7 1022 65 10000 7.2 240 10:20 25.12.2019
1997 Clouds 7 1022 61 10000 4.1 260 09:51 25.12.2019
1998 Clouds 7 1022 61 10000 4.1 260 09:32 25.12.2019
1999 Clouds 6 1022 65 10000 5.1 220 08:51 25.12.2019
2000 Clouds 6 1022 65 10000 5.1 220 08:31 25.12.2019
2001 Clouds 6 1022 65 10000 5.1 220 08:31 25.12.2019
2002 Clouds 7 1021 65 10000 5.7 220 07:53 25.12.2019
2003 Clouds 7 1021 65 10000 5.7 220 07:34 25.12.2019
2004 Clouds 7 1022 65 10000 7.7 220 06:58 25.12.2019
2005 Clouds 7 1021 65 10000 3.1 240 06:23 25.12.2019
2006 Clouds 7 1021 61 10000 3.6 250 05:31 25.12.2019
2007 Clouds 7 1021 65 10000 4.1 250 04:39 25.12.2019
2008 Rain 7 1021 81 10000 2.1 0 04:20 25.12.2019
2009 Drizzle 7 1021 93 10000 2.1 340 03:43 25.12.2019
2010 Rain 7 1021 81 10000 4.1 310 02:56 25.12.2019
2011 Drizzle 7 1020 75 10000 5.1 310 02:27 25.12.2019
2012 Clouds 7 1020 75 10000 1 0 01:26 25.12.2019
2013 Rain 7 1020 75 10000 4.1 300 00:56 25.12.2019
2014 Rain 7 1020 66 10000 4.6 250 00:33 25.12.2019
2015 Clouds 7 1020 57 10000 5.1 270 23:58 24.12.2019
2016 Clouds 7 1020 61 10000 2.6 250 23:39 24.12.2019
2017 Clouds 7 1019 66 10000 2.6 0 23:20 24.12.2019
2018 Clouds 7 1019 61 10000 4.6 260 22:41 24.12.2019
2019 Clouds 6 1019 61 10000 3.1 0 22:23 24.12.2019
2020 Clouds 7 1020 65 10000 3.6 290 21:45 24.12.2019
2021 Clouds 7 1019 61 10000 2.1 260 21:24 24.12.2019
2022 Clouds 7 1019 61 10000 2.1 260 20:59 24.12.2019
2023 Rain 7 1019 61 10000 2.1 290 20:41 24.12.2019
2024 Rain 7 1019 66 10000 2.1 290 20:19 24.12.2019
2025 Rain 7 1018 61 10000 2.6 0 19:45 24.12.2019
2026 Rain 8 1019 61 10000 2.6 240 19:21 24.12.2019
2027 Rain 8 1019 61 10000 2.6 240 18:58 24.12.2019
2028 Rain 7 1018 61 10000 3.6 240 18:40 24.12.2019
2029 Clouds 7 1019 66 10000 4.1 240 18:18 24.12.2019
2030 Clouds 7 1019 62 10000 5.1 240 17:42 24.12.2019
2031 Clouds 8 1018 66 10000 4.6 240 17:21 24.12.2019
2032 Clouds 8 1018 66 10000 4.6 240 16:56 24.12.2019
2033 Clouds 8 1018 71 10000 5.7 260 16:38 24.12.2019
2034 Clouds 8 1018 93 10000 6.7 330 16:20 24.12.2019
2035 Rain 8 1018 93 10000 6.7 330 15:56 24.12.2019
2036 Clouds 7 1017 93 10000 1 310 15:36 24.12.2019
2037 Clouds 7 1017 93 10000 1 310 15:36 24.12.2019
2038 Rain 7 1017 93 10000 2.1 130 15:18 24.12.2019
2039 Rain 7 1017 93 10000 2.1 130 14:56 24.12.2019
2040 Clouds 7 1017 93 10000 3.1 150 14:38 24.12.2019
2041 Drizzle 6 1017 93 8000 1 0 14:20 24.12.2019
2042 Drizzle 6 1017 93 8000 1 0 13:55 24.12.2019
2043 Rain 6 1017 93 10000 2.1 70 13:37 24.12.2019
2044 Clouds 5 1017 93 8000 1.5 150 13:19 24.12.2019
2045 Rain 5 1018 100 10000 1.5 110 12:55 24.12.2019
2046 Rain 5 1018 100 10000 1.5 110 12:36 24.12.2019
2047 Rain 5 1018 100 10000 3.1 110 12:18 24.12.2019
2048 Rain 5 1019 93 7000 1.5 0 11:55 24.12.2019
2049 Rain 4 1019 93 7000 1.5 0 11:36 24.12.2019
2050 Rain 4 1019 93 10000 1.5 310 11:18 24.12.2019
2051 Rain 4 1019 93 10000 1.5 310 10:55 24.12.2019
2052 Rain 4 1019 93 10000 1.5 310 10:55 24.12.2019
2053 Rain 4 1019 93 8000 2.1 340 10:37 24.12.2019
2054 Rain 3 1020 93 8000 2.6 320 10:19 24.12.2019
2055 Rain 3 1020 93 8000 1 0 09:54 24.12.2019
2056 Rain 3 1020 93 8000 1 0 09:36 24.12.2019
2057 Rain 3 1020 93 8000 2.6 310 09:18 24.12.2019
2058 Rain 3 1020 93 8000 0.5 0 08:43 24.12.2019
2059 Rain 3 1020 93 10000 1 300 08:20 24.12.2019
2060 Rain 3 1020 93 10000 1.5 190 07:45 24.12.2019
2061 Rain 3 1021 93 10000 1 0 07:25 24.12.2019
2062 Rain 3 1021 93 10000 1 0 06:57 24.12.2019
2063 Clouds 3 1021 86 10000 1 0 06:38 24.12.2019
2064 Clouds 3 1020 93 10000 0.5 0 06:18 24.12.2019
2065 Clouds 3 1020 93 10000 2.6 120 05:20 24.12.2019
2066 Clouds 3 1021 93 10000 2.6 120 04:36 24.12.2019
2067 Clouds 3 1021 90 10000 0.5 0 03:50 24.12.2019
2068 Clouds 3 1021 90 10000 2.1 100 02:59 24.12.2019
2069 Clouds 4 1021 80 10000 3.1 330 02:19 24.12.2019
2070 Clouds 4 1022 75 10000 1 0 01:42 24.12.2019
2071 Clouds 4 1022 93 10000 1.5 0 01:20 24.12.2019
2072 Clouds 4 1022 70 10000 1 0 00:43 24.12.2019
2073 Clouds 5 1022 70 10000 0.5 0 00:23 24.12.2019
2074 Clouds 4 1022 70 10000 0.5 0 23:55 23.12.2019
2075 Clouds 5 1022 70 10000 1 0 23:37 23.12.2019
2076 Clouds 5 1022 70 10000 1.5 230 23:19 23.12.2019
2077 Clouds 5 1021 80 10000 2.1 260 22:54 23.12.2019
2078 Clouds 5 1021 80 10000 2.1 260 22:36 23.12.2019
2079 Clouds 5 1021 80 10000 1 0 22:18 23.12.2019
2080 Clouds 5 1021 80 10000 1 0 21:55 23.12.2019
2081 Clouds 5 1021 86 10000 1.5 0 21:36 23.12.2019
2082 Clouds 5 1020 93 10000 1 0 21:18 23.12.2019
2083 Clouds 5 1020 93 10000 1 0 21:18 23.12.2019
2084 Clouds 5 1020 93 10000 1 0 20:55 23.12.2019
2085 Clouds 5 1020 93 10000 0.5 0 20:37 23.12.2019
2086 Drizzle 5 1020 93 10000 1 0 20:18 23.12.2019
2087 Drizzle 5 1020 93 10000 1 0 20:18 23.12.2019
2088 Rain 5 1019 86 10000 1.5 0 19:54 23.12.2019
2089 Rain 5 1019 86 10000 1.5 0 19:36 23.12.2019
2090 Rain 5 1019 86 10000 3.6 300 19:18 23.12.2019
2091 Drizzle 5 1019 81 10000 4.1 280 18:54 23.12.2019
2092 Drizzle 5 1019 81 10000 4.1 280 18:36 23.12.2019
2093 Rain 5 1018 75 10000 4.6 270 18:18 23.12.2019
2094 Drizzle 6 1018 81 10000 5.1 260 17:55 23.12.2019
2095 Drizzle 6 1018 81 10000 5.1 260 17:37 23.12.2019
2096 Drizzle 6 1018 81 10000 5.1 260 17:37 23.12.2019
2097 Clouds 6 1017 70 10000 6.2 260 17:18 23.12.2019
2098 Clouds 6 1017 70 10000 5.1 260 16:42 23.12.2019
2099 Clouds 6 1016 75 10000 6.2 260 16:19 23.12.2019
2100 Clouds 6 1016 75 10000 6.2 260 16:19 23.12.2019
2101 Clouds 6 1016 75 10000 6.2 260 15:58 23.12.2019
2102 Clouds 6 1016 75 10000 7.2 260 15:38 23.12.2019
2103 Rain 6 1015 70 10000 6.7 270 15:19 23.12.2019
2104 Rain 6 1015 70 10000 6.7 270 14:57 23.12.2019
2105 Rain 6 1015 75 10000 4.1 260 14:39 23.12.2019
2106 Rain 6 1014 75 10000 4.1 260 14:20 23.12.2019
2107 Rain 6 1014 75 10000 4.1 260 13:57 23.12.2019
2108 Rain 6 1014 75 10000 4.1 250 13:39 23.12.2019
2109 Rain 6 1014 75 10000 5.1 260 13:21 23.12.2019
2110 Rain 6 1014 81 7000 4.6 260 12:55 23.12.2019
2111 Rain 6 1014 81 7000 4.6 260 12:37 23.12.2019
2112 Rain 6 1014 75 7000 4.1 240 12:18 23.12.2019
2113 Rain 6 1014 70 10000 3.6 250 11:43 23.12.2019
2114 Clouds 5 1014 70 10000 4.1 240 11:25 23.12.2019
2115 Clouds 5 1013 75 10000 3.6 240 10:56 23.12.2019
2116 Clouds 5 1013 75 10000 3.6 240 10:38 23.12.2019
2117 Rain 5 1013 75 10000 3.1 250 10:20 23.12.2019
2118 Rain 5 1013 75 10000 3.1 250 09:59 23.12.2019
2119 Rain 5 1012 75 10000 4.1 260 09:39 23.12.2019
2120 Clouds 5 1012 75 10000 3.6 240 09:20 23.12.2019
2121 Rain 5 1012 75 10000 3.6 240 08:55 23.12.2019
2122 Rain 5 1011 75 6000 1.5 210 08:37 23.12.2019
2123 Rain 5 1011 75 10000 3.1 240 08:18 23.12.2019
2124 Drizzle 5 1011 75 10000 4.6 240 07:43 23.12.2019
2125 Rain 5 1010 75 10000 4.1 240 07:19 23.12.2019
2126 Rain 5 1009 80 10000 4.1 250 06:50 23.12.2019
2127 Rain 5 1009 80 9000 4.1 250 06:23 23.12.2019
2128 Rain 5 1008 80 10000 3.1 240 05:49 23.12.2019
2129 Drizzle 5 1008 75 10000 1 0 05:19 23.12.2019
2130 Rain 5 1008 80 10000 2.1 240 04:19 23.12.2019
2131 Rain 4 1006 70 10000 6.7 260 02:49 23.12.2019
2132 Rain 5 1006 80 10000 6.2 240 02:23 23.12.2019
2133 Rain 5 1005 80 6000 4.1 250 01:53 23.12.2019
2134 Rain 4 1005 80 6000 4.1 250 01:32 23.12.2019
2135 Rain 5 1004 80 10000 4.6 250 00:55 23.12.2019
2136 Drizzle 4 1004 80 10000 5.1 250 00:35 23.12.2019
2137 Rain 4 1003 80 10000 5.7 240 23:57 22.12.2019
2138 Rain 4 1003 80 10000 5.7 240 23:57 22.12.2019
2139 Rain 5 1003 80 8000 4.6 280 23:39 22.12.2019
2140 Rain 5 1002 80 10000 4.1 280 23:20 22.12.2019
2141 Rain 5 1002 80 10000 4.1 280 22:57 22.12.2019
2142 Rain 5 1001 80 10000 3.6 260 22:38 22.12.2019
2143 Rain 5 1001 80 10000 5.1 230 22:19 22.12.2019
2144 Rain 5 1001 80 10000 5.1 230 21:56 22.12.2019
2145 Rain 5 1001 80 10000 5.1 230 21:56 22.12.2019
2146 Rain 5 1000 81 10000 3.1 300 21:38 22.12.2019
2147 Rain 5 1000 81 10000 3.1 300 21:38 22.12.2019
2148 Drizzle 5 1000 86 10000 4.6 330 21:20 22.12.2019
2149 Drizzle 5 1000 86 10000 4.6 330 20:55 22.12.2019
2150 Clouds 5 1000 75 10000 5.7 330 20:37 22.12.2019
2151 Clouds 5 1000 75 10000 5.7 330 20:37 22.12.2019
2152 Rain 5 999 75 10000 4.1 280 20:18 22.12.2019
2153 Clouds 5 999 65 10000 3.1 240 19:41 22.12.2019
2154 Clouds 5 999 70 10000 2.1 0 19:21 22.12.2019
2155 Clouds 5 999 70 10000 2.1 0 18:58 22.12.2019
2156 Clouds 5 999 70 10000 4.1 250 18:38 22.12.2019
2157 Clouds 5 999 70 10000 3.1 250 18:19 22.12.2019
2158 Clouds 5 998 70 10000 2.6 210 17:55 22.12.2019
2159 Clouds 6 998 70 10000 2.6 210 17:37 22.12.2019
2160 Clouds 6 998 75 10000 3.1 230 17:18 22.12.2019
2161 Drizzle 6 998 75 10000 4.6 250 16:56 22.12.2019
2162 Drizzle 6 998 75 10000 4.6 250 16:56 22.12.2019
2163 Drizzle 6 998 75 10000 4.6 250 16:37 22.12.2019
2164 Rain 6 997 75 10000 5.1 240 16:19 22.12.2019
2165 Rain 6 996 86 10000 6.2 230 15:54 22.12.2019
2166 Rain 6 997 81 7000 2.6 260 15:36 22.12.2019
2167 Rain 6 997 81 7000 5.1 250 15:18 22.12.2019
2168 Rain 6 996 70 8000 7.2 260 14:39 22.12.2019
2169 Rain 6 995 75 8000 7.7 260 14:19 22.12.2019
2170 Rain 7 995 75 8000 7.7 260 13:56 22.12.2019
2171 Rain 7 995 75 10000 6.7 250 13:38 22.12.2019
2172 Rain 7 994 75 10000 7.7 240 13:20 22.12.2019
2173 Rain 7 994 75 10000 7.7 240 12:57 22.12.2019
2174 Rain 7 993 75 10000 7.2 240 12:39 22.12.2019
2175 Rain 7 993 75 10000 7.7 240 12:20 22.12.2019
2176 Rain 7 993 75 10000 7.7 240 11:59 22.12.2019
2177 Rain 6 992 70 10000 5.1 230 11:39 22.12.2019
2178 Rain 6 992 75 10000 4.1 230 11:20 22.12.2019
2179 Rain 6 991 70 10000 5.1 230 10:58 22.12.2019
2180 Rain 6 991 70 10000 5.1 230 10:40 22.12.2019
2181 Rain 6 991 70 10000 5.1 230 10:40 22.12.2019
2182 Rain 6 990 81 10000 3.6 210 10:20 22.12.2019
2183 Rain 6 990 81 10000 3.6 210 09:58 22.12.2019
2184 Drizzle 6 990 100 10000 1.5 0 09:40 22.12.2019
2185 Rain 5 990 100 7000 1 0 09:21 22.12.2019
2186 Rain 5 990 100 5000 1 0 08:45 22.12.2019
2187 Rain 5 989 100 10000 1 120 08:23 22.12.2019
2188 Drizzle 5 989 100 10000 2.1 160 07:52 22.12.2019
2189 Rain 5 989 100 10000 1.5 310 07:22 22.12.2019
2190 Rain 5 989 100 10000 1.5 310 06:57 22.12.2019
2191 Rain 4 989 100 10000 2.1 310 06:30 22.12.2019
2192 Clouds 5 988 93 10000 2.6 100 05:43 22.12.2019
2193 Rain 5 989 93 10000 0.5 0 05:21 22.12.2019
2194 Clouds 5 989 93 10000 1 90 04:27 22.12.2019
2195 Clouds 5 989 100 10000 1.5 120 03:28 22.12.2019
2196 Rain 5 990 93 10000 2.6 110 02:35 22.12.2019
2197 Rain 5 990 93 10000 1.5 0 01:33 22.12.2019
2198 Rain 5 990 100 10000 2.1 100 00:59 22.12.2019
2199 Drizzle 5 990 93 10000 1.5 110 00:41 22.12.2019
2200 Rain 5 991 93 10000 2.6 110 00:21 22.12.2019
2201 Rain 4 991 100 10000 3.1 110 23:42 21.12.2019
2202 Rain 4 991 100 9000 3.1 110 23:24 21.12.2019
2203 Rain 4 991 100 9000 3.1 110 22:58 21.12.2019
2204 Rain 4 991 100 6000 1.5 0 22:39 21.12.2019
2205 Rain 4 990 100 10000 1.5 170 22:19 21.12.2019
2206 Rain 3 990 100 10000 1.5 170 21:56 21.12.2019
2207 Rain 3 990 100 10000 1.5 170 21:56 21.12.2019
2208 Clouds 3 990 100 10000 1.5 0 21:37 21.12.2019
2209 Clouds 3 990 100 10000 2.1 130 21:19 21.12.2019
2210 Clouds 3 990 100 10000 2.1 130 20:57 21.12.2019
2211 Clouds 3 990 100 10000 2.6 90 20:38 21.12.2019
2212 Clouds 3 990 93 10000 2.1 140 20:20 21.12.2019
2213 Clouds 3 990 93 10000 2.1 140 19:57 21.12.2019
2214 Clouds 3 991 93 10000 2.1 120 19:39 21.12.2019
2215 Clouds 3 992 100 10000 1.5 150 19:19 21.12.2019
2216 Clouds 4 992 93 10000 2.6 120 18:42 21.12.2019
2217 Clouds 4 992 100 10000 2.1 80 18:23 21.12.2019
2218 Clouds 4 992 100 10000 2.1 80 17:57 21.12.2019
2219 Clouds 4 993 93 10000 2.6 120 17:39 21.12.2019
2220 Clouds 5 994 93 10000 2.1 110 17:20 21.12.2019
2221 Clouds 5 994 93 10000 2.1 110 16:57 21.12.2019
2222 Clouds 5 994 81 10000 1 110 16:39 21.12.2019
2223 Clouds 6 994 75 10000 2.1 160 16:18 21.12.2019
2224 Clouds 6 994 75 10000 2.1 160 15:56 21.12.2019
2225 Clouds 7 994 75 10000 1.5 170 15:37 21.12.2019
2226 Clouds 7 995 70 10000 3.6 290 15:18 21.12.2019
2227 Clouds 7 996 70 10000 3.1 300 14:44 21.12.2019
2228 Clouds 7 996 70 10000 3.1 300 14:25 21.12.2019
2229 Clouds 7 996 70 10000 1.5 0 13:59 21.12.2019
2230 Clouds 7 996 75 10000 1.5 110 13:40 21.12.2019
2231 Clouds 7 997 81 10000 2.1 100 13:20 21.12.2019
2232 Clouds 6 997 81 10000 2.1 100 12:57 21.12.2019
2233 Clouds 6 997 81 10000 1.5 0 12:39 21.12.2019
2234 Clouds 6 998 87 10000 1.5 0 12:21 21.12.2019
2235 Clouds 6 998 93 10000 1 0 11:57 21.12.2019
2236 Clouds 6 998 93 10000 1 0 11:39 21.12.2019
2237 Rain 5 998 93 10000 1.5 0 11:21 21.12.2019
2238 Rain 5 998 86 10000 2.6 140 10:41 21.12.2019
2239 Rain 5 997 93 10000 1 0 10:23 21.12.2019
2240 Rain 5 997 93 10000 1 0 09:59 21.12.2019
2241 Rain 5 997 100 8000 1.5 120 09:41 21.12.2019
2242 Rain 5 996 93 8000 2.6 140 09:20 21.12.2019
2243 Rain 4 996 100 5000 1.5 0 08:53 21.12.2019
2244 Rain 4 996 100 5000 2.1 140 08:27 21.12.2019
2245 Rain 4 996 100 5000 2.1 140 07:59 21.12.2019
2246 Rain 4 996 100 3200 1 180 07:41 21.12.2019
2247 Rain 4 996 100 5000 0.5 0 07:21 21.12.2019
2248 Rain 5 996 93 10000 2.1 160 06:42 21.12.2019
2249 Rain 5 996 93 9000 0.5 0 06:24 21.12.2019
2250 Rain 5 996 93 8000 0.5 0 05:43 21.12.2019
2251 Rain 5 996 93 9000 2.1 90 04:55 21.12.2019
2252 Rain 4 996 100 10000 1 0 03:56 21.12.2019
2253 Clouds 5 996 93 10000 2.6 100 02:39 21.12.2019
2254 Clouds 5 997 93 10000 1 0 01:53 21.12.2019
2255 Clouds 5 997 93 10000 1 0 01:26 21.12.2019
2256 Clouds 5 997 93 10000 2.1 110 00:49 21.12.2019
2257 Clouds 5 997 93 10000 2.1 110 00:28 21.12.2019
2258 Clouds 5 997 93 10000 1 70 23:55 20.12.2019
2259 Clouds 5 997 93 10000 2.1 90 23:36 20.12.2019
2260 Clouds 5 997 93 10000 1 150 23:18 20.12.2019
2261 Clouds 5 997 100 10000 1 140 22:40 20.12.2019
2262 Clouds 5 997 93 10000 1 0 22:20 20.12.2019
2263 Clouds 5 997 93 10000 1 0 21:57 20.12.2019
2264 Rain 6 997 87 10000 1.5 0 21:39 20.12.2019
2265 Drizzle 6 997 87 10000 2.6 330 21:18 20.12.2019
2266 Rain 6 998 81 10000 4.6 260 20:39 20.12.2019
2267 Rain 6 997 87 10000 4.1 310 20:19 20.12.2019
2268 Rain 7 997 81 10000 4.6 290 19:57 20.12.2019
2269 Rain 7 997 81 10000 4.6 290 19:39 20.12.2019
2270 Rain 7 996 81 10000 5.7 280 19:19 20.12.2019
2271 Rain 7 996 87 10000 5.1 280 18:42 20.12.2019
2272 Rain 7 996 87 10000 5.1 280 18:42 20.12.2019
2273 Rain 7 995 87 8000 6.7 270 18:23 20.12.2019
2274 Rain 8 994 76 10000 9.3 270 17:58 20.12.2019
2275 Rain 8 994 76 10000 9.3 270 17:40 20.12.2019
2276 Rain 8 994 76 10000 9.3 270 17:20 20.12.2019
2277 Rain 8 994 76 10000 10.3 270 16:59 20.12.2019
2278 Rain 8 992 76 10000 11.8 260 16:38 20.12.2019
2279 Rain 8 992 76 10000 11.8 260 16:20 20.12.2019
2280 Rain 8 992 76 10000 11.8 260 16:20 20.12.2019
2281 Drizzle 8 992 81 10000 11.8 260 15:56 20.12.2019
2282 Rain 7 992 87 10000 4.6 290 15:38 20.12.2019
2283 Rain 7 992 87 10000 4.6 290 15:19 20.12.2019
2284 Clouds 7 992 93 10000 2.1 0 14:43 20.12.2019
2285 Clouds 6 992 93 10000 1.42 210 14:24 20.12.2019
2286 Clouds 6 992 93 10000 1.5 0 13:59 20.12.2019
2287 Clouds 6 992 93 10000 1.5 0 13:59 20.12.2019
2288 Clouds 6 992 93 10000 1.5 0 13:40 20.12.2019
2289 Clouds 6 992 93 10000 1 0 13:19 20.12.2019
2290 Clouds 6 992 93 10000 1 0 12:57 20.12.2019
2291 Rain 6 993 100 10000 1.5 300 12:37 20.12.2019
2292 Rain 6 993 100 10000 1.5 300 12:18 20.12.2019
2293 Rain 6 994 93 10000 1 0 11:57 20.12.2019
2294 Rain 6 994 93 10000 1 0 11:39 20.12.2019
2295 Rain 4 994 93 10000 1.5 0 11:18 20.12.2019
2296 Clouds 4 995 93 10000 1.5 0 10:56 20.12.2019
2297 Clouds 4 995 93 10000 1.5 0 10:38 20.12.2019
2298 Clouds 4 995 93 10000 1.5 0 10:20 20.12.2019
2299 Clouds 4 995 93 10000 1.5 0 10:20 20.12.2019
2300 Clouds 4 995 100 10000 1 0 09:43 20.12.2019
2301 Clouds 4 995 93 10000 1 0 09:22 20.12.2019
2302 Clouds 3 995 100 10000 3.6 350 08:58 20.12.2019
2303 Clouds 3 995 100 10000 3.6 350 08:40 20.12.2019
2304 Clouds 3 994 100 10000 3.1 340 08:21 20.12.2019
2305 Fog 2 994 91 5000 2.1 330 07:57 20.12.2019
2306 Fog 2 995 100 900 1 0 07:38 20.12.2019
2307 Fog 2 995 100 900 1 0 07:18 20.12.2019
2308 Fog 2 996 100 6000 0.5 0 06:48 20.12.2019
2309 Fog 2 996 100 3900 1.5 0 06:29 20.12.2019
2310 Fog 2 997 100 2000 0.5 0 05:49 20.12.2019
2311 Mist 2 998 100 3400 0.5 0 05:20 20.12.2019
2312 Mist 3 1000 91 4400 2.1 340 03:50 20.12.2019
2313 Clouds 3 1001 91 7000 0.5 0 03:28 20.12.2019
2314 Clouds 3 1003 93 10000 2.6 70 02:33 20.12.2019
2315 Clouds 4 1005 93 10000 3.1 100 01:36 20.12.2019
2316 Clouds 3 1006 93 9000 2.6 170 00:58 20.12.2019
2317 Clouds 3 1006 93 9000 2.6 170 00:39 20.12.2019
2318 Clouds 4 1007 93 9000 2.1 0 23:58 19.12.2019
2319 Clouds 4 1007 93 9000 2.1 0 23:40 19.12.2019
2320 Clouds 4 1006 100 9000 2.1 300 23:21 19.12.2019
2321 Clouds 4 1005 100 10000 2.6 330 22:40 19.12.2019
2322 Clouds 4 1005 100 10000 2.6 330 22:40 19.12.2019
2323 Clouds 4 1005 93 5000 3.1 300 22:22 19.12.2019
2324 Clouds 4 1005 93 10000 1.5 0 21:59 19.12.2019
2325 Clouds 4 1005 93 10000 1.5 0 21:41 19.12.2019
2326 Clouds 4 1007 100 10000 2.6 90 21:20 19.12.2019
2327 Clouds 4 1008 100 10000 2.6 120 20:58 19.12.2019
2328 Clouds 4 1009 100 10000 0.5 0 20:38 19.12.2019
2329 Clouds 4 1009 100 10000 0.5 0 20:20 19.12.2019
2330 Clouds 4 1010 93 10000 1 0 19:58 19.12.2019
2331 Clouds 4 1010 93 10000 1 0 19:40 19.12.2019
2332 Clouds 4 1010 93 10000 1 0 19:40 19.12.2019
2333 Clouds 5 1010 86 10000 3.6 100 19:20 19.12.2019
2334 Clouds 5 1010 86 10000 3.6 100 19:20 19.12.2019
2335 Clouds 5 1010 86 10000 3.6 110 18:59 19.12.2019
2336 Clouds 5 1010 86 10000 3.6 110 18:40 19.12.2019
2337 Clouds 5 1011 93 10000 3.1 130 18:20 19.12.2019
2338 Clouds 5 1011 93 10000 1 130 17:56 19.12.2019
2339 Clouds 6 1011 87 10000 2.1 160 17:38 19.12.2019
2340 Clouds 6 1011 87 10000 2.1 160 17:18 19.12.2019
2341 Clouds 7 1011 81 10000 1.5 340 16:56 19.12.2019
2342 Clouds 7 1011 81 10000 1.5 340 16:56 19.12.2019
2343 Clouds 7 1011 76 10000 2.1 310 16:38 19.12.2019
2344 Clouds 7 1011 76 10000 2.1 310 16:38 19.12.2019
2345 Clouds 8 1011 76 10000 2.1 310 16:19 19.12.2019
2346 Clouds 8 1011 76 10000 2.1 310 16:19 19.12.2019
2347 Clouds 8 1010 71 10000 1 0 15:58 19.12.2019
2348 Clouds 7 1010 76 10000 1.5 0 15:38 19.12.2019
2349 Clouds 8 1010 76 10000 1.5 0 15:19 19.12.2019
2350 Clouds 8 1011 76 10000 0.5 0 14:57 19.12.2019
2351 Clouds 8 1011 76 10000 0.5 0 14:39 19.12.2019
2352 Clouds 8 1011 76 10000 0.5 0 14:18 19.12.2019
2353 Clouds 7 1013 87 10000 1.5 270 13:39 19.12.2019
2354 Clouds 7 1013 87 10000 1.5 270 13:20 19.12.2019
2355 Clouds 6 1013 93 10000 1 0 12:59 19.12.2019
2356 Clouds 7 1013 93 10000 1 0 12:40 19.12.2019
2357 Clouds 7 1014 93 10000 1 320 12:19 19.12.2019
2358 Clouds 7 1014 100 10000 0.5 0 12:19 19.12.2019
2359 Clouds 6 1014 100 10000 0.5 0 11:59 19.12.2019
2360 Clouds 6 1015 100 10000 1 290 11:41 19.12.2019
2361 Clouds 5 1015 100 10000 1 290 11:20 19.12.2019
2362 Clouds 5 1015 100 10000 1 290 11:20 19.12.2019
2363 Clouds 5 1015 100 10000 1 290 11:20 19.12.2019
2364 Clouds 4 1015 100 10000 0.5 0 10:59 19.12.2019
2365 Fog 5 1015 100 200 0.54 209 10:38 19.12.2019
2366 Clouds 4 1015 79 7000 0.5 0 10:20 19.12.2019
2367 Fog 4 1015 79 8000 0.5 0 09:57 19.12.2019
2368 Fog 3 1015 93 200 0.5 0 09:38 19.12.2019
2369 Fog 3 1015 93 200 0.5 0 09:19 19.12.2019
2370 Fog 3 1015 93 200 0.5 0 09:19 19.12.2019
2371 Fog 3 1016 92 5000 1 0 08:55 19.12.2019
2372 Fog 3 1016 79 5000 1 0 08:37 19.12.2019
2373 Fog 3 1016 87 5000 1 0 08:18 19.12.2019
2374 Fog 3 1016 100 150 0.5 360 07:54 19.12.2019
2375 Fog 2 1017 93 100 1.13 167 07:36 19.12.2019
2376 Fog 2 1017 93 100 1.13 167 07:18 19.12.2019
2377 Fog 2 1017 100 150 0.5 0 06:42 19.12.2019
2378 Fog 2 1017 93 100 0.5 70 06:23 19.12.2019
2379 Fog 2 1017 100 100 0.5 210 05:45 19.12.2019
2380 Fog 2 1017 100 150 0.5 0 05:20 19.12.2019
2381 Fog 3 1018 100 100 0.5 240 03:54 19.12.2019
2382 Fog 3 1018 100 50 0.5 0 02:30 19.12.2019
2383 Fog 3 1018 100 100 0.5 30 01:27 19.12.2019
2384 Fog 3 1018 100 150 0.5 0 00:59 19.12.2019
2385 Fog 3 1018 93 150 0.5 260 00:39 19.12.2019
2386 Fog 3 1018 93 150 0.5 260 00:19 19.12.2019
2387 Fog 4 1018 100 100 1 270 23:45 18.12.2019
2388 Fog 4 1018 100 100 1 270 23:45 18.12.2019
2389 Fog 4 1018 93 0 1 190 23:19 18.12.2019
2390 Fog 4 1018 93 200 0.8 151 22:58 18.12.2019
2391 Clouds 4 1018 100 5000 0.5 120 22:40 18.12.2019
2392 Clouds 4 1018 100 5000 0.5 120 22:22 18.12.2019
2393 Fog 5 1018 100 250 0.8 151 21:59 18.12.2019
2394 Fog 5 1018 100 250 0.8 151 21:40 18.12.2019
2395 Fog 5 1018 100 800 0.5 0 21:20 18.12.2019
2396 Fog 5 1018 100 6000 1 0 20:57 18.12.2019
2397 Drizzle 5 1018 93 1500 0.5 280 20:38 18.12.2019
2398 Drizzle 5 1018 93 1500 0.5 280 20:20 18.12.2019
2399 Clouds 5 1018 100 6000 0.5 0 19:57 18.12.2019
2400 Clouds 6 1018 93 10000 0.5 0 19:39 18.12.2019
2401 Clouds 6 1018 93 10000 0.5 0 19:19 18.12.2019
2402 Clouds 6 1018 100 10000 1 0 18:55 18.12.2019
2403 Clouds 6 1018 86 10000 1 107 18:37 18.12.2019
2404 Clouds 7 1018 86 10000 1 107 18:18 18.12.2019
2405 Clouds 7 1018 87 10000 1 0 17:55 18.12.2019
2406 Clouds 7 1018 87 10000 1 0 17:55 18.12.2019
2407 Clouds 8 1017 87 10000 1 0 17:37 18.12.2019
2408 Clouds 8 1017 81 10000 0.96 53 17:18 18.12.2019
2409 Clouds 9 1017 81 10000 0.96 53 16:42 18.12.2019
2410 Clouds 10 1017 71 10000 1 0 16:23 18.12.2019
2411 Clouds 11 1017 66 10000 1 260 15:57 18.12.2019
2412 Clouds 11 1017 66 10000 1 260 15:39 18.12.2019
2413 Clouds 11 1017 66 10000 2.1 290 15:21 18.12.2019
2414 Clouds 11 1017 66 10000 1.5 0 14:56 18.12.2019
2415 Clouds 11 1017 66 10000 1.5 0 14:38 18.12.2019
2416 Clouds 11 1018 71 10000 1.5 0 14:19 18.12.2019
2417 Clouds 11 1018 81 10000 0.5 0 13:55 18.12.2019
2418 Clouds 11 1018 81 10000 0.5 0 13:36 18.12.2019
2419 Clouds 10 1018 81 10000 0.5 0 13:18 18.12.2019
2420 Clouds 10 1018 81 10000 0.5 0 13:18 18.12.2019
2421 Clouds 10 1018 87 10000 1.04 19 12:40 18.12.2019
2422 Clouds 9 1018 87 10000 1 0 12:21 18.12.2019
2423 Clouds 9 1019 87 10000 1.5 0 11:57 18.12.2019
2424 Clouds 8 1019 87 10000 1.5 0 11:39 18.12.2019
2425 Clouds 8 1018 87 10000 1 0 11:20 18.12.2019
2426 Clouds 8 1019 93 10000 1.04 94 10:58 18.12.2019
2427 Clouds 7 1019 93 10000 1.04 94 10:39 18.12.2019
2428 Clouds 7 1018 93 10000 1 0 10:20 18.12.2019
2429 Clouds 7 1018 93 10000 1 0 09:58 18.12.2019
2430 Clouds 6 1018 100 10000 0.5 0 09:20 18.12.2019
2431 Rain 6 1018 100 10000 1.5 0 08:55 18.12.2019
2432 Rain 6 1018 100 10000 1.5 0 08:37 18.12.2019
2433 Clouds 6 1017 93 10000 1 0 08:19 18.12.2019
2434 Clouds 6 1017 93 10000 1 0 07:42 18.12.2019
2435 Clouds 6 1017 93 10000 1 0 07:21 18.12.2019
2436 Clouds 6 1016 93 10000 1 0 06:52 18.12.2019
2437 Clouds 6 1016 93 10000 1.14 147 06:26 18.12.2019
2438 Clouds 6 1016 93 10000 0.5 0 05:37 18.12.2019
2439 Clouds 6 1015 93 10000 1 0 04:33 18.12.2019
2440 Drizzle 6 1014 100 10000 0.5 0 02:48 18.12.2019
2441 Drizzle 6 1014 100 10000 0.5 0 02:29 18.12.2019
2442 Clouds 5 1014 100 10000 0.5 0 01:46 18.12.2019
2443 Clouds 5 1014 100 10000 0.5 0 01:27 18.12.2019
2444 Clouds 5 1013 93 10000 0.5 0 00:59 18.12.2019
2445 Clouds 5 1014 93 10000 0.5 0 00:39 18.12.2019
2446 Clouds 5 1013 100 10000 1 0 00:21 18.12.2019
2447 Clouds 5 1013 100 10000 1 0 23:44 17.12.2019
2448 Clouds 5 1012 100 10000 0.5 0 23:24 17.12.2019
2449 Clouds 5 1012 82 7000 2.1 120 22:57 17.12.2019
2450 Clouds 5 1012 82 7000 2.1 120 22:39 17.12.2019
2451 Clouds 4 1012 100 7000 1 0 22:20 17.12.2019
2452 Clouds 4 1012 100 7000 1 0 21:57 17.12.2019
2453 Fog 5 1011 93 6000 1 0 21:39 17.12.2019
2454 Fog 5 1011 93 6000 1 0 21:39 17.12.2019
2455 Clouds 5 1011 93 6000 1.5 0 21:20 17.12.2019
2456 Clouds 5 1011 93 6000 1.5 0 20:59 17.12.2019
2457 Clouds 5 1010 100 10000 1.5 120 20:40 17.12.2019
2458 Clouds 5 1010 100 10000 2.1 320 20:19 17.12.2019
2459 Clouds 5 1010 100 10000 2.1 320 19:59 17.12.2019
2460 Clouds 5 1010 93 10000 1.5 350 19:41 17.12.2019
2461 Clouds 6 1009 93 10000 1 0 19:20 17.12.2019
2462 Clouds 6 1009 93 10000 1 0 18:58 17.12.2019
2463 Clouds 6 1009 87 10000 2.1 180 18:39 17.12.2019
2464 Clouds 6 1009 81 10000 2.1 100 18:20 17.12.2019
2465 Clouds 7 1009 87 10000 2.6 120 17:55 17.12.2019
2466 Clouds 7 1009 87 10000 2.6 120 17:37 17.12.2019
2467 Clouds 8 1009 87 10000 1.5 0 17:18 17.12.2019
2468 Clouds 8 1009 87 10000 1 0 16:55 17.12.2019
2469 Clouds 8 1009 87 10000 1 0 16:37 17.12.2019
2470 Clouds 8 1009 87 10000 1.5 0 16:18 17.12.2019
2471 Clouds 8 1009 87 10000 1 0 15:38 17.12.2019
2472 Clouds 9 1009 87 10000 1.5 0 15:20 17.12.2019
2473 Clouds 8 1009 87 10000 1.5 0 14:57 17.12.2019
2474 Clouds 8 1008 87 10000 1.5 0 14:39 17.12.2019
2475 Clouds 9 1008 81 10000 1 170 14:19 17.12.2019
2476 Clouds 9 1008 81 10000 1 170 14:19 17.12.2019
2477 Clouds 8 1008 81 10000 1 170 13:59 17.12.2019
2478 Clouds 8 1008 87 10000 1.5 310 13:41 17.12.2019
2479 Clouds 8 1008 87 10000 1.5 280 13:19 17.12.2019
2480 Clouds 8 1008 87 10000 1.5 280 12:59 17.12.2019
2481 Clouds 8 1008 87 10000 1.5 280 12:59 17.12.2019
2482 Clouds 8 1008 87 10000 1 0 12:39 17.12.2019
2483 Clouds 8 1008 93 10000 1 0 12:18 17.12.2019
2484 Clouds 8 1008 93 10000 1 0 11:58 17.12.2019
2485 Clouds 7 1008 93 10000 1 0 11:37 17.12.2019
2486 Clouds 7 1009 93 10000 1 0 11:18 17.12.2019
2487 Clouds 6 1009 100 10000 1.5 0 10:58 17.12.2019
2488 Clouds 6 1009 100 10000 1.5 0 10:39 17.12.2019
2489 Clouds 5 1009 100 10000 1 0 10:19 17.12.2019
2490 Clouds 5 1008 100 10000 0.5 0 09:56 17.12.2019
2491 Clouds 5 1008 100 10000 0.5 0 09:38 17.12.2019
2492 Clouds 5 1008 100 10000 1.5 120 09:19 17.12.2019
2493 Clouds 5 1008 100 10000 1 280 08:55 17.12.2019
2494 Clouds 5 1008 100 10000 1 280 08:36 17.12.2019
2495 Clouds 4 1008 100 10000 0.5 0 08:18 17.12.2019
2496 Clouds 4 1007 100 6000 1 0 07:42 17.12.2019
2497 Clouds 4 1007 93 6000 0.5 0 07:23 17.12.2019
2498 Clouds 4 1007 93 10000 1 0 06:53 17.12.2019
2499 Clouds 4 1007 100 9000 0.5 0 06:32 17.12.2019
2500 Clouds 4 1006 100 10000 1 0 05:52 17.12.2019
2501 Clouds 4 1006 100 10000 1 0 05:32 17.12.2019
2502 Clouds 4 1006 100 10000 2.6 140 04:19 17.12.2019
2503 Clouds 4 1006 100 9000 1 0 02:27 17.12.2019
2504 Clouds 4 1006 100 10000 1 0 01:34 17.12.2019
2505 Clouds 4 1006 100 10000 1 0 00:49 17.12.2019
2506 Clouds 4 1006 93 9000 1 0 00:22 17.12.2019
2507 Clouds 4 1006 93 9000 1 0 23:59 16.12.2019
2508 Clouds 4 1007 100 9000 0.5 0 23:40 16.12.2019
2509 Clouds 5 1007 100 10000 0.5 0 23:18 16.12.2019
2510 Clouds 5 1007 100 10000 0.5 0 22:55 16.12.2019
2511 Clouds 5 1007 100 10000 0.5 0 22:36 16.12.2019
2512 Clouds 5 1007 93 10000 1.5 0 22:18 16.12.2019
2513 Clouds 5 1007 93 10000 0.5 0 21:54 16.12.2019
2514 Clouds 5 1007 93 10000 0.5 0 21:36 16.12.2019
2515 Clouds 5 1007 93 10000 0.5 0 21:18 16.12.2019
2516 Clouds 5 1007 93 10000 1 0 20:56 16.12.2019
2517 Clouds 5 1007 93 10000 1 0 20:37 16.12.2019
2518 Clouds 5 1007 93 10000 2.1 120 20:18 16.12.2019
2519 Clouds 5 1007 93 10000 3.1 150 19:55 16.12.2019
2520 Clouds 5 1007 93 10000 3.1 150 19:36 16.12.2019
2521 Clouds 5 1008 93 10000 2.1 320 19:18 16.12.2019
2522 Clouds 5 1008 100 10000 0.5 0 18:54 16.12.2019
2523 Clouds 5 1008 100 10000 0.5 0 18:36 16.12.2019
2524 Clouds 5 1008 93 10000 1.5 130 18:18 16.12.2019
2525 Clouds 5 1008 93 10000 1.5 160 17:55 16.12.2019
2526 Clouds 5 1009 93 10000 0.5 170 17:37 16.12.2019
2527 Clouds 6 1009 80 10000 1.5 0 17:18 16.12.2019
2528 Clouds 6 1009 81 10000 1 90 16:54 16.12.2019
2529 Clouds 7 1009 81 10000 1 90 16:36 16.12.2019
2530 Clouds 7 1009 81 10000 1 0 16:18 16.12.2019
2531 Clouds 8 1009 81 10000 0.5 0 15:54 16.12.2019
2532 Clouds 8 1009 81 10000 0.5 0 15:36 16.12.2019
2533 Clouds 8 1009 75 10000 0.5 0 15:18 16.12.2019
2534 Clouds 8 1009 75 10000 1 260 14:54 16.12.2019
2535 Clouds 8 1009 75 10000 1 260 14:36 16.12.2019
2536 Clouds 8 1009 75 10000 0.5 0 14:18 16.12.2019
2537 Clouds 8 1009 81 10000 1 0 13:38 16.12.2019
2538 Clouds 8 1010 75 10000 0.85 285 13:20 16.12.2019
2539 Clouds 8 1010 75 10000 0.85 285 12:58 16.12.2019
2540 Clouds 8 1010 70 10000 1 0 12:40 16.12.2019
2541 Clouds 8 1010 70 10000 1 0 12:20 16.12.2019
2542 Clouds 7 1010 81 10000 2.6 120 11:59 16.12.2019
2543 Clouds 7 1010 81 10000 2.6 120 11:41 16.12.2019
2544 Clouds 6 1011 86 10000 1 0 11:21 16.12.2019
2545 Clouds 6 1011 93 10000 1 310 10:58 16.12.2019
2546 Clouds 5 1011 93 10000 1 310 10:40 16.12.2019
2547 Clouds 5 1011 100 10000 0.5 0 10:20 16.12.2019
2548 Clouds 4 1011 100 10000 0.5 0 09:46 16.12.2019
2549 Clouds 4 1011 100 10000 0.5 0 09:28 16.12.2019
2550 Clouds 4 1011 76 10000 0.5 0 08:58 16.12.2019
2551 Clouds 4 1011 76 10000 0.5 0 08:38 16.12.2019
2552 Clouds 3 1011 81 10000 1 160 08:18 16.12.2019
2553 Clouds 3 1011 79 10000 1 0 07:47 16.12.2019
2554 Clouds 4 1011 79 10000 1 0 07:29 16.12.2019
2555 Clouds 4 1011 79 10000 0.5 0 06:46 16.12.2019
2556 Clouds 4 1011 79 10000 1.5 160 06:26 16.12.2019
2557 Clouds 4 1011 79 10000 1 0 05:54 16.12.2019
2558 Clouds 4 1011 79 10000 1 0 05:35 16.12.2019
2559 Clouds 4 1011 77 10000 0.5 0 04:27 16.12.2019
2560 Clouds 5 1012 93 10000 0.5 0 02:36 16.12.2019
2561 Clouds 5 1012 93 10000 0.5 340 01:45 16.12.2019
2562 Clouds 5 1011 86 10000 1.5 0 00:54 16.12.2019
2563 Clouds 5 1011 86 10000 1.5 0 00:36 16.12.2019
2564 Clouds 5 1011 93 10000 1.5 130 00:18 16.12.2019
2565 Clouds 6 1011 86 10000 1 0 23:40 15.12.2019
2566 Clouds 6 1011 93 10000 1.5 0 23:21 15.12.2019
2567 Clouds 6 1011 93 10000 2.1 110 22:56 15.12.2019
2568 Clouds 6 1011 93 10000 2.1 110 22:38 15.12.2019
2569 Clouds 6 1011 86 10000 3.1 110 22:18 15.12.2019
2570 Clouds 7 1011 86 10000 3.1 110 21:57 15.12.2019
2571 Clouds 7 1011 86 10000 3.1 100 21:38 15.12.2019
2572 Clouds 7 1011 93 10000 3.1 100 21:19 15.12.2019
2573 Clouds 7 1011 86 10000 2.1 120 20:56 15.12.2019
2574 Clouds 7 1011 86 10000 2.1 120 20:56 15.12.2019
2575 Clouds 7 1011 86 10000 2.1 120 20:37 15.12.2019
2576 Clouds 8 1011 86 10000 1 0 20:19 15.12.2019
2577 Clouds 8 1011 86 10000 1 0 19:57 15.12.2019
2578 Clouds 8 1011 87 10000 2.1 0 19:39 15.12.2019
2579 Clouds 8 1011 87 10000 2.1 100 19:18 15.12.2019
2580 Clouds 8 1010 81 10000 1.5 0 18:56 15.12.2019
2581 Clouds 8 1010 81 10000 1.5 0 18:38 15.12.2019
2582 Clouds 9 1010 62 10000 1.5 0 18:18 15.12.2019
2583 Clouds 9 1010 70 10000 1 0 17:56 15.12.2019
2584 Clouds 9 1010 70 10000 1 0 17:37 15.12.2019
2585 Clouds 10 1010 54 10000 3.6 270 17:18 15.12.2019
2586 Clouds 11 1009 58 10000 5.7 270 16:55 15.12.2019
2587 Clouds 11 1009 58 10000 5.7 270 16:55 15.12.2019
2588 Clouds 11 1009 58 10000 5.7 270 16:37 15.12.2019
2589 Clouds 11 1009 58 10000 5.7 270 16:18 15.12.2019
2590 Clouds 12 1009 58 10000 6.7 280 15:54 15.12.2019
2591 Clouds 11 1009 58 10000 6.7 280 15:36 15.12.2019
2592 Clouds 12 1009 58 10000 4.1 290 15:18 15.12.2019
2593 Clouds 12 1009 62 10000 4.1 280 14:54 15.12.2019
2594 Clouds 12 1009 62 10000 4.1 280 14:36 15.12.2019
2595 Clouds 12 1009 71 10000 1 0 14:18 15.12.2019
2596 Clouds 12 1009 71 10000 1 0 14:18 15.12.2019
2597 Clouds 12 1009 71 10000 1.5 0 13:54 15.12.2019
2598 Clouds 12 1009 71 10000 1.5 0 13:36 15.12.2019
2599 Clouds 11 1009 71 10000 2.1 140 13:18 15.12.2019
2600 Clouds 11 1009 71 10000 4.24 235 12:55 15.12.2019
2601 Clouds 12 1009 71 10000 4.24 235 12:36 15.12.2019
2602 Clouds 11 1009 71 10000 1.5 170 12:18 15.12.2019
2603 Clouds 11 1009 81 10000 4.24 235 11:38 15.12.2019
2604 Clouds 10 1009 81 10000 3.19 216 11:19 15.12.2019
2605 Clouds 10 1009 81 10000 3.19 216 11:19 15.12.2019
2606 Clouds 10 1009 81 10000 3.19 216 10:56 15.12.2019
2607 Clouds 9 1009 81 10000 3.19 216 10:38 15.12.2019
2608 Clouds 9 1009 87 10000 1 0 10:19 15.12.2019
2609 Clouds 9 1009 87 10000 1 0 09:58 15.12.2019
2610 Clouds 9 1009 86 10000 1 0 09:37 15.12.2019
2611 Clouds 9 1009 93 10000 2.6 90 09:19 15.12.2019
2612 Clouds 9 1008 86 10000 2.6 110 08:54 15.12.2019
2613 Clouds 9 1008 86 10000 2.6 110 08:36 15.12.2019
2614 Clouds 8 1008 93 10000 2.1 90 08:18 15.12.2019
2615 Clouds 8 1008 100 10000 1 0 07:43 15.12.2019
2616 Clouds 8 1008 86 10000 1 0 07:25 15.12.2019
2617 Clouds 8 1007 93 10000 1 0 06:26 15.12.2019
2618 Clouds 8 1007 93 10000 1.5 0 05:42 15.12.2019
2619 Clouds 8 1007 93 10000 1 0 05:21 15.12.2019
2620 Clouds 7 1007 100 10000 1.5 0 04:21 15.12.2019
2621 Rain 7 1007 100 10000 1 0 02:55 15.12.2019
2622 Rain 7 1007 100 10000 1 0 02:32 15.12.2019
2623 Clouds 7 1007 93 10000 2.1 130 01:41 15.12.2019
2624 Rain 7 1007 93 10000 1 0 01:19 15.12.2019
2625 Rain 7 1007 93 10000 1 0 00:49 15.12.2019
2626 Rain 7 1007 93 10000 1 0 00:31 15.12.2019
2627 Clouds 7 1007 81 10000 2.6 350 23:41 14.12.2019
2628 Clouds 7 1007 87 10000 3.6 340 23:23 14.12.2019
2629 Clouds 7 1008 81 10000 3.6 330 22:59 14.12.2019
2630 Clouds 7 1008 81 10000 3.6 330 22:41 14.12.2019
2631 Clouds 8 1008 66 10000 3.1 0 22:22 14.12.2019
2632 Clouds 8 1008 66 10000 3.1 0 21:58 14.12.2019
2633 Clouds 8 1008 61 10000 5.1 170 21:39 14.12.2019
2634 Clouds 8 1008 62 10000 4.6 200 21:19 14.12.2019
2635 Clouds 8 1008 62 10000 4.6 200 20:59 14.12.2019
2636 Clouds 8 1009 57 10000 2.6 0 20:41 14.12.2019
2637 Clouds 8 1009 76 10000 1 0 20:20 14.12.2019
2638 Rain 8 1009 76 10000 1 0 19:57 14.12.2019
2639 Rain 8 1008 71 10000 1.5 0 19:39 14.12.2019
2640 Rain 8 1008 71 10000 2.1 0 19:20 14.12.2019
2641 Clouds 8 1008 66 10000 2.1 0 18:56 14.12.2019
2642 Clouds 8 1008 66 10000 2.1 0 18:38 14.12.2019
2643 Clouds 8 1008 66 10000 2.1 0 18:38 14.12.2019
2644 Clouds 8 1008 57 10000 2.6 0 18:19 14.12.2019
2645 Clouds 9 1008 57 10000 2.6 240 17:44 14.12.2019
2646 Clouds 9 1007 57 10000 3.1 0 17:24 14.12.2019
2647 Clouds 9 1007 57 10000 2.6 250 16:59 14.12.2019
2648 Clouds 9 1007 57 10000 2.6 250 16:40 14.12.2019
2649 Clouds 9 1007 53 10000 5.7 230 16:19 14.12.2019
2650 Clouds 9 1007 53 10000 5.7 230 16:19 14.12.2019
2651 Clouds 9 1007 84 10000 4.1 260 15:43 14.12.2019
2652 Clouds 9 1006 43 10000 5.1 260 15:25 14.12.2019
2653 Clouds 9 1006 43 10000 5.1 260 15:25 14.12.2019
2654 Clouds 9 1006 43 10000 5.1 260 14:59 14.12.2019
2655 Clouds 9 1006 43 10000 4.6 230 14:40 14.12.2019
2656 Clouds 9 1006 43 10000 7.2 270 14:21 14.12.2019
2657 Clouds 9 1006 43 10000 7.2 270 13:59 14.12.2019
2658 Clouds 9 1006 43 10000 7.2 270 13:41 14.12.2019
2659 Clouds 9 1005 40 10000 10.3 280 13:19 14.12.2019
2660 Clouds 9 1005 40 10000 10.3 280 13:19 14.12.2019
2661 Clouds 9 1005 50 10000 7.7 280 12:56 14.12.2019
2662 Clouds 9 1005 50 10000 7.7 280 12:37 14.12.2019
2663 Clouds 9 1004 50 10000 7.7 270 12:19 14.12.2019
2664 Clouds 9 1004 81 10000 8.2 270 11:56 14.12.2019
2665 Clouds 9 1004 81 10000 8.2 270 11:37 14.12.2019
2666 Clouds 8 1003 88 10000 5.1 270 11:18 14.12.2019
2667 Clouds 8 1003 57 10000 5.1 250 10:56 14.12.2019
2668 Clouds 8 1003 57 10000 5.1 250 10:38 14.12.2019
2669 Clouds 8 1002 57 10000 5.1 190 10:19 14.12.2019
2670 Clouds 8 1001 66 10000 5.7 0 09:42 14.12.2019
2671 Rain 8 1000 66 7000 6.2 230 09:21 14.12.2019
2672 Rain 7 1000 66 7000 6.2 230 08:56 14.12.2019
2673 Rain 7 1000 66 7000 6.2 230 08:56 14.12.2019
2674 Rain 8 999 66 10000 6.7 230 08:37 14.12.2019
2675 Clouds 7 999 66 10000 7.2 260 08:18 14.12.2019
2676 Rain 7 997 66 10000 6.7 240 07:40 14.12.2019
2677 Rain 7 996 66 10000 3.6 230 07:20 14.12.2019
2678 Rain 7 996 66 10000 7.7 0 06:45 14.12.2019
2679 Rain 6 996 70 10000 5.7 0 06:22 14.12.2019
2680 Clouds 5 996 100 10000 1.5 0 05:43 14.12.2019
2681 Rain 3 997 86 10000 1.5 20 03:44 14.12.2019
2682 Rain 3 996 69 6000 2.6 210 02:23 14.12.2019
2683 Clouds 3 996 74 10000 3.6 140 01:44 14.12.2019
2684 Clouds 3 996 74 10000 4.6 150 00:59 14.12.2019
2685 Clouds 3 998 74 10000 3.1 160 00:40 14.12.2019
2686 Clouds 3 998 74 10000 3.6 150 00:20 14.12.2019
2687 Clouds 3 998 69 10000 3.6 190 23:41 13.12.2019
2688 Clouds 3 998 69 10000 3.6 180 23:19 13.12.2019
2689 Clouds 3 998 69 10000 2.6 220 22:56 13.12.2019
2690 Clouds 2 998 69 10000 2.6 220 22:37 13.12.2019
2691 Clouds 3 998 69 10000 5.7 240 22:18 13.12.2019
2692 Rain 3 998 69 10000 6.2 240 21:44 13.12.2019
2693 Rain 3 997 93 10000 4.1 270 21:22 13.12.2019
2694 Clouds 3 997 93 10000 4.1 270 20:59 13.12.2019
2695 Clouds 3 997 64 10000 4.6 250 20:39 13.12.2019
2696 Clouds 3 996 64 10000 5.1 210 20:20 13.12.2019
2697 Clouds 3 996 64 10000 5.1 210 19:56 13.12.2019
2698 Clouds 3 996 69 10000 4.1 240 19:38 13.12.2019
2699 Clouds 3 996 69 10000 4.1 240 19:19 13.12.2019
2700 Clouds 3 995 69 10000 6.7 250 18:54 13.12.2019
2701 Rain 3 994 69 10000 5.1 250 18:36 13.12.2019
2702 Rain 3 994 69 10000 5.1 250 18:18 13.12.2019
2703 Rain 3 994 69 10000 5.1 250 18:18 13.12.2019
2704 Clouds 3 993 69 10000 3.6 230 17:40 13.12.2019
2705 Clouds 4 993 69 10000 3.6 230 17:18 13.12.2019
2706 Clouds 4 992 69 10000 5.7 240 16:56 13.12.2019
2707 Clouds 4 991 96 10000 6.2 230 16:38 13.12.2019
2708 Clouds 3 991 96 10000 6.2 230 16:20 13.12.2019
2709 Clouds 3 990 65 10000 6.7 240 15:42 13.12.2019
2710 Clouds 3 990 80 10000 7.7 250 15:21 13.12.2019
2711 Clouds 4 989 65 10000 6.7 260 14:57 13.12.2019
2712 Clouds 4 989 96 10000 2.6 0 14:38 13.12.2019
2713 Rain 4 989 84 10000 2.6 0 14:19 13.12.2019
2714 Rain 3 989 80 10000 3.1 220 13:43 13.12.2019
2715 Rain 3 989 93 3000 7.2 280 13:24 13.12.2019
2716 Rain 3 988 75 10000 3.6 220 12:58 13.12.2019
2717 Rain 3 987 80 10000 7.7 240 12:40 13.12.2019
2718 Rain 4 988 86 10000 6.2 260 12:18 13.12.2019
2719 Rain 3 988 80 2500 6.7 260 11:44 13.12.2019
2720 Rain 3 986 75 10000 4.6 240 11:26 13.12.2019
2721 Rain 3 986 75 10000 5.1 250 10:57 13.12.2019
2722 Rain 3 985 80 10000 5.1 250 10:39 13.12.2019
2723 Rain 3 985 80 10000 5.1 250 10:21 13.12.2019
2724 Snow 2 984 98 2000 1.5 0 09:42 13.12.2019
2725 Snow 2 984 98 2000 1.5 0 09:21 13.12.2019
2726 Snow 2 983 98 3000 2.1 330 08:55 13.12.2019
2727 Snow 2 982 98 3500 1.5 290 08:36 13.12.2019
2728 Snow 1 982 98 3500 1.5 290 08:18 13.12.2019
2729 Snow 1 982 98 3500 1 0 07:42 13.12.2019
2730 Snow 1 983 98 3000 1 0 07:19 13.12.2019
2731 Snow 1 984 98 2600 0.5 0 06:39 13.12.2019
2732 Snow 1 984 98 2600 0.5 0 06:20 13.12.2019
2733 Clouds 1 986 98 10000 1 0 05:37 13.12.2019
2734 Clouds 1 986 86 10000 1 0 05:19 13.12.2019
2735 Clouds 1 989 86 10000 2.6 110 03:55 13.12.2019
2736 Snow 0 991 100 800 1.5 100 02:35 13.12.2019
2737 Snow 0 991 100 4800 0.5 0 01:54 13.12.2019
2738 Snow 0 992 92 10000 1 270 01:27 13.12.2019
2739 Snow 0 993 92 7000 0.5 0 00:47 13.12.2019
2740 Snow 0 993 92 10000 1.5 100 00:26 13.12.2019
2741 Clouds 0 994 92 10000 1 0 23:42 12.12.2019
2742 Clouds 0 994 92 10000 0.5 0 23:24 12.12.2019
2743 Clouds -1 995 86 10000 2.1 110 22:56 12.12.2019
2744 Clouds -1 996 86 10000 1.5 130 22:38 12.12.2019
2745 Clouds -1 996 86 10000 1.5 130 22:38 12.12.2019
2746 Clouds 0 996 86 10000 1.5 130 22:20 12.12.2019
2747 Clouds -1 996 92 10000 1 0 21:56 12.12.2019
2748 Clouds -1 997 92 10000 1 0 21:37 12.12.2019
2749 Clouds -1 997 92 10000 1 0 21:19 12.12.2019
2750 Clouds -1 998 92 10000 1 0 20:58 12.12.2019
2751 Clouds -1 998 92 10000 1.5 320 20:40 12.12.2019
2752 Clouds -1 998 92 10000 1.5 320 20:21 12.12.2019
2753 Clouds -1 999 86 10000 1 290 19:56 12.12.2019
2754 Clouds 0 999 92 10000 2.6 110 19:37 12.12.2019
2755 Clouds 0 999 92 10000 2.6 110 19:18 12.12.2019
2756 Clouds 0 1000 89 10000 3.1 130 18:55 12.12.2019
2757 Clouds 0 1001 89 10000 1.5 140 18:37 12.12.2019
2758 Clouds 0 1001 89 10000 1.5 140 18:19 12.12.2019
2759 Clouds 1 1002 69 10000 1.42 153 17:56 12.12.2019
2760 Clear 1 1002 89 10000 1.5 0 17:38 12.12.2019
2761 Clear 1 1002 85 10000 1.5 0 17:19 12.12.2019
2762 Clear 2 1003 69 10000 2.6 260 16:54 12.12.2019
2763 Clouds 2 1003 64 10000 3.6 270 16:36 12.12.2019
2764 Clouds 3 1003 64 10000 3.6 270 16:18 12.12.2019
2765 Clouds 3 1003 56 10000 2.6 250 15:42 12.12.2019
2766 Clouds 4 1004 56 10000 4.6 270 15:20 12.12.2019
2767 Clouds 4 1004 56 10000 4.6 270 15:20 12.12.2019
2768 Clouds 4 1005 56 10000 5.1 280 14:57 12.12.2019
2769 Clouds 4 1005 56 10000 5.1 280 14:57 12.12.2019
2770 Clouds 4 1005 60 10000 4.6 270 14:37 12.12.2019
2771 Clouds 4 1005 60 10000 4.6 270 14:19 12.12.2019
2772 Clouds 4 1006 56 10000 4.1 270 13:55 12.12.2019
2773 Clouds 4 1007 56 10000 4.1 0 13:37 12.12.2019
2774 Clouds 4 1007 56 10000 4.1 0 13:18 12.12.2019
2775 Clouds 4 1007 64 10000 4.6 230 12:55 12.12.2019
2776 Clouds 4 1007 69 10000 3.6 250 12:36 12.12.2019
2777 Clouds 4 1007 69 10000 3.6 250 12:18 12.12.2019
2778 Clouds 3 1008 69 10000 2.1 240 11:40 12.12.2019
2779 Clouds 3 1008 74 10000 3.6 290 11:22 12.12.2019
2780 Clouds 3 1008 74 10000 3.6 280 10:59 12.12.2019
2781 Clouds 3 1008 74 10000 3.6 280 10:59 12.12.2019
2782 Clouds 2 1008 80 10000 1.5 310 10:41 12.12.2019
2783 Rain 2 1008 80 10000 1.5 310 10:22 12.12.2019
2784 Rain 2 1008 84 10000 1.5 0 09:57 12.12.2019
2785 Rain 2 1008 74 10000 4.1 270 09:39 12.12.2019
2786 Snow 2 1008 74 10000 4.1 270 09:20 12.12.2019
2787 Clouds 2 1008 74 10000 6.2 250 08:50 12.12.2019
2788 Rain 2 1008 84 10000 5.7 240 08:29 12.12.2019
2789 Rain 2 1008 98 10000 3.6 250 07:59 12.12.2019
2790 Rain 2 1008 98 10000 4.1 250 07:39 12.12.2019
2791 Rain 2 1008 98 10000 4.1 250 07:20 12.12.2019
2792 Rain 2 1007 93 8000 3.1 240 06:42 12.12.2019
2793 -273 0 0 0 0 0 06:23 12.12.2019
2794 Rain 1 1007 98 2800 1 100 05:34 12.12.2019
2795 Snow 1 1007 95 1400 1 0 04:48 12.12.2019
2796 Mist 1 1008 95 2100 0.5 0 02:44 12.12.2019
2797 Mist 1 1008 95 2400 1 300 02:25 12.12.2019
2798 Mist 1 1008 93 3200 1 0 01:59 12.12.2019
2799 Clouds 2 1008 93 5000 2.1 100 01:36 12.12.2019
2800 Clouds 2 1009 100 6000 1 0 00:50 12.12.2019
2801 Clouds 2 1009 100 7000 2.1 110 00:22 12.12.2019
2802 Clouds 2 1009 93 10000 2.6 130 23:58 11.12.2019
2803 Clouds 2 1009 93 10000 3.1 120 23:39 11.12.2019
2804 Clouds 2 1009 93 10000 3.1 120 23:19 11.12.2019
2805 Clouds 2 1010 93 10000 2.1 180 22:56 11.12.2019
2806 Drizzle 2 1010 93 10000 1.5 130 22:38 11.12.2019
2807 Drizzle 2 1010 93 10000 1.5 130 22:19 11.12.2019
2808 Rain 2 1011 93 10000 1.5 90 21:55 11.12.2019
2809 Rain 2 1011 93 6000 1.5 80 21:36 11.12.2019
2810 Snow 2 1011 93 6000 1.5 80 21:18 11.12.2019
2811 Clouds 2 1011 100 10000 3.1 110 20:55 11.12.2019
2812 Clouds 2 1011 93 10000 1.5 100 20:36 11.12.2019
2813 Clouds 2 1011 93 10000 1.5 100 20:18 11.12.2019
2814 Rain 2 1012 98 8000 3.6 110 19:42 11.12.2019
2815 Rain 2 1012 98 8000 3.6 110 19:23 11.12.2019
2816 Rain 2 1012 98 8000 3.6 110 19:23 11.12.2019
2817 Rain 2 1011 93 9000 3.1 240 18:59 11.12.2019
2818 Rain 2 1011 86 8000 4.1 290 18:40 11.12.2019
2819 Rain 2 1011 86 8000 4.1 290 18:20 11.12.2019
2820 Rain 2 1011 86 9000 5.1 310 17:56 11.12.2019
2821 Rain 2 1010 98 6000 7.2 280 17:38 11.12.2019
2822 Rain 2 1010 80 6000 7.2 280 17:18 11.12.2019
2823 Rain 2 1010 86 10000 1 0 16:56 11.12.2019
2824 Clouds 2 1010 86 10000 1 0 16:37 11.12.2019
2825 Clouds 2 1010 86 10000 1 0 16:18 11.12.2019
2826 Clouds 2 1010 86 10000 0.5 0 15:56 11.12.2019
2827 Clouds 2 1010 86 10000 1 210 15:37 11.12.2019
2828 Clouds 2 1010 86 10000 1 210 15:19 11.12.2019
2829 Clouds 2 1010 86 10000 0.5 0 14:55 11.12.2019
2830 Clouds 2 1011 86 10000 1 0 14:36 11.12.2019
2831 Clouds 2 1011 86 10000 1 0 14:18 11.12.2019
2832 Clouds 2 1012 86 10000 1.5 0 13:43 11.12.2019
2833 -273 0 0 0 0 0 13:23 11.12.2019
2834 Clouds 2 1013 86 10000 1.5 130 12:58 11.12.2019
2835 Clouds 1 1013 55 10000 1 0 12:39 11.12.2019
2836 Clouds 1 1013 55 10000 1 0 12:21 11.12.2019
2837 Clouds 1 1014 55 10000 1.5 160 11:58 11.12.2019
2838 Clouds 1 1015 55 10000 1.5 0 11:39 11.12.2019
2839 Clouds 1 1015 55 10000 1.5 0 11:19 11.12.2019
2840 Clouds 1 1015 55 10000 1.5 0 11:19 11.12.2019
2841 Clouds 0 1015 55 10000 1.5 0 10:59 11.12.2019
2842 Clouds 0 1015 92 10000 1.5 160 10:39 11.12.2019
2843 Clouds 0 1015 92 10000 1.5 160 10:21 11.12.2019
2844 Clouds 0 1016 86 10000 1.5 110 09:56 11.12.2019
2845 Clouds -1 1016 92 10000 2.6 100 09:38 11.12.2019
2846 Clouds -1 1016 92 10000 2.6 100 09:19 11.12.2019
2847 Clouds -1 1016 92 10000 2.1 120 08:55 11.12.2019
2848 Clouds -1 1016 86 10000 2.6 110 08:36 11.12.2019
2849 Clouds -2 1016 86 10000 2.6 110 08:18 11.12.2019
2850 Clouds -2 1017 92 10000 1.5 150 07:42 11.12.2019
2851 Clouds -2 1017 92 10000 2.1 160 07:22 11.12.2019
2852 Clouds -2 1017 92 10000 1 0 06:46 11.12.2019
2853 Clouds -2 1018 92 10000 3.1 100 06:24 11.12.2019
2854 Clouds -2 1018 92 10000 3.1 110 05:54 11.12.2019
2855 Clouds -3 1018 92 10000 2.1 150 05:33 11.12.2019
2856 Clouds -3 1019 92 10000 1 120 04:49 11.12.2019
2857 Clouds -3 1020 92 10000 1 0 03:19 11.12.2019
2858 Clouds -3 1021 92 10000 2.6 110 02:31 11.12.2019
2859 Clouds -2 1022 92 10000 1.5 120 01:21 11.12.2019
2860 Clouds -2 1022 92 10000 2.1 100 00:37 11.12.2019
2861 Clouds -2 1022 92 10000 2.1 100 00:18 11.12.2019
2862 Clouds -2 1022 92 10000 1.5 130 23:43 10.12.2019
2863 Clouds -2 1023 100 10000 1.5 170 23:22 10.12.2019
2864 Clouds -2 1023 92 10000 0.5 0 22:56 10.12.2019
2865 Clouds -2 1023 92 10000 1 0 22:38 10.12.2019
2866 Clouds -1 1023 92 10000 1 0 22:20 10.12.2019
2867 Clouds -1 1023 92 10000 2.6 90 21:54 10.12.2019
2868 Clouds -1 1023 86 10000 2.1 120 21:36 10.12.2019
2869 Clouds -1 1023 86 10000 2.1 120 21:18 10.12.2019
2870 Clouds -1 1023 92 10000 1 140 20:55 10.12.2019
2871 Clouds -1 1024 86 10000 2.6 100 20:36 10.12.2019
2872 Clear -1 1024 86 10000 2.6 100 20:18 10.12.2019
2873 Clear -1 1024 92 10000 1.5 0 19:42 10.12.2019
2874 Clear 0 1023 86 10000 1.5 330 19:24 10.12.2019
2875 Clear 0 1023 91 10000 2.6 310 18:56 10.12.2019
2876 Clear 0 1024 91 10000 2.1 130 18:38 10.12.2019
2877 Clear 0 1024 91 10000 2.1 130 18:19 10.12.2019
2878 Clear 0 1024 80 10000 2.6 130 17:54 10.12.2019
2879 Clear 1 1025 74 10000 2.1 160 17:36 10.12.2019
2880 Clear 1 1025 74 10000 2.1 160 17:18 10.12.2019
2881 Clear 3 1026 60 10000 1.5 90 16:41 10.12.2019
2882 Clear 3 1026 60 10000 1.5 90 16:20 10.12.2019
2883 Clear 3 1026 60 10000 2.6 80 15:40 10.12.2019
2884 Clear 5 1026 60 10000 2.6 80 15:19 10.12.2019
2885 Clear 5 1026 60 10000 2.6 80 14:59 10.12.2019
2886 Clouds 5 1026 52 10000 2.1 100 14:41 10.12.2019
2887 Clouds 5 1026 52 10000 2.1 100 14:23 10.12.2019
2888 Clouds 5 1027 52 10000 1.5 90 13:59 10.12.2019
2889 Clouds 5 1027 52 10000 1.5 90 13:40 10.12.2019
2890 Clouds 5 1027 52 10000 2.6 90 13:20 10.12.2019
2891 Clouds 5 1027 56 10000 2.1 90 12:55 10.12.2019
2892 Clouds 5 1027 60 10000 2.1 80 12:36 10.12.2019
2893 Clouds 5 1027 60 10000 2.1 80 12:18 10.12.2019
2894 Clouds 4 1027 60 10000 1 320 11:40 10.12.2019
2895 Rain 4 1028 69 10000 0.5 0 11:22 10.12.2019
2896 Rain 3 1027 87 10000 3.6 120 10:44 10.12.2019
2897 Clouds 2 1028 86 10000 2.1 110 10:25 10.12.2019
2898 Clouds 2 1028 93 10000 0.5 0 09:58 10.12.2019
2899 Clouds 2 1028 93 10000 0.5 0 09:40 10.12.2019
2900 Clouds 1 1028 87 10000 2.1 100 09:22 10.12.2019
2901 Clouds 1 1028 87 10000 2.1 100 09:22 10.12.2019
2902 Clouds 1 1028 87 10000 1.5 110 08:59 10.12.2019
2903 Clouds 1 1028 87 10000 1.5 110 08:40 10.12.2019
2904 Clouds 1 1027 94 10000 1.5 110 08:22 10.12.2019
2905 Clouds 1 1027 95 10000 0.5 0 07:54 10.12.2019
2906 Clouds 2 1027 95 10000 1 0 07:36 10.12.2019
2907 Clouds 2 1027 95 10000 1 0 07:18 10.12.2019
2908 Clouds 2 1026 93 10000 0.5 0 06:42 10.12.2019
2909 Clouds 2 1026 93 10000 0.5 0 06:19 10.12.2019
2910 Clouds 2 1025 93 10000 1 0 05:51 10.12.2019
2911 Drizzle 3 1024 97 5000 3.1 360 04:50 10.12.2019
2912 Rain 3 1023 93 10000 1 0 03:31 10.12.2019
2913 Clouds 4 1021 80 10000 2.1 330 02:36 10.12.2019
2914 Rain 4 1021 80 10000 2.1 360 01:42 10.12.2019
2915 Rain 4 1020 80 10000 2.6 290 01:19 10.12.2019
2916 Rain 4 1019 80 10000 4.6 260 00:38 10.12.2019
2917 Rain 4 1019 80 10000 4.6 260 00:18 10.12.2019
2918 Rain 4 1019 86 10000 6.7 260 23:40 09.12.2019
2919 Rain 4 1018 75 10000 6.2 260 23:22 09.12.2019
2920 Rain 4 1017 86 6000 5.7 260 22:57 09.12.2019
2921 Rain 4 1017 75 10000 4.6 250 22:39 09.12.2019
2922 Rain 4 1017 75 10000 4.6 250 22:18 09.12.2019
2923 Clouds 4 1017 80 10000 6.2 250 21:56 09.12.2019
2924 Clouds 4 1016 80 10000 6.7 260 21:38 09.12.2019
2925 Clouds 4 1016 80 10000 6.7 260 21:18 09.12.2019
2926 Clouds 4 1015 80 10000 5.7 260 20:56 09.12.2019
2927 Clouds 4 1014 80 10000 4.6 260 20:38 09.12.2019
2928 Clouds 5 1014 80 10000 4.6 260 20:19 09.12.2019
2929 Rain 5 1013 80 10000 6.7 260 19:55 09.12.2019
2930 Rain 5 1013 80 7000 6.2 260 19:37 09.12.2019
2931 Rain 5 1013 80 7000 6.2 260 19:19 09.12.2019
2932 Rain 5 1012 80 10000 5.7 250 18:56 09.12.2019
2933 Drizzle 5 1011 75 10000 6.7 250 18:37 09.12.2019
2934 Drizzle 5 1011 75 10000 6.7 250 18:18 09.12.2019
2935 Rain 5 1010 75 8000 5.7 250 17:56 09.12.2019
2936 Rain 5 1010 81 5000 6.7 250 17:37 09.12.2019
2937 Rain 5 1010 81 5000 6.7 250 17:19 09.12.2019
2938 Rain 5 1009 81 10000 6.7 250 16:55 09.12.2019
2939 Rain 5 1008 81 6000 4.6 250 16:36 09.12.2019
2940 Rain 5 1008 81 6000 4.6 250 16:18 09.12.2019
2941 Rain 5 1008 81 4000 7.7 230 15:55 09.12.2019
2942 Rain 5 1008 70 10000 6.2 240 15:36 09.12.2019
2943 Rain 5 1008 70 10000 6.2 240 15:36 09.12.2019
2944 Rain 6 1008 70 10000 6.2 240 15:18 09.12.2019
2945 Rain 6 1007 75 10000 4.6 250 14:42 09.12.2019
2946 Rain 5 1008 70 10000 8.2 240 14:19 09.12.2019
2947 Rain 5 1008 70 10000 6.2 240 13:57 09.12.2019
2948 Rain 5 1008 81 10000 4.6 270 13:38 09.12.2019
2949 Rain 5 1008 81 10000 4.6 270 13:19 09.12.2019
2950 Rain 5 1008 75 8000 4.6 200 12:56 09.12.2019
2951 Rain 6 1008 70 6000 4.1 220 12:38 09.12.2019
2952 Rain 6 1008 70 6000 4.1 220 12:19 09.12.2019
2953 Rain 6 1008 95 10000 5.7 220 11:56 09.12.2019
2954 Drizzle 6 1009 61 10000 5.7 240 11:37 09.12.2019
2955 Drizzle 6 1009 61 10000 5.7 240 11:18 09.12.2019
2956 Clouds 6 1008 85 10000 5.7 230 10:41 09.12.2019
2957 Clouds 6 1009 61 10000 4.6 220 10:41 09.12.2019
2958 Clouds 6 1009 61 10000 4.6 220 10:20 09.12.2019
2959 Rain 6 1009 70 10000 7.2 230 09:59 09.12.2019
2960 Rain 6 1009 70 10000 5.7 240 09:41 09.12.2019
2961 Rain 6 1009 70 10000 5.7 240 09:21 09.12.2019
2962 Clouds 6 1009 70 10000 4.1 220 08:44 09.12.2019
2963 Clouds 6 1009 70 10000 3.1 230 08:26 09.12.2019
2964 Clouds 6 1009 61 10000 3.1 240 07:57 09.12.2019
2965 Clouds 6 1009 65 10000 4.1 0 07:38 09.12.2019
2966 Clouds 6 1009 65 10000 4.1 0 07:20 09.12.2019
2967 Clouds 6 1010 70 10000 4.1 230 06:43 09.12.2019
2968 Rain 6 1010 61 10000 3.1 250 06:24 09.12.2019
2969 Rain 6 1010 70 10000 2.6 0 05:27 09.12.2019
2970 Clouds 6 1011 70 10000 2.1 0 04:46 09.12.2019
2971 Clouds 6 1012 75 10000 4.1 270 03:20 09.12.2019
2972 Rain 7 1011 81 7000 7.7 270 02:24 09.12.2019
2973 Rain 7 1011 62 10000 12.3 290 01:42 09.12.2019
2974 Rain 7 1011 62 10000 12.3 290 01:42 09.12.2019
2975 Clouds 8 1011 62 10000 4.6 250 00:46 09.12.2019
2976 Clouds 8 1011 62 10000 3.6 240 00:26 09.12.2019
2977 Clouds 8 1011 70 10000 1.5 0 23:41 08.12.2019
2978 Clouds 8 1011 86 10000 1 0 23:23 08.12.2019
2979 Clouds 8 1011 81 10000 1.5 0 22:57 08.12.2019
2980 Clouds 8 1011 81 10000 1.5 0 22:57 08.12.2019
2981 Clouds 8 1011 86 10000 3.1 320 22:38 08.12.2019
2982 Clouds 8 1011 86 10000 3.1 320 22:19 08.12.2019
2983 Rain 8 1011 86 10000 2.1 330 21:58 08.12.2019
2984 Rain 8 1011 86 10000 2.1 330 21:40 08.12.2019
2985 Clouds 8 1011 86 10000 1.5 80 21:20 08.12.2019
2986 Clouds 8 1011 86 10000 1.5 80 21:20 08.12.2019
2987 Clouds 8 1011 81 10000 1 200 20:57 08.12.2019
2988 Rain 8 1011 75 10000 4.1 90 20:38 08.12.2019
2989 Rain 8 1011 75 10000 4.1 90 20:20 08.12.2019
2990 Rain 8 1011 75 10000 4.1 90 20:20 08.12.2019
2991 Clouds 8 1012 75 10000 4.1 120 19:58 08.12.2019
2992 Clouds 8 1012 75 10000 4.1 120 19:40 08.12.2019
2993 Clouds 8 1012 81 10000 3.1 90 19:22 08.12.2019
2994 Clouds 8 1013 86 10000 2.6 100 18:55 08.12.2019
2995 Clouds 8 1013 86 10000 2.6 100 18:55 08.12.2019
2996 Clouds 7 1013 81 10000 2.1 120 18:37 08.12.2019
2997 Clouds 7 1013 81 10000 2.1 120 18:19 08.12.2019
2998 Clouds 7 1013 81 10000 1 0 17:56 08.12.2019
2999 Rain 7 1013 81 10000 1.5 90 17:38 08.12.2019
3000 Clouds 8 1013 81 10000 1.5 90 17:19 08.12.2019
3001 Clouds 8 1014 70 10000 2.1 100 16:56 08.12.2019
3002 Clouds 8 1014 61 10000 1 140 16:38 08.12.2019
3003 Clouds 8 1014 61 10000 1 140 16:20 08.12.2019
3004 Clouds 9 1014 66 10000 3.1 160 15:54 08.12.2019
3005 Clouds 9 1014 61 10000 3.6 150 15:36 08.12.2019
3006 Clouds 9 1014 61 10000 3.6 150 15:18 08.12.2019
3007 Clouds 9 1015 61 10000 1.5 0 14:41 08.12.2019
3008 Clouds 9 1015 61 10000 1.5 0 14:22 08.12.2019
3009 Clouds 9 1016 71 10000 2.1 0 13:57 08.12.2019
3010 Clouds 9 1016 61 10000 1.5 0 13:39 08.12.2019
3011 Clouds 9 1016 61 10000 1.5 0 13:21 08.12.2019
3012 Clouds 9 1016 75 10000 2.6 140 12:55 08.12.2019
3013 Clouds 9 1017 75 10000 4.1 140 12:37 08.12.2019
3014 Clouds 9 1017 75 10000 4.1 140 12:18 08.12.2019
3015 Clouds 8 1018 81 10000 3.1 120 11:55 08.12.2019
3016 Clouds 7 1018 86 10000 2.6 80 11:37 08.12.2019
3017 Rain 6 1018 86 10000 2.6 80 11:18 08.12.2019
3018 Clouds 5 1018 93 10000 4.6 120 10:39 08.12.2019
3019 Clouds 4 1018 93 10000 4.6 120 10:20 08.12.2019
3020 Clouds 3 1018 83 10000 4.1 110 09:58 08.12.2019
3021 Clouds 3 1018 83 10000 1 0 09:39 08.12.2019
3022 Clouds 3 1018 83 10000 1 0 09:20 08.12.2019
3023 Clouds 2 1018 100 10000 2.6 110 08:58 08.12.2019
3024 Clouds 2 1018 100 10000 2.6 110 08:39 08.12.2019
3025 Clouds 2 1018 100 10000 0.5 0 08:21 08.12.2019
3026 Clouds 2 1018 100 10000 1 0 07:44 08.12.2019
3027 Clouds 1 1018 100 10000 0.5 0 07:20 08.12.2019
3028 Clouds 2 1018 93 10000 0.5 0 06:51 08.12.2019
3029 Clouds 2 1018 93 10000 1 0 06:23 08.12.2019
3030 Clouds 2 1018 93 10000 2.1 120 05:51 08.12.2019
3031 Clouds 2 1019 93 10000 1 0 05:18 08.12.2019
3032 Clouds 2 1020 93 10000 2.6 110 03:51 08.12.2019
3033 Clouds 2 1020 93 10000 3.1 110 03:26 08.12.2019
3034 Clouds 3 1020 93 10000 1.5 120 02:40 08.12.2019
3035 Clouds 3 1020 94 10000 1 0 01:56 08.12.2019
3036 Clouds 3 1020 100 10000 0.5 0 01:33 08.12.2019
3037 Clouds 4 1020 94 10000 1.5 160 00:42 08.12.2019
3038 Clouds 4 1021 93 10000 1 0 00:21 08.12.2019
3039 Clouds 4 1021 93 10000 2.1 110 23:55 07.12.2019
3040 Clouds 5 1021 86 10000 2.6 110 23:36 07.12.2019
3041 Clouds 5 1021 86 10000 2.6 110 23:18 07.12.2019
3042 Clouds 5 1021 93 10000 2.1 120 22:54 07.12.2019
3043 Clouds 5 1021 93 10000 2.1 150 22:36 07.12.2019
3044 Clouds 5 1021 93 10000 2.1 150 22:36 07.12.2019
3045 Clouds 5 1021 93 10000 2.1 150 22:18 07.12.2019
3046 Clouds 5 1021 100 10000 2.1 0 21:54 07.12.2019
3047 Clouds 5 1021 93 10000 0.5 0 21:36 07.12.2019
3048 Clouds 5 1021 93 10000 0.5 0 21:18 07.12.2019
3049 Clouds 6 1021 86 10000 1 0 20:37 07.12.2019
3050 Clouds 6 1021 86 10000 1 0 20:19 07.12.2019
3051 Clouds 6 1020 75 10000 1.5 270 19:57 07.12.2019
3052 Clouds 7 1020 81 10000 3.6 310 19:38 07.12.2019
3053 Clouds 7 1020 81 10000 3.6 310 19:20 07.12.2019
3054 Clouds 7 1020 76 10000 2.1 320 18:55 07.12.2019
3055 Clouds 7 1020 70 10000 2.6 300 18:36 07.12.2019
3056 Clouds 7 1020 70 10000 2.6 300 18:18 07.12.2019
3057 Clouds 7 1020 76 10000 1.5 320 17:42 07.12.2019
3058 Clouds 8 1019 66 10000 1 0 17:24 07.12.2019
3059 Clouds 8 1019 76 10000 1.5 0 16:58 07.12.2019
3060 Clouds 9 1019 76 10000 1.5 0 16:39 07.12.2019
3061 Clouds 9 1019 76 10000 1.63 236 16:21 07.12.2019
3062 Rain 9 1019 71 10000 1.5 250 15:57 07.12.2019
3063 Rain 9 1019 62 10000 1 0 15:38 07.12.2019
3064 Rain 10 1019 62 10000 1 0 15:20 07.12.2019
3065 Rain 10 1019 62 10000 1 0 15:20 07.12.2019
3066 Clouds 10 1019 66 10000 1.5 320 14:42 07.12.2019
3067 Clouds 10 1019 66 10000 2.1 310 14:19 07.12.2019
3068 Clouds 10 1019 66 10000 3.1 280 13:58 07.12.2019
3069 Clouds 10 1019 66 10000 3.1 280 13:58 07.12.2019
3070 Rain 10 1019 71 10000 3.1 300 13:39 07.12.2019
3071 Rain 10 1019 71 10000 3.1 300 13:19 07.12.2019
3072 Rain 10 1019 62 10000 4.1 320 12:41 07.12.2019
3073 Rain 10 1019 62 10000 5.1 310 12:23 07.12.2019
3074 Clouds 10 1019 61 10000 2.1 330 11:59 07.12.2019
3075 Clouds 10 1019 61 10000 2.1 330 11:41 07.12.2019
3076 Clouds 9 1020 70 10000 2.1 320 11:22 07.12.2019
3077 Clouds 8 1019 66 10000 2.6 310 10:39 07.12.2019
3078 Clouds 7 1019 66 10000 2.6 310 10:20 07.12.2019
3079 Clouds 7 1019 66 10000 3.1 310 09:59 07.12.2019
3080 Rain 7 1019 75 10000 3.6 310 09:38 07.12.2019
3081 Rain 7 1019 75 10000 3.6 310 09:38 07.12.2019
3082 Rain 7 1019 75 10000 3.6 310 09:20 07.12.2019
3083 Clouds 7 1019 66 10000 1 0 08:45 07.12.2019
3084 Rain 6 1019 61 10000 2.6 340 08:21 07.12.2019
3085 Clouds 6 1018 57 10000 3.1 290 07:47 07.12.2019
3086 Clouds 7 1018 57 10000 2.6 260 07:28 07.12.2019
3087 Clouds 7 1018 53 10000 4.6 280 06:52 07.12.2019
3088 Rain 7 1018 57 10000 3.6 0 06:25 07.12.2019
3089 Clouds 7 1017 89 10000 2.6 290 05:44 07.12.2019
3090 Clouds 7 1017 49 10000 1.5 0 04:41 07.12.2019
3091 Clouds 6 1018 86 10000 1 0 03:48 07.12.2019
3092 Clouds 5 1018 93 10000 1.5 100 02:22 07.12.2019
3093 Clouds 5 1018 93 10000 1.5 220 01:37 07.12.2019
3094 Clouds 5 1018 93 10000 1.5 220 01:18 07.12.2019
3095 Rain 4 1019 100 9000 1.5 110 00:21 07.12.2019
3096 Clouds 4 1019 93 5000 1 0 23:57 06.12.2019
3097 Clouds 4 1018 100 10000 1.5 160 23:38 06.12.2019
3098 Clouds 4 1018 100 10000 1.5 160 23:19 06.12.2019
3099 Clouds 3 1019 100 6000 1 0 22:39 06.12.2019
3100 Clouds 3 1019 100 6000 1 0 22:21 06.12.2019
3101 Mist 3 1019 65 4500 0.5 0 21:58 06.12.2019
3102 Clouds 3 1019 65 6000 0.5 0 21:39 06.12.2019
3103 Clouds 3 1019 65 6000 0.5 0 21:20 06.12.2019
3104 Clouds 3 1019 100 5000 2.39 202 20:45 06.12.2019
3105 Clouds 2 1019 100 5000 2.58 203 20:25 06.12.2019
3106 Mist 2 1019 72 4500 1 0 19:59 06.12.2019
3107 Mist 2 1019 72 4500 1 0 19:40 06.12.2019
3108 Mist 2 1019 100 4000 2.1 0 19:22 06.12.2019
3109 Mist 2 1019 100 4000 2.1 0 19:22 06.12.2019
3110 Mist 2 1019 100 4000 2.1 130 18:57 06.12.2019
3111 Mist 2 1019 100 4000 2.1 130 18:39 06.12.2019
3112 Mist 2 1019 72 4600 2.6 140 18:19 06.12.2019
3113 Fog 3 1019 72 1800 2.6 120 17:56 06.12.2019
3114 Fog 3 1019 72 1800 2.6 120 17:56 06.12.2019
3115 Fog 3 1019 72 5000 1.5 120 17:38 06.12.2019
3116 Fog 3 1019 67 5000 1.5 120 17:19 06.12.2019
3117 Fog 3 1019 67 5000 1.5 120 17:19 06.12.2019
3118 Mist 4 1019 67 4800 1.5 140 16:43 06.12.2019
3119 Clouds 4 1019 67 6000 2.1 170 16:25 06.12.2019
3120 Mist 5 1019 93 5000 1.5 150 15:59 06.12.2019
3121 Mist 5 1019 93 5000 1.5 150 15:40 06.12.2019
3122 Mist 5 1019 93 5000 1.5 150 15:40 06.12.2019
3123 Mist 5 1019 67 1500 1.5 230 15:19 06.12.2019
3124 Mist 5 1020 67 1500 1.5 150 14:56 06.12.2019
3125 Mist 5 1021 67 4300 1.49 213 14:38 06.12.2019
3126 Mist 5 1021 45 4300 1.45 237 14:18 06.12.2019
3127 Clouds 4 1021 45 2500 1.5 160 13:43 06.12.2019
3128 Mist 4 1021 45 2500 1.5 140 13:25 06.12.2019
3129 Mist 3 1022 45 2000 1.5 170 12:43 06.12.2019
3130 Mist 3 1022 100 2000 1.5 0 12:23 06.12.2019
3131 Mist 3 1023 100 1500 1.5 0 11:58 06.12.2019
3132 Mist 2 1023 100 1300 1.5 180 11:39 06.12.2019
3133 Mist 2 1023 100 1300 1.5 180 11:20 06.12.2019
3134 Mist 2 1023 100 1000 1 0 10:43 06.12.2019
3135 Fog 1 1023 92 700 2.1 170 10:21 06.12.2019
3136 Fog 1 1023 92 700 2.1 160 09:58 06.12.2019
3137 Mist 1 1023 92 1600 2.1 170 09:37 06.12.2019
3138 Mist 1 1023 92 1600 2.1 170 09:37 06.12.2019
3139 Mist 1 1023 92 1600 2.1 170 09:19 06.12.2019
3140 Fog 1 1023 100 1100 2.1 170 08:45 06.12.2019
3141 Fog 1 1023 92 800 1.5 0 08:27 06.12.2019
3142 Mist 0 1023 100 1500 2.1 160 07:56 06.12.2019
3143 Mist 0 1023 100 1500 1 0 07:36 06.12.2019
3144 Mist 0 1023 100 1500 1 0 07:18 06.12.2019
3145 Mist 0 1023 92 2000 1 170 06:29 06.12.2019
3146 Mist 0 1023 100 2400 2.6 170 05:53 06.12.2019
3147 Mist 0 1023 92 3000 0.5 0 05:33 06.12.2019
3148 Fog 0 1023 100 600 0.5 0 02:19 06.12.2019
3149 Fog 0 1023 92 1200 0.5 0 01:30 06.12.2019
3150 Clouds 0 1023 92 6000 1 0 00:41 06.12.2019
3151 Fog 0 1024 92 400 1.5 0 00:20 06.12.2019
3152 Fog 0 1024 100 1100 1.5 250 23:45 05.12.2019
3153 Mist 0 1024 100 1100 1.5 180 23:19 05.12.2019
3154 Fog 0 1024 100 1100 1 0 22:57 05.12.2019
3155 Fog 0 1024 100 650 1.5 0 22:37 05.12.2019
3156 Fog 0 1024 100 650 1.5 0 22:18 05.12.2019
3157 Fog 1 1024 100 550 1 0 21:44 05.12.2019
3158 Fog 0 1024 100 600 1.5 220 21:25 05.12.2019
3159 Fog 0 1024 100 900 2.1 180 20:59 05.12.2019
3160 Fog 0 1024 100 900 2.1 180 20:40 05.12.2019
3161 Mist 0 1024 71 1500 2.1 180 20:20 05.12.2019
3162 Mist 1 1024 71 2900 1 170 19:57 05.12.2019
3163 Mist 1 1024 71 2900 1 170 19:57 05.12.2019
3164 Mist 1 1024 71 2900 1 170 19:39 05.12.2019
3165 Mist 1 1023 71 4200 2.1 170 19:20 05.12.2019
3166 Mist 1 1023 71 4200 2.1 170 18:57 05.12.2019
3167 Clouds 1 1023 71 5000 1.5 160 18:37 05.12.2019
3168 Clouds 1 1023 71 5000 1 0 18:19 05.12.2019
3169 Clouds 1 1023 71 5000 1 0 18:19 05.12.2019
3170 Mist 1 1023 86 4000 1 0 17:39 05.12.2019
3171 Mist 1 1023 58 4000 1.5 180 17:19 05.12.2019
3172 Clouds 2 1022 86 8000 1 0 16:57 05.12.2019
3173 Clouds 2 1022 86 8000 1 0 16:38 05.12.2019
3174 Clouds 2 1022 86 8000 1 0 16:38 05.12.2019
3175 Clouds 2 1022 86 7000 1 250 16:20 05.12.2019
3176 Clouds 2 1022 86 7000 1 250 15:56 05.12.2019
3177 Clouds 2 1022 80 7000 1.5 230 15:37 05.12.2019
3178 Clouds 2 1022 86 7000 1.5 220 15:19 05.12.2019
3179 Clouds 1 1022 86 6000 1 0 14:55 05.12.2019
3180 Clouds 2 1022 86 6000 1 0 14:36 05.12.2019
3181 Clouds 3 1022 86 6000 1.5 0 14:18 05.12.2019
3182 Clouds 3 1022 86 6000 1.5 0 13:56 05.12.2019
3183 Mist 4 1022 38 4000 1.5 0 13:37 05.12.2019
3184 Mist 3 1023 41 4000 1.5 290 13:18 05.12.2019
3185 Mist 3 1023 41 3500 1.5 290 12:43 05.12.2019
3186 Mist 2 1023 41 2500 2.1 290 12:24 05.12.2019
3187 Mist 1 1023 41 2800 1.5 310 11:56 05.12.2019
3188 Mist 1 1023 41 2800 1.5 310 11:38 05.12.2019
3189 Mist 1 1023 45 2500 1.5 0 11:20 05.12.2019
3190 Mist 1 1023 45 2500 1.5 0 11:20 05.12.2019
3191 Mist 1 1023 45 2500 1.5 120 10:56 05.12.2019
3192 Mist 1 1023 45 2500 1.5 120 10:56 05.12.2019
3193 Mist 0 1023 45 2500 1.5 120 10:38 05.12.2019
3194 Mist 1 1022 45 1500 2.1 170 10:18 05.12.2019
3195 Fog -1 1022 100 1300 1 0 09:45 05.12.2019
3196 Fog 0 1022 92 1200 1.5 290 09:23 05.12.2019
3197 Mist -1 1022 92 1500 2.1 310 08:59 05.12.2019
3198 Mist -1 1022 92 1500 2.1 310 08:38 05.12.2019
3199 Mist -1 1022 100 2000 3.1 310 08:20 05.12.2019
3200 Clouds -1 1021 100 5000 2.6 320 07:50 05.12.2019
3201 Clouds -1 1021 100 5000 2.6 320 07:32 05.12.2019
3202 Mist -1 1021 92 4200 2.6 310 06:58 05.12.2019
3203 Clouds -1 1021 100 5000 2.1 310 06:40 05.12.2019
3204 Clouds -1 1021 100 5000 3.1 300 06:19 05.12.2019
3205 Mist -1 1021 100 2300 2.6 330 05:47 05.12.2019
3206 Mist 0 1022 60 3700 2.1 310 05:23 05.12.2019
3207 Clouds 0 1021 60 5000 1.5 0 04:20 05.12.2019
3208 Clouds 0 1021 60 5000 1.5 0 04:20 05.12.2019
3209 Clouds 0 1022 60 8000 2.1 250 02:44 05.12.2019
3210 Mist 0 1022 60 4000 0.5 0 02:24 05.12.2019
3211 Clouds 0 1021 68 5000 0.5 0 01:53 05.12.2019
3212 Clouds 0 1021 66 5000 0.5 0 01:27 05.12.2019
3213 Clouds 0 1021 66 5000 2.1 250 00:52 05.12.2019
3214 Clouds 0 1021 66 5000 2.1 250 00:33 05.12.2019
3215 Mist 0 1021 66 4900 2.1 250 23:58 04.12.2019
3216 Mist 0 1021 66 4900 2.6 240 23:39 04.12.2019
3217 Mist 0 1021 75 4900 0.5 0 23:21 04.12.2019
3218 Clouds 0 1020 100 6000 1 0 22:55 04.12.2019
3219 Clouds 0 1020 100 6000 1 0 22:36 04.12.2019
3220 Mist 0 1020 100 4500 1 170 22:18 04.12.2019
3221 Mist 0 1020 92 4800 1 150 21:54 04.12.2019
3222 Mist 0 1020 92 4800 1 150 21:36 04.12.2019
3223 Mist 0 1020 100 4500 1.5 140 21:18 04.12.2019
3224 Mist 0 1020 100 4500 1.5 140 20:56 04.12.2019
3225 Mist 0 1020 100 4800 0.61 143 20:37 04.12.2019
3226 Mist 0 1020 100 4800 0.62 104 20:19 04.12.2019
3227 Mist 0 1020 92 4800 1 160 19:40 04.12.2019
3228 Clouds 0 1020 92 6000 0.62 104 19:21 04.12.2019
3229 Clouds 0 1020 92 6000 0.62 104 18:58 04.12.2019
3230 Clouds 0 1020 92 6000 0.62 104 18:58 04.12.2019
3231 Clouds 0 1019 92 7000 0.5 0 18:40 04.12.2019
3232 Clouds 0 1019 92 6000 1 170 18:21 04.12.2019
3233 Clouds 0 1019 92 7000 2.1 330 17:56 04.12.2019
3234 Clouds 0 1019 92 7000 2.1 330 17:37 04.12.2019
3235 Clouds 1 1019 86 9000 2.6 330 17:18 04.12.2019
3236 Clouds 1 1019 69 8000 3.1 310 16:40 04.12.2019
3237 Clear 1 1018 86 10000 3.1 290 16:20 04.12.2019
3238 Clear 1 1018 80 10000 2.6 300 15:57 04.12.2019
3239 Clear 1 1018 80 10000 2.6 300 15:39 04.12.2019
3240 Clear 1 1018 74 10000 2.6 270 15:20 04.12.2019
3241 Clear 1 1018 74 10000 2.6 270 14:57 04.12.2019
3242 Clouds 1 1018 69 10000 1.5 220 14:39 04.12.2019
3243 Clouds 2 1018 74 10000 1 0 14:20 04.12.2019
3244 Clouds 2 1019 80 9000 1.5 200 13:39 04.12.2019
3245 Clouds 2 1019 74 8000 1.5 220 13:21 04.12.2019
3246 Clouds 2 1019 74 8000 1.5 220 12:59 04.12.2019
3247 Clouds 3 1019 80 8000 1 0 12:41 04.12.2019
3248 Clouds 3 1019 80 8000 1.5 320 12:23 04.12.2019
3249 Clouds 2 1020 74 8000 1.13 6 11:43 04.12.2019
3250 Clouds 1 1020 80 8000 1.13 6 11:24 04.12.2019
3251 Clouds 1 1021 80 8000 0.5 0 10:57 04.12.2019
3252 Clouds 1 1021 80 8000 0.5 0 10:39 04.12.2019
3253 Clouds 0 1021 80 8000 1 0 10:21 04.12.2019
3254 Clouds 0 1021 86 8000 1.5 0 09:42 04.12.2019
3255 Clouds 0 1021 80 8000 1.5 330 09:23 04.12.2019
3256 Clouds 0 1021 72 10000 0.89 22 08:43 04.12.2019
3257 Clouds 0 1021 72 10000 1.5 310 08:25 04.12.2019
3258 Clouds -1 1021 94 10000 1.5 260 07:51 04.12.2019
3259 Clouds -1 1021 94 10000 1.5 260 07:31 04.12.2019
3260 Clouds -1 1021 94 10000 1 270 06:57 04.12.2019
3261 Clouds -1 1021 94 10000 1 270 06:31 04.12.2019
3262 Clouds -1 1021 80 10000 1.5 250 05:46 04.12.2019
3263 Clouds -1 1021 80 10000 1 180 04:34 04.12.2019
3264 Mist -2 1022 100 4200 0.5 350 03:47 04.12.2019
3265 Clouds -2 1022 80 10000 1.5 330 01:34 04.12.2019
3266 Clouds -2 1023 80 8000 1.5 330 00:47 04.12.2019
3267 Clouds -2 1023 86 10000 1 340 00:21 04.12.2019
3268 Clouds -2 1024 92 5000 0.77 52 23:43 03.12.2019
3269 Clouds -2 1024 92 5000 0.77 52 23:43 03.12.2019
3270 Clouds -2 1023 86 8000 1.5 310 23:20 03.12.2019
3271 Clouds -2 1023 86 8000 1.5 310 22:59 03.12.2019
3272 Clouds -1 1023 80 10000 1 290 22:38 03.12.2019
3273 Clouds -1 1023 80 10000 1 290 22:38 03.12.2019
3274 Clouds -1 1023 86 8000 1.5 290 22:18 03.12.2019
3275 Clouds -1 1023 86 8000 1.5 290 21:57 03.12.2019
3276 Clouds -1 1023 86 8000 0.5 0 21:37 03.12.2019
3277 Clouds -1 1023 80 9000 0.5 0 21:18 03.12.2019
3278 Clouds -1 1024 91 10000 0.5 0 20:41 03.12.2019
3279 Clouds -1 1024 88 10000 1 0 20:20 03.12.2019
3280 Clouds -1 1024 88 10000 1 0 20:20 03.12.2019
3281 Clouds -1 1024 88 10000 1 0 19:57 03.12.2019
3282 Clouds -1 1024 88 10000 1.5 0 19:38 03.12.2019
3283 Clouds -1 1024 88 8000 1 0 19:20 03.12.2019
3284 Clouds -1 1024 88 8000 1 0 18:59 03.12.2019
3285 Clouds -1 1024 88 8000 1 0 18:41 03.12.2019
3286 Clear -1 1024 88 10000 0.5 0 18:21 03.12.2019
3287 Clear 0 1024 88 10000 0.5 0 17:58 03.12.2019
3288 Clouds 0 1024 88 10000 1.5 0 17:58 03.12.2019
3289 Clouds 0 1024 88 10000 1.5 0 17:39 03.12.2019
3290 Clouds 1 1024 80 10000 1.5 0 17:18 03.12.2019
3291 Clouds 1 1024 80 10000 1.5 0 17:18 03.12.2019
3292 Clouds 1 1024 80 10000 1.5 0 17:18 03.12.2019
3293 Clouds 1 1024 80 10000 1.5 0 16:58 03.12.2019
3294 Clouds 1 1024 80 10000 1.5 0 16:58 03.12.2019
3295 Clouds 1 1024 80 10000 1.5 0 16:58 03.12.2019
3296 Clouds 2 1024 74 10000 1.5 0 16:39 03.12.2019
3297 Clouds 2 1024 74 10000 1.5 340 16:20 03.12.2019
3298 Clouds 1 1023 69 10000 2.1 340 15:57 03.12.2019
3299 Clouds 2 1023 69 10000 2.1 340 15:38 03.12.2019
3300 Clouds 2 1023 69 10000 2.1 20 15:19 03.12.2019
3301 Clouds 2 1023 69 10000 2.6 360 14:43 03.12.2019
3302 Clouds 3 1024 69 10000 2.6 350 14:20 03.12.2019
3303 Clouds 2 1024 64 10000 3.1 330 13:57 03.12.2019
3304 Clouds 2 1024 64 10000 3.1 330 13:37 03.12.2019
3305 Clouds 2 1024 74 10000 1.5 40 13:19 03.12.2019
3306 Clouds 3 1024 69 10000 2.1 30 12:41 03.12.2019
3307 Clouds 2 1025 69 9000 1.5 350 12:19 03.12.2019
3308 Clouds 2 1025 69 9000 1.5 350 12:19 03.12.2019
3309 Clouds 2 1025 69 9000 1.5 350 11:59 03.12.2019
3310 Clouds 2 1025 74 10000 1.5 0 11:39 03.12.2019
3311 Clouds 0 1026 80 8000 2.1 350 11:21 03.12.2019
3312 Clouds 0 1026 80 8000 2.1 350 10:59 03.12.2019
3313 Clouds 0 1026 80 8000 1.5 0 10:41 03.12.2019
3314 Clouds 0 1026 80 8000 1 0 10:21 03.12.2019
3315 Clouds 0 1026 80 10000 2.1 280 09:56 03.12.2019
3316 Clouds 0 1026 80 10000 2.1 280 09:38 03.12.2019
3317 Clouds 0 1026 80 10000 2.1 350 09:19 03.12.2019
3318 Clouds -1 1026 80 10000 2.6 10 08:41 03.12.2019
3319 Clouds -2 1026 90 9000 2.6 20 08:22 03.12.2019
3320 Clouds -2 1025 90 10000 2.6 20 07:54 03.12.2019
3321 Clouds -2 1025 90 10000 2.6 20 07:31 03.12.2019
3322 Clouds -2 1025 90 9000 2.1 290 06:59 03.12.2019
3323 Clouds -2 1025 90 10000 2.1 340 06:22 03.12.2019
3324 Clouds -2 1025 90 10000 2.1 340 05:57 03.12.2019
3325 Clouds -1 1025 92 10000 1 0 04:49 03.12.2019
3326 Clouds -1 1025 92 10000 1 0 03:38 03.12.2019
3327 Clouds -1 1025 92 10000 1 0 03:18 03.12.2019
3328 Clouds -1 1024 92 10000 1 0 02:45 03.12.2019
3329 Clouds -1 1024 92 10000 1 0 02:25 03.12.2019
3330 Clouds -1 1024 89 10000 2.1 360 01:42 03.12.2019
3331 Clouds -1 1025 74 10000 1.5 60 01:23 03.12.2019
3332 Clouds -1 1025 74 10000 4.6 50 00:44 03.12.2019
3333 Clouds -1 1025 74 10000 4.6 50 00:44 03.12.2019
3334 Clouds -1 1025 74 10000 4.6 50 00:26 03.12.2019
3335 Clouds 0 1025 74 10000 3.1 30 23:59 02.12.2019
3336 Clouds 0 1024 80 10000 2.1 50 23:41 02.12.2019
3337 Clouds 0 1024 80 10000 2.1 0 23:19 02.12.2019
3338 Clouds 0 1024 80 10000 1.5 0 22:41 02.12.2019
3339 Clouds 0 1024 80 10000 2.6 360 22:22 02.12.2019
3340 Clouds 0 1024 80 10000 2.6 360 21:58 02.12.2019
3341 Clouds 0 1024 80 10000 1.5 0 21:37 02.12.2019
3342 Clouds 0 1024 80 10000 1.5 0 21:37 02.12.2019
3343 Clouds 0 1024 80 10000 1.5 0 21:18 02.12.2019
3344 Clouds 0 1024 80 10000 1.5 0 20:56 02.12.2019
3345 Clouds 0 1024 74 10000 2.1 10 20:38 02.12.2019
3346 Clouds 1 1024 80 10000 2.6 340 20:19 02.12.2019
3347 Clouds 1 1024 80 10000 2.1 0 19:43 02.12.2019
3348 Clouds 1 1024 80 10000 2.6 360 19:22 02.12.2019
3349 Clouds 1 1024 80 10000 2.6 360 18:59 02.12.2019
3350 Clouds 1 1024 80 10000 2.6 360 18:39 02.12.2019
3351 Clouds 1 1023 80 10000 2.1 330 18:19 02.12.2019
3352 Clouds 1 1023 80 10000 2.1 330 17:58 02.12.2019
3353 Clouds 1 1023 80 10000 2.1 0 17:39 02.12.2019
3354 Clouds 2 1023 74 10000 2.6 50 17:19 02.12.2019
3355 Clouds 2 1023 86 10000 3.6 50 16:42 02.12.2019
3356 Clouds 2 1023 86 10000 3.1 0 16:19 02.12.2019
3357 Clouds 2 1023 86 10000 2.6 350 15:59 02.12.2019
3358 Clouds 2 1023 86 10000 2.6 350 15:40 02.12.2019
3359 Clouds 2 1022 86 10000 2.6 360 15:22 02.12.2019
3360 Clouds 2 1022 86 10000 2.6 360 14:59 02.12.2019
3361 Clouds 3 1022 80 10000 3.1 10 14:38 02.12.2019
3362 Clouds 3 1022 80 10000 3.6 360 14:20 02.12.2019
3363 Clouds 3 1022 86 9000 2.6 20 13:57 02.12.2019
3364 Clouds 3 1022 86 9000 2.6 20 13:39 02.12.2019
3365 Clouds 3 1021 86 9000 2.6 10 13:19 02.12.2019
3366 Clouds 3 1021 86 9000 2.6 10 12:56 02.12.2019
3367 Clouds 3 1021 86 9000 2.6 360 12:37 02.12.2019
3368 Clouds 3 1021 80 9000 2.1 350 12:19 02.12.2019
3369 Clouds 3 1021 86 9000 1 0 11:38 02.12.2019
3370 Clouds 2 1021 86 8000 1 0 11:20 02.12.2019
3371 Clouds 2 1021 86 8000 1 0 10:58 02.12.2019
3372 Clouds 2 1021 86 7000 2.6 350 10:40 02.12.2019
3373 Clouds 2 1020 93 10000 2.1 350 10:22 02.12.2019
3374 Clouds 2 1020 93 10000 2.1 350 10:22 02.12.2019
3375 Clouds 3 1020 93 10000 2.1 350 09:57 02.12.2019
3376 Clouds 3 1020 93 10000 1.5 60 09:39 02.12.2019
3377 Clouds 3 1020 86 9000 2.1 50 09:18 02.12.2019
3378 Clouds 3 1020 86 9000 2.1 50 09:18 02.12.2019
3379 Clouds 3 1020 86 9000 2.1 50 08:55 02.12.2019
3380 Clouds 3 1019 100 9000 1.5 280 08:37 02.12.2019
3381 Rain 3 1019 100 9000 1 330 08:18 02.12.2019
3382 Rain 3 1019 100 5000 1.5 320 07:39 02.12.2019
3383 Rain 3 1018 100 5000 0.5 330 07:20 02.12.2019
3384 Drizzle 3 1018 100 6000 2.19 41 06:43 02.12.2019
3385 Drizzle 3 1018 100 10000 1.5 270 06:20 02.12.2019
3386 Mist 3 1018 100 5000 1.5 280 05:19 02.12.2019
3387 Mist 3 1018 100 5000 1.5 280 05:19 02.12.2019
3388 Mist 3 1017 100 3600 1 160 04:19 02.12.2019
3389 Drizzle 3 1017 100 3900 1.5 110 02:51 02.12.2019
3390 Drizzle 3 1017 100 3900 1.5 110 02:51 02.12.2019
3391 Drizzle 4 1017 100 2800 0.5 0 01:50 02.12.2019
3392 Drizzle 4 1017 100 2700 1.5 130 01:21 02.12.2019
3393 Drizzle 3 1016 100 5000 0.5 0 00:44 02.12.2019
3394 Drizzle 3 1016 100 3200 1.5 320 00:23 02.12.2019
3395 Clouds 3 1016 93 5000 2.1 300 23:44 01.12.2019
3396 Drizzle 4 1015 93 6000 2.1 300 23:23 01.12.2019
3397 Drizzle 4 1015 93 6000 2.1 300 23:23 01.12.2019
3398 Drizzle 3 1015 93 6000 2.1 300 22:58 01.12.2019
3399 Clouds 3 1016 93 8000 0.5 0 22:38 01.12.2019
3400 Rain 3 1015 100 6000 2.1 110 22:20 01.12.2019
3401 Rain 3 1015 100 6000 2.1 110 22:20 01.12.2019
3402 Rain 3 1015 100 6000 2.1 110 21:58 01.12.2019
3403 Drizzle 3 1015 100 4900 2.6 160 21:40 01.12.2019
3404 Drizzle 4 1015 93 5000 1 50 21:22 01.12.2019
3405 Drizzle 4 1015 93 5000 1 50 20:59 01.12.2019
3406 Rain 4 1015 93 4900 1.5 0 20:41 01.12.2019
3407 Drizzle 3 1015 93 6000 1.5 90 20:22 01.12.2019
3408 Drizzle 3 1015 93 6000 1.5 90 19:59 01.12.2019
3409 Drizzle 3 1015 93 7000 1.5 0 19:39 01.12.2019
3410 Drizzle 3 1015 93 4700 1.5 0 19:21 01.12.2019
3411 Drizzle 3 1015 93 4700 1.5 0 19:21 01.12.2019
3412 Drizzle 3 1015 93 4700 1.5 0 19:21 01.12.2019
3413 Drizzle 4 1015 93 4700 1.5 0 18:57 01.12.2019
3414 Drizzle 4 1015 93 4700 1.5 0 18:57 01.12.2019
3415 Rain 4 1015 93 6000 1.5 130 18:38 01.12.2019
3416 Rain 4 1015 93 6000 1.5 130 18:19 01.12.2019
3417 Rain 4 1015 93 6000 1.5 130 17:58 01.12.2019
3418 Rain 4 1015 93 6000 1 180 17:40 01.12.2019
3419 Rain 4 1014 93 5000 0.5 160 17:22 01.12.2019
3420 Rain 3 1015 93 7000 1 140 16:55 01.12.2019
3421 Rain 4 1015 93 7000 1 140 16:37 01.12.2019
3422 Rain 4 1014 93 7000 0.5 0 16:19 01.12.2019
3423 Rain 4 1014 86 7000 1 0 15:46 01.12.2019
3424 Rain 4 1014 86 7000 2.6 330 15:27 01.12.2019
3425 Rain 4 1014 86 7000 2.6 330 15:27 01.12.2019
3426 Rain 4 1014 93 7000 2.6 310 14:42 01.12.2019
3427 Drizzle 4 1014 93 10000 3.6 320 14:20 01.12.2019
3428 Rain 4 1014 93 8000 1.5 330 13:56 01.12.2019
3429 Clouds 4 1014 93 8000 1.5 330 13:38 01.12.2019
3430 Rain 4 1014 93 8000 0.5 0 13:19 01.12.2019
3431 Rain 4 1015 93 6000 0.5 0 12:43 01.12.2019
3432 Rain 3 1015 93 5000 2.1 110 11:57 01.12.2019
3433 Rain 3 1015 93 5000 2.1 110 11:57 01.12.2019
3434 Rain 3 1015 93 5000 2.1 110 11:57 01.12.2019
3435 Rain 3 1015 93 5000 2.1 110 11:57 01.12.2019
3436 Rain 3 1015 93 6000 2.6 140 11:37 01.12.2019
3437 Rain 3 1015 86 6000 2.6 120 11:19 01.12.2019
3438 Rain 3 1015 86 7000 1 0 10:43 01.12.2019
3439 Clouds 3 1015 86 7000 2.1 350 10:21 01.12.2019
3440 Clouds 3 1015 86 7000 2.1 350 09:55 01.12.2019
3441 Clouds 3 1014 86 7000 2.1 360 09:36 01.12.2019
3442 Clouds 2 1013 93 7000 2.6 330 09:18 01.12.2019
3443 Clouds 2 1013 92 7000 4.6 290 08:42 01.12.2019
3444 Clouds 2 1012 93 7000 3.6 280 08:19 01.12.2019
3445 Clouds 2 1012 93 6000 3.6 300 07:50 01.12.2019
3446 Clouds 2 1012 93 6000 3.6 300 07:29 01.12.2019
3447 Clouds 2 1012 100 7000 1.5 270 06:54 01.12.2019
3448 Clouds 2 1013 93 7000 1.5 290 06:25 01.12.2019
3449 Clouds 2 1013 93 5000 1 0 05:46 01.12.2019
3450 Clouds 2 1013 93 10000 1 0 04:34 01.12.2019
3451 Clouds 2 1016 100 8000 2.1 320 02:47 01.12.2019
3452 Clouds 2 1016 100 8000 2.1 320 02:29 01.12.2019
3453 Clouds 3 1016 93 8000 1.5 310 01:56 01.12.2019
3454 Clouds 3 1016 93 9000 1.5 330 01:38 01.12.2019
3455 Clouds 2 1017 93 8000 0.5 0 00:59 01.12.2019
3456 Clouds 2 1016 93 9000 1 110 00:39 01.12.2019
3457 Clouds 3 1017 93 10000 1 0 00:20 01.12.2019
3458 Clouds 3 1017 93 9000 1 110 23:41 30.11.2019
3459 Clouds 3 1017 93 10000 0.5 0 23:22 30.11.2019
3460 Clouds 3 1017 93 6000 1 290 22:49 30.11.2019
3461 Clouds 3 1017 93 6000 1 290 22:29 30.11.2019
3462 Clouds 3 1017 93 7000 0.5 0 21:56 30.11.2019
3463 Clouds 3 1017 93 7000 0.5 0 21:37 30.11.2019
3464 Clouds 3 1018 93 10000 0.5 0 21:19 30.11.2019
3465 Clouds 3 1018 93 10000 0.5 0 20:55 30.11.2019
3466 Clouds 3 1018 93 10000 0.5 0 20:36 30.11.2019
3467 Clouds 3 1018 93 7000 0.5 0 20:18 30.11.2019
3468 Clouds 3 1018 93 7000 1 320 19:55 30.11.2019
3469 Clouds 3 1018 93 7000 1 320 19:36 30.11.2019
3470 Clouds 4 1018 80 10000 1 290 19:18 30.11.2019
3471 Clouds 4 1018 93 8000 0.5 0 18:54 30.11.2019
3472 Clouds 4 1018 93 8000 0.5 0 18:36 30.11.2019
3473 Clouds 4 1018 93 8000 1 0 18:18 30.11.2019
3474 Clouds 4 1018 86 10000 2.1 280 17:55 30.11.2019
3475 Clouds 4 1018 86 10000 2.1 280 17:37 30.11.2019
3476 Clouds 4 1018 86 10000 2.1 280 17:37 30.11.2019
3477 Clouds 5 1018 80 10000 2.6 280 17:18 30.11.2019
3478 Clouds 5 1018 86 10000 2.6 280 16:42 30.11.2019
3479 Clouds 5 1018 81 10000 2.6 290 16:22 30.11.2019
3480 Clouds 5 1018 87 10000 2.6 310 15:55 30.11.2019
3481 Clouds 6 1018 87 10000 2.6 310 15:37 30.11.2019
3482 Clouds 6 1019 81 10000 3.1 310 15:18 30.11.2019
3483 Clouds 6 1019 81 10000 2.6 320 14:55 30.11.2019
3484 Clouds 6 1019 81 10000 2.6 320 14:37 30.11.2019
3485 Clouds 6 1019 81 10000 3.6 310 14:18 30.11.2019
3486 Clouds 6 1019 81 10000 2.1 270 13:45 30.11.2019
3487 Clouds 6 1019 81 10000 2.1 270 13:26 30.11.2019
3488 Clouds 6 1020 81 10000 1.5 0 12:59 30.11.2019
3489 Clouds 5 1020 87 10000 2.1 310 12:41 30.11.2019
3490 Clouds 5 1021 86 10000 2.6 280 12:22 30.11.2019
3491 Clouds 5 1021 86 10000 3.1 280 11:43 30.11.2019
3492 Clouds 5 1021 86 10000 2.6 280 11:20 30.11.2019
3493 Clouds 5 1021 86 10000 2.1 290 10:56 30.11.2019
3494 Clouds 4 1021 86 10000 2.1 290 10:37 30.11.2019
3495 Clouds 4 1021 93 10000 2.6 270 10:19 30.11.2019
3496 Drizzle 4 1021 100 10000 2.6 290 09:46 30.11.2019
3497 Clouds 4 1021 93 10000 1.5 290 09:24 30.11.2019
3498 Clouds 4 1021 93 10000 1 0 08:44 30.11.2019
3499 Drizzle 4 1020 93 10000 1 320 08:22 30.11.2019
3500 Drizzle 4 1020 93 10000 1 320 07:58 30.11.2019
3501 Rain 4 1020 100 10000 1 0 07:39 30.11.2019
3502 Rain 4 1021 93 10000 0.5 0 06:59 30.11.2019
3503 Drizzle 4 1021 93 10000 1.5 290 06:29 30.11.2019
3504 Rain 4 1021 93 10000 1 0 05:52 30.11.2019
3505 Clouds 5 1020 100 10000 0.5 0 03:54 30.11.2019
3506 Clouds 5 1020 100 10000 0.5 0 02:53 30.11.2019
3507 Clouds 5 1020 93 10000 0.5 0 02:22 30.11.2019
3508 Drizzle 5 1020 93 10000 1 0 01:38 30.11.2019
3509 Rain 5 1019 93 10000 1.5 0 01:19 30.11.2019
3510 Rain 5 1019 93 10000 0.5 0 00:36 30.11.2019
3511 Rain 5 1019 93 10000 1 0 00:18 30.11.2019
3512 Clouds 5 1019 93 10000 1.5 50 23:43 29.11.2019
3513 Rain 5 1019 93 10000 1 0 23:23 29.11.2019
3514 Drizzle 5 1018 87 9000 2.1 320 22:46 29.11.2019
3515 Drizzle 5 1018 87 9000 2.1 320 22:26 29.11.2019
3516 Rain 6 1018 81 10000 4.1 270 21:45 29.11.2019
3517 Drizzle 6 1017 81 10000 3.6 260 21:25 29.11.2019
3518 Drizzle 6 1017 81 10000 3.6 260 20:59 29.11.2019
3519 Drizzle 6 1017 81 10000 3.1 260 20:39 29.11.2019
3520 Drizzle 6 1017 81 10000 3.6 280 20:21 29.11.2019
3521 Drizzle 6 1017 81 10000 3.6 280 19:58 29.11.2019
3522 Rain 6 1017 81 10000 3.1 270 19:39 29.11.2019
3523 Rain 6 1016 81 10000 3.6 270 19:20 29.11.2019
3524 Rain 6 1016 81 10000 3.6 270 19:20 29.11.2019
3525 Rain 6 1016 81 10000 3.6 270 18:58 29.11.2019
3526 Rain 6 1016 87 8000 5.1 260 18:40 29.11.2019
3527 Rain 6 1015 75 5000 3.6 270 18:21 29.11.2019
3528 Rain 6 1015 75 10000 4.6 260 17:44 29.11.2019
3529 Rain 6 1015 75 10000 4.6 260 17:26 29.11.2019
3530 Rain 7 1014 87 10000 1 0 16:58 29.11.2019
3531 Rain 7 1014 87 10000 1 0 16:58 29.11.2019
3532 Rain 7 1014 87 10000 1 0 16:39 29.11.2019
3533 Rain 7 1014 87 10000 1 0 16:39 29.11.2019
3534 Rain 7 1014 81 10000 4.57 233 16:19 29.11.2019
3535 Rain 7 1013 81 10000 2.1 330 15:41 29.11.2019
3536 Rain 7 1013 81 5000 3.6 260 15:23 29.11.2019
3537 Rain 7 1013 81 5000 3.6 260 15:23 29.11.2019
3538 Rain 7 1013 81 5000 3.6 260 14:57 29.11.2019
3539 Rain 7 1013 81 10000 2.1 250 14:38 29.11.2019
3540 Drizzle 7 1013 81 10000 3.1 270 14:20 29.11.2019
3541 Rain 7 1013 81 10000 4.6 250 13:42 29.11.2019
3542 Rain 7 1013 81 10000 4.6 270 13:21 29.11.2019
3543 Rain 7 1012 81 10000 4.1 270 12:58 29.11.2019
3544 Rain 7 1012 81 10000 4.1 270 12:58 29.11.2019
3545 Rain 7 1012 81 10000 4.1 270 12:39 29.11.2019
3546 Rain 7 1012 81 10000 3.6 290 12:21 29.11.2019
3547 Rain 7 1012 81 7000 4.1 280 11:55 29.11.2019
3548 Rain 7 1012 81 7000 4.1 280 11:36 29.11.2019
3549 Rain 7 1012 75 10000 4.6 270 11:18 29.11.2019
3550 Rain 6 1011 75 10000 3.1 290 10:56 29.11.2019
3551 Rain 6 1011 75 10000 3.1 290 10:37 29.11.2019
3552 Rain 6 1011 75 10000 3.1 290 10:37 29.11.2019
3553 Rain 6 1011 70 10000 2.6 280 10:19 29.11.2019
3554 Rain 6 1010 75 10000 2.6 0 09:55 29.11.2019
3555 Rain 6 1010 75 10000 2.6 0 09:37 29.11.2019
3556 Rain 6 1010 81 10000 1.5 0 09:18 29.11.2019
3557 Drizzle 6 1010 87 6000 1.5 0 08:40 29.11.2019
3558 Rain 6 1009 87 10000 1.5 0 08:22 29.11.2019
3559 Rain 6 1009 87 10000 1.5 0 07:58 29.11.2019
3560 Rain 6 1009 87 10000 1.5 0 07:58 29.11.2019
3561 Rain 6 1009 81 7000 5.1 220 07:40 29.11.2019
3562 Rain 6 1008 87 9000 4.1 270 07:21 29.11.2019
3563 Rain 7 1008 87 9000 2.6 240 06:43 29.11.2019
3564 Rain 7 1008 93 10000 1.5 160 05:48 29.11.2019
3565 Rain 7 1007 87 10000 1 0 05:25 29.11.2019
3566 Rain 7 1008 87 10000 2.1 280 04:32 29.11.2019
3567 Rain 6 1007 87 10000 1.5 290 03:22 29.11.2019
3568 Clouds 7 1007 75 10000 1 0 02:30 29.11.2019
3569 Rain 7 1007 75 10000 3.1 200 01:53 29.11.2019
3570 Rain 7 1007 75 10000 3.1 200 01:26 29.11.2019
3571 Rain 7 1007 70 10000 2.1 0 00:44 29.11.2019
3572 Rain 7 1007 70 10000 1 0 00:21 29.11.2019
3573 Rain 7 1007 70 10000 1 0 23:56 28.11.2019
3574 Rain 7 1007 81 10000 1 0 23:38 28.11.2019
3575 Rain 7 1007 93 10000 1 0 23:19 28.11.2019
3576 Rain 7 1007 81 10000 3.1 320 22:40 28.11.2019
3577 Rain 7 1007 70 10000 3.6 240 22:21 28.11.2019
3578 Rain 7 1007 70 10000 3.6 240 21:59 28.11.2019
3579 Rain 7 1007 70 10000 3.1 200 21:41 28.11.2019
3580 Rain 7 1007 70 10000 2.6 0 21:20 28.11.2019
3581 Rain 7 1007 75 10000 0.5 0 20:57 28.11.2019
3582 Rain 7 1007 75 10000 0.5 0 20:39 28.11.2019
3583 Rain 7 1006 93 10000 1 0 20:20 28.11.2019
3584 Rain 7 1006 93 10000 1 0 19:56 28.11.2019
3585 Rain 7 1006 87 10000 2.6 330 19:36 28.11.2019
3586 Rain 7 1006 75 10000 2.1 260 19:18 28.11.2019
3587 Rain 7 1006 75 10000 2.1 260 18:56 28.11.2019
3588 Rain 7 1006 70 8000 2.6 260 18:38 28.11.2019
3589 Rain 7 1006 66 10000 3.6 200 18:18 28.11.2019
3590 Rain 7 1005 70 10000 3.1 210 17:42 28.11.2019
3591 Rain 8 1005 70 10000 3.1 170 17:24 28.11.2019
3592 -273 0 0 0 0 0 17:23 28.11.2019
3593 Clouds 8 1005 70 10000 3.1 170 16:58 28.11.2019
3594 Rain 8 1005 70 10000 5.1 220 16:38 28.11.2019
3595 Clouds 8 1005 70 10000 5.1 190 16:19 28.11.2019
3596 Clouds 8 1005 70 9000 2.6 230 15:55 28.11.2019
3597 Clouds 8 1005 70 9000 2.6 230 15:55 28.11.2019
3598 Clouds 8 1005 70 9000 2.6 230 15:36 28.11.2019
3599 Rain 8 1005 76 8000 2.6 200 15:18 28.11.2019
3600 Rain 8 1005 76 10000 2.6 190 14:41 28.11.2019
3601 Rain 8 1005 76 10000 2.6 190 14:41 28.11.2019
3602 Rain 8 1005 81 10000 2.6 270 14:22 28.11.2019
3603 Rain 7 1005 87 4000 4.1 270 13:59 28.11.2019
3604 Rain 7 1005 87 4000 4.1 270 13:41 28.11.2019
3605 Rain 7 1004 87 4000 7.7 300 13:21 28.11.2019
3606 Rain 8 1004 81 6000 3.6 270 12:49 28.11.2019
3607 Rain 8 1004 81 6000 3.6 270 12:29 28.11.2019
3608 Drizzle 8 1004 81 10000 3.6 210 11:59 28.11.2019
3609 Rain 8 1004 87 10000 2.6 150 11:40 28.11.2019
3610 Clouds 8 1004 93 10000 2.6 150 11:21 28.11.2019
3611 Rain 8 1004 93 10000 2.6 150 10:59 28.11.2019
3612 Rain 7 1004 81 10000 1 0 10:40 28.11.2019
3613 Rain 7 1004 81 7000 1 0 10:20 28.11.2019
3614 Rain 7 1003 87 6000 1 0 09:41 28.11.2019
3615 -273 0 0 0 0 0 09:23 28.11.2019
3616 Rain 7 1003 87 10000 1 0 08:58 28.11.2019
3617 Rain 7 1003 87 10000 1 0 08:58 28.11.2019
3618 Rain 7 1003 87 10000 1 0 08:38 28.11.2019
3619 Drizzle 7 1002 93 10000 1.5 140 08:20 28.11.2019
3620 Clouds 7 1002 93 10000 2.1 0 07:42 28.11.2019
3621 Clouds 7 1002 75 10000 3.6 210 07:24 28.11.2019
3622 Clouds 7 1002 75 10000 3.6 210 07:24 28.11.2019
3623 Clouds 7 1002 75 10000 3.6 210 07:23 28.11.2019
3624 Clouds 7 1002 75 10000 3.6 210 07:23 28.11.2019
3625 Clouds 7 1002 70 10000 4.1 240 06:44 28.11.2019
3626 Rain 7 1002 81 10000 1.5 240 06:23 28.11.2019
3627 Rain 7 1002 70 10000 2.6 250 05:49 28.11.2019
3628 Rain 7 1002 81 10000 4.1 220 05:18 28.11.2019
3629 Clouds 8 1002 62 10000 3.6 250 02:37 28.11.2019
3630 Clouds 8 1002 62 10000 1 0 01:47 28.11.2019
3631 Clouds 8 1002 66 10000 2.1 0 00:47 28.11.2019
3632 Clouds 8 1002 66 10000 2.6 310 00:22 28.11.2019
3633 Clouds 8 1002 62 10000 1.5 0 23:55 27.11.2019
3634 Clouds 8 1002 62 10000 1.5 0 23:36 27.11.2019
3635 Clouds 8 1002 62 10000 1 0 23:18 27.11.2019
3636 Rain 8 1002 66 10000 1 0 22:39 27.11.2019
3637 Rain 8 1003 66 10000 1.5 0 22:20 27.11.2019
3638 Rain 8 1003 66 10000 1.5 0 21:56 27.11.2019
3639 Rain 8 1002 70 10000 1.5 0 21:38 27.11.2019
3640 Clouds 8 1002 81 10000 2.6 300 21:19 27.11.2019
3641 Clouds 8 1002 81 10000 2.6 300 21:19 27.11.2019
3642 Clouds 8 1002 81 10000 2.6 300 20:58 27.11.2019
3643 Clouds 8 1002 75 10000 0.5 0 20:39 27.11.2019
3644 Clouds 8 1002 70 10000 1 0 20:21 27.11.2019
3645 Clouds 8 1002 70 10000 1 0 19:57 27.11.2019
3646 Clouds 9 1002 62 10000 1.5 0 19:39 27.11.2019
3647 Clouds 9 1002 57 10000 2.1 0 19:21 27.11.2019
3648 Clouds 9 1002 57 10000 2.1 0 18:59 27.11.2019
3649 Clouds 9 1002 62 10000 3.6 270 18:37 27.11.2019
3650 Clouds 9 1001 58 10000 2.1 0 18:19 27.11.2019
3651 Clouds 9 1001 58 10000 2.1 0 17:57 27.11.2019
3652 Clouds 9 1001 81 10000 1.5 0 17:39 27.11.2019
3653 Clouds 9 1001 81 10000 2.1 110 17:20 27.11.2019
3654 Clouds 10 1000 66 10000 1 0 16:56 27.11.2019
3655 Clouds 10 1000 66 10000 1 0 16:38 27.11.2019
3656 Clouds 10 1001 58 10000 2.1 220 16:19 27.11.2019
3657 -273 0 0 0 0 0 15:57 27.11.2019
3658 Clouds 10 1001 58 10000 2.6 210 15:56 27.11.2019
3659 Clouds 10 1001 58 10000 2.6 210 15:38 27.11.2019
3660 Clouds 10 1000 58 10000 2.6 240 15:20 27.11.2019
3661 Clouds 10 1000 58 10000 2.6 240 15:20 27.11.2019
3662 Clouds 10 1001 58 10000 5.1 230 14:56 27.11.2019
3663 Clouds 10 1001 58 10000 5.1 230 14:38 27.11.2019
3664 Clouds 10 1001 62 10000 2.6 240 14:20 27.11.2019
3665 Clouds 10 1001 76 10000 1 0 13:55 27.11.2019
3666 Clouds 10 1001 76 10000 1 0 13:37 27.11.2019
3667 Clouds 10 1001 81 10000 2.1 340 13:18 27.11.2019
3668 Clouds 10 1001 81 10000 2.1 340 13:18 27.11.2019
3669 Clouds 9 1001 81 10000 1.5 0 12:41 27.11.2019
3670 Clouds 9 1002 87 10000 2.6 320 12:22 27.11.2019
3671 Clouds 9 1002 87 10000 2.6 320 12:22 27.11.2019
3672 Clouds 9 1002 81 10000 3.1 270 11:57 27.11.2019
3673 Clouds 9 1002 81 10000 3.1 270 11:37 27.11.2019
3674 Clouds 8 1002 87 10000 5.7 160 11:18 27.11.2019
3675 Rain 8 1002 93 10000 2.1 80 10:46 27.11.2019
3676 Rain 8 1002 93 10000 2.1 80 10:46 27.11.2019
3677 Rain 8 1002 93 10000 2.1 80 10:46 27.11.2019
3678 Rain 7 1003 93 10000 4.1 140 10:24 27.11.2019
3679 Rain 7 1003 93 10000 4.1 140 09:58 27.11.2019
3680 Rain 7 1003 81 10000 5.7 180 09:40 27.11.2019
3681 Rain 7 1003 81 10000 2.6 250 09:22 27.11.2019
3682 Rain 7 1002 93 7000 2.1 240 08:42 27.11.2019
3683 Rain 7 1002 93 9000 7.2 260 08:23 27.11.2019
3684 -273 0 0 0 0 0 08:23 27.11.2019
3685 Rain 6 1002 93 3500 1.5 280 07:51 27.11.2019
3686 Rain 6 1001 100 4800 1.5 260 07:31 27.11.2019
3687 Rain 6 1001 100 4400 3.1 70 06:58 27.11.2019
3688 Rain 6 1001 100 4400 3.1 70 06:39 27.11.2019
3689 Rain 6 1001 100 5000 2.6 340 06:20 27.11.2019
3690 Rain 6 1000 100 3700 1.5 0 05:26 27.11.2019
3691 Mist 6 1000 100 3300 1.5 0 04:56 27.11.2019
3692 Mist 5 1000 100 3300 1.5 0 04:36 27.11.2019
3693 Mist 5 1000 100 3000 2.1 140 03:48 27.11.2019
3694 Mist 5 1000 100 2100 1.5 0 03:21 27.11.2019
3695 Mist 5 1000 100 2300 1.5 80 02:48 27.11.2019
3696 Fog 5 1002 100 250 1.5 0 01:26 27.11.2019
3697 Fog 5 1002 100 100 1 260 00:42 27.11.2019
3698 Fog 5 1002 93 150 0.5 0 00:23 27.11.2019
3699 Fog 4 1003 100 200 0.5 0 23:42 26.11.2019
3700 Fog 4 1003 100 150 0.5 0 23:24 26.11.2019
3701 Fog 4 1004 100 500 0.5 0 22:55 26.11.2019
3702 Fog 4 1004 100 500 0.5 0 22:37 26.11.2019
3703 Fog 4 1004 100 2100 1 0 22:18 26.11.2019
3704 Fog 4 1005 100 50 0.63 178 21:39 26.11.2019
3705 Fog 4 1005 100 350 1 0 21:21 26.11.2019
3706 Fog 4 1005 100 350 1 0 20:58 26.11.2019
3707 Mist 5 1006 100 3800 0.5 0 20:39 26.11.2019
3708 Mist 5 1006 93 5000 1.5 0 20:19 26.11.2019
3709 Mist 5 1006 100 5000 1.5 0 19:56 26.11.2019
3710 Mist 5 1006 100 5000 1.5 0 19:38 26.11.2019
3711 Clouds 5 1006 100 6000 1 0 19:20 26.11.2019
3712 Clouds 5 1007 100 7000 1.5 340 18:58 26.11.2019
3713 Clouds 5 1007 100 7000 1.5 340 18:39 26.11.2019
3714 Mist 6 1007 100 5000 1.5 120 18:21 26.11.2019
3715 Clouds 6 1007 93 5000 1 0 17:59 26.11.2019
3716 Clouds 6 1007 93 5000 1 0 17:41 26.11.2019
3717 Clouds 7 1007 93 6000 2.1 280 17:22 26.11.2019
3718 Clouds 8 1007 87 10000 3.6 300 16:57 26.11.2019
3719 Clouds 8 1007 87 10000 3.6 300 16:38 26.11.2019
3720 Clouds 8 1007 87 10000 1 180 16:19 26.11.2019
3721 Clouds 9 1008 81 10000 1.29 293 15:59 26.11.2019
3722 Clouds 9 1008 81 10000 1.29 293 15:38 26.11.2019
3723 Clouds 9 1008 81 10000 2.6 330 15:20 26.11.2019
3724 Clouds 9 1008 81 10000 3.6 320 14:58 26.11.2019
3725 Clouds 9 1008 81 10000 3.6 320 14:40 26.11.2019
3726 Clouds 9 1008 81 10000 2.6 330 14:22 26.11.2019
3727 Clouds 8 1008 81 10000 2.1 310 13:41 26.11.2019
3728 Clouds 8 1009 87 10000 2.1 320 13:23 26.11.2019
3729 Clouds 8 1009 87 10000 2.1 320 13:23 26.11.2019
3730 Clouds 8 1009 87 10000 1.5 320 12:40 26.11.2019
3731 Clouds 8 1009 87 9000 1 0 12:22 26.11.2019
3732 Clouds 7 1010 93 8000 1.09 320 11:59 26.11.2019
3733 Clouds 7 1010 93 8000 1.09 320 11:40 26.11.2019
3734 Clouds 7 1010 93 5000 2.1 90 11:20 26.11.2019
3735 Clouds 6 1010 100 5000 3.1 90 10:59 26.11.2019
3736 Clouds 6 1010 100 5000 3.1 90 10:41 26.11.2019
3737 Mist 6 1010 100 4000 3.6 90 10:21 26.11.2019
3738 Mist 6 1010 100 4000 3.6 90 09:58 26.11.2019
3739 Mist 5 1010 100 3700 2.1 110 09:38 26.11.2019
3740 Mist 5 1011 100 3000 2.6 100 09:20 26.11.2019
3741 Mist 5 1011 93 1400 1 350 08:44 26.11.2019
3742 Mist 5 1011 93 1400 1 350 08:44 26.11.2019
3743 Mist 5 1011 93 1500 0.73 191 08:25 26.11.2019
3744 Fog 5 1011 100 800 0.5 0 07:47 26.11.2019
3745 Fog 5 1011 100 800 0.5 0 07:29 26.11.2019
3746 Fog 5 1010 93 100 1 0 06:56 26.11.2019
3747 Fog 5 1010 93 100 1 0 06:35 26.11.2019
3748 Fog 5 1010 100 150 1.5 160 05:53 26.11.2019
3749 Fog 4 1011 100 150 1 120 04:47 26.11.2019
3750 Fog 5 1011 100 200 0.5 0 02:52 26.11.2019
3751 Fog 5 1011 93 800 0.5 0 01:33 26.11.2019
3752 Fog 5 1011 93 1100 1 0 00:53 26.11.2019
3753 Fog 5 1011 93 1100 1 0 00:30 26.11.2019
3754 Mist 6 1011 100 3000 0.5 0 23:41 25.11.2019
3755 Mist 6 1011 93 3300 1.5 150 23:21 25.11.2019
3756 Mist 6 1011 93 3800 1 150 22:59 25.11.2019
3757 Mist 6 1011 93 3800 1 150 22:39 25.11.2019
3758 Clouds 6 1011 93 6000 1 320 22:19 25.11.2019
3759 Clouds 6 1011 93 6000 1 320 21:59 25.11.2019
3760 Clouds 6 1011 100 6000 1 170 21:40 25.11.2019
3761 Clouds 6 1011 100 8000 0.74 212 21:21 25.11.2019
3762 Clouds 6 1011 100 9000 1 150 20:57 25.11.2019
3763 Clouds 6 1011 100 9000 1 150 20:39 25.11.2019
3764 Clouds 7 1011 93 10000 1 180 20:19 25.11.2019
3765 Clouds 7 1011 93 10000 1 250 19:56 25.11.2019
3766 Clouds 7 1011 93 10000 1 250 19:37 25.11.2019
3767 Clouds 7 1011 93 10000 1 320 19:18 25.11.2019
3768 Clouds 7 1011 87 10000 1 0 18:57 25.11.2019
3769 Clouds 7 1011 87 10000 1 0 18:39 25.11.2019
3770 Clouds 7 1010 87 10000 1.5 330 18:21 25.11.2019
3771 Clouds 7 1010 87 10000 1.5 340 17:57 25.11.2019
3772 Clouds 7 1010 87 10000 1.5 340 17:38 25.11.2019
3773 Clouds 8 1010 87 10000 3.6 320 17:20 25.11.2019
3774 Clouds 8 1010 81 10000 3.6 320 16:57 25.11.2019
3775 Clouds 8 1010 81 10000 3.6 320 16:39 25.11.2019
3776 Clouds 8 1009 76 10000 3.1 310 16:20 25.11.2019
3777 Clouds 8 1010 87 7000 0.5 30 15:54 25.11.2019
3778 Clouds 8 1010 87 7000 0.5 30 15:36 25.11.2019
3779 Clouds 9 1009 71 10000 1 0 15:18 25.11.2019
3780 Clouds 9 1009 71 10000 1 0 14:41 25.11.2019
3781 Clouds 9 1009 71 10000 2.6 310 14:22 25.11.2019
3782 Clouds 9 1009 76 10000 3.1 330 13:55 25.11.2019
3783 Clouds 9 1009 76 10000 3.1 330 13:55 25.11.2019
3784 Clouds 9 1009 76 10000 3.1 330 13:36 25.11.2019
3785 Clouds 8 1009 76 10000 2.6 310 13:18 25.11.2019
3786 Clouds 8 1009 76 10000 2.1 320 12:41 25.11.2019
3787 Clouds 8 1009 81 10000 0.42 247 12:22 25.11.2019
3788 Clouds 7 1009 87 8000 0.5 0 11:59 25.11.2019
3789 Clouds 7 1009 87 8000 0.5 0 11:39 25.11.2019
3790 Clouds 6 1010 93 8000 0.5 0 11:20 25.11.2019
3791 Clouds 6 1010 100 7000 0.5 0 10:46 25.11.2019
3792 Fog 5 1009 100 5000 0.45 291 10:28 25.11.2019
3793 Fog 5 1009 100 5000 0.45 291 09:59 25.11.2019
3794 Fog 5 1010 100 4000 0.5 0 09:41 25.11.2019
3795 Fog 5 1010 100 4000 0.5 0 09:41 25.11.2019
3796 Fog 5 1010 100 500 0.45 291 09:23 25.11.2019
3797 Fog 4 1009 100 1000 0.5 0 08:41 25.11.2019
3798 Clouds 4 1010 100 150 1 30 08:22 25.11.2019
3799 Mist 4 1009 93 2500 1.03 131 07:45 25.11.2019
3800 Mist 4 1009 100 4500 1.03 131 07:25 25.11.2019
3801 Clouds 4 1009 100 4500 1 140 06:51 25.11.2019
3802 Mist 4 1009 100 3600 0.5 0 06:23 25.11.2019
3803 Mist 4 1009 100 3000 1.03 131 05:50 25.11.2019
3804 Fog 4 1009 100 3700 0.5 0 05:29 25.11.2019
3805 Mist 4 1009 93 4000 0.5 0 04:35 25.11.2019
3806 Mist 4 1009 100 3400 1 0 02:35 25.11.2019
3807 Clouds 4 1009 100 7000 1.5 150 01:43 25.11.2019
3808 Mist 4 1009 93 4400 0.5 310 01:24 25.11.2019
3809 Mist 4 1009 100 3300 1 0 00:39 25.11.2019
3810 Fog 4 1009 100 2500 0.5 0 00:18 25.11.2019
3811 Fog 4 1009 100 300 0.6 143 23:43 24.11.2019
3812 Mist 4 1009 100 2900 0.5 0 23:20 24.11.2019
3813 Mist 5 1009 100 3300 1.5 0 22:57 24.11.2019
3814 Mist 5 1009 100 3300 1.5 0 22:37 24.11.2019
3815 Mist 5 1009 100 2900 1.5 150 22:19 24.11.2019
3816 Clouds 5 1009 93 8000 0.5 340 21:56 24.11.2019
3817 Clouds 5 1009 93 8000 0.5 340 21:36 24.11.2019
3818 Mist 5 1008 100 4300 1 310 21:18 24.11.2019
3819 Clouds 5 1008 93 6000 1 0 20:55 24.11.2019
3820 Clouds 5 1008 93 6000 1 0 20:37 24.11.2019
3821 Clouds 5 1008 100 6000 1.5 140 20:18 24.11.2019
3822 Clouds 5 1008 93 6000 1 0 19:55 24.11.2019
3823 Clouds 5 1008 93 6000 1 0 19:55 24.11.2019
3824 Clouds 6 1008 93 6000 1 0 19:37 24.11.2019
3825 Clouds 6 1009 93 10000 1.5 10 19:19 24.11.2019
3826 Clouds 6 1008 93 10000 1.5 140 18:56 24.11.2019
3827 Clouds 6 1008 93 10000 1.5 140 18:36 24.11.2019
3828 Clouds 6 1008 87 10000 0.5 0 18:18 24.11.2019
3829 Clouds 7 1008 87 10000 0.5 10 17:55 24.11.2019
3830 Clouds 7 1008 87 10000 0.5 10 17:36 24.11.2019
3831 Clouds 8 1007 87 10000 1 0 17:18 24.11.2019
3832 Rain 9 1007 81 10000 1 100 16:42 24.11.2019
3833 Rain 9 1007 81 10000 1 180 16:23 24.11.2019
3834 Clouds 9 1007 81 10000 1 180 15:59 24.11.2019
3835 Clouds 10 1007 76 10000 0.14 31 15:41 24.11.2019
3836 Clouds 10 1007 71 10000 1.5 0 15:22 24.11.2019
3837 Clouds 10 1006 71 10000 1 170 14:55 24.11.2019
3838 Clouds 10 1006 71 10000 1 170 14:37 24.11.2019
3839 Clouds 10 1006 71 10000 1.5 140 14:18 24.11.2019
3840 Clouds 10 1006 71 10000 0.5 0 13:39 24.11.2019
3841 Clouds 10 1006 76 10000 0.5 0 13:20 24.11.2019
3842 Clouds 9 1006 75 10000 1 0 12:57 24.11.2019
3843 Clouds 9 1006 75 10000 1 0 12:39 24.11.2019
3844 Clouds 8 1006 87 10000 1 0 12:18 24.11.2019
3845 Clouds 7 1006 93 10000 0.5 0 11:55 24.11.2019
3846 Clouds 7 1006 93 10000 0.5 0 11:36 24.11.2019
3847 Clouds 6 1006 93 10000 1.5 280 11:18 24.11.2019
3848 Fog 5 1006 100 10000 0.42 156 10:44 24.11.2019
3849 Fog 5 1006 100 10000 0.42 156 10:26 24.11.2019
3850 Fog 5 1006 100 10000 0.42 156 10:26 24.11.2019
3851 Fog 4 1005 86 10000 1 0 09:54 24.11.2019
3852 Fog 4 1005 86 10000 1 0 09:54 24.11.2019
3853 Fog 4 1005 86 10000 1 0 09:36 24.11.2019
3854 Fog 3 1005 86 10000 0.5 0 09:18 24.11.2019
3855 Fog 3 1005 86 10000 1 0 08:42 24.11.2019
3856 Fog 2 1004 92 10000 1 0 08:21 24.11.2019
3857 Fog 3 1004 91 8000 1.48 158 07:52 24.11.2019
3858 Fog 3 1004 91 8000 1.48 158 07:33 24.11.2019
3859 Fog 2 1003 91 1500 1.48 158 06:55 24.11.2019
3860 Fog 2 1003 91 300 1 50 05:47 24.11.2019
3861 Fog 2 1003 91 300 1 50 05:47 24.11.2019
3862 Fog 3 1002 91 2900 0.5 0 04:45 24.11.2019
3863 Fog 3 1002 91 2900 0.5 0 04:45 24.11.2019
3864 Mist 3 1002 100 4200 1 0 02:49 24.11.2019
3865 Mist 3 1002 100 4200 1 0 02:49 24.11.2019
3866 Mist 3 1001 100 3000 1 0 01:57 24.11.2019
3867 Mist 3 1001 100 2300 1 0 01:37 24.11.2019
3868 Mist 3 1001 93 2900 1 0 01:18 24.11.2019
3869 Mist 4 1001 100 4100 1 0 00:42 24.11.2019
3870 Mist 4 1000 100 3600 1 0 00:20 24.11.2019
3871 Mist 3 1000 93 3900 1 0 23:44 23.11.2019
3872 Mist 4 999 93 3200 1 0 23:21 23.11.2019
3873 Mist 4 999 100 3400 1 0 22:57 23.11.2019
3874 Mist 4 999 100 3400 1 0 22:38 23.11.2019
3875 Mist 3 999 100 3700 1 0 22:20 23.11.2019
3876 Mist 4 999 100 3700 1 0 21:57 23.11.2019
3877 Mist 4 998 100 4400 1.5 0 21:39 23.11.2019
3878 Mist 4 998 100 4400 1.5 230 21:21 23.11.2019
3879 Mist 4 998 100 4800 0.5 0 20:39 23.11.2019
3880 Mist 4 997 94 4500 1 0 20:21 23.11.2019
3881 Mist 4 997 94 4500 1 0 20:21 23.11.2019
3882 Mist 4 997 94 4500 1 0 19:58 23.11.2019
3883 Clouds 4 997 93 5000 1 0 19:39 23.11.2019
3884 Mist 5 997 100 3800 1.5 320 19:19 23.11.2019
3885 Mist 5 997 100 3800 1.5 320 19:19 23.11.2019
3886 Clouds 5 996 93 7000 1.5 300 18:59 23.11.2019
3887 Clouds 4 996 93 7000 1.5 300 18:39 23.11.2019
3888 Clouds 5 996 93 9000 0.5 0 18:20 23.11.2019
3889 Clouds 5 996 87 10000 1 0 17:45 23.11.2019
3890 Clouds 6 995 87 10000 1.5 110 17:23 23.11.2019
3891 Clouds 6 995 75 10000 1.5 0 16:57 23.11.2019
3892 Clouds 7 995 75 10000 1.5 0 16:39 23.11.2019
3893 Clouds 7 995 81 10000 1 0 16:21 23.11.2019
3894 Clouds 7 995 81 10000 1 0 15:59 23.11.2019
3895 Clouds 7 995 81 10000 1 0 15:59 23.11.2019
3896 Clouds 7 995 76 10000 1 0 15:39 23.11.2019
3897 Clouds 7 994 70 10000 1.5 190 15:19 23.11.2019
3898 Clouds 7 994 70 10000 1.5 190 14:57 23.11.2019
3899 Clouds 7 994 75 10000 1.5 0 14:39 23.11.2019
3900 Clouds 8 994 81 10000 1.5 10 14:21 23.11.2019
3901 Clouds 7 994 81 10000 2.1 330 13:54 23.11.2019
3902 Clouds 7 994 81 10000 2.1 330 13:36 23.11.2019
3903 Clouds 6 994 86 7000 1 0 13:18 23.11.2019
3904 Clouds 6 994 86 7000 1 0 13:18 23.11.2019
3905 Clouds 6 994 86 7000 1 0 12:42 23.11.2019
3906 Clouds 5 994 93 6000 2.1 330 12:24 23.11.2019
3907 Mist 4 994 100 6000 1 0 11:45 23.11.2019
3908 Mist 4 994 100 3500 1.54 327 11:23 23.11.2019
3909 Mist 4 994 100 2500 1 0 10:46 23.11.2019
3910 -273 0 0 0 0 0 10:23 23.11.2019
3911 Mist 4 993 100 1500 0.5 0 09:59 23.11.2019
3912 Mist 3 994 100 1500 0.5 0 09:40 23.11.2019
3913 Mist 3 993 93 1500 0.5 0 09:18 23.11.2019
3914 Mist 3 994 93 1500 1 0 08:41 23.11.2019
3915 Mist 3 994 93 1500 1 0 08:19 23.11.2019
3916 Mist 3 994 93 3000 1.5 70 07:42 23.11.2019
3917 Mist 3 995 93 3000 1.5 110 06:53 23.11.2019
3918 Mist 3 995 100 3400 0.5 0 06:27 23.11.2019
3919 Mist 3 995 93 3600 1 0 05:57 23.11.2019
3920 Mist 3 995 93 3900 0.5 0 05:32 23.11.2019
3921 Mist 3 996 100 4700 0.5 0 04:57 23.11.2019
3922 Mist 4 996 100 4700 0.5 0 04:32 23.11.2019
3923 Mist 4 996 100 3900 1.5 100 03:27 23.11.2019
3924 Mist 3 997 100 4100 2.1 340 02:38 23.11.2019
3925 Mist 3 998 93 4000 3.6 320 01:40 23.11.2019
3926 Clouds 3 998 93 7000 0.5 270 00:48 23.11.2019
3927 Clouds 3 998 93 7000 0.5 0 00:20 23.11.2019
3928 Clouds 3 999 93 7000 1.5 0 23:56 22.11.2019
3929 Clouds 3 999 93 7000 1.5 0 23:37 22.11.2019
3930 Clouds 3 999 93 7000 1.5 0 23:37 22.11.2019
3931 Clouds 3 999 93 6000 0.5 0 23:18 22.11.2019
3932 Clouds 3 999 93 9000 0.5 0 22:55 22.11.2019
3933 Clouds 3 999 93 9000 0.5 0 22:37 22.11.2019
3934 Clouds 3 1000 100 7000 1 0 22:18 22.11.2019
3935 Clouds 3 1000 100 7000 1 0 22:18 22.11.2019
3936 Clouds 3 1000 100 7000 1 0 22:18 22.11.2019
3937 Clouds 3 1000 100 7000 2.1 50 21:40 22.11.2019
3938 Clouds 3 1000 93 10000 1.5 30 21:21 22.11.2019
3939 Clouds 3 1001 93 7000 1.5 0 20:55 22.11.2019
3940 Clouds 3 1001 93 7000 1.5 0 20:37 22.11.2019
3941 Clouds 3 1001 93 10000 2.1 70 20:19 22.11.2019
3942 Clouds 4 1001 93 10000 2.1 90 19:39 22.11.2019
3943 Clouds 4 1002 93 10000 1 0 19:20 22.11.2019
3944 Clouds 4 1002 93 10000 1 0 18:59 22.11.2019
3945 Clouds 4 1002 93 10000 1.5 150 18:38 22.11.2019
3946 Clouds 4 1002 93 9000 2.1 160 18:20 22.11.2019
3947 Clouds 4 1002 93 9000 2.1 160 18:20 22.11.2019
3948 Clouds 5 1002 86 8000 1.5 210 17:42 22.11.2019
3949 Clouds 5 1002 93 8000 2.1 180 17:23 22.11.2019
3950 Clouds 5 1003 86 8000 2.1 190 16:55 22.11.2019
3951 Clouds 5 1003 86 8000 2.1 190 16:37 22.11.2019
3952 Clouds 5 1003 86 9000 1.5 170 16:18 22.11.2019
3953 Clouds 5 1004 86 10000 1.74 65 15:39 22.11.2019
3954 Clouds 5 1004 86 10000 2.1 0 15:20 22.11.2019
3955 Clouds 5 1005 86 10000 2.1 320 14:54 22.11.2019
3956 Clouds 5 1005 86 10000 2.1 320 14:36 22.11.2019
3957 Clouds 5 1005 86 10000 2.1 320 14:36 22.11.2019
3958 Clouds 5 1005 86 7000 0.5 0 14:18 22.11.2019
3959 Clouds 5 1006 93 10000 1.5 220 13:39 22.11.2019
3960 Clouds 5 1006 86 6000 1 0 13:20 22.11.2019
3961 Clouds 5 1004 70 10000 1 0 12:58 22.11.2019
3962 Clouds 5 1007 86 9000 1.5 270 12:40 22.11.2019
3963 Clouds 5 1007 86 9000 1 0 12:20 22.11.2019
3964 Clouds 5 1008 80 9000 1 0 11:58 22.11.2019
3965 Clouds 5 1008 80 9000 1 0 11:37 22.11.2019
3966 Clouds 4 1008 86 9000 1.5 340 11:19 22.11.2019
3967 Clouds 4 1008 86 7000 1.5 0 10:55 22.11.2019
3968 Clouds 4 1008 86 7000 1.5 0 10:37 22.11.2019
3969 Clouds 4 1008 93 7000 1 0 10:19 22.11.2019
3970 Clouds 4 1008 93 6000 2.1 150 09:41 22.11.2019
3971 Clouds 4 1009 93 7000 3.1 150 09:22 22.11.2019
3972 Clouds 3 1009 93 7000 3.1 150 08:59 22.11.2019
3973 Clouds 3 1008 93 10000 3.6 150 08:40 22.11.2019
3974 Clouds 3 1008 93 10000 3.6 150 08:40 22.11.2019
3975 Clouds 3 1009 93 5000 3.1 160 08:22 22.11.2019
3976 Clouds 3 1008 93 9000 2.6 150 07:43 22.11.2019
3977 Clouds 3 1009 93 10000 2.6 150 07:21 22.11.2019
3978 Clouds 3 1009 93 10000 2.6 140 06:48 22.11.2019
3979 Clouds 3 1009 93 10000 2.6 140 06:28 22.11.2019
3980 Clouds 3 1009 93 10000 2.6 150 05:37 22.11.2019
3981 Clouds 3 1008 93 7000 2.6 140 04:18 22.11.2019
3982 Clouds 3 1009 93 9000 2.1 110 02:47 22.11.2019
3983 Clouds 3 1009 93 9000 2.1 110 02:28 22.11.2019
3984 Clouds 3 1008 93 8000 0.5 0 01:45 22.11.2019
3985 Clouds 3 1008 93 9000 1 0 01:19 22.11.2019
3986 Clouds 3 1008 93 9000 1 0 00:49 22.11.2019
3987 Clouds 3 1008 93 9000 0.5 90 00:23 22.11.2019
3988 Clouds 3 1009 93 10000 1.5 160 23:44 21.11.2019
3989 Clouds 3 1009 93 10000 1.5 160 23:44 21.11.2019
3990 Clouds 3 1009 93 10000 1.5 160 23:26 21.11.2019
3991 Clouds 3 1008 93 6000 1.5 110 22:58 21.11.2019
3992 Clouds 3 1009 93 6000 1.5 0 22:39 21.11.2019
3993 Clouds 3 1009 93 6000 1.5 0 22:39 21.11.2019
3994 Clouds 3 1009 93 6000 1.5 0 22:39 21.11.2019
3995 Clouds 3 1009 93 6000 1.5 120 22:20 21.11.2019
3996 Clouds 3 1009 93 6000 1.5 120 21:56 21.11.2019
3997 Clouds 3 1009 93 10000 1 100 21:37 21.11.2019
3998 Clouds 3 1009 93 9000 1 160 21:19 21.11.2019
3999 Clouds 3 1009 93 9000 1 90 20:58 21.11.2019
4000 Clouds 3 1009 93 9000 1 90 20:38 21.11.2019
4001 Clouds 3 1009 93 8000 1.5 100 20:19 21.11.2019
4002 Clouds 3 1009 93 8000 1.5 100 20:19 21.11.2019
4003 Clouds 3 1009 93 8000 1.5 100 19:59 21.11.2019
4004 Clouds 3 1009 93 10000 1 150 19:39 21.11.2019
4005 Clouds 3 1009 93 10000 1 150 19:39 21.11.2019
4006 Clouds 3 1009 93 10000 1.5 150 19:21 21.11.2019
4007 Clouds 3 1008 93 9000 1.5 150 18:56 21.11.2019
4008 Clouds 3 1007 80 10000 1.5 0 18:56 21.11.2019
4009 Clouds 3 1008 93 9000 1.5 150 18:37 21.11.2019
4010 Clouds 3 1008 93 10000 1.5 0 18:18 21.11.2019
4011 Clouds 3 1008 93 10000 1.5 160 17:41 21.11.2019
4012 Clouds 3 1008 93 10000 1.5 0 17:22 21.11.2019
4013 Clouds 4 1008 93 10000 1.5 0 16:59 21.11.2019
4014 Clouds 4 1008 86 10000 1 0 16:41 21.11.2019
4015 Clouds 4 1008 86 10000 1 0 16:21 21.11.2019
4016 Clouds 4 1008 86 10000 1 0 15:56 21.11.2019
4017 Clouds 4 1008 86 10000 2.1 80 15:38 21.11.2019
4018 Clouds 4 1008 86 10000 1 0 15:19 21.11.2019
4019 Clouds 4 1008 86 7000 2.1 100 14:42 21.11.2019
4020 Clouds 4 1009 86 6000 2.1 160 14:23 21.11.2019
4021 Clouds 4 1009 86 6000 2.1 160 13:59 21.11.2019
4022 Clouds 4 1009 86 6000 1 0 13:38 21.11.2019
4023 Clouds 4 1009 86 6000 0.5 0 13:19 21.11.2019
4024 Clouds 4 1009 86 6000 0.5 0 12:56 21.11.2019
4025 Clouds 4 1009 86 10000 1.5 0 12:37 21.11.2019
4026 Clouds 4 1009 86 6000 0.5 0 12:19 21.11.2019
4027 Clouds 3 1010 86 6000 1 0 11:41 21.11.2019
4028 Clouds 3 1010 86 6000 2.1 250 11:21 21.11.2019
4029 Clouds 3 1010 86 6000 2.1 250 10:59 21.11.2019
4030 Clouds 3 1010 86 6000 1.5 280 10:41 21.11.2019
4031 Clouds 3 1010 86 10000 1.5 270 10:20 21.11.2019
4032 Clouds 3 1010 93 7000 1.5 300 09:56 21.11.2019
4033 Clouds 3 1010 93 7000 1.5 300 09:37 21.11.2019
4034 Clouds 2 1010 93 6000 1 320 09:19 21.11.2019
4035 Clouds 2 1010 93 6000 1 310 08:41 21.11.2019
4036 Clouds 2 1009 93 6000 1 0 08:20 21.11.2019
4037 Clouds 2 1009 93 7000 0.5 240 07:42 21.11.2019
4038 Clouds 2 1009 93 9000 0.5 0 07:18 21.11.2019
4039 Clouds 2 1009 93 9000 0.5 0 06:57 21.11.2019
4040 Clouds 2 1010 93 10000 1 0 06:33 21.11.2019
4041 Clouds 2 1010 93 10000 1.5 240 05:36 21.11.2019
4042 Clouds 2 1010 93 8000 1 0 03:32 21.11.2019
4043 Clouds 2 1010 93 6000 1.5 0 02:41 21.11.2019
4044 Clouds 2 1011 93 8000 0.34 15 01:55 21.11.2019
4045 Clouds 2 1011 93 8000 0.34 15 01:55 21.11.2019
4046 Clouds 2 1011 93 8000 0.34 15 01:37 21.11.2019
4047 Clouds 2 1011 93 8000 0.5 0 00:55 21.11.2019
4048 Clouds 2 1011 93 7000 0.5 0 00:21 21.11.2019
4049 Clouds 2 1011 93 7000 0.5 0 23:58 20.11.2019
4050 Clouds 2 1011 95 8000 0.5 0 23:40 20.11.2019
4051 Clouds 2 1011 95 7000 0.5 0 23:20 20.11.2019
4052 Clouds 2 1011 95 6000 0.5 0 22:55 20.11.2019
4053 Clouds 2 1011 95 6000 0.5 0 22:37 20.11.2019
4054 Clouds 2 1011 95 5000 1 320 22:18 20.11.2019
4055 Clouds 2 1011 95 6000 0.5 0 21:55 20.11.2019
4056 Clouds 2 1011 95 6000 0.5 0 21:37 20.11.2019
4057 Clouds 2 1011 95 6000 1 0 21:18 20.11.2019
4058 Clouds 2 1011 92 7000 0.5 0 20:54 20.11.2019
4059 Clouds 2 1011 92 7000 0.5 0 20:36 20.11.2019
4060 Clouds 2 1012 100 8000 0.5 0 20:18 20.11.2019
4061 Clear 2 1012 92 7000 0.5 0 19:54 20.11.2019
4062 Clear 2 1012 92 7000 0.5 0 19:36 20.11.2019
4063 Clear 2 1012 95 7000 1 100 19:18 20.11.2019
4064 Clear 2 1012 95 8000 0.5 0 18:55 20.11.2019
4065 Clear 2 1012 95 8000 0.5 0 18:36 20.11.2019
4066 Clouds 2 1012 95 10000 1 100 18:18 20.11.2019
4067 Clear 2 1012 95 10000 0.5 80 17:55 20.11.2019
4068 Clear 3 1012 95 10000 0.5 80 17:36 20.11.2019
4069 Clear 3 1012 86 10000 0.8 45 17:18 20.11.2019
4070 Clouds 4 1012 88 10000 1.5 200 16:41 20.11.2019
4071 Clouds 4 1012 80 10000 2.1 170 16:20 20.11.2019
4072 Clouds 4 1012 80 10000 2.1 170 15:57 20.11.2019
4073 Clouds 4 1012 88 10000 1 0 15:39 20.11.2019
4074 Clouds 4 1013 75 10000 1 0 15:19 20.11.2019
4075 Clouds 5 1013 75 10000 1 0 14:56 20.11.2019
4076 Clouds 5 1013 80 10000 1 0 14:37 20.11.2019
4077 Clouds 5 1013 77 10000 0.81 26 14:18 20.11.2019
4078 Clouds 5 1013 77 10000 0.5 0 13:55 20.11.2019
4079 Clouds 5 1013 77 10000 0.5 0 13:55 20.11.2019
4080 Clouds 4 1013 77 10000 0.5 0 13:36 20.11.2019
4081 Clouds 4 1013 75 10000 1.5 130 13:18 20.11.2019
4082 Clouds 4 1013 77 10000 1 0 12:40 20.11.2019
4083 Clouds 4 1014 77 10000 1 0 12:21 20.11.2019
4084 Clouds 4 1014 77 10000 1.5 230 11:47 20.11.2019
4085 Clouds 4 1014 77 10000 1 250 11:23 20.11.2019
4086 Clouds 4 1014 86 10000 1 250 10:59 20.11.2019
4087 Clouds 4 1014 86 10000 1 190 10:39 20.11.2019
4088 Clouds 3 1014 86 10000 1 120 10:20 20.11.2019
4089 Clouds 3 1014 86 10000 1 120 09:59 20.11.2019
4090 Clouds 3 1014 86 10000 1.5 180 09:41 20.11.2019
4091 Clouds 3 1014 86 10000 1.5 160 09:20 20.11.2019
4092 Clouds 3 1014 86 10000 1 0 08:46 20.11.2019
4093 Clouds 2 1014 86 10000 1 0 08:28 20.11.2019
4094 Clouds 2 1014 96 10000 1.5 140 07:56 20.11.2019
4095 Clouds 2 1014 96 10000 1.5 140 07:36 20.11.2019
4096 Clouds 2 1014 96 10000 1 140 07:18 20.11.2019
4097 Clouds 2 1014 86 10000 1 0 06:43 20.11.2019
4098 Clouds 2 1015 96 10000 1.5 150 06:18 20.11.2019
4099 Clouds 3 1015 96 10000 0.5 0 04:41 20.11.2019
4100 Clouds 2 1015 86 10000 0.5 0 02:29 20.11.2019
4101 Clouds 3 1015 86 10000 1 0 01:38 20.11.2019
4102 Clouds 3 1016 86 10000 0.5 140 00:50 20.11.2019
4103 Clouds 3 1016 80 10000 1 180 00:21 20.11.2019
4104 Clouds 3 1016 80 10000 1 0 23:41 19.11.2019
4105 Clouds 3 1016 80 10000 1 0 23:41 19.11.2019
4106 Clouds 3 1016 80 10000 1 50 23:22 19.11.2019
4107 Clouds 3 1016 96 10000 1 0 22:56 19.11.2019
4108 Clouds 3 1016 96 10000 1 0 22:37 19.11.2019
4109 Clouds 3 1016 80 10000 0.5 0 22:18 19.11.2019
4110 Clouds 3 1017 86 10000 0.5 0 21:54 19.11.2019
4111 Clouds 3 1017 86 10000 0.5 0 21:36 19.11.2019
4112 Clouds 3 1017 86 10000 1.5 0 21:18 19.11.2019
4113 Clouds 3 1016 80 10000 1 0 20:54 19.11.2019
4114 Clouds 3 1016 80 10000 1 0 20:36 19.11.2019
4115 Clouds 3 1016 80 10000 1 0 20:18 19.11.2019
4116 Clouds 3 1016 80 10000 1 0 19:41 19.11.2019
4117 Clouds 4 1016 80 10000 1 0 19:20 19.11.2019
4118 Clouds 4 1016 80 10000 1 0 19:20 19.11.2019
4119 Clouds 4 1016 80 10000 1 0 18:58 19.11.2019
4120 Clouds 3 1016 80 10000 1.5 70 18:39 19.11.2019
4121 Clouds 3 1016 80 10000 1.5 0 18:20 19.11.2019
4122 Clouds 3 1016 80 10000 1.5 0 17:57 19.11.2019
4123 Clouds 3 1016 80 10000 1.5 360 17:37 19.11.2019
4124 Clouds 4 1016 80 10000 2.6 10 17:19 19.11.2019
4125 Clouds 4 1016 80 10000 2.6 10 16:57 19.11.2019
4126 Clouds 5 1016 75 10000 1.5 360 16:38 19.11.2019
4127 Clouds 5 1016 75 10000 2.1 350 16:18 19.11.2019
4128 Clouds 5 1015 75 10000 2.6 350 15:44 19.11.2019
4129 -273 0 0 0 0 0 15:25 19.11.2019
4130 Clouds 5 1015 70 10000 3.1 40 14:57 19.11.2019
4131 Clouds 5 1015 70 10000 3.1 40 14:39 19.11.2019
4132 Clouds 5 1015 75 10000 1.5 0 14:20 19.11.2019
4133 Clouds 5 1015 75 10000 1.5 190 13:42 19.11.2019
4134 Clouds 5 1015 75 10000 1.5 190 13:42 19.11.2019
4135 Clouds 5 1016 75 10000 1.5 0 13:20 19.11.2019
4136 Clouds 4 1016 80 10000 1 0 12:42 19.11.2019
4137 Clouds 4 1016 93 10000 1 0 12:23 19.11.2019
4138 Clouds 3 1016 93 10000 1 0 11:59 19.11.2019
4139 Clouds 3 1016 100 5000 0.5 0 11:39 19.11.2019
4140 Mist 2 1016 88 4000 1.24 26 11:20 19.11.2019
4141 Fog 2 1016 88 5000 1 0 10:58 19.11.2019
4142 Fog 2 1016 88 5000 1 0 10:40 19.11.2019
4143 Fog 1 1016 100 5000 1 100 10:20 19.11.2019
4144 Fog 1 1016 100 5000 1 100 10:20 19.11.2019
4145 Fog 1 1016 100 4400 1 0 09:42 19.11.2019
4146 Fog 0 1016 100 100 1.24 26 09:20 19.11.2019
4147 Fog 0 1016 100 100 1.24 26 08:56 19.11.2019
4148 Fog -1 1016 100 150 1.24 26 08:38 19.11.2019
4149 Fog -1 1015 100 100 1.07 93 08:20 19.11.2019
4150 Fog -1 1015 100 300 1 290 07:42 19.11.2019
4151 Fog -1 1015 92 300 1 160 07:23 19.11.2019
4152 Mist -1 1015 100 3800 0.5 0 06:54 19.11.2019
4153 Mist -1 1015 100 3800 0.5 0 06:35 19.11.2019
4154 Fog -1 1015 100 3100 1 330 05:49 19.11.2019
4155 Clouds -1 1015 100 8000 1 0 04:46 19.11.2019
4156 Clouds 0 1015 94 10000 1.5 110 03:35 19.11.2019
4157 Clouds 0 1015 100 7000 0.8 91 02:59 19.11.2019
4158 Fog 0 1015 92 3500 1 120 02:33 19.11.2019
4159 Fog 0 1015 100 10000 0.5 300 01:46 19.11.2019
4160 Clouds 0 1015 100 10000 1 0 00:37 19.11.2019
4161 Clouds 0 1015 95 8000 0.5 0 00:18 19.11.2019
4162 Clouds 1 1015 95 8000 1 0 23:37 18.11.2019
4163 Clouds 1 1016 95 8000 2.1 140 23:19 18.11.2019
4164 Clouds 1 1015 95 10000 0.5 0 22:46 18.11.2019
4165 Clouds 1 1015 95 10000 0.5 0 22:24 18.11.2019
4166 Clouds 1 1015 95 10000 0.5 0 21:57 18.11.2019
4167 Clouds 1 1015 100 10000 0.5 0 21:38 18.11.2019
4168 Clouds 1 1015 95 10000 0.5 0 21:20 18.11.2019
4169 Clouds 1 1015 95 10000 0.5 0 20:57 18.11.2019
4170 Clouds 1 1015 100 10000 1 0 20:39 18.11.2019
4171 Clouds 2 1014 93 10000 1.5 140 20:18 18.11.2019
4172 Clouds 2 1014 93 10000 1.5 140 19:56 18.11.2019
4173 Clouds 2 1014 86 10000 1 250 19:37 18.11.2019
4174 Clouds 2 1014 86 10000 2.1 110 19:19 18.11.2019
4175 Clouds 2 1013 93 10000 1.02 142 18:55 18.11.2019
4176 Clouds 2 1013 93 10000 1.02 142 18:37 18.11.2019
4177 Clouds 3 1013 86 10000 1.02 142 18:19 18.11.2019
4178 Clouds 3 1013 80 10000 0.5 0 17:40 18.11.2019
4179 Clouds 4 1013 75 10000 1.5 180 17:21 18.11.2019
4180 Clouds 5 1013 75 10000 1.5 180 16:58 18.11.2019
4181 Clouds 5 1012 90 10000 1.46 225 16:40 18.11.2019
4182 Clouds 6 1012 90 10000 1.5 0 16:22 18.11.2019
4183 Clouds 6 1012 90 10000 1.5 0 15:56 18.11.2019
4184 Clouds 5 1012 65 10000 3.1 280 15:37 18.11.2019
4185 Clouds 6 1011 90 10000 2.6 260 15:19 18.11.2019
4186 Clouds 6 1011 65 10000 3.6 280 14:43 18.11.2019
4187 Clouds 6 1011 65 10000 3.1 270 14:24 18.11.2019
4188 Clouds 6 1011 65 10000 3.1 270 13:57 18.11.2019
4189 Clouds 6 1011 65 10000 3.1 240 13:39 18.11.2019
4190 Clouds 6 1011 75 10000 3.6 240 13:21 18.11.2019
4191 Clouds 6 1011 70 10000 2.6 220 12:39 18.11.2019
4192 Clouds 6 1011 70 10000 1.5 0 12:20 18.11.2019
4193 Clouds 5 1011 70 10000 1.5 0 11:54 18.11.2019
4194 Clouds 5 1011 70 10000 1.5 0 11:36 18.11.2019
4195 Clouds 4 1011 75 10000 2.1 260 11:18 18.11.2019
4196 Clouds 4 1011 86 10000 1 0 10:42 18.11.2019
4197 Clouds 4 1011 86 10000 1 0 10:42 18.11.2019
4198 Clouds 4 1011 86 10000 2.1 150 10:23 18.11.2019
4199 Clouds 3 1010 80 10000 2.6 110 09:56 18.11.2019
4200 Clouds 3 1010 80 10000 2.6 110 09:38 18.11.2019
4201 Drizzle 3 1010 86 10000 2.6 60 09:19 18.11.2019
4202 Drizzle 2 1010 86 10000 1.5 30 08:45 18.11.2019
4203 Drizzle 2 1010 86 10000 1.5 0 08:22 18.11.2019
4204 Rain 2 1009 86 10000 2.6 230 07:49 18.11.2019
4205 Rain 2 1009 86 10000 2.6 230 07:30 18.11.2019
4206 Rain 2 1009 86 10000 3.1 240 06:57 18.11.2019
4207 Rain 2 1008 86 8000 3.1 240 06:39 18.11.2019
4208 Rain 2 1008 86 10000 3.6 240 06:20 18.11.2019
4209 Rain 2 1007 86 10000 1 0 05:25 18.11.2019
4210 Rain 2 1006 93 9000 1.5 260 03:30 18.11.2019
4211 Clouds 2 1006 100 10000 3.1 130 01:37 18.11.2019
4212 Rain 2 1006 100 10000 1.5 70 00:46 18.11.2019
4213 Drizzle 2 1006 100 10000 1.5 100 23:59 17.11.2019
4214 Drizzle 2 1006 100 10000 1.5 0 23:40 17.11.2019
4215 Clouds 2 1006 100 10000 1.5 100 23:21 17.11.2019
4216 Clouds 2 1005 100 8000 1 0 22:56 17.11.2019
4217 Clouds 2 1005 100 8000 1 0 22:38 17.11.2019
4218 Clouds 2 1005 93 10000 2.1 140 22:19 17.11.2019
4219 Rain 2 1005 93 10000 1.5 0 21:42 17.11.2019
4220 Rain 2 1005 93 8000 3.1 140 21:20 17.11.2019
4221 Rain 2 1005 93 8000 3.1 140 20:58 17.11.2019
4222 Rain 2 1005 100 10000 0.5 0 20:39 17.11.2019
4223 Rain 2 1005 93 5000 2.1 110 20:20 17.11.2019
4224 Rain 2 1005 93 5000 2.1 90 19:57 17.11.2019
4225 Rain 2 1005 93 5000 2.1 90 19:38 17.11.2019
4226 Rain 2 1005 100 5000 1.5 110 19:20 17.11.2019
4227 Rain 2 1005 100 5000 1.5 110 18:56 17.11.2019
4228 Rain 2 1005 100 5000 1.5 110 18:56 17.11.2019
4229 Rain 2 1005 100 5000 1.5 110 18:56 17.11.2019
4230 Rain 2 1004 93 5000 2.1 110 18:38 17.11.2019
4231 Rain 2 1004 100 5000 2.1 130 18:19 17.11.2019
4232 Rain 2 1004 100 5000 2.1 130 17:58 17.11.2019
4233 Rain 2 1004 100 5000 1.5 130 17:39 17.11.2019
4234 Rain 2 1004 100 5000 1.5 0 17:20 17.11.2019
4235 Rain 2 1004 100 5000 1.5 0 16:59 17.11.2019
4236 Rain 2 1003 93 5000 0.5 0 16:40 17.11.2019
4237 Rain 2 1003 93 5000 1 0 16:21 17.11.2019
4238 Rain 2 1003 93 5000 1 0 15:56 17.11.2019
4239 Rain 2 1003 93 5000 1 0 15:38 17.11.2019
4240 Rain 2 1003 93 5000 2.1 310 15:18 17.11.2019
4241 Rain 2 1003 93 5000 2.1 310 14:56 17.11.2019
4242 Rain 2 1003 93 5000 2.1 290 14:37 17.11.2019
4243 Rain 2 1003 93 5000 2.6 280 14:19 17.11.2019
4244 Rain 2 1003 93 5000 2.6 280 14:19 17.11.2019
4245 Rain 2 1003 93 5000 2.6 280 13:56 17.11.2019
4246 Rain 2 1003 93 5000 2.6 290 13:38 17.11.2019
4247 Rain 2 1003 93 4000 2.6 280 13:18 17.11.2019
4248 Rain 2 1003 93 4000 1.5 290 12:44 17.11.2019
4249 Rain 2 1003 100 4000 1.5 310 12:22 17.11.2019
4250 Rain 2 1003 100 4000 1.5 310 11:57 17.11.2019
4251 Rain 2 1003 93 4000 0.42 206 11:39 17.11.2019
4252 Rain 2 1004 100 3000 1 0 11:20 17.11.2019
4253 Rain 2 1004 93 3000 0.5 190 10:44 17.11.2019
4254 Rain 2 1004 100 3500 1.35 19 10:23 17.11.2019
4255 Rain 2 1004 100 3500 1.35 19 09:57 17.11.2019
4256 Rain 2 1004 100 3500 1.35 19 09:57 17.11.2019
4257 Rain 2 1005 100 4000 1.35 19 09:39 17.11.2019
4258 Rain 2 1005 100 4000 1 170 09:21 17.11.2019
4259 Mist 2 1005 98 4000 1.35 19 08:40 17.11.2019
4260 Mist 2 1005 94 3700 0.88 84 08:20 17.11.2019
4261 Mist 2 1006 94 3700 1 160 07:48 17.11.2019
4262 Mist 2 1006 94 3700 1 160 07:28 17.11.2019
4263 Mist 2 1006 94 5000 1 100 06:59 17.11.2019
4264 Mist 2 1006 94 5000 0.88 84 06:40 17.11.2019
4265 Mist 2 1007 94 4400 0.5 0 06:21 17.11.2019
4266 Mist 1 1008 100 3700 1 120 04:24 17.11.2019
4267 Mist 1 1008 100 3100 1.06 47 03:51 17.11.2019
4268 Mist 1 1008 100 3100 1.06 47 03:32 17.11.2019
4269 Mist 1 1009 100 4800 1 0 02:28 17.11.2019
4270 Fog 1 1009 100 3600 1 0 01:41 17.11.2019
4271 Fog 0 1010 92 2700 1 0 00:54 17.11.2019
4272 Fog 0 1010 92 3400 0.5 0 00:22 17.11.2019
4273 Mist 0 1010 100 3500 1 260 23:47 16.11.2019
4274 Mist 0 1010 95 4400 1 0 23:20 16.11.2019
4275 Mist 0 1010 95 4400 1 0 23:20 16.11.2019
4276 Mist 0 1010 95 4400 1 0 22:59 16.11.2019
4277 Mist 0 1010 95 4400 1 0 22:59 16.11.2019
4278 Mist 1 1010 100 4000 1 0 22:40 16.11.2019
4279 Mist 0 1010 100 4500 0.5 0 22:19 16.11.2019
4280 Mist 1 1010 100 4500 0.5 0 21:56 16.11.2019
4281 Mist 1 1010 100 4600 1 0 21:37 16.11.2019
4282 Clouds 1 1010 95 6000 0.5 0 21:19 16.11.2019
4283 Mist 1 1011 95 4100 1 0 20:41 16.11.2019
4284 Fog 1 1010 95 2800 0.5 0 20:21 16.11.2019
4285 Mist 2 1010 95 4300 1 0 19:58 16.11.2019
4286 Mist 2 1010 95 4300 1 0 19:39 16.11.2019
4287 Clouds 2 1010 95 10000 2.1 60 19:20 16.11.2019
4288 Clouds 2 1010 95 6000 0.5 0 18:46 16.11.2019
4289 Clouds 3 1010 95 6000 0.5 0 18:28 16.11.2019
4290 Clouds 3 1009 86 10000 0.5 0 17:56 16.11.2019
4291 Clouds 4 1009 86 10000 0.5 0 17:38 16.11.2019
4292 Clouds 5 1010 86 10000 0.5 0 17:19 16.11.2019
4293 Clouds 5 1009 80 10000 1.5 250 16:48 16.11.2019
4294 Clouds 6 1009 80 10000 1.5 250 16:30 16.11.2019
4295 Clouds 6 1009 75 10000 1.5 290 15:58 16.11.2019
4296 Clouds 6 1009 70 10000 2.1 300 15:39 16.11.2019
4297 Clouds 6 1009 61 10000 1 0 15:20 16.11.2019
4298 Clouds 6 1009 70 10000 0.5 0 14:57 16.11.2019
4299 Clouds 7 1009 70 10000 0.5 0 14:38 16.11.2019
4300 Clouds 7 1009 75 10000 0.5 0 14:19 16.11.2019
4301 Clouds 7 1009 75 10000 1.5 0 13:54 16.11.2019
4302 Clouds 7 1009 75 10000 1.5 0 13:54 16.11.2019
4303 Clouds 7 1009 75 10000 1.5 0 13:36 16.11.2019
4304 Clouds 6 1009 75 10000 1 0 13:18 16.11.2019
4305 Clouds 6 1009 75 10000 1 0 12:42 16.11.2019
4306 Clouds 6 1009 80 10000 0.5 0 12:22 16.11.2019
4307 Clouds 5 1009 93 10000 1 0 11:55 16.11.2019
4308 Clouds 5 1009 93 10000 1 0 11:37 16.11.2019
4309 Clouds 4 1009 93 10000 0.5 0 11:18 16.11.2019
4310 Clouds 4 1009 100 10000 1.5 160 10:42 16.11.2019
4311 Clouds 3 1008 100 10000 0.83 148 10:24 16.11.2019
4312 Clouds 2 1008 100 10000 1.5 110 09:56 16.11.2019
4313 Clouds 2 1008 100 10000 1.5 110 09:56 16.11.2019
4314 Clouds 2 1008 100 10000 1.5 110 09:38 16.11.2019
4315 Rain 2 1008 91 10000 1 150 09:19 16.11.2019
4316 Rain 1 1007 91 4500 1 140 08:40 16.11.2019
4317 Fog 1 1007 100 600 1 0 08:20 16.11.2019
4318 Fog 1 1006 100 500 1 0 07:44 16.11.2019
4319 Fog 1 1006 100 5000 1 160 07:22 16.11.2019
4320 Fog 1 1006 100 5000 1 160 06:57 16.11.2019
4321 Mist 1 1005 100 5000 1.5 150 06:39 16.11.2019
4322 Mist 1 1005 93 5000 1 0 06:19 16.11.2019
4323 Mist 1 1004 93 2700 0.5 0 04:21 16.11.2019
4324 Fog 1 1004 93 2300 1 0 03:26 16.11.2019
4325 Fog 1 1003 93 3000 1 270 02:36 16.11.2019
4326 Clouds 1 1003 94 4900 0.5 0 01:32 16.11.2019
4327 Clouds 1 1003 94 6000 1 180 00:47 16.11.2019
4328 Clouds 1 1003 94 6000 1 180 00:28 16.11.2019
4329 Clouds 2 1003 100 8000 1 0 23:44 15.11.2019
4330 Clouds 2 1003 94 9000 0.5 0 23:25 15.11.2019
4331 Clouds 2 1003 94 9000 0.5 0 22:59 15.11.2019
4332 Clouds 2 1003 94 5000 0.5 0 22:39 15.11.2019
4333 Mist 2 1002 94 4800 0.5 80 22:19 15.11.2019
4334 Clouds 2 1002 94 8000 1 140 21:55 15.11.2019
4335 Clouds 2 1002 94 8000 1 140 21:37 15.11.2019
4336 Clouds 2 1002 94 7000 1 130 21:19 15.11.2019
4337 Clouds 2 1002 94 7000 1 130 20:56 15.11.2019
4338 Clouds 3 1002 100 10000 0.5 150 20:38 15.11.2019
4339 Clouds 3 1002 100 8000 1 70 20:19 15.11.2019
4340 Clouds 3 1002 100 8000 1 70 19:56 15.11.2019
4341 Clouds 3 1002 93 10000 0.5 0 19:37 15.11.2019
4342 Clouds 3 1002 100 10000 1 0 19:19 15.11.2019
4343 Clouds 3 1001 100 10000 0.5 0 18:42 15.11.2019
4344 Clouds 3 1001 93 10000 1.09 124 18:24 15.11.2019
4345 Clouds 4 1001 93 10000 1.09 124 17:58 15.11.2019
4346 Clouds 4 1001 86 10000 0.5 0 17:39 15.11.2019
4347 Clouds 4 1000 80 10000 0.5 0 17:21 15.11.2019
4348 Clouds 5 1000 75 10000 0.5 0 16:54 15.11.2019
4349 Clouds 5 1000 75 10000 0.5 0 16:36 15.11.2019
4350 Clouds 6 1000 81 10000 1.5 170 16:18 15.11.2019
4351 Clouds 6 1000 70 10000 1.5 180 15:38 15.11.2019
4352 Clouds 6 1000 75 10000 1.5 120 15:19 15.11.2019
4353 Clouds 6 1000 75 10000 1.5 120 14:56 15.11.2019
4354 Clouds 6 1000 75 10000 1.5 0 14:38 15.11.2019
4355 Clouds 6 1000 75 10000 1.5 150 14:19 15.11.2019
4356 Clouds 6 1000 75 10000 1.5 150 13:56 15.11.2019
4357 Clouds 6 1000 80 10000 1 0 13:38 15.11.2019
4358 Clouds 6 1000 80 10000 1 0 13:20 15.11.2019
4359 Clouds 5 1000 86 10000 1 0 12:57 15.11.2019
4360 Clouds 5 1000 86 10000 1 0 12:38 15.11.2019
4361 Clouds 5 1000 86 10000 2.6 150 12:18 15.11.2019
4362 Clouds 5 1000 86 10000 0.5 0 11:55 15.11.2019
4363 Clouds 5 1000 86 10000 0.5 0 11:55 15.11.2019
4364 Clouds 5 1000 86 10000 0.5 0 11:37 15.11.2019
4365 Clouds 5 1001 80 10000 3.36 245 11:19 15.11.2019
4366 Clouds 4 1000 86 10000 1.5 360 10:39 15.11.2019
4367 Clouds 4 1000 86 10000 3.36 245 10:21 15.11.2019
4368 Clouds 4 1000 86 10000 3.36 245 09:58 15.11.2019
4369 Clouds 4 999 100 10000 2.1 190 09:58 15.11.2019
4370 Clouds 4 999 100 10000 2.1 190 09:39 15.11.2019
4371 Rain 3 999 93 9000 1.5 30 09:18 15.11.2019
4372 Rain 3 998 86 7000 2.1 360 08:42 15.11.2019
4373 Rain 3 997 86 9000 3.1 340 08:21 15.11.2019
4374 Rain 3 997 86 9000 3.1 340 08:21 15.11.2019
4375 Rain 2 996 93 10000 2.1 10 07:46 15.11.2019
4376 Rain 2 996 93 7000 5.1 300 07:26 15.11.2019
4377 Rain 3 995 86 4500 4.1 270 06:37 15.11.2019
4378 Rain 3 995 80 5000 6.2 270 05:58 15.11.2019
4379 Drizzle 2 993 75 10000 7.7 260 05:39 15.11.2019
4380 Drizzle 2 993 75 10000 7.7 260 05:39 15.11.2019
4381 Clouds 2 992 95 10000 2.6 270 04:58 15.11.2019
4382 Clouds 2 992 95 10000 0.5 0 03:46 15.11.2019
4383 Clouds 2 993 95 8000 2.1 150 02:51 15.11.2019
4384 Clouds 1 993 90 8000 2.1 130 02:18 15.11.2019
4385 Clouds 1 993 90 10000 1 0 01:32 15.11.2019
4386 Clouds 1 994 91 8000 1.5 0 00:48 15.11.2019
4387 Clouds 2 994 91 8000 0.5 0 00:29 15.11.2019
4388 Clouds 2 994 91 7000 1 0 23:49 14.11.2019
4389 Clouds 2 995 91 7000 1 0 23:27 14.11.2019
4390 Clouds 2 995 85 9000 1 0 22:57 14.11.2019
4391 Clouds 2 995 85 9000 1 0 22:39 14.11.2019
4392 Clouds 2 995 85 9000 1.5 100 22:20 14.11.2019
4393 Clouds 2 995 85 10000 1 0 21:42 14.11.2019
4394 Clouds 2 996 85 10000 0.5 0 21:23 14.11.2019
4395 Clouds 2 996 85 10000 0.5 0 20:57 14.11.2019
4396 Clouds 2 995 85 9000 1 0 20:39 14.11.2019
4397 Clouds 3 996 78 10000 1 160 20:21 14.11.2019
4398 Clouds 3 995 93 10000 1 130 19:58 14.11.2019
4399 Clouds 3 995 93 10000 1 130 19:40 14.11.2019
4400 Clouds 3 996 93 10000 1.48 75 19:18 14.11.2019
4401 Clouds 3 996 86 10000 1 0 18:54 14.11.2019
4402 Clouds 3 996 86 10000 1 0 18:36 14.11.2019
4403 Clouds 3 996 86 10000 1 0 18:18 14.11.2019
4404 Clouds 3 997 86 10000 1 0 17:38 14.11.2019
4405 Clouds 3 996 86 10000 1 0 17:38 14.11.2019
4406 Clouds 4 997 86 10000 1 0 17:20 14.11.2019
4407 Clouds 4 997 86 10000 1 0 16:58 14.11.2019
4408 Clouds 4 997 86 10000 1 0 16:39 14.11.2019
4409 Clouds 4 998 80 10000 1.5 140 16:20 14.11.2019
4410 Clouds 4 998 80 10000 1.5 140 16:20 14.11.2019
4411 Clouds 4 998 80 10000 1.5 140 15:58 14.11.2019
4412 Clouds 4 998 80 10000 0.5 0 15:39 14.11.2019
4413 Clouds 4 999 80 10000 1.5 0 15:20 14.11.2019
4414 Clouds 4 999 80 10000 1.5 0 14:58 14.11.2019
4415 Clouds 4 999 80 10000 1 0 14:39 14.11.2019
4416 Clouds 4 999 80 10000 1 0 14:39 14.11.2019
4417 Clouds 4 1000 80 10000 2.1 120 14:21 14.11.2019
4418 Clouds 4 1000 52 10000 2.6 130 13:42 14.11.2019
4419 Clouds 4 1000 52 10000 2.6 130 13:42 14.11.2019
4420 Clouds 4 1000 56 10000 2.6 120 13:23 14.11.2019
4421 Clouds 4 1000 56 10000 2.6 120 12:59 14.11.2019
4422 Clouds 4 1001 56 10000 1.5 150 12:40 14.11.2019
4423 Clouds 4 1001 86 10000 1 100 12:21 14.11.2019
4424 Clouds 4 1002 56 10000 2.1 180 11:56 14.11.2019
4425 Clouds 3 1002 56 10000 2.1 180 11:37 14.11.2019
4426 Clouds 3 1002 61 10000 1.5 160 11:19 14.11.2019
4427 Clouds 2 1002 61 10000 0.45 276 10:57 14.11.2019
4428 Clouds 2 1002 61 10000 0.45 276 10:37 14.11.2019
4429 Clouds 1 1002 100 10000 0.5 10 10:19 14.11.2019
4430 Clouds 1 1002 100 10000 1 0 09:42 14.11.2019
4431 Clouds -1 1002 100 10000 1.5 160 09:24 14.11.2019
4432 Clouds -1 1002 100 10000 1.5 160 08:58 14.11.2019
4433 Clouds -1 1002 100 10000 1.5 160 08:39 14.11.2019
4434 Clouds 0 1001 100 10000 2.1 190 08:21 14.11.2019
4435 Clouds -1 1002 92 10000 1 340 07:42 14.11.2019
4436 Clouds -1 1001 100 10000 1.09 96 07:23 14.11.2019
4437 Clouds -1 1001 100 10000 1 180 06:46 14.11.2019
4438 Clouds -1 1001 92 10000 1 130 06:20 14.11.2019
4439 Clouds -1 1001 92 10000 1 140 05:38 14.11.2019
4440 Clouds -2 1001 92 10000 0.5 0 04:38 14.11.2019
4441 Clouds -1 1002 100 10000 0.5 0 03:26 14.11.2019
4442 Clouds -1 1002 92 10000 1.5 150 02:35 14.11.2019
4443 Clouds -1 1003 100 10000 2.6 150 01:40 14.11.2019
4444 Clouds -1 1004 100 10000 0.5 0 00:57 14.11.2019
4445 Clouds -1 1004 92 10000 0.5 0 00:37 14.11.2019
4446 Clouds -1 1004 100 10000 0.5 0 00:18 14.11.2019
4447 Clouds -1 1004 100 10000 0.5 0 23:38 13.11.2019
4448 Clouds -1 1004 92 10000 1 140 23:19 13.11.2019
4449 Clouds 0 1005 100 10000 1.5 150 22:55 13.11.2019
4450 Clouds 0 1005 100 10000 1.5 150 22:37 13.11.2019
4451 Clouds 0 1005 100 10000 1.5 150 22:37 13.11.2019
4452 Clouds 1 1005 100 10000 1 140 22:18 13.11.2019
4453 Clouds 1 1006 94 10000 1 60 21:54 13.11.2019
4454 Clouds 1 1006 94 10000 1 60 21:36 13.11.2019
4455 Clouds 2 1006 94 10000 1.5 140 21:18 13.11.2019
4456 Clouds 2 1006 94 10000 0.5 0 20:54 13.11.2019
4457 Clouds 2 1006 94 10000 0.5 0 20:36 13.11.2019
4458 Clouds 2 1006 86 10000 0.5 0 20:18 13.11.2019
4459 Clouds 3 1006 92 10000 1 90 19:41 13.11.2019
4460 Clouds 3 1006 86 10000 1.5 110 19:19 13.11.2019
4461 Clouds 3 1006 93 10000 1 0 18:56 13.11.2019
4462 Clouds 3 1006 93 10000 1 0 18:37 13.11.2019
4463 Clouds 4 1006 80 10000 1 300 18:19 13.11.2019
4464 Clouds 4 1005 75 10000 0.5 0 17:57 13.11.2019
4465 Clouds 4 1005 75 10000 0.5 0 17:38 13.11.2019
4466 Clouds 5 1005 70 10000 1 0 17:19 13.11.2019
4467 Clouds 6 1005 70 10000 0.5 0 16:57 13.11.2019
4468 Clouds 6 1005 70 10000 0.5 0 16:38 13.11.2019
4469 Clouds 6 1005 70 10000 2.6 260 16:20 13.11.2019
4470 Clouds 6 1005 74 10000 1.5 0 15:57 13.11.2019
4471 Clouds 6 1005 74 10000 1.5 0 15:37 13.11.2019
4472 Clouds 6 1005 73 10000 2.6 310 15:18 13.11.2019
4473 Clouds 6 1005 70 10000 2.6 310 14:41 13.11.2019
4474 Clouds 6 1005 70 10000 1.5 0 14:21 13.11.2019
4475 Clouds 6 1006 70 10000 3.1 300 13:54 13.11.2019
4476 Clouds 6 1005 70 10000 2.6 290 13:36 13.11.2019
4477 Clouds 6 1005 70 10000 2.6 290 13:18 13.11.2019
4478 Clouds 6 1005 68 10000 2.6 0 12:42 13.11.2019
4479 Clouds 6 1005 68 10000 0.5 0 12:23 13.11.2019
4480 Clouds 6 1005 65 10000 1 0 11:57 13.11.2019
4481 Clouds 6 1005 65 10000 1 0 11:38 13.11.2019
4482 Clouds 6 1005 65 10000 1 0 11:38 13.11.2019
4483 Clouds 5 1005 70 10000 1.5 140 11:19 13.11.2019
4484 Clouds 4 1005 80 10000 1.5 0 10:56 13.11.2019
4485 Clouds 4 1005 80 10000 1.5 0 10:37 13.11.2019
4486 Clouds 4 1005 86 10000 1 0 10:19 13.11.2019
4487 Clouds 3 1005 80 10000 1 170 09:43 13.11.2019
4488 Clouds 3 1005 80 10000 1 170 09:43 13.11.2019
4489 Clouds 2 1005 80 10000 1 100 09:21 13.11.2019
4490 Clouds 2 1005 80 10000 1 100 09:21 13.11.2019
4491 Clouds 2 1004 80 10000 2.1 150 08:44 13.11.2019
4492 Clouds 1 1004 79 10000 2.1 150 08:25 13.11.2019
4493 Clouds 1 1004 93 10000 1.5 160 07:59 13.11.2019
4494 Clouds 1 1004 86 10000 1.5 150 07:40 13.11.2019
4495 Clouds 1 1004 93 10000 2.1 110 07:18 13.11.2019
4496 Clouds 1 1004 93 10000 2.1 110 07:18 13.11.2019
4497 Clouds 1 1004 100 10000 2.1 140 06:42 13.11.2019
4498 Clouds 1 1003 100 10000 1.5 130 06:19 13.11.2019
4499 Clouds 1 1003 93 10000 0.5 0 05:48 13.11.2019
4500 Clouds 1 1003 98 10000 1.5 140 05:19 13.11.2019
4501 Clouds 1 1003 98 10000 2.1 350 03:57 13.11.2019
4502 Clouds 2 1003 95 10000 1.5 150 01:52 13.11.2019
4503 Clouds 2 1003 98 10000 1.5 150 01:27 13.11.2019
4504 Clouds 2 1004 98 10000 1 0 00:43 13.11.2019
4505 Clouds 2 1004 98 10000 3.1 90 23:56 12.11.2019
4506 Clouds 2 1004 86 10000 2.6 120 23:38 12.11.2019
4507 Clouds 1 1004 91 10000 2.1 110 23:18 12.11.2019
4508 Clouds 2 1004 91 10000 0.5 0 22:42 12.11.2019
4509 Clear 1 1004 92 10000 0.5 0 22:19 12.11.2019
4510 Clear 1 1004 92 10000 0.5 0 21:57 12.11.2019
4511 Clouds 2 1004 91 10000 0.5 0 21:38 12.11.2019
4512 Clouds 2 1004 91 10000 1 0 21:20 12.11.2019
4513 Clear 2 1004 91 10000 2.1 170 20:55 12.11.2019
4514 Clear 2 1004 91 10000 2.1 170 20:37 12.11.2019
4515 Clouds 3 1004 90 10000 1.5 100 20:18 12.11.2019
4516 Clouds 3 1005 90 10000 1.66 166 19:55 12.11.2019
4517 Clouds 3 1005 90 10000 1.66 166 19:55 12.11.2019
4518 Clouds 3 1005 90 10000 1.66 166 19:37 12.11.2019
4519 Clouds 3 1005 90 10000 1.66 166 19:18 12.11.2019
4520 Clouds 3 1005 80 10000 1 130 18:55 12.11.2019
4521 Clouds 3 1005 80 10000 1 130 18:36 12.11.2019
4522 Clouds 3 1006 80 10000 1.5 90 18:18 12.11.2019
4523 Clouds 4 1005 74 10000 2.6 290 17:55 12.11.2019
4524 Clouds 4 1005 74 10000 2.6 290 17:36 12.11.2019
4525 Clouds 4 1005 74 10000 2.6 290 17:36 12.11.2019
4526 Clouds 4 1005 74 10000 2.6 290 17:36 12.11.2019
4527 Clouds 4 1005 74 10000 2.6 290 17:36 12.11.2019
4528 Clouds 5 1005 60 10000 3.6 290 17:18 12.11.2019
4529 Clouds 7 1005 56 10000 4.1 290 16:43 12.11.2019
4530 Clouds 7 1005 52 10000 4.6 290 16:24 12.11.2019
4531 Clouds 7 1005 52 10000 4.1 280 15:57 12.11.2019
4532 Clouds 7 1005 52 10000 4.1 280 15:37 12.11.2019
4533 Clouds 7 1006 71 10000 4.6 290 15:18 12.11.2019
4534 Clouds 8 1006 71 10000 3.6 290 14:42 12.11.2019
4535 Clear 8 1006 57 10000 3.6 290 14:20 12.11.2019
4536 Clouds 8 1006 57 10000 3.1 260 13:58 12.11.2019
4537 Clear 8 1006 57 10000 3.6 290 13:58 12.11.2019
4538 Clouds 8 1006 57 10000 3.1 260 13:39 12.11.2019
4539 Clouds 8 1007 61 10000 3.6 280 13:19 12.11.2019
4540 Clouds 8 1007 65 10000 2.6 230 12:59 12.11.2019
4541 Clouds 8 1007 65 10000 2.6 230 12:39 12.11.2019
4542 Clouds 8 1008 65 10000 2.6 290 12:18 12.11.2019
4543 Clouds 7 1008 66 10000 1 0 11:43 12.11.2019
4544 Clouds 6 1008 65 10000 1.5 0 11:24 12.11.2019
4545 Clouds 5 1009 81 10000 2.6 120 10:58 12.11.2019
4546 Clouds 5 1009 81 10000 2.6 120 10:40 12.11.2019
4547 Clear 4 1009 86 10000 1 270 10:22 12.11.2019
4548 Clear 4 1009 86 10000 1 270 09:59 12.11.2019
4549 Clear 4 1009 86 10000 1 0 09:39 12.11.2019
4550 Clear 3 1009 83 10000 1.5 130 09:18 12.11.2019
4551 Clear 2 1009 83 10000 1 170 08:48 12.11.2019
4552 Clouds 2 1010 83 10000 1 0 08:28 12.11.2019
4553 Clouds 2 1010 96 10000 1 0 07:42 12.11.2019
4554 Clouds 2 1010 96 10000 1 0 07:24 12.11.2019
4555 Clouds 2 1009 96 10000 1.5 40 06:51 12.11.2019
4556 Clouds 2 1009 96 10000 1.5 0 06:26 12.11.2019
4557 Clouds 2 1009 86 10000 1.5 340 05:52 12.11.2019
4558 Clouds 3 1009 75 10000 1 0 04:51 12.11.2019
4559 Clouds 4 1009 80 10000 2.1 330 04:20 12.11.2019
4560 Clouds 4 1010 75 10000 3.6 250 01:58 12.11.2019
4561 Rain 4 1010 80 10000 4.1 260 01:27 12.11.2019
4562 Rain 4 1010 86 10000 5.1 290 00:53 12.11.2019
4563 Rain 4 1010 86 10000 5.1 290 00:33 12.11.2019
4564 Rain 4 1009 93 8000 1 0 23:55 11.11.2019
4565 Rain 4 1009 93 8000 1 0 23:36 11.11.2019
4566 Rain 4 1009 93 8000 1.5 0 23:18 11.11.2019
4567 Rain 4 1009 93 9000 3.1 300 22:38 11.11.2019
4568 Rain 4 1009 100 7000 1.5 320 22:20 11.11.2019
4569 Clouds 4 1008 100 8000 1.5 320 21:58 11.11.2019
4570 Clouds 4 1008 100 8000 1.5 320 21:39 11.11.2019
4571 Clouds 4 1008 93 8000 2.1 150 21:20 11.11.2019
4572 Snow 4 1007 88 7000 2.6 230 20:55 11.11.2019
4573 Clouds 4 1008 100 6000 1 0 20:37 11.11.2019
4574 Clouds 3 1008 93 9000 1 0 20:19 11.11.2019
4575 Clouds 4 1008 93 10000 0.5 0 19:42 11.11.2019
4576 Clouds 4 1008 93 10000 1 0 19:19 11.11.2019
4577 Clouds 4 1008 93 10000 1 0 18:58 11.11.2019
4578 Clouds 4 1008 86 10000 1.5 150 18:40 11.11.2019
4579 Clouds 4 1008 86 10000 1 140 18:20 11.11.2019
4580 Clouds 4 1008 93 10000 2.1 150 17:45 11.11.2019
4581 Clouds 4 1008 80 10000 1 0 17:27 11.11.2019
4582 Clouds 5 1006 74 10000 2.6 220 16:56 11.11.2019
4583 Clouds 5 1008 80 10000 1.5 110 16:38 11.11.2019
4584 Clouds 5 1008 80 10000 1 0 16:20 11.11.2019
4585 Clouds 5 1008 80 10000 2.1 320 15:41 11.11.2019
4586 Clouds 5 1008 80 10000 1.5 320 15:20 11.11.2019
4587 Clouds 5 1008 80 10000 1.5 320 15:20 11.11.2019
4588 Clouds 5 1008 80 10000 1.5 320 14:55 11.11.2019
4589 Clouds 5 1008 80 10000 2.6 330 14:37 11.11.2019
4590 Clouds 5 1009 75 10000 3.6 330 14:18 11.11.2019
4591 Clouds 5 1009 75 10000 3.6 330 14:18 11.11.2019
4592 Clouds 4 1009 80 10000 2.6 330 13:40 11.11.2019
4593 Clouds 4 1009 80 10000 1 0 13:21 11.11.2019
4594 Clouds 4 1009 80 10000 1 0 12:58 11.11.2019
4595 Clouds 4 1009 80 10000 1 0 12:58 11.11.2019
4596 Clouds 4 1009 80 10000 1 0 12:58 11.11.2019
4597 Clouds 4 1010 86 10000 1 0 12:40 11.11.2019
4598 Clouds 4 1010 86 10000 1 0 12:40 11.11.2019
4599 Clouds 4 1011 86 10000 0.5 0 12:22 11.11.2019
4600 Clouds 4 1011 86 10000 0.5 0 11:58 11.11.2019
4601 Clouds 4 1011 93 10000 1.5 0 11:39 11.11.2019
4602 Clouds 2 1012 100 7000 2.1 310 11:21 11.11.2019
4603 Clouds 1 1012 63 6000 1.5 0 10:43 11.11.2019
4604 Clouds 1 1012 63 3500 0.5 0 10:19 11.11.2019
4605 Clouds 1 1012 63 3500 0.5 0 09:58 11.11.2019
4606 Clouds 1 1013 63 3000 3.6 170 09:58 11.11.2019
4607 Clouds 1 1013 63 3000 3.6 170 09:39 11.11.2019
4608 Mist 1 1013 63 3000 2.1 120 09:19 11.11.2019
4609 Mist 0 1013 100 3500 1 140 08:41 11.11.2019
4610 Mist 0 1013 100 4000 1.5 160 08:22 11.11.2019
4611 Mist 0 1013 100 4000 1.5 160 07:57 11.11.2019
4612 Mist 0 1013 100 3000 3.1 180 07:37 11.11.2019
4613 Clouds 0 1013 84 6000 2.1 110 07:19 11.11.2019
4614 Clouds 0 1013 84 6000 2.1 110 07:19 11.11.2019
4615 Clouds 0 1014 84 10000 3.1 240 06:48 11.11.2019
4616 Clouds 0 1014 84 7000 1.5 0 06:23 11.11.2019
4617 Fog 0 1014 100 450 0.5 0 05:51 11.11.2019
4618 Fog 0 1013 100 400 1 0 04:36 11.11.2019
4619 Fog 0 1014 89 200 1.5 140 03:24 11.11.2019
4620 Fog 0 1014 89 200 1 0 02:26 11.11.2019
4621 Fog 0 1014 91 150 1 170 01:56 11.11.2019
4622 Fog 0 1015 91 150 1.5 130 01:34 11.11.2019
4623 Fog 0 1014 91 200 1 0 00:49 11.11.2019
4624 Fog 0 1014 91 200 1 0 00:49 11.11.2019
4625 Fog 0 1013 91 150 1 310 00:21 11.11.2019
4626 Fog 0 1013 91 100 0.5 0 23:40 10.11.2019
4627 Fog 0 1013 93 100 0.5 0 23:20 10.11.2019
4628 Fog 0 1013 93 100 0.5 0 23:20 10.11.2019
4629 Fog 0 1013 93 100 0.5 0 22:58 10.11.2019
4630 Fog 1 1014 93 100 0.5 0 22:39 10.11.2019
4631 Fog 1 1014 93 150 0.96 113 22:20 10.11.2019
4632 Fog 1 1014 93 150 0.96 113 21:59 10.11.2019
4633 Fog 0 1014 100 150 0.5 0 21:40 10.11.2019
4634 Fog 1 1014 100 200 1 0 21:21 10.11.2019
4635 Fog 1 1014 100 200 1 0 20:58 10.11.2019
4636 Clouds 1 1014 93 6000 1 310 20:38 10.11.2019
4637 Clouds 1 1014 93 8000 1 160 20:20 10.11.2019
4638 Clouds 1 1014 93 8000 1 160 20:20 10.11.2019
4639 Clouds 1 1014 93 8000 1 160 19:55 10.11.2019
4640 Clouds 2 1014 93 8000 1 0 19:37 10.11.2019
4641 Clouds 2 1014 93 10000 1 0 19:18 10.11.2019
4642 Clouds 2 1014 93 10000 1 0 18:54 10.11.2019
4643 Clouds 2 1013 93 10000 1.06 108 18:36 10.11.2019
4644 Clouds 2 1013 86 10000 1.5 290 18:18 10.11.2019
4645 Clouds 3 1013 86 10000 1.5 290 17:55 10.11.2019
4646 Clouds 3 1013 86 10000 1.5 290 17:55 10.11.2019
4647 Clouds 3 1013 80 10000 1 0 17:37 10.11.2019
4648 Clouds 4 1012 80 10000 1.5 340 17:18 10.11.2019
4649 Clouds 5 1012 75 10000 2.1 330 16:43 10.11.2019
4650 Clouds 5 1012 75 10000 2.1 330 16:25 10.11.2019
4651 Clouds 5 1011 75 10000 2.6 330 15:56 10.11.2019
4652 Clouds 5 1011 65 10000 2.1 300 15:38 10.11.2019
4653 Clouds 6 1011 65 10000 1.5 0 15:19 10.11.2019
4654 Clouds 6 1011 65 10000 1.5 0 14:58 10.11.2019
4655 Clouds 6 1011 65 10000 1.5 0 14:38 10.11.2019
4656 Clouds 6 1011 65 10000 2.1 270 14:20 10.11.2019
4657 Clouds 6 1011 65 10000 2.1 270 13:55 10.11.2019
4658 Clouds 6 1011 70 10000 1.5 260 13:36 10.11.2019
4659 Clouds 5 1010 70 10000 1 0 13:18 10.11.2019
4660 Clouds 5 1010 70 10000 1 0 12:41 10.11.2019
4661 Clouds 5 1011 75 10000 0.5 0 12:19 10.11.2019
4662 Clouds 5 1011 75 10000 0.5 0 11:56 10.11.2019
4663 Clouds 5 1011 80 10000 1 0 11:38 10.11.2019
4664 Clouds 4 1010 80 10000 1.5 0 11:19 10.11.2019
4665 Clouds 3 1010 93 10000 1.5 0 10:42 10.11.2019
4666 Clouds 2 1010 100 10000 2.1 160 10:22 10.11.2019
4667 Clouds 2 1010 100 10000 2.1 160 10:22 10.11.2019
4668 Clouds 2 1010 100 10000 2.1 160 09:58 10.11.2019
4669 Clouds 2 1010 66 10000 1.5 150 09:39 10.11.2019
4670 Clouds 1 1009 66 10000 1.5 190 09:19 10.11.2019
4671 Clouds 1 1009 66 10000 3.1 100 08:39 10.11.2019
4672 Clouds 1 1009 100 10000 2.1 140 08:20 10.11.2019
4673 Clouds 0 1009 92 10000 1.5 160 07:47 10.11.2019
4674 Clouds 0 1009 92 10000 1.5 160 07:27 10.11.2019
4675 Clouds 0 1009 100 10000 1.5 160 06:59 10.11.2019
4676 Clouds 0 1008 100 7000 0.5 0 06:21 10.11.2019
4677 Clear 0 1007 100 10000 1 0 03:38 10.11.2019
4678 Clear 0 1008 100 10000 2.6 110 02:30 10.11.2019
4679 Clear 0 1008 100 10000 1.5 120 01:37 10.11.2019
4680 Fog 0 1008 100 9000 1 0 01:18 10.11.2019
4681 Fog 0 1008 100 5000 0.5 0 00:25 10.11.2019
4682 Fog 1 1008 100 6000 0.5 0 23:40 09.11.2019
4683 Fog 1 1008 100 450 1 0 23:19 09.11.2019
4684 Fog 1 1008 95 150 0.5 0 22:42 09.11.2019
4685 Fog 1 1008 95 300 0.5 0 22:22 09.11.2019
4686 Fog 1 1008 95 150 0.5 0 21:58 09.11.2019
4687 Fog 1 1008 95 150 0.5 0 21:40 09.11.2019
4688 Mist 2 1008 100 2700 0.5 0 21:21 09.11.2019
4689 Mist 2 1008 100 2700 0.5 0 20:56 09.11.2019
4690 Fog 2 1008 100 5000 0.5 0 20:37 09.11.2019
4691 Clouds 3 1008 100 6000 0.5 0 20:18 09.11.2019
4692 Clouds 3 1009 93 6000 1 0 19:41 09.11.2019
4693 Clouds 4 1009 93 10000 1.5 80 19:23 09.11.2019
4694 Clouds 4 1009 93 10000 1.5 80 18:59 09.11.2019
4695 Clouds 4 1009 93 10000 1.5 120 18:39 09.11.2019
4696 Clouds 5 1009 93 10000 1 0 18:19 09.11.2019
4697 Clouds 5 1009 87 10000 2.1 130 17:43 09.11.2019
4698 Clouds 6 1010 87 10000 1.5 120 17:23 09.11.2019
4699 Clouds 6 1010 87 10000 1.5 120 16:59 09.11.2019
4700 Clouds 7 1010 81 10000 1 180 16:40 09.11.2019
4701 Clouds 7 1010 70 10000 0.38 285 16:20 09.11.2019
4702 Clouds 7 1010 75 10000 1 280 15:43 09.11.2019
4703 Clouds 7 1010 75 10000 1 280 15:24 09.11.2019
4704 Clouds 7 1010 70 10000 1.5 270 14:57 09.11.2019
4705 Clouds 7 1010 75 10000 2.6 330 14:39 09.11.2019
4706 Clouds 7 1010 75 10000 1.09 319 14:18 09.11.2019
4707 Clouds 7 1010 75 10000 1.09 319 13:55 09.11.2019
4708 Clouds 7 1011 70 10000 1.09 319 13:36 09.11.2019
4709 Clouds 7 1011 75 10000 0.71 293 13:18 09.11.2019
4710 Clouds 7 1011 81 10000 1 140 12:41 09.11.2019
4711 Clouds 6 1012 81 10000 1.5 130 12:22 09.11.2019
4712 Clouds 6 1012 87 10000 0.71 293 11:55 09.11.2019
4713 Clouds 5 1012 87 10000 0.71 293 11:37 09.11.2019
4714 Clouds 5 1012 93 10000 1 0 11:18 09.11.2019
4715 Clouds 4 1012 93 10000 0.76 217 10:40 09.11.2019
4716 Clouds 4 1012 100 10000 0.76 217 10:19 09.11.2019
4717 Clouds 3 1012 100 8000 1 270 09:48 09.11.2019
4718 Clouds 3 1012 100 8000 1 270 09:28 09.11.2019
4719 Clouds 3 1012 100 10000 0.76 217 08:59 09.11.2019
4720 Clouds 3 1012 100 10000 0.76 217 08:59 09.11.2019
4721 Rain 3 1011 100 7000 2.1 90 08:40 09.11.2019
4722 Rain 2 1011 100 7000 2.1 110 08:21 09.11.2019
4723 Rain 2 1011 100 3000 1.5 100 07:46 09.11.2019
4724 Mist 2 1011 100 4400 2.1 130 07:23 09.11.2019
4725 Mist 2 1011 100 2900 1.5 140 06:49 09.11.2019
4726 Mist 2 1011 100 2900 1.5 140 06:31 09.11.2019
4727 Mist 2 1011 100 4400 1 160 05:45 09.11.2019
4728 Fog 2 1010 93 4400 1 240 04:58 09.11.2019
4729 Fog 2 1010 100 2100 1 280 03:57 09.11.2019
4730 Fog 2 1009 100 250 0.5 0 02:44 09.11.2019
4731 Fog 2 1009 100 150 0.5 0 01:55 09.11.2019
4732 Fog 2 1009 100 4900 0.5 0 00:53 09.11.2019
4733 Fog 3 1009 100 4900 0.5 0 00:31 09.11.2019
4734 Fog 3 1009 100 4900 0.5 0 00:31 09.11.2019
4735 Clouds 3 1008 100 6000 0.5 0 23:58 08.11.2019
4736 Clouds 3 1008 100 8000 1.5 80 23:39 08.11.2019
4737 Clouds 3 1008 93 9000 1 90 23:20 08.11.2019
4738 Clouds 3 1008 100 10000 1.5 90 22:48 08.11.2019
4739 Clouds 3 1008 100 10000 1.5 120 22:22 08.11.2019
4740 Clouds 3 1008 100 10000 1.5 120 21:57 08.11.2019
4741 Clouds 3 1008 93 10000 2.1 100 21:39 08.11.2019
4742 Clouds 4 1007 93 10000 1 0 21:19 08.11.2019
4743 Clouds 4 1007 93 10000 1 170 20:43 08.11.2019
4744 Clouds 4 1007 93 10000 0.89 76 20:22 08.11.2019
4745 Clouds 4 1007 93 10000 0.89 76 20:22 08.11.2019
4746 Clouds 4 1006 93 10000 0.89 76 19:59 08.11.2019
4747 Clouds 4 1006 93 10000 0.89 76 19:39 08.11.2019
4748 Clouds 4 1006 93 10000 1 100 19:19 08.11.2019
4749 Clouds 4 1006 86 10000 1.5 140 18:56 08.11.2019
4750 Clouds 4 1006 86 10000 1.5 140 18:38 08.11.2019
4751 Clouds 4 1006 86 10000 1.5 130 18:20 08.11.2019
4752 Clouds 4 1005 86 10000 1.5 100 17:56 08.11.2019
4753 Clouds 4 1005 86 10000 1.5 100 17:37 08.11.2019
4754 Clouds 4 1005 86 10000 1.5 100 17:37 08.11.2019
4755 Clouds 5 1005 93 10000 1 100 17:19 08.11.2019
4756 Clouds 5 1005 93 10000 1 100 16:58 08.11.2019
4757 Clouds 5 1005 86 10000 1 120 16:58 08.11.2019
4758 Clouds 5 1005 86 10000 1 120 16:39 08.11.2019
4759 Clouds 5 1004 86 10000 1 140 16:20 08.11.2019
4760 Clouds 5 1004 86 10000 2.1 90 15:58 08.11.2019
4761 Clouds 5 1004 86 10000 2.1 90 15:40 08.11.2019
4762 Clouds 5 1004 86 10000 1 0 15:21 08.11.2019
4763 Clouds 5 1004 86 10000 1.5 160 14:56 08.11.2019
4764 Clouds 5 1004 86 10000 1.5 160 14:36 08.11.2019
4765 Clouds 4 1004 93 8000 2.1 160 14:18 08.11.2019
4766 Clouds 4 1004 93 8000 2.1 160 14:18 08.11.2019
4767 Rain 4 1004 93 10000 3.1 150 13:57 08.11.2019
4768 Rain 4 1004 93 10000 3.1 150 13:38 08.11.2019
4769 Rain 4 1004 93 10000 2.1 160 13:19 08.11.2019
4770 Rain 4 1004 93 10000 1.5 0 12:42 08.11.2019
4771 Rain 4 1004 93 10000 1.5 140 12:24 08.11.2019
4772 Rain 4 1004 93 10000 1 180 11:57 08.11.2019
4773 Rain 4 1004 93 10000 1 180 11:38 08.11.2019
4774 Rain 4 1004 93 10000 1 180 11:38 08.11.2019
4775 Rain 4 1004 86 10000 1 0 11:20 08.11.2019
4776 Rain 4 1004 86 10000 1 0 10:56 08.11.2019
4777 Rain 4 1004 86 10000 1 300 10:38 08.11.2019
4778 Rain 4 1004 93 9000 1 0 10:20 08.11.2019
4779 Rain 3 1004 93 10000 1 0 09:41 08.11.2019
4780 Rain 3 1004 93 7000 1 0 09:20 08.11.2019
4781 Rain 3 1004 93 7000 1 0 08:58 08.11.2019
4782 Rain 3 1004 100 7000 1 300 08:37 08.11.2019
4783 Rain 3 1003 100 8000 1 280 08:18 08.11.2019
4784 Rain 4 1003 93 10000 2.1 290 07:40 08.11.2019
4785 Drizzle 4 1003 93 10000 1 320 07:22 08.11.2019
4786 Clouds 4 1003 93 10000 1.5 280 06:41 08.11.2019
4787 Clouds 4 1003 93 10000 0.5 240 06:22 08.11.2019
4788 Drizzle 5 1003 93 10000 0.5 0 05:55 08.11.2019
4789 Drizzle 5 1003 93 10000 0.5 0 05:21 08.11.2019
4790 Drizzle 5 1004 93 10000 1.5 110 03:44 08.11.2019
4791 Clouds 5 1004 93 10000 2.1 140 03:23 08.11.2019
4792 Rain 5 1004 93 10000 1.5 110 02:45 08.11.2019
4793 Rain 5 1005 100 9000 1.5 120 01:48 08.11.2019
4794 Rain 5 1005 100 9000 1.5 120 01:30 08.11.2019
4795 Rain 5 1005 93 10000 2.6 140 00:24 08.11.2019
4796 Rain 5 1005 93 10000 2.6 140 23:59 07.11.2019
4797 Rain 5 1005 93 10000 2.6 140 23:59 07.11.2019
4798 Drizzle 5 1005 93 10000 3.6 150 23:41 07.11.2019
4799 Clouds 5 1005 93 10000 4.1 160 23:22 07.11.2019
4800 Rain 5 1005 93 10000 3.6 150 22:43 07.11.2019
4801 Rain 5 1006 93 10000 3.1 130 22:22 07.11.2019
4802 Rain 5 1006 93 10000 3.1 130 21:56 07.11.2019
4803 Rain 5 1006 86 10000 1.5 0 21:38 07.11.2019
4804 Drizzle 6 1006 86 10000 2.1 110 21:19 07.11.2019
4805 Drizzle 6 1006 86 10000 2.1 110 20:58 07.11.2019
4806 Drizzle 6 1005 86 10000 2.6 120 20:39 07.11.2019
4807 Rain 6 1005 81 10000 2.6 140 20:21 07.11.2019
4808 Rain 6 1005 81 10000 1.5 60 19:56 07.11.2019
4809 Rain 6 1005 81 10000 1.5 60 19:37 07.11.2019
4810 Rain 6 1005 87 10000 1 0 19:18 07.11.2019
4811 Drizzle 6 1005 81 10000 0.5 0 18:55 07.11.2019
4812 Drizzle 6 1005 81 10000 0.5 0 18:37 07.11.2019
4813 Drizzle 6 1005 81 10000 0.5 0 18:37 07.11.2019
4814 Rain 6 1005 81 10000 2.6 290 18:19 07.11.2019
4815 Rain 6 1005 81 10000 1.5 0 17:40 07.11.2019
4816 Clouds 7 1005 81 10000 1.5 0 17:22 07.11.2019
4817 Clouds 7 1004 81 10000 1 0 16:59 07.11.2019
4818 Clouds 7 1004 81 10000 1.5 0 16:40 07.11.2019
4819 Clouds 8 1004 81 10000 1.5 0 16:20 07.11.2019
4820 Clouds 8 1004 81 10000 2.6 110 15:59 07.11.2019
4821 Clouds 8 1004 75 10000 2.1 0 15:39 07.11.2019
4822 Clouds 8 1004 75 10000 2.1 0 15:19 07.11.2019
4823 Clouds 7 1004 75 10000 1.5 0 14:45 07.11.2019
4824 Clouds 7 1004 75 10000 1 0 14:27 07.11.2019
4825 Clouds 7 1004 75 10000 0.5 0 13:57 07.11.2019
4826 Clouds 7 1004 75 10000 0.5 0 13:39 07.11.2019
4827 Clouds 7 1004 75 10000 0.5 0 13:21 07.11.2019
4828 Clouds 7 1004 75 10000 0.5 0 13:21 07.11.2019
4829 Clouds 6 1004 81 10000 1.5 110 12:58 07.11.2019
4830 Clouds 6 1004 81 10000 1.5 110 12:58 07.11.2019
4831 Clouds 6 1004 81 10000 1.5 110 12:58 07.11.2019
4832 Clouds 6 1004 87 10000 2.6 250 12:40 07.11.2019
4833 Clouds 6 1004 87 10000 2.6 250 12:22 07.11.2019
4834 Rain 6 1004 93 10000 1.5 0 11:59 07.11.2019
4835 Clouds 6 1004 93 10000 1.5 150 11:40 07.11.2019
4836 Clouds 6 1004 93 10000 1.5 150 11:21 07.11.2019
4837 Clouds 5 1004 100 10000 1.5 0 10:41 07.11.2019
4838 Clouds 4 1004 100 10000 1.5 0 10:19 07.11.2019
4839 Clouds 4 1003 100 10000 1.5 310 09:44 07.11.2019
4840 Clouds 4 1003 100 10000 1.5 150 09:23 07.11.2019
4841 Clouds 3 1003 83 10000 1 210 08:57 07.11.2019
4842 Clouds 3 1003 83 10000 1 210 08:57 07.11.2019
4843 Clouds 3 1003 83 10000 1.5 280 08:38 07.11.2019
4844 Clouds 3 1003 90 10000 1.5 280 08:19 07.11.2019
4845 Clouds 2 1003 100 10000 2.6 100 07:42 07.11.2019
4846 Clouds 2 1003 100 10000 2.6 100 07:22 07.11.2019
4847 Clouds 2 1004 100 10000 1.5 140 07:00 07.11.2019
4848 -273 0 0 0 0 0 06:40 07.11.2019
4849 -273 0 0 0 0 0 06:40 07.11.2019
4850 Clouds 2 1004 90 10000 1.5 130 06:21 07.11.2019
4851 Clouds 2 1004 90 10000 1.5 130 06:21 07.11.2019
4852 Clouds 2 1004 100 10000 1 0 05:47 07.11.2019
4853 Clouds 2 1004 100 10000 1 0 05:29 07.11.2019
4854 Fog 3 1004 92 9000 1 0 04:49 07.11.2019
4855 Clouds 3 1005 92 10000 1 110 03:32 07.11.2019
4856 Clouds 4 1006 100 10000 2.1 100 01:18 07.11.2019
4857 Clouds 4 1006 86 10000 2.6 100 00:23 07.11.2019
4858 Clouds 4 1006 86 10000 2.6 100 00:23 07.11.2019
4859 Clouds 5 1007 93 10000 1.5 170 23:48 06.11.2019
4860 Clouds 5 1007 93 10000 1 0 23:23 06.11.2019
4861 Clouds 5 1007 93 10000 1 0 23:23 06.11.2019
4862 Clouds 5 1007 93 10000 1.5 130 22:58 06.11.2019
4863 Clouds 5 1007 93 10000 1.5 110 22:39 06.11.2019
4864 Clouds 5 1007 93 10000 1.5 110 22:19 06.11.2019
4865 Clouds 5 1007 86 10000 1.5 0 21:57 06.11.2019
4866 Clouds 5 1007 93 10000 2.1 120 21:38 06.11.2019
4867 Clouds 5 1007 93 10000 2.1 120 21:19 06.11.2019
4868 Clouds 5 1007 93 10000 0.5 0 20:55 06.11.2019
4869 Clouds 5 1007 93 10000 0.5 0 20:36 06.11.2019
4870 Clouds 5 1007 93 10000 0.5 0 20:18 06.11.2019
4871 Clouds 6 1007 86 10000 1 0 19:40 06.11.2019
4872 Clouds 6 1007 86 10000 1 0 19:22 06.11.2019
4873 Clouds 6 1007 86 10000 1 0 18:59 06.11.2019
4874 Clouds 6 1007 86 10000 1 0 18:39 06.11.2019
4875 Clouds 6 1007 70 10000 1 0 18:19 06.11.2019
4876 Clouds 7 1007 70 10000 1 0 17:59 06.11.2019
4877 Clouds 7 1007 65 10000 1.5 250 17:40 06.11.2019
4878 Clouds 8 1007 61 10000 1.5 0 17:21 06.11.2019
4879 Clouds 8 1006 61 10000 1.5 250 16:56 06.11.2019
4880 Clouds 8 1006 61 10000 1.5 250 16:38 06.11.2019
4881 Clouds 9 1006 66 10000 2.6 270 16:19 06.11.2019
4882 Clouds 8 1006 66 10000 2.6 270 15:56 06.11.2019
4883 Clouds 8 1006 70 10000 2.1 260 15:37 06.11.2019
4884 Clouds 9 1006 71 10000 2.1 260 15:19 06.11.2019
4885 Clouds 9 1006 71 10000 2.1 260 14:56 06.11.2019
4886 Clouds 9 1006 70 10000 3.1 270 14:38 06.11.2019
4887 Clouds 9 1006 70 10000 4.1 260 14:20 06.11.2019
4888 Clouds 9 1006 66 10000 4.6 270 13:41 06.11.2019
4889 Clouds 9 1006 71 10000 4.1 270 13:22 06.11.2019
4890 Clouds 9 1006 71 10000 4.1 270 12:58 06.11.2019
4891 Clouds 9 1006 70 10000 3.6 280 12:40 06.11.2019
4892 Clouds 9 1006 70 10000 3.1 280 12:21 06.11.2019
4893 Clouds 8 1006 70 10000 3.1 280 11:58 06.11.2019
4894 Clouds 8 1006 76 10000 1.5 0 11:38 06.11.2019
4895 Clouds 8 1006 81 10000 1.5 180 11:19 06.11.2019
4896 Clouds 8 1006 81 10000 1.5 180 10:57 06.11.2019
4897 Clouds 8 1006 76 10000 1 0 10:39 06.11.2019
4898 Clouds 7 1006 87 10000 2.1 100 10:20 06.11.2019
4899 Clouds 7 1006 87 10000 2.1 100 10:20 06.11.2019
4900 Clouds 7 1006 87 10000 2.1 100 09:56 06.11.2019
4901 Clouds 7 1006 87 10000 2.1 140 09:36 06.11.2019
4902 Clouds 7 1005 93 10000 2.1 230 09:18 06.11.2019
4903 Clouds 7 1005 100 10000 0.5 0 08:54 06.11.2019
4904 Clouds 7 1005 100 10000 0.5 0 08:36 06.11.2019
4905 Clouds 7 1005 100 10000 0.5 0 08:36 06.11.2019
4906 Clouds 6 1005 93 10000 0.5 0 08:18 06.11.2019
4907 Clouds 6 1004 93 10000 1.5 80 07:40 06.11.2019
4908 Clouds 6 1004 93 10000 1 0 07:22 06.11.2019
4909 Rain 6 1003 81 10000 1 0 06:47 06.11.2019
4910 Rain 6 1003 81 10000 1 0 06:27 06.11.2019
4911 Rain 7 1003 93 10000 0.5 0 04:52 06.11.2019
4912 Drizzle 6 1002 100 10000 1 190 02:28 06.11.2019
4913 Clouds 7 1002 93 10000 1 0 01:38 06.11.2019
4914 Rain 7 1002 87 10000 1 0 00:46 06.11.2019
4915 Drizzle 7 1001 87 10000 2.1 0 23:58 05.11.2019
4916 Drizzle 7 1001 87 10000 4.6 270 23:39 05.11.2019
4917 Drizzle 7 1001 87 10000 4.6 270 23:39 05.11.2019
4918 Drizzle 7 1001 87 10000 4.6 270 23:39 05.11.2019
4919 Rain 7 1001 93 10000 1 0 23:21 05.11.2019
4920 Rain 7 1001 93 10000 1 0 23:21 05.11.2019
4921 Drizzle 7 1001 87 10000 1.5 20 22:46 05.11.2019
4922 Drizzle 7 1001 93 10000 1.5 340 22:20 05.11.2019
4923 Drizzle 7 1001 93 10000 1.5 340 21:59 05.11.2019
4924 Drizzle 7 1001 93 10000 1.5 340 21:59 05.11.2019
4925 Drizzle 7 1000 81 10000 2.6 300 21:41 05.11.2019
4926 Rain 7 1000 93 10000 1.5 0 21:21 05.11.2019
4927 Clouds 7 1000 93 10000 0.5 0 20:58 05.11.2019
4928 Clouds 7 1000 93 10000 0.5 0 20:38 05.11.2019
4929 Clouds 7 1000 100 10000 1 0 20:20 05.11.2019
4930 Clouds 7 1000 100 10000 1 0 19:57 05.11.2019
4931 Clouds 8 999 87 10000 1 0 19:38 05.11.2019
4932 Clouds 8 999 87 10000 1 0 19:20 05.11.2019
4933 Clouds 8 999 87 10000 1 0 18:57 05.11.2019
4934 Rain 8 999 81 10000 3.1 250 18:38 05.11.2019
4935 Rain 8 999 87 10000 1.5 320 18:20 05.11.2019
4936 Rain 8 999 87 10000 1.5 320 17:57 05.11.2019
4937 Rain 9 998 76 10000 1.5 320 17:38 05.11.2019
4938 Rain 9 998 76 10000 1.5 320 17:38 05.11.2019
4939 Clouds 9 998 81 10000 2.6 330 17:18 05.11.2019
4940 Rain 10 998 71 10000 2.1 300 16:42 05.11.2019
4941 Rain 10 998 71 10000 3.6 300 16:22 05.11.2019
4942 Rain 10 998 71 10000 3.6 300 15:59 05.11.2019
4943 Clouds 10 998 76 10000 3.6 310 15:37 05.11.2019
4944 Clouds 10 998 76 10000 3.6 310 15:37 05.11.2019
4945 Clouds 11 998 66 10000 5.1 300 15:19 05.11.2019
4946 Clouds 11 998 54 10000 4.6 260 14:57 05.11.2019
4947 Clouds 11 998 54 10000 4.6 260 14:38 05.11.2019
4948 Clouds 12 998 58 10000 4.6 260 14:19 05.11.2019
4949 Clouds 12 998 58 10000 4.1 270 13:43 05.11.2019
4950 Clouds 12 998 58 10000 3.1 260 13:24 05.11.2019
4951 Clouds 12 998 58 10000 3.1 260 12:59 05.11.2019
4952 Clouds 12 998 58 10000 5.1 270 12:39 05.11.2019
4953 Clouds 12 998 62 10000 3.6 260 12:18 05.11.2019
4954 Clouds 11 999 71 10000 1 0 11:40 05.11.2019
4955 Clouds 10 999 76 10000 1 110 11:21 05.11.2019
4956 Clouds 10 999 76 10000 1 110 10:59 05.11.2019
4957 Clouds 10 999 81 10000 2.1 130 10:41 05.11.2019
4958 Clouds 10 999 76 10000 2.1 140 10:22 05.11.2019
4959 Clouds 9 999 81 10000 1 0 09:56 05.11.2019
4960 Clouds 9 999 81 10000 1 0 09:37 05.11.2019
4961 Clouds 8 999 87 10000 2.1 170 09:18 05.11.2019
4962 Clouds 7 999 93 10000 1.5 80 08:40 05.11.2019
4963 Clouds 7 999 93 10000 1.5 0 08:20 05.11.2019
4964 Clouds 6 999 93 10000 1.5 0 07:59 05.11.2019
4965 Clouds 6 998 93 10000 1.5 0 07:40 05.11.2019
4966 Clouds 6 998 93 10000 1.5 40 07:22 05.11.2019
4967 Clouds 6 998 87 10000 1 320 06:50 05.11.2019
4968 Clouds 7 998 81 10000 2.6 290 05:51 05.11.2019
4969 Clouds 7 998 76 10000 3.1 280 05:24 05.11.2019
4970 Drizzle 7 998 76 10000 3.6 260 04:47 05.11.2019
4971 Rain 8 999 81 10000 2.1 240 03:56 05.11.2019
4972 Clouds 8 999 76 10000 1.5 0 02:55 05.11.2019
4973 Clouds 8 999 76 10000 1.5 0 02:29 05.11.2019
4974 Clouds 8 1000 71 10000 6.2 270 01:26 05.11.2019
4975 Clouds 9 999 87 10000 3.6 260 00:38 05.11.2019
4976 Rain 9 999 87 10000 3.1 290 23:59 04.11.2019
4977 Rain 9 999 76 10000 3.1 170 23:38 04.11.2019
4978 Rain 9 998 81 10000 2.1 130 23:18 04.11.2019
4979 Clouds 9 998 81 10000 2.1 130 23:18 04.11.2019
4980 Clouds 9 998 81 10000 2.1 130 23:18 04.11.2019
4981 Clouds 10 999 66 10000 4.1 170 22:43 04.11.2019
4982 Rain 10 999 71 10000 5.1 210 22:24 04.11.2019
4983 Rain 10 999 71 10000 5.1 210 21:57 04.11.2019
4984 Rain 10 999 71 10000 7.2 210 21:38 04.11.2019
4985 Rain 10 998 66 10000 5.7 190 21:19 04.11.2019
4986 Rain 10 998 66 10000 5.7 190 20:59 04.11.2019
4987 Rain 10 998 71 10000 1.5 0 20:40 04.11.2019
4988 Rain 10 998 76 10000 2.6 300 20:21 04.11.2019
4989 Rain 10 998 76 10000 2.6 300 20:21 04.11.2019
4990 Rain 10 998 76 10000 2.6 300 19:59 04.11.2019
4991 Clouds 10 997 76 10000 4.6 310 19:41 04.11.2019
4992 Clouds 10 997 76 10000 1.5 290 19:22 04.11.2019
4993 Clouds 10 997 76 10000 1.5 290 18:57 04.11.2019
4994 Clouds 10 997 71 10000 4.6 290 18:39 04.11.2019
4995 Clouds 10 997 81 10000 5.7 230 18:19 04.11.2019
4996 Clouds 11 996 87 10000 3.6 250 17:55 04.11.2019
4997 Clouds 11 996 87 10000 3.6 250 17:55 04.11.2019
4998 Clouds 11 996 87 10000 3.6 250 17:36 04.11.2019
4999 Drizzle 11 996 87 10000 5.1 250 17:18 04.11.2019
5000 Rain 12 996 54 10000 4.1 220 16:41 04.11.2019
5001 Clouds 12 996 76 10000 8.2 240 16:23 04.11.2019
5002 Clouds 12 996 87 10000 6.2 250 15:57 04.11.2019
5003 Clouds 12 996 87 10000 6.2 250 15:39 04.11.2019
5004 Clouds 12 996 93 10000 2.6 240 15:19 04.11.2019
5005 Clouds 12 996 93 10000 2.6 240 14:57 04.11.2019
5006 Rain 12 996 93 10000 4.1 250 14:39 04.11.2019
5007 Clouds 12 996 58 10000 4.1 210 14:19 04.11.2019
5008 Clouds 11 996 58 10000 4.1 210 13:56 04.11.2019
5009 Clouds 11 996 81 10000 2.6 70 13:38 04.11.2019
5010 Clouds 11 996 87 10000 3.6 160 13:19 04.11.2019
5011 Clouds 11 996 93 10000 1.5 130 12:44 04.11.2019
5012 Rain 11 996 81 10000 1 260 12:25 04.11.2019
5013 Rain 10 996 81 10000 1 260 11:58 04.11.2019
5014 Rain 10 996 81 10000 1 100 11:40 04.11.2019
5015 Rain 10 996 81 10000 1 0 11:21 04.11.2019
5016 Clouds 10 996 76 10000 1 0 10:45 04.11.2019
5017 Clouds 10 996 81 10000 4.1 230 10:26 04.11.2019
5018 Clouds 9 996 87 10000 2.6 100 09:56 04.11.2019
5019 Clouds 9 997 93 10000 1.5 230 09:38 04.11.2019
5020 Clouds 8 997 100 10000 1 0 09:19 04.11.2019
5021 Clouds 8 997 100 10000 1 0 09:19 04.11.2019
5022 Rain 8 997 93 10000 1.5 0 08:42 04.11.2019
5023 Clouds 8 997 93 10000 1 0 08:21 04.11.2019
5024 Clouds 8 996 93 10000 3.6 120 07:49 04.11.2019
5025 Clouds 7 996 93 10000 2.6 100 07:25 04.11.2019
5026 Clouds 7 997 93 10000 3.1 120 06:59 04.11.2019
5027 Clouds 7 997 93 10000 3.1 120 06:40 04.11.2019
5028 Clouds 7 997 93 10000 1 0 06:18 04.11.2019
5029 Clouds 7 997 100 10000 2.6 270 05:30 04.11.2019
5030 Rain 8 996 93 10000 1.5 0 04:26 04.11.2019
5031 Clouds 8 997 93 10000 0.5 0 03:29 04.11.2019
5032 Clouds 8 997 66 10000 1 0 01:24 04.11.2019
5033 Clouds 8 997 76 10000 3.1 190 00:54 04.11.2019
5034 Clouds 8 997 70 10000 2.1 220 00:22 04.11.2019
5035 Clouds 8 997 70 10000 2.1 220 23:58 03.11.2019
5036 Clouds 8 997 76 10000 2.1 230 23:37 03.11.2019
5037 Rain 8 997 76 10000 2.1 0 23:18 03.11.2019
5038 Rain 8 997 76 10000 2.1 0 23:18 03.11.2019
5039 Rain 8 997 76 10000 2.1 0 23:18 03.11.2019
5040 Rain 9 997 87 10000 1.5 0 22:56 03.11.2019
5041 Rain 8 997 87 10000 1.5 0 22:38 03.11.2019
5042 Rain 9 997 76 10000 2.6 260 22:18 03.11.2019
5043 Rain 9 997 81 10000 4.1 250 21:42 03.11.2019
5044 Rain 9 996 81 10000 7.2 230 21:21 03.11.2019
5045 Rain 9 996 81 10000 7.2 230 20:57 03.11.2019
5046 Rain 9 995 71 10000 5.7 250 20:37 03.11.2019
5047 Clouds 9 994 71 10000 4.6 230 20:19 03.11.2019
5048 Clouds 9 994 71 10000 4.6 230 19:57 03.11.2019
5049 Rain 9 994 76 10000 3.6 220 19:38 03.11.2019
5050 Rain 9 993 71 10000 4.6 250 19:20 03.11.2019
5051 Clouds 9 992 87 10000 1.5 200 18:54 03.11.2019
5052 Clouds 9 992 87 10000 1.5 200 18:36 03.11.2019
5053 Clouds 9 992 87 10000 1.5 200 18:36 03.11.2019
5054 Clouds 9 991 93 10000 1.5 300 18:18 03.11.2019
5055 Clouds 9 990 93 10000 2.1 310 17:42 03.11.2019
5056 Clouds 9 990 93 10000 2.1 320 17:20 03.11.2019
5057 Clouds 10 990 93 10000 1 120 16:56 03.11.2019
5058 Clouds 10 990 93 10000 1 120 16:56 03.11.2019
5059 Clouds 10 990 93 10000 1 120 16:38 03.11.2019
5060 Clouds 10 990 87 10000 2.6 340 16:20 03.11.2019
5061 Clouds 10 990 87 10000 2.6 340 15:57 03.11.2019
5062 Clouds 10 990 87 10000 2.1 30 15:39 03.11.2019
5063 Clouds 10 989 76 10000 4.1 290 15:21 03.11.2019
5064 Rain 10 990 81 10000 4.6 250 14:42 03.11.2019
5065 Rain 11 990 93 3000 7.7 270 14:19 03.11.2019
5066 Rain 11 990 93 3000 7.7 270 13:58 03.11.2019
5067 Clouds 11 987 87 10000 2.1 110 13:40 03.11.2019
5068 Clouds 11 987 93 10000 2.1 130 13:18 03.11.2019
5069 Rain 11 988 87 10000 1.5 130 12:39 03.11.2019
5070 Rain 11 988 93 10000 1 0 12:20 03.11.2019
5071 Rain 11 988 93 10000 1 0 11:58 03.11.2019
5072 Rain 11 989 93 10000 1 130 11:40 03.11.2019
5073 Rain 11 989 87 10000 1 120 11:20 03.11.2019
5074 Rain 11 989 87 10000 1 120 11:20 03.11.2019
5075 Rain 10 989 93 10000 0.61 301 10:54 03.11.2019
5076 Rain 10 989 93 10000 0.61 301 10:54 03.11.2019
5077 Rain 10 989 93 10000 0.61 301 10:36 03.11.2019
5078 Rain 10 989 93 10000 0.61 301 10:36 03.11.2019
5079 Rain 10 989 93 10000 0.61 301 10:18 03.11.2019
5080 Clouds 10 989 100 10000 1.5 0 09:42 03.11.2019
5081 Clouds 10 990 100 10000 1 0 09:23 03.11.2019
5082 Clouds 9 990 100 10000 1 140 08:55 03.11.2019
5083 Clouds 9 990 100 10000 1 140 08:36 03.11.2019
5084 Rain 9 990 100 10000 0.5 0 08:18 03.11.2019
5085 Rain 9 990 100 10000 0.5 0 07:43 03.11.2019
5086 Rain 9 991 100 10000 1.5 320 07:18 03.11.2019
5087 Drizzle 9 991 100 10000 1.5 300 06:39 03.11.2019
5088 Rain 9 991 100 10000 2.1 320 05:41 03.11.2019
5089 Drizzle 9 992 100 10000 1 0 05:19 03.11.2019
5090 Rain 10 992 100 10000 1.5 140 04:48 03.11.2019
5091 Clouds 10 994 93 10000 1 340 03:50 03.11.2019
5092 Rain 10 995 93 10000 1 0 02:46 03.11.2019
5093 Rain 10 996 87 10000 1 0 02:21 03.11.2019
5094 Rain 11 996 76 10000 1.5 0 01:44 03.11.2019
5095 Rain 11 997 71 10000 2.1 270 01:22 03.11.2019
5096 Rain 11 997 66 10000 5.7 260 00:46 03.11.2019
5097 Rain 11 997 66 10000 5.7 260 00:28 03.11.2019
5098 Drizzle 11 996 66 10000 12.3 250 23:59 02.11.2019
5099 Clouds 11 997 66 10000 9.3 250 23:39 02.11.2019
5100 Clouds 11 996 66 10000 8.2 260 23:20 02.11.2019
5101 Clouds 12 996 66 10000 8.2 260 22:56 02.11.2019
5102 Clouds 12 996 62 10000 10.8 260 22:38 02.11.2019
5103 Clouds 12 997 54 10000 9.3 260 22:19 02.11.2019
5104 Clouds 12 997 54 10000 9.3 260 22:19 02.11.2019
5105 Clouds 12 997 54 10000 9.3 260 21:57 02.11.2019
5106 Drizzle 12 998 87 10000 3.6 240 21:38 02.11.2019
5107 Clouds 12 998 87 10000 1.5 0 21:18 02.11.2019
5108 Clouds 12 998 87 10000 1.5 0 21:18 02.11.2019
5109 Clouds 12 998 87 10000 1.5 0 21:18 02.11.2019
5110 Clouds 12 998 87 10000 1.5 0 21:18 02.11.2019
5111 Clouds 12 998 87 10000 1.5 0 20:59 02.11.2019
5112 Rain 12 998 93 10000 1 0 20:40 02.11.2019
5113 Clouds 12 998 87 10000 2.6 120 20:20 02.11.2019
5114 Clouds 13 998 76 10000 0.5 0 19:55 02.11.2019
5115 Clouds 13 998 76 10000 0.5 0 19:36 02.11.2019
5116 Clouds 13 998 67 10000 1 0 19:18 02.11.2019
5117 Clouds 13 999 67 10000 3.6 260 18:43 02.11.2019
5118 Rain 13 998 67 10000 7.7 260 18:24 02.11.2019
5119 Rain 13 998 67 10000 7.7 260 17:59 02.11.2019
5120 Clouds 13 998 71 10000 6.2 280 17:40 02.11.2019
5121 Clouds 14 998 67 10000 6.2 280 17:22 02.11.2019
5122 Clouds 14 998 67 10000 6.2 280 16:58 02.11.2019
5123 Clouds 14 998 63 10000 5.7 280 16:39 02.11.2019
5124 Clouds 14 999 63 10000 4.1 280 16:20 02.11.2019
5125 Clouds 15 999 67 10000 6.2 270 15:42 02.11.2019
5126 Clouds 15 999 63 10000 6.7 250 15:20 02.11.2019
5127 Clouds 15 999 63 10000 6.7 250 14:57 02.11.2019
5128 Clouds 15 1000 67 10000 3.6 290 14:39 02.11.2019
5129 Clouds 15 1000 77 10000 3.6 260 14:20 02.11.2019
5130 Clouds 15 1000 77 10000 3.6 290 13:40 02.11.2019
5131 Clouds 15 1001 72 10000 2.1 320 13:20 02.11.2019
5132 Clouds 15 1001 87 10000 1.5 330 12:57 02.11.2019
5133 Clouds 15 1001 87 10000 1.5 330 12:38 02.11.2019
5134 Clouds 15 1002 77 10000 3 243 12:19 02.11.2019
5135 Clouds 14 1002 82 10000 1.5 150 11:42 02.11.2019
5136 Clouds 14 1002 93 10000 1.5 150 11:24 02.11.2019
5137 Clouds 14 1002 93 10000 1.5 150 10:57 02.11.2019
5138 Clouds 13 1002 93 10000 1 0 10:39 02.11.2019
5139 Clouds 13 1002 93 10000 1 0 10:18 02.11.2019
5140 Clouds 13 1002 93 10000 1 0 10:18 02.11.2019
5141 Clouds 13 1002 93 10000 1.33 186 09:42 02.11.2019
5142 Clouds 12 1002 100 10000 2.1 90 09:22 02.11.2019
5143 Clouds 12 1002 100 5000 2.1 120 08:51 02.11.2019
5144 Clouds 11 1002 100 8000 1.5 210 08:24 02.11.2019
5145 Rain 11 1002 100 8000 1.5 210 07:57 02.11.2019
5146 Rain 11 1002 100 8000 1.5 210 07:57 02.11.2019
5147 Rain 11 1002 100 5000 0.5 0 07:39 02.11.2019
5148 Rain 11 1002 100 5000 0.5 0 07:20 02.11.2019
5149 Clouds 11 1002 100 5000 0.5 0 06:46 02.11.2019
5150 Clouds 11 1003 100 5000 1 0 06:21 02.11.2019
5151 Rain 11 1003 100 4400 1 0 05:38 02.11.2019
5152 Rain 11 1004 93 10000 2.1 100 04:24 02.11.2019
5153 Clouds 11 1004 100 7000 2.1 110 03:51 02.11.2019
5154 Rain 11 1004 100 7000 2.1 110 03:28 02.11.2019
5155 Rain 11 1005 100 3900 1.5 0 01:57 02.11.2019
5156 Rain 11 1005 100 6000 1.5 240 01:27 02.11.2019
5157 Drizzle 11 1005 100 7000 0.5 0 00:55 02.11.2019
5158 Drizzle 11 1005 100 7000 0.5 0 00:29 02.11.2019
5159 Clouds 11 1006 93 10000 1.5 50 23:55 01.11.2019
5160 Rain 11 1006 93 10000 1.5 50 23:37 01.11.2019
5161 Rain 11 1006 93 10000 1.5 50 23:37 01.11.2019
5162 Rain 11 1006 93 6000 4.1 120 23:18 01.11.2019
5163 Rain 11 1007 100 5000 1.5 120 22:41 01.11.2019
5164 Rain 11 1007 100 5000 1.5 120 22:41 01.11.2019
5165 Rain 11 1007 93 5000 1 0 22:20 01.11.2019
5166 Clouds 11 1007 100 6000 0.5 0 21:42 01.11.2019
5167 Clouds 11 1007 93 10000 1.5 0 21:24 01.11.2019
5168 Clouds 11 1007 93 10000 1.5 0 20:59 01.11.2019
5169 Clouds 11 1007 100 10000 1 220 20:41 01.11.2019
5170 Clouds 11 1008 100 9000 0.88 230 20:21 01.11.2019
5171 Clouds 11 1008 100 9000 0.88 230 19:58 01.11.2019
5172 Clouds 11 1008 100 10000 1.5 130 19:40 01.11.2019
5173 Clouds 11 1009 100 10000 1 0 19:21 01.11.2019
5174 Clouds 11 1009 100 10000 1 0 18:41 01.11.2019
5175 Clouds 11 1009 93 10000 1.5 0 18:21 01.11.2019
5176 Clouds 11 1009 93 10000 1.5 0 17:57 01.11.2019
5177 Clouds 11 1009 93 10000 1 140 17:39 01.11.2019
5178 Rain 11 1009 93 9000 1 0 17:20 01.11.2019
5179 Clouds 12 1009 93 10000 1.5 0 16:40 01.11.2019
5180 Clouds 12 1010 93 10000 1.5 160 16:20 01.11.2019
5181 Clouds 12 1010 93 10000 1.5 160 15:56 01.11.2019
5182 Clouds 12 1010 93 10000 1.5 110 15:38 01.11.2019
5183 Rain 12 1011 93 10000 0.5 0 15:19 01.11.2019
5184 Rain 12 1011 100 9000 1.5 0 14:43 01.11.2019
5185 Rain 12 1012 82 10000 1.5 0 14:24 01.11.2019
5186 Rain 12 1012 82 10000 1.5 0 13:58 01.11.2019
5187 Clouds 12 1012 87 10000 1.5 130 13:39 01.11.2019
5188 Clouds 12 1013 82 10000 2.1 110 13:21 01.11.2019
5189 Clouds 12 1013 82 10000 2.1 130 12:44 01.11.2019
5190 Clouds 12 1014 82 10000 2.6 150 12:26 01.11.2019
5191 Clouds 12 1014 82 10000 2.6 150 11:59 01.11.2019
5192 Clouds 12 1014 87 10000 2.6 130 11:40 01.11.2019
5193 Clouds 11 1014 87 10000 2.1 130 11:22 01.11.2019
5194 Clouds 11 1015 87 10000 2.1 120 10:42 01.11.2019
5195 Clouds 11 1015 87 10000 2.1 120 10:42 01.11.2019
5196 Clouds 10 1015 93 10000 3.6 160 10:22 01.11.2019
5197 Clouds 10 1015 93 10000 3.6 160 09:57 01.11.2019
5198 Clouds 10 1015 100 4000 2.6 130 09:39 01.11.2019
5199 Clouds 10 1015 100 4000 1.5 120 09:20 01.11.2019
5200 Mist 9 1016 100 3000 1 160 08:44 01.11.2019
5201 Mist 9 1016 93 3500 1.34 183 08:22 01.11.2019
5202 Rain 9 1016 100 3300 0.5 290 07:56 01.11.2019
5203 Rain 9 1016 100 3300 0.5 290 07:37 01.11.2019
5204 Rain 9 1015 93 4500 0.5 280 07:19 01.11.2019
5205 Mist 9 1015 93 4800 0.5 0 06:41 01.11.2019
5206 Mist 9 1016 93 4900 1.34 183 06:22 01.11.2019
5207 Clouds 9 1016 100 5000 0.5 0 05:43 01.11.2019
5208 Clouds 9 1017 100 8000 1 290 03:57 01.11.2019
5209 Clouds 9 1017 93 10000 0.5 0 02:49 01.11.2019
5210 Clouds 9 1018 93 7000 2.1 310 01:31 01.11.2019
5211 Clouds 9 1018 100 6000 0.5 0 00:40 01.11.2019
5212 Clouds 9 1018 100 7000 1.5 300 00:18 01.11.2019
5213 Clouds 9 1018 100 5000 1.5 290 23:43 31.10.2019
5214 Clouds 9 1018 100 7000 0.5 0 23:23 31.10.2019
5215 Clouds 9 1019 93 8000 0.5 280 22:55 31.10.2019
5216 Clouds 9 1019 93 8000 0.5 280 22:37 31.10.2019
5217 Clouds 9 1019 100 6000 1.5 280 22:18 31.10.2019
5218 Clouds 9 1019 100 6000 1 270 21:42 31.10.2019
5219 Clouds 9 1019 100 5000 0.5 0 21:20 31.10.2019
5220 Clouds 9 1019 100 5000 0.5 0 20:57 31.10.2019
5221 Clouds 9 1019 100 6000 1 310 20:39 31.10.2019
5222 Clouds 9 1019 100 8000 1.5 310 20:20 31.10.2019
5223 Clouds 9 1019 100 9000 1.5 330 19:41 31.10.2019
5224 Clouds 9 1019 93 10000 1.5 290 19:22 31.10.2019
5225 Clouds 9 1019 87 10000 1.5 280 18:56 31.10.2019
5226 Clouds 9 1019 87 10000 1.5 280 18:38 31.10.2019
5227 Clouds 9 1018 93 8000 2.1 300 18:19 31.10.2019
5228 Clouds 9 1018 87 7000 2.1 310 17:41 31.10.2019
5229 Clouds 9 1018 87 7000 2.1 320 17:22 31.10.2019
5230 Clouds 9 1018 87 7000 2.1 320 16:58 31.10.2019
5231 Clouds 9 1018 87 8000 2.6 320 16:40 31.10.2019
5232 Clouds 9 1018 87 8000 2.6 320 16:40 31.10.2019
5233 Clouds 9 1018 87 8000 2.1 310 16:20 31.10.2019
5234 Clouds 9 1018 87 7000 2.1 310 15:54 31.10.2019
5235 Clouds 9 1018 87 7000 2.1 310 15:36 31.10.2019
5236 Clouds 9 1018 93 7000 2.6 300 15:18 31.10.2019
5237 Clouds 10 1018 87 7000 2.1 300 14:41 31.10.2019
5238 Clouds 10 1018 87 6000 3.1 300 14:23 31.10.2019
5239 Clouds 10 1018 87 6000 3.1 300 13:59 31.10.2019
5240 Clouds 10 1018 87 6000 2.6 300 13:40 31.10.2019
5241 Clouds 10 1018 87 6000 2.1 310 13:20 31.10.2019
5242 Clouds 9 1018 87 6000 2.1 300 12:58 31.10.2019
5243 Clouds 10 1018 87 6000 2.1 300 12:40 31.10.2019
5244 Clouds 9 1019 93 4000 2.1 290 12:22 31.10.2019
5245 Clouds 9 1019 93 4000 2.1 290 11:47 31.10.2019
5246 Mist 9 1019 93 4000 1.5 310 11:21 31.10.2019
5247 Mist 8 1019 93 4000 1.5 310 10:59 31.10.2019
5248 Clouds 8 1019 93 3500 2.1 290 10:40 31.10.2019
5249 Clouds 8 1019 93 3500 2.6 290 10:21 31.10.2019
5250 Clouds 8 1019 93 3500 2.6 290 09:56 31.10.2019
5251 Clouds 8 1019 100 3000 2.6 290 09:38 31.10.2019
5252 Mist 7 1019 100 3000 2.6 300 09:18 31.10.2019
5253 Mist 7 1019 100 2000 1.5 280 08:46 31.10.2019
5254 Mist 7 1019 100 2000 1.5 280 08:46 31.10.2019
5255 Mist 7 1019 100 2000 1.5 280 08:26 31.10.2019
5256 Mist 7 1019 100 2000 2.1 300 07:48 31.10.2019
5257 Mist 7 1019 100 2000 2.1 300 07:28 31.10.2019
5258 Mist 7 1019 100 3900 2.1 300 06:55 31.10.2019
5259 Mist 7 1019 100 3900 2.1 300 06:32 31.10.2019
5260 Clouds 7 1019 100 5000 1.5 310 05:32 31.10.2019
5261 Mist 7 1020 100 2600 1.5 290 03:21 31.10.2019
5262 Mist 7 1020 100 2900 2.6 290 02:30 31.10.2019
5263 Mist 7 1020 100 2300 2.6 290 01:25 31.10.2019
5264 Rain 7 1020 100 2600 3.1 300 00:34 31.10.2019
5265 Drizzle 7 1020 93 1300 2.6 300 23:53 30.10.2019
5266 Mist 8 1020 93 2000 2.1 310 23:27 30.10.2019
5267 Mist 8 1021 93 3400 2.1 320 22:43 30.10.2019
5268 Mist 8 1021 93 3700 2.6 310 22:21 30.10.2019
5269 Mist 8 1021 93 2000 2.1 300 21:55 30.10.2019
5270 Mist 8 1021 93 2000 2.1 300 21:37 30.10.2019
5271 Mist 8 1021 93 1900 2.6 300 21:18 30.10.2019
5272 Mist 8 1021 93 3700 2.6 320 20:58 30.10.2019
5273 Mist 8 1021 93 3700 2.6 320 20:39 30.10.2019
5274 Clouds 8 1021 93 6000 2.6 290 20:21 30.10.2019
5275 Clouds 8 1021 93 6000 2.6 290 19:57 30.10.2019
5276 Clouds 8 1021 93 6000 2.6 290 19:57 30.10.2019
5277 Clouds 8 1021 100 5000 2.6 290 19:38 30.10.2019
5278 Mist 8 1021 93 4000 2.6 290 19:19 30.10.2019
5279 Mist 8 1021 100 3500 2.6 310 18:39 30.10.2019
5280 Mist 8 1021 100 3500 3.1 320 18:20 30.10.2019
5281 Mist 8 1021 100 3500 3.1 320 17:58 30.10.2019
5282 Mist 8 1021 100 4000 3.1 310 17:40 30.10.2019
5283 Mist 8 1020 93 4500 3.1 300 17:19 30.10.2019
5284 Clouds 8 1020 93 9000 3.1 300 16:55 30.10.2019
5285 Clouds 8 1020 93 9000 3.1 300 16:37 30.10.2019
5286 Mist 8 1020 93 4500 2.1 300 16:19 30.10.2019
5287 Mist 8 1020 93 4500 2.1 300 16:19 30.10.2019
5288 Mist 8 1020 93 4500 2.1 300 15:56 30.10.2019
5289 Mist 8 1020 93 4500 2.1 300 15:37 30.10.2019
5290 Mist 8 1021 93 5000 3.1 290 15:19 30.10.2019
5291 Drizzle 9 1020 93 10000 2.1 300 14:42 30.10.2019
5292 Mist 8 1021 93 4000 3.1 320 14:22 30.10.2019
5293 Mist 8 1021 93 4000 3.1 320 14:22 30.10.2019
5294 Rain 8 1021 93 4000 3.1 320 13:58 30.10.2019
5295 Rain 8 1021 93 3000 2.6 290 13:40 30.10.2019
5296 Mist 8 1021 100 3000 3.1 310 13:20 30.10.2019
5297 Mist 8 1021 100 3000 3.1 310 12:57 30.10.2019
5298 Mist 8 1021 93 2000 3.1 290 12:39 30.10.2019
5299 Mist 8 1022 93 2800 3.6 290 12:21 30.10.2019
5300 Mist 8 1022 93 3000 2.6 290 11:42 30.10.2019
5301 Mist 8 1022 93 3000 2.1 290 11:23 30.10.2019
5302 Clouds 8 1022 93 7000 2.6 290 10:46 30.10.2019
5303 Clouds 8 1022 93 7000 2.6 290 10:27 30.10.2019
5304 Mist 8 1022 93 3500 3.1 280 09:59 30.10.2019
5305 Mist 7 1022 100 4000 2.6 300 09:40 30.10.2019
5306 Mist 7 1022 100 3000 3.1 310 09:22 30.10.2019
5307 Mist 7 1022 93 3500 1.5 280 08:42 30.10.2019
5308 Drizzle 7 1022 93 3500 2.6 290 08:23 30.10.2019
5309 Drizzle 7 1022 93 3500 2.6 290 07:59 30.10.2019
5310 Rain 7 1021 93 7000 3.1 310 07:39 30.10.2019
5311 Rain 7 1021 93 4500 2.6 310 06:46 30.10.2019
5312 Rain 7 1021 93 4500 2.6 310 06:27 30.10.2019
5313 Mist 7 1021 93 2400 3.6 290 05:55 30.10.2019
5314 Mist 7 1021 93 2400 3.6 290 05:37 30.10.2019
5315 Mist 7 1021 100 3800 3.1 290 03:50 30.10.2019
5316 Mist 7 1021 100 4100 3.1 280 03:21 30.10.2019
5317 Mist 7 1021 100 4200 3.6 300 02:48 30.10.2019
5318 Mist 7 1021 100 4800 3.1 290 01:43 30.10.2019
5319 Mist 7 1021 100 4900 3.1 290 00:37 30.10.2019
5320 Mist 7 1021 100 4500 3.1 290 00:18 30.10.2019
5321 Clouds 8 1021 93 6000 3.1 290 23:39 29.10.2019
5322 Clouds 8 1021 93 7000 3.6 280 23:18 29.10.2019
5323 Clouds 8 1021 100 7000 3.1 280 22:41 29.10.2019
5324 Clouds 8 1021 100 5000 3.1 290 22:19 29.10.2019
5325 Drizzle 8 1021 100 3400 2.1 280 21:55 29.10.2019
5326 Drizzle 8 1021 100 3400 2.1 280 21:36 29.10.2019
5327 Drizzle 8 1021 100 2500 3.1 300 21:18 29.10.2019
5328 Drizzle 8 1021 100 2800 3.1 290 20:42 29.10.2019
5329 Clouds 8 1020 93 8000 2.6 270 20:23 29.10.2019
5330 Drizzle 8 1020 93 7000 3.6 280 19:59 29.10.2019
5331 Drizzle 8 1020 93 7000 3.6 280 19:40 29.10.2019
5332 Rain 9 1020 93 6000 3.6 280 19:21 29.10.2019
5333 Clouds 9 1019 93 10000 3.1 280 18:58 29.10.2019
5334 Rain 9 1020 93 6000 3.6 280 18:58 29.10.2019
5335 Clouds 9 1019 93 10000 3.1 280 18:40 29.10.2019
5336 Clouds 9 1019 100 6000 3.1 280 18:20 29.10.2019
5337 Clouds 9 1019 93 6000 3.6 290 17:57 29.10.2019
5338 Clouds 9 1019 93 6000 3.6 290 17:38 29.10.2019
5339 Clouds 9 1019 93 7000 3.1 300 17:20 29.10.2019
5340 Clouds 9 1019 93 7000 3.1 300 16:57 29.10.2019
5341 Clouds 9 1019 93 7000 2.6 270 16:38 29.10.2019
5342 Clouds 9 1019 93 7000 3.6 290 16:18 29.10.2019
5343 Clouds 10 1018 93 7000 3.1 290 15:42 29.10.2019
5344 Clouds 10 1018 93 7000 3.6 300 15:21 29.10.2019
5345 Clouds 10 1018 93 7000 3.6 300 14:57 29.10.2019
5346 Clouds 10 1018 93 7000 4.1 300 14:39 29.10.2019
5347 Clouds 10 1018 93 7000 2.1 310 14:21 29.10.2019
5348 Clouds 10 1018 93 7000 2.6 300 13:57 29.10.2019
5349 Clouds 10 1018 93 7000 2.6 300 13:37 29.10.2019
5350 Clouds 10 1019 93 7000 3.6 290 13:18 29.10.2019
5351 Clouds 10 1019 93 7000 3.6 300 12:42 29.10.2019
5352 Clouds 9 1019 93 7000 3.6 300 12:24 29.10.2019
5353 Clouds 9 1018 93 10000 2.6 280 11:55 29.10.2019
5354 Clouds 9 1018 93 10000 2.6 280 11:36 29.10.2019
5355 Clouds 9 1018 93 9000 3.1 300 11:18 29.10.2019
5356 Clouds 9 1018 93 9000 3.1 310 10:56 29.10.2019
5357 Clouds 9 1018 93 9000 3.1 310 10:37 29.10.2019
5358 Clouds 9 1018 100 10000 3.1 310 10:19 29.10.2019
5359 Clouds 9 1018 100 10000 3.1 310 09:41 29.10.2019
5360 Clouds 9 1018 100 10000 3.1 310 09:41 29.10.2019
5361 Clouds 9 1018 100 10000 2.6 310 09:23 29.10.2019
5362 Rain 9 1017 100 2900 3.6 310 08:55 29.10.2019
5363 Rain 9 1017 100 2900 3.6 310 08:36 29.10.2019
5364 Rain 9 1017 100 2800 2.6 320 08:18 29.10.2019
5365 Rain 9 1016 100 2500 3.1 310 07:47 29.10.2019
5366 Rain 9 1016 100 2600 3.1 310 07:19 29.10.2019
5367 Drizzle 9 1016 100 5000 3.1 300 06:52 29.10.2019
5368 Drizzle 9 1016 100 5000 3.1 300 06:29 29.10.2019
5369 Rain 9 1016 100 8000 3.1 300 05:53 29.10.2019
5370 Rain 9 1016 100 8000 3.1 300 05:35 29.10.2019
5371 Drizzle 9 1016 100 5000 2.1 310 04:34 29.10.2019
5372 Rain 9 1016 93 8000 2.1 300 02:34 29.10.2019
5373 Rain 10 1016 100 5000 2.6 310 01:55 29.10.2019
5374 Rain 10 1016 100 5000 2.6 310 01:33 29.10.2019
5375 Rain 10 1016 100 3700 2.6 310 00:52 29.10.2019
5376 Rain 10 1016 100 3700 2.6 310 00:52 29.10.2019
5377 Rain 10 1016 100 6000 2.6 310 23:58 28.10.2019
5378 Rain 10 1016 100 6000 2.6 310 23:37 28.10.2019
5379 Rain 10 1017 93 6000 3.1 320 23:19 28.10.2019
5380 Rain 10 1017 100 6000 1.5 290 22:39 28.10.2019
5381 Rain 11 1017 100 5000 1 300 22:20 28.10.2019
5382 Rain 11 1017 100 5000 1 300 21:57 28.10.2019
5383 Rain 11 1017 100 4100 1 320 21:39 28.10.2019
5384 Rain 11 1017 100 1600 0.5 0 21:21 28.10.2019
5385 Rain 11 1017 100 3300 1 110 20:57 28.10.2019
5386 Rain 11 1017 100 3300 1 110 20:39 28.10.2019
5387 Rain 11 1017 100 2900 1 100 20:20 28.10.2019
5388 Rain 11 1017 100 2900 1 100 20:20 28.10.2019
5389 Rain 11 1017 100 1800 0.5 90 19:54 28.10.2019
5390 Rain 11 1017 100 1800 0.5 90 19:36 28.10.2019
5391 Rain 11 1017 93 2500 1 100 19:18 28.10.2019
5392 -273 0 0 0 0 0 18:55 28.10.2019
5393 Rain 11 1017 93 5000 1.5 0 18:37 28.10.2019
5394 Rain 11 1017 93 8000 2.1 110 18:18 28.10.2019
5395 Rain 11 1017 93 6000 2.1 100 17:55 28.10.2019
5396 Rain 12 1017 93 6000 2.1 100 17:36 28.10.2019
5397 Rain 12 1017 93 5000 2.1 140 17:18 28.10.2019
5398 Rain 12 1017 93 6000 2.6 150 16:54 28.10.2019
5399 Rain 12 1017 93 6000 2.6 150 16:36 28.10.2019
5400 Rain 12 1017 87 6000 2.1 150 16:18 28.10.2019
5401 Drizzle 12 1017 87 7000 0.5 0 15:42 28.10.2019
5402 Rain 12 1017 82 7000 1.5 0 15:24 28.10.2019
5403 Rain 12 1017 82 7000 1.5 0 14:59 28.10.2019
5404 Clouds 12 1017 82 8000 2.1 330 14:40 28.10.2019
5405 Clouds 12 1017 82 8000 2.1 310 14:19 28.10.2019
5406 Clouds 13 1017 82 8000 2.1 310 13:59 28.10.2019
5407 Clouds 12 1018 82 7000 2.1 290 13:41 28.10.2019
5408 Clouds 12 1018 82 10000 1.5 290 13:18 28.10.2019
5409 Clouds 13 1019 82 10000 2.1 300 12:43 28.10.2019
5410 Drizzle 13 1019 82 10000 1.5 270 12:22 28.10.2019
5411 Drizzle 13 1019 82 10000 1.5 270 11:59 28.10.2019
5412 Clouds 13 1019 87 10000 1 290 11:37 28.10.2019
5413 Clouds 12 1019 82 10000 1 0 11:19 28.10.2019
5414 Clouds 12 1019 87 10000 0.5 0 10:41 28.10.2019
5415 Clouds 12 1019 93 10000 1 0 10:22 28.10.2019
5416 Clouds 12 1019 93 10000 1 0 09:58 28.10.2019
5417 Clouds 12 1019 100 10000 1 250 09:39 28.10.2019
5418 Clouds 12 1019 100 7000 0.67 49 09:19 28.10.2019
5419 Clouds 12 1019 100 7000 0.67 49 08:57 28.10.2019
5420 Clouds 12 1019 93 6000 1.5 130 08:38 28.10.2019
5421 Rain 11 1019 100 6000 1.5 140 08:19 28.10.2019
5422 Clouds 11 1019 100 10000 0.59 186 07:56 28.10.2019
5423 Clouds 11 1019 100 10000 0.59 186 07:38 28.10.2019
5424 Clouds 11 1019 100 10000 0.59 186 07:19 28.10.2019
5425 Clouds 11 1019 100 9000 0.5 340 06:40 28.10.2019
5426 Drizzle 12 1019 100 10000 1 0 05:47 28.10.2019
5427 Clouds 12 1020 100 6000 1 0 03:49 28.10.2019
5428 Clouds 12 1020 100 7000 1 0 02:54 28.10.2019
5429 Clouds 12 1020 100 7000 1 0 02:34 28.10.2019
5430 Clouds 12 1020 93 10000 0.5 0 00:57 28.10.2019
5431 Clouds 13 1021 93 10000 0.5 0 00:33 28.10.2019
5432 Clouds 13 1021 93 10000 0.5 0 23:47 27.10.2019
5433 Clouds 13 1021 93 10000 2.1 150 23:24 27.10.2019
5434 Clouds 13 1021 93 10000 2.1 150 22:59 27.10.2019
5435 Clouds 13 1021 93 10000 1.5 80 22:40 27.10.2019
5436 Clouds 13 1021 93 10000 1.5 110 22:22 27.10.2019
5437 Clouds 13 1021 93 10000 1.5 110 21:57 27.10.2019
5438 Clouds 13 1021 93 10000 0.5 0 21:39 27.10.2019
5439 Clouds 13 1021 93 10000 0.5 0 21:39 27.10.2019
5440 Clouds 13 1021 93 10000 0.5 0 21:21 27.10.2019
5441 Clouds 13 1021 93 10000 0.5 0 20:57 27.10.2019
5442 Clouds 13 1021 100 10000 1.5 150 20:38 27.10.2019
5443 Clouds 13 1021 93 10000 0.5 0 20:20 27.10.2019
5444 Clouds 13 1021 93 10000 1 90 19:55 27.10.2019
5445 Clouds 13 1021 93 10000 1 90 19:36 27.10.2019
5446 Clouds 13 1021 100 10000 0.5 0 19:18 27.10.2019
5447 Clouds 13 1021 93 10000 1 0 18:55 27.10.2019
5448 Clouds 14 1021 93 10000 1 0 18:36 27.10.2019
5449 Clouds 14 1020 87 10000 2.1 310 18:18 27.10.2019
5450 Clouds 14 1020 87 10000 1.5 300 17:40 27.10.2019
5451 Clouds 15 1020 82 10000 0.76 270 17:19 27.10.2019
5452 Clouds 15 1020 82 10000 0.76 270 17:19 27.10.2019
5453 Clouds 15 1020 82 10000 0.76 270 16:58 27.10.2019
5454 Clouds 16 1020 72 10000 1.5 0 16:39 27.10.2019
5455 Clouds 16 1020 67 10000 2.6 300 16:21 27.10.2019
5456 Clouds 17 1020 63 10000 2.6 290 15:56 27.10.2019
5457 Clouds 17 1020 63 10000 2.6 290 15:37 27.10.2019
5458 Clouds 17 1020 63 10000 1.5 300 15:19 27.10.2019
5459 Clouds 18 1020 59 10000 1.5 280 14:42 27.10.2019
5460 Clouds 17 1021 59 10000 1.5 210 14:21 27.10.2019
5461 Clouds 17 1021 59 10000 1.5 210 13:58 27.10.2019
5462 Clouds 17 1021 55 10000 1.36 268 13:38 27.10.2019
5463 Clouds 17 1021 63 10000 1.5 0 13:20 27.10.2019
5464 Clouds 17 1022 67 10000 1.5 240 12:55 27.10.2019
5465 Clouds 16 1022 67 10000 1.5 240 12:37 27.10.2019
5466 Clouds 16 1022 63 10000 1.5 200 12:19 27.10.2019
5467 Clouds 16 1022 67 10000 2.1 130 11:41 27.10.2019
5468 Clouds 15 1023 76 10000 1.5 110 11:21 27.10.2019
5469 Clouds 13 1023 82 10000 2.1 120 10:44 27.10.2019
5470 Clouds 13 1023 81 10000 1.5 160 10:25 27.10.2019
5471 Clouds 12 1023 93 10000 1.5 160 09:57 27.10.2019
5472 Clouds 12 1023 93 10000 1.5 160 09:39 27.10.2019
5473 Clouds 11 1023 100 10000 2.1 90 09:18 27.10.2019
5474 Clouds 10 1023 100 10000 1 110 08:56 27.10.2019
5475 Clouds 10 1023 100 10000 1 110 08:37 27.10.2019
5476 Clouds 8 1023 93 10000 1 130 08:18 27.10.2019
5477 Clouds 8 1023 93 10000 1 0 07:43 27.10.2019
5478 Clouds 8 1022 93 10000 1.5 150 07:24 27.10.2019
5479 Clouds 8 1023 100 10000 1.02 180 06:49 27.10.2019
5480 Clouds 8 1023 100 10000 1.5 0 06:26 27.10.2019
5481 Clouds 8 1023 100 10000 1.5 0 05:39 27.10.2019
5482 Clouds 8 1023 100 10000 1.5 120 04:51 27.10.2019
5483 Clear 9 1023 100 8000 0.5 0 02:55 27.10.2019
5484 Clear 9 1023 100 8000 0.5 0 02:55 27.10.2019
5485 Fog 9 1023 100 8000 1 0 01:49 27.10.2019
5486 Clouds 9 1023 100 7000 0.5 0 01:20 27.10.2019
5487 Fog 9 1023 100 10000 0.5 0 00:46 27.10.2019
5488 Fog 10 1023 100 2000 0.5 0 00:24 27.10.2019
5489 Clouds 10 1023 93 10000 0.5 0 23:56 26.10.2019
5490 Clouds 10 1023 93 10000 0.5 0 23:37 26.10.2019
5491 Clouds 10 1023 93 10000 1 0 23:19 26.10.2019
5492 Clouds 10 1022 100 10000 1.5 160 22:55 26.10.2019
5493 Clouds 10 1022 100 10000 1.5 160 22:36 26.10.2019
5494 Clouds 11 1022 100 10000 0.5 0 22:18 26.10.2019
5495 Clouds 11 1022 100 9000 0.5 0 21:42 26.10.2019
5496 Clouds 11 1022 100 9000 0.5 0 21:42 26.10.2019
5497 Clear 11 1022 93 10000 1 0 21:21 26.10.2019
5498 Clear 12 1022 100 10000 2.1 110 20:46 26.10.2019
5499 Clear 12 1022 100 10000 1 0 20:20 26.10.2019
5500 Clear 12 1022 100 10000 1 0 19:59 26.10.2019
5501 Clear 13 1022 93 10000 1 0 19:40 26.10.2019
5502 Clear 13 1022 87 10000 0.5 0 19:20 26.10.2019
5503 Clear 13 1022 87 10000 0.5 0 18:56 26.10.2019
5504 Clear 13 1022 87 10000 0.5 0 18:56 26.10.2019
5505 Clear 14 1021 87 10000 1.5 0 18:37 26.10.2019
5506 Clear 15 1021 82 10000 1 0 18:18 26.10.2019
5507 Clear 16 1021 72 10000 1.5 230 17:56 26.10.2019
5508 Clear 17 1021 72 10000 1.5 230 17:36 26.10.2019
5509 Clear 17 1021 72 10000 2.1 280 17:18 26.10.2019
5510 Clear 17 1021 68 10000 2.6 310 16:43 26.10.2019
5511 Clear 17 1021 63 10000 2.6 300 16:24 26.10.2019
5512 Clear 17 1021 63 10000 2.6 300 16:24 26.10.2019
5513 Clear 17 1021 68 10000 2.1 280 15:43 26.10.2019
5514 Clear 17 1022 63 10000 2.1 260 15:21 26.10.2019
5515 Clear 17 1022 63 10000 2.1 260 14:56 26.10.2019
5516 Clear 17 1022 67 10000 1.5 0 14:37 26.10.2019
5517 Clear 17 1022 67 10000 2.1 0 14:18 26.10.2019
5518 Clear 18 1021 57 0 1.61 280 13:42 26.10.2019
5519 Clear 16 1023 67 10000 1.5 0 13:22 26.10.2019
5520 Clear 11 1021 83 0 1.61 280 12:49 26.10.2019
5521 Clear 15 1023 77 10000 0.5 0 12:49 26.10.2019
5522 Clear 11 1021 83 0 1.61 280 12:49 26.10.2019
5523 Clouds 11 1023 100 10000 0.5 0 12:25 26.10.2019
5524 Clouds 11 1023 100 10000 0.5 0 11:56 26.10.2019
5525 Clouds 11 1023 100 10000 0.5 0 11:36 26.10.2019
5526 Clouds 11 1023 100 10000 0.5 0 11:36 26.10.2019
5527 Clouds 11 1023 100 10000 0.5 0 11:18 26.10.2019
5528 Fog 8 1023 93 10000 0.94 257 10:42 26.10.2019
5529 Fog 8 1023 93 600 1 0 10:23 26.10.2019
5530 Fog 7 1023 100 2000 0.5 0 09:45 26.10.2019
5531 Fog 7 1023 100 2000 0.5 0 09:27 26.10.2019
5532 Fog 6 1023 100 250 1 170 08:44 26.10.2019
5533 Fog 6 1023 100 300 1.09 187 08:25 26.10.2019
5534 Fog 6 1023 100 300 1.09 187 08:25 26.10.2019
5535 Fog 5 1023 100 300 1.09 187 07:56 26.10.2019
5536 Fog 5 1023 100 300 1.09 187 07:31 26.10.2019
5537 Fog 6 1023 100 800 1.09 187 06:46 26.10.2019
5538 Fog 6 1023 100 800 1.09 187 06:28 26.10.2019
5539 Fog 6 1023 93 1300 0.5 0 05:21 26.10.2019
5540 Fog 6 1023 93 450 0.5 0 04:32 26.10.2019
5541 Fog 8 1023 100 800 1 0 02:57 26.10.2019
5542 Fog 8 1023 100 200 1 130 01:57 26.10.2019
5543 Fog 8 1023 100 150 0.5 0 01:34 26.10.2019
5544 Fog 9 1023 93 6000 1 0 00:26 26.10.2019
5545 Clear 9 1024 100 8000 0.5 0 23:46 25.10.2019
5546 Clear 9 1024 100 10000 1 190 23:21 25.10.2019
5547 Clear 10 1024 100 7000 0.5 0 22:43 25.10.2019
5548 Clear 10 1024 93 9000 1 0 22:25 25.10.2019
5549 Clear 10 1024 93 9000 1 0 21:58 25.10.2019
5550 Clear 10 1024 93 9000 1 0 21:58 25.10.2019
5551 Clear 10 1023 100 10000 1 157 21:40 25.10.2019
5552 Clouds 10 1023 93 10000 0.5 0 21:21 25.10.2019
5553 Clouds 10 1023 93 10000 0.5 0 20:57 25.10.2019
5554 Clouds 11 1023 93 10000 0.5 0 20:39 25.10.2019
5555 Clouds 11 1023 93 10000 0.5 0 20:19 25.10.2019
5556 Clouds 11 1023 87 10000 1.05 76 19:45 25.10.2019
5557 Clouds 12 1023 93 10000 1.05 76 19:26 25.10.2019
5558 Clouds 13 1022 82 10000 1 0 18:46 25.10.2019
5559 Clouds 14 1022 72 10000 0.5 0 18:24 25.10.2019
5560 Clouds 15 1022 67 10000 1 0 17:42 25.10.2019
5561 Clouds 16 1022 59 10000 1.5 360 17:22 25.10.2019
5562 Clouds 16 1022 59 10000 1.5 360 17:22 25.10.2019
5563 Clouds 16 1022 59 10000 1.5 360 16:59 25.10.2019
5564 Clouds 16 1022 63 10000 1 0 16:41 25.10.2019
5565 Clouds 16 1022 59 10000 1 280 16:19 25.10.2019
5566 Clouds 16 1023 63 10000 2.1 340 15:41 25.10.2019
5567 Clouds 17 1023 63 10000 3.1 340 15:23 25.10.2019
5568 Clouds 16 1023 67 10000 2.1 220 14:59 25.10.2019
5569 Clouds 16 1023 67 10000 2.1 220 14:40 25.10.2019
5570 Clouds 16 1023 63 10000 1.5 180 14:22 25.10.2019
5571 Clouds 16 1024 67 10000 1 240 13:44 25.10.2019
5572 Clouds 15 1024 72 10000 1 10 13:25 25.10.2019
5573 Clouds 14 1024 82 10000 2.1 290 12:58 25.10.2019
5574 Clouds 14 1024 82 10000 2.1 290 12:40 25.10.2019
5575 Clouds 14 1024 87 10000 2.1 300 12:20 25.10.2019
5576 Clouds 13 1024 93 10000 0.5 0 11:42 25.10.2019
5577 Clouds 13 1024 100 10000 1 250 11:24 25.10.2019
5578 Clouds 12 1024 100 10000 1 250 10:59 25.10.2019
5579 Fog 12 1024 100 10000 1 300 10:39 25.10.2019
5580 Fog 11 1024 100 7000 1 310 10:21 25.10.2019
5581 Fog 11 1023 100 10000 0.5 0 09:57 25.10.2019
5582 Fog 10 1023 100 10000 0.5 0 09:38 25.10.2019
5583 Fog 10 1023 100 10000 0.5 140 09:19 25.10.2019
5584 Fog 10 1023 100 350 1 140 08:44 25.10.2019
5585 Fog 10 1022 100 100 1 0 08:24 25.10.2019
5586 Fog 10 1022 100 200 0.5 0 07:52 25.10.2019
5587 Fog 10 1022 100 200 0.5 0 07:34 25.10.2019
5588 Fog 9 1022 93 400 1.5 140 06:41 25.10.2019
5589 Fog 10 1021 100 250 0.5 0 05:51 25.10.2019
5590 Fog 10 1021 100 250 0.5 0 05:32 25.10.2019
5591 Rain 10 1021 93 500 0.91 171 04:39 25.10.2019
5592 Fog 11 1020 100 250 0.5 0 02:46 25.10.2019
5593 Clouds 12 1020 100 6000 0.5 0 01:53 25.10.2019
5594 Clouds 12 1019 93 10000 1 90 00:47 25.10.2019
5595 Clouds 12 1019 93 10000 1 80 00:18 25.10.2019
5596 Clouds 13 1019 93 10000 0.5 0 23:40 24.10.2019
5597 Clouds 13 1018 87 10000 0.5 0 23:21 24.10.2019
5598 Rain 13 1018 87 10000 1 0 22:54 24.10.2019
5599 Rain 13 1018 87 10000 1 0 22:54 24.10.2019
5600 Rain 13 1018 87 10000 1 0 22:54 24.10.2019
5601 Rain 13 1018 87 10000 1 0 22:36 24.10.2019
5602 Rain 13 1017 87 10000 2.1 10 22:18 24.10.2019
5603 Rain 13 1017 82 10000 2.6 340 21:54 24.10.2019
5604 Rain 13 1017 82 10000 2.6 340 21:54 24.10.2019
5605 Rain 13 1017 82 10000 2.6 340 21:36 24.10.2019
5606 Rain 13 1017 82 10000 2.6 340 21:36 24.10.2019
5607 Clouds 14 1016 87 10000 1.5 340 21:18 24.10.2019
5608 Rain 14 1016 87 10000 1.5 360 20:54 24.10.2019
5609 Rain 14 1016 87 10000 1.5 360 20:36 24.10.2019
5610 Rain 14 1016 82 10000 1.5 20 20:18 24.10.2019
5611 Clouds 14 1015 72 10000 1.5 0 19:42 24.10.2019
5612 Clouds 14 1015 82 10000 2.6 290 19:23 24.10.2019
5613 Clouds 14 1015 82 10000 2.6 290 18:58 24.10.2019
5614 Clouds 14 1015 82 10000 2.6 290 18:58 24.10.2019
5615 Clouds 14 1014 72 10000 3.6 280 18:39 24.10.2019
5616 Clouds 15 1014 67 10000 4.1 280 18:21 24.10.2019
5617 Clouds 15 1014 72 10000 1.5 0 17:56 24.10.2019
5618 Clouds 16 1014 72 10000 1.5 0 17:37 24.10.2019
5619 Clouds 16 1014 63 10000 2.1 260 17:18 24.10.2019
5620 Clouds 16 1014 63 10000 2.6 250 16:42 24.10.2019
5621 Clouds 16 1013 72 10000 2.1 320 16:23 24.10.2019
5622 Clouds 16 1013 72 10000 2.1 320 16:23 24.10.2019
5623 Clouds 16 1013 72 10000 2.1 320 15:59 24.10.2019
5624 Clouds 16 1013 77 10000 2.1 330 15:41 24.10.2019
5625 Clouds 16 1013 77 10000 2.1 290 15:23 24.10.2019
5626 Clouds 17 1013 77 10000 2.1 290 14:59 24.10.2019
5627 Clouds 16 1013 72 10000 2.6 330 14:41 24.10.2019
5628 Clouds 16 1013 77 10000 3.1 320 14:22 24.10.2019
5629 Clouds 16 1013 77 10000 3.1 320 13:57 24.10.2019
5630 Clouds 16 1013 77 10000 3.1 320 13:37 24.10.2019
5631 Clouds 16 1014 82 10000 1.5 280 13:18 24.10.2019
5632 Clouds 15 1014 87 10000 1.5 280 12:55 24.10.2019
5633 Clouds 15 1014 87 10000 1.5 280 12:37 24.10.2019
5634 Clouds 14 1013 87 10000 1.5 250 12:18 24.10.2019
5635 Clouds 14 1013 87 10000 1 150 11:54 24.10.2019
5636 Clouds 13 1013 87 10000 1 150 11:36 24.10.2019
5637 Clouds 13 1013 93 10000 2.1 130 11:18 24.10.2019
5638 Clouds 12 1013 93 10000 1 0 10:41 24.10.2019
5639 Clouds 12 1012 93 9000 1 0 10:22 24.10.2019
5640 Clouds 11 1011 93 8000 1 220 09:39 24.10.2019
5641 Clouds 11 1011 93 6000 1.43 178 09:19 24.10.2019
5642 Fog 10 1011 100 250 1 110 08:56 24.10.2019
5643 Fog 10 1011 100 250 1 110 08:38 24.10.2019
5644 Fog 10 1011 100 4000 1.5 50 08:18 24.10.2019
5645 Fog 10 1011 100 750 2.1 60 07:46 24.10.2019
5646 Mist 10 1011 100 3500 1 0 07:23 24.10.2019
5647 Mist 11 1012 100 1600 1.5 20 06:48 24.10.2019
5648 Fog 11 1012 100 3600 1.5 100 06:26 24.10.2019
5649 Fog 11 1012 100 2200 0.5 0 05:52 24.10.2019
5650 Mist 11 1013 100 3800 2.1 340 05:29 24.10.2019
5651 Mist 12 1012 100 3200 1 0 03:39 24.10.2019
5652 Mist 12 1012 100 2700 1.5 0 03:19 24.10.2019
5653 Mist 12 1012 100 1600 0.5 0 02:29 24.10.2019
5654 Mist 11 1011 100 1800 0.5 0 01:54 24.10.2019
5655 Mist 11 1011 100 1800 0.5 0 01:29 24.10.2019
5656 Mist 11 1011 100 3300 1.5 150 00:47 24.10.2019
5657 Mist 11 1011 93 4000 2.1 350 00:23 24.10.2019
5658 Clouds 12 1011 93 5000 3.1 350 23:43 23.10.2019
5659 Mist 12 1011 87 4100 2.1 340 23:23 23.10.2019
5660 Mist 12 1011 87 4100 2.1 340 22:57 23.10.2019
5661 Mist 12 1011 100 3200 2.1 330 22:38 23.10.2019
5662 Clouds 12 1011 93 10000 0.5 0 22:19 23.10.2019
5663 Clouds 12 1011 93 10000 0.5 0 21:58 23.10.2019
5664 Clouds 12 1011 100 10000 1 0 21:38 23.10.2019
5665 Clouds 12 1011 93 10000 1.5 0 21:20 23.10.2019
5666 Clouds 12 1011 93 10000 1.5 0 20:58 23.10.2019
5667 Mist 12 1011 100 2900 1 0 20:39 23.10.2019
5668 Mist 13 1011 93 5000 1 290 20:20 23.10.2019
5669 Mist 13 1011 93 5000 1 290 19:57 23.10.2019
5670 Mist 13 1011 93 5000 1 0 19:38 23.10.2019
5671 Clouds 13 1011 93 5000 1.5 0 19:18 23.10.2019
5672 Clouds 13 1011 87 6000 3.1 310 18:55 23.10.2019
5673 Clouds 13 1011 87 6000 3.1 310 18:36 23.10.2019
5674 Clouds 14 1012 87 7000 2.1 310 18:18 23.10.2019
5675 Clouds 14 1011 87 9000 2.1 170 17:43 23.10.2019
5676 Clouds 15 1012 82 8000 1 0 17:20 23.10.2019
5677 Clouds 15 1012 82 8000 1 0 16:56 23.10.2019
5678 Clouds 16 1012 82 10000 1.5 280 16:37 23.10.2019
5679 Clouds 16 1012 82 10000 2.6 320 16:19 23.10.2019
5680 Clouds 16 1012 82 10000 2.1 330 15:41 23.10.2019
5681 Clouds 15 1013 82 10000 3.1 310 15:22 23.10.2019
5682 Clouds 16 1013 77 10000 3.6 300 14:58 23.10.2019
5683 Clouds 15 1013 77 10000 3.6 300 14:38 23.10.2019
5684 Clouds 15 1013 72 10000 1.5 0 14:19 23.10.2019
5685 Clouds 16 1014 77 10000 1.5 0 13:57 23.10.2019
5686 Clouds 16 1014 77 10000 1.5 0 13:38 23.10.2019
5687 Clouds 15 1015 77 10000 1 0 13:20 23.10.2019
5688 Clouds 15 1015 76 10000 2.1 140 12:54 23.10.2019
5689 Clouds 15 1015 76 10000 2.1 140 12:54 23.10.2019
5690 Clouds 15 1015 76 10000 2.1 140 12:54 23.10.2019
5691 Clouds 14 1015 76 10000 2.1 140 12:36 23.10.2019
5692 Clouds 13 1015 87 10000 1 140 12:18 23.10.2019
5693 Clouds 13 1016 87 10000 1.5 130 11:54 23.10.2019
5694 Clouds 13 1016 87 10000 1.5 130 11:36 23.10.2019
5695 Clouds 13 1016 87 10000 1.5 130 11:36 23.10.2019
5696 Clouds 12 1016 81 10000 1.5 120 11:18 23.10.2019
5697 Clouds 13 1016 87 10000 1 0 10:42 23.10.2019
5698 Clouds 12 1016 87 10000 1.5 200 10:23 23.10.2019
5699 Clouds 11 1016 93 8000 1 0 09:41 23.10.2019
5700 Clouds 11 1016 93 10000 1 110 09:23 23.10.2019
5701 Clouds 11 1016 93 10000 1 110 09:23 23.10.2019
5702 Clouds 11 1016 93 10000 1 110 08:59 23.10.2019
5703 Clouds 11 1016 93 10000 1 0 08:41 23.10.2019
5704 Clouds 11 1016 93 10000 2.6 100 08:22 23.10.2019
5705 Clouds 11 1016 93 10000 1.5 90 07:45 23.10.2019
5706 Clouds 11 1016 93 10000 1.5 90 07:45 23.10.2019
5707 Clouds 11 1017 100 10000 0.5 0 07:21 23.10.2019
5708 Clouds 11 1017 93 10000 1 110 06:46 23.10.2019
5709 Clouds 11 1017 93 9000 1 0 06:20 23.10.2019
5710 Clouds 11 1017 93 10000 1.5 110 05:41 23.10.2019
5711 Clouds 11 1018 93 8000 0.5 0 04:38 23.10.2019
5712 Clouds 11 1018 93 10000 0.5 0 03:33 23.10.2019
5713 Clouds 12 1018 93 10000 1.5 160 02:37 23.10.2019
5714 Clouds 12 1019 100 8000 0.5 0 01:28 23.10.2019
5715 Clouds 12 1019 93 6000 1 0 00:48 23.10.2019
5716 Clouds 12 1019 93 6000 1 0 00:28 23.10.2019
5717 Clouds 12 1020 93 6000 0.5 70 23:39 22.10.2019
5718 Clouds 12 1020 93 8000 0.5 0 23:18 22.10.2019
5719 Clouds 12 1020 93 10000 1 280 22:56 22.10.2019
5720 Clouds 13 1020 93 10000 1 280 22:37 22.10.2019
5721 Clouds 13 1020 93 10000 0.5 0 22:19 22.10.2019
5722 Clouds 13 1020 93 10000 1 70 21:56 22.10.2019
5723 Clouds 13 1020 93 10000 1 70 21:56 22.10.2019
5724 Clouds 13 1020 93 10000 1 70 21:36 22.10.2019
5725 Clouds 13 1021 93 10000 1.5 90 21:18 22.10.2019
5726 Clouds 13 1021 93 10000 0.5 0 20:55 22.10.2019
5727 Clouds 13 1021 93 10000 0.5 0 20:37 22.10.2019
5728 Clouds 13 1021 87 9000 1 0 20:18 22.10.2019
5729 Clouds 13 1021 87 10000 1 0 19:42 22.10.2019
5730 Clouds 13 1021 87 10000 1 0 19:24 22.10.2019
5731 Clouds 13 1021 87 10000 1 0 18:57 22.10.2019
5732 Clouds 13 1021 87 10000 1.5 0 18:39 22.10.2019
5733 Clouds 14 1021 93 10000 1 0 18:21 22.10.2019
5734 Clouds 14 1021 87 10000 1.5 0 17:56 22.10.2019
5735 Clouds 14 1021 87 10000 1.5 0 17:56 22.10.2019
5736 Clouds 14 1021 87 10000 1.5 0 17:38 22.10.2019
5737 Clouds 14 1021 87 10000 1.5 270 17:19 22.10.2019
5738 Clouds 14 1021 87 10000 1.5 280 16:56 22.10.2019
5739 Clouds 14 1021 87 10000 1.5 280 16:37 22.10.2019
5740 Clouds 14 1021 93 10000 1.5 0 16:18 22.10.2019
5741 Clouds 14 1022 87 10000 2.6 320 15:43 22.10.2019
5742 Clouds 14 1022 82 10000 1.5 280 15:20 22.10.2019
5743 Clouds 14 1022 77 10000 1.5 0 14:50 22.10.2019
5744 Clouds 14 1023 77 10000 1 0 14:23 22.10.2019
5745 Clouds 14 1023 77 10000 1 0 13:59 22.10.2019
5746 Clouds 14 1023 82 10000 0.5 0 13:41 22.10.2019
5747 Clouds 14 1023 82 10000 0.5 0 13:41 22.10.2019
5748 Clouds 14 1023 82 10000 0.5 0 13:19 22.10.2019
5749 Clouds 13 1023 82 10000 1.5 290 12:56 22.10.2019
5750 Clouds 13 1023 82 10000 1.5 290 12:38 22.10.2019
5751 Clouds 13 1023 82 10000 1 290 12:19 22.10.2019
5752 Clouds 13 1023 87 10000 0.5 0 11:41 22.10.2019
5753 Clouds 13 1023 87 10000 0.5 0 11:22 22.10.2019
5754 Clouds 12 1023 87 10000 0.5 0 10:59 22.10.2019
5755 Clouds 12 1023 93 10000 1 0 10:38 22.10.2019
5756 Clouds 12 1023 93 6000 2.1 320 10:19 22.10.2019
5757 Clouds 12 1023 93 6000 2.1 320 10:19 22.10.2019
5758 Clouds 12 1023 93 6000 2.1 320 10:19 22.10.2019
5759 Clouds 12 1023 93 6000 2.1 320 09:58 22.10.2019
5760 Clouds 12 1023 100 6000 1 0 09:40 22.10.2019
5761 Clouds 12 1023 100 6000 1 0 09:40 22.10.2019
5762 Clouds 11 1023 100 6000 1 120 09:21 22.10.2019
5763 Mist 11 1022 100 5000 1.5 180 08:55 22.10.2019
5764 Mist 11 1022 100 5000 1.5 180 08:36 22.10.2019
5765 Clouds 11 1022 100 5000 1 80 08:18 22.10.2019
5766 Clouds 11 1022 100 5000 1 80 08:18 22.10.2019
5767 Clouds 11 1022 100 5000 2.1 120 07:41 22.10.2019
5768 Clouds 11 1022 100 4500 1.5 110 07:22 22.10.2019
5769 Fog 11 1022 100 600 1.5 120 06:40 22.10.2019
5770 Fog 11 1022 100 550 1 0 06:20 22.10.2019
5771 Clouds 11 1022 100 8000 1 0 05:27 22.10.2019
5772 Fog 11 1023 100 550 1 0 04:19 22.10.2019
5773 Fog 11 1022 100 350 0.5 0 02:30 22.10.2019
5774 Clouds 12 1023 100 7000 1.5 130 01:37 22.10.2019
5775 Drizzle 12 1023 100 7000 0.26 305 01:18 22.10.2019
5776 Rain 12 1023 100 9000 0.5 0 00:42 22.10.2019
5777 Rain 12 1023 93 8000 1 0 00:24 22.10.2019
5778 Rain 12 1023 93 8000 1 0 23:58 21.10.2019
5779 Rain 13 1023 93 9000 2.1 130 23:38 21.10.2019
5780 Rain 13 1023 100 4600 2.1 170 23:19 21.10.2019
5781 Rain 13 1023 100 4600 2.1 170 22:58 21.10.2019
5782 Rain 13 1023 100 10000 1.5 30 22:38 21.10.2019
5783 Rain 13 1023 100 5000 1 320 22:20 21.10.2019
5784 Rain 13 1023 100 5000 1 320 21:56 21.10.2019
5785 Rain 13 1022 100 5000 1 0 21:37 21.10.2019
5786 Rain 13 1022 100 5000 1.67 56 21:19 21.10.2019
5787 Rain 13 1022 100 5000 1.67 56 20:57 21.10.2019
5788 Rain 13 1022 100 5000 1.67 56 20:57 21.10.2019
5789 Rain 13 1022 100 5000 1.5 140 20:37 21.10.2019
5790 Rain 13 1022 100 5000 1 0 20:19 21.10.2019
5791 Rain 13 1022 100 5000 1.5 220 19:55 21.10.2019
5792 Rain 13 1022 100 5000 1.5 220 19:36 21.10.2019
5793 Rain 13 1021 100 10000 0.5 0 19:18 21.10.2019
5794 Rain 13 1021 93 10000 1.5 340 18:54 21.10.2019
5795 Rain 13 1021 93 10000 1.5 340 18:36 21.10.2019
5796 Rain 13 1021 93 10000 1.5 340 18:36 21.10.2019
5797 Rain 14 1021 93 10000 1.5 330 18:18 21.10.2019
5798 Rain 14 1021 93 6000 2.1 330 17:39 21.10.2019
5799 Rain 14 1020 93 6000 1.5 290 17:19 21.10.2019
5800 Rain 14 1020 93 6000 1.5 290 16:58 21.10.2019
5801 Rain 14 1020 87 10000 2.6 290 16:40 21.10.2019
5802 Rain 14 1020 82 10000 1.5 310 16:21 21.10.2019
5803 Clouds 15 1020 82 8000 1.5 0 15:57 21.10.2019
5804 Clouds 15 1020 82 8000 1.5 0 15:38 21.10.2019
5805 Clouds 15 1020 93 10000 1.5 0 15:18 21.10.2019
5806 Clouds 14 1020 87 6000 1 0 14:40 21.10.2019
5807 Clouds 14 1020 93 10000 1.5 0 14:21 21.10.2019
5808 Rain 14 1020 87 9000 1 0 13:58 21.10.2019
5809 Rain 14 1020 87 9000 1 0 13:40 21.10.2019
5810 Clouds 14 1020 93 8000 2.1 190 13:20 21.10.2019
5811 Clouds 14 1020 100 6000 1.5 0 12:57 21.10.2019
5812 Clouds 14 1020 100 6000 1.5 0 12:39 21.10.2019
5813 Mist 14 1020 100 6000 0.5 0 12:20 21.10.2019
5814 Mist 14 1020 100 6000 0.5 0 12:20 21.10.2019
5815 Rain 13 1019 100 10000 0.5 0 11:42 21.10.2019
5816 Mist 13 1019 100 8000 1.5 160 11:23 21.10.2019
5817 Mist 13 1019 100 8000 1.5 160 10:58 21.10.2019
5818 Mist 13 1018 100 10000 1.14 68.412 10:40 21.10.2019
5819 Mist 13 1018 100 8000 1.5 0 10:20 21.10.2019
5820 Mist 13 1018 100 8000 1.5 0 09:58 21.10.2019
5821 Mist 13 1018 93 6000 2.1 200 09:39 21.10.2019
5822 Mist 12 1018 100 5000 1 0 09:21 21.10.2019
5823 Rain 12 1017 100 5000 1 0 08:41 21.10.2019
5824 Fog 12 1017 100 6000 1 330 08:23 21.10.2019
5825 Mist 12 1016 100 6000 1 130 07:45 21.10.2019
5826 Mist 12 1016 100 8000 2.1 140 07:23 21.10.2019
5827 Mist 12 1016 100 8000 2.1 140 06:59 21.10.2019
5828 Rain 12 1016 100 4500 1 0 06:41 21.10.2019
5829 Rain 12 1016 100 4900 1 0 06:18 21.10.2019
5830 Rain 12 1015 100 3500 1 0 05:33 21.10.2019
5831 Rain 12 1015 100 4300 1.5 0 03:41 21.10.2019
5832 Rain 12 1014 100 6000 1.5 330 02:40 21.10.2019
5833 Rain 12 1014 100 6000 1.5 0 02:20 21.10.2019
5834 Rain 12 1014 100 6000 1.5 0 02:20 21.10.2019
5835 Rain 12 1012 100 7000 1.5 110 01:45 21.10.2019
5836 Rain 12 1012 100 7000 1.5 110 01:45 21.10.2019
5837 Rain 12 1012 100 5000 0.5 0 00:55 21.10.2019
5838 Rain 12 1012 100 5000 0.5 0 00:28 21.10.2019
5839 Mist 12 1012 93 5000 1 0 23:58 20.10.2019
5840 Mist 12 1012 100 9000 1.5 0 23:39 20.10.2019
5841 Mist 12 1011 100 9000 2.6 20 23:21 20.10.2019
5842 Mist 12 1011 100 6000 3.6 330 22:43 20.10.2019
5843 Fog 12 1010 93 5000 1.5 320 22:24 20.10.2019
5844 Fog 12 1010 93 5000 1.5 320 22:24 20.10.2019
5845 Fog 12 1010 93 5000 1.5 320 21:59 20.10.2019
5846 Fog 12 1009 93 6000 1.5 330 21:40 20.10.2019
5847 Mist 12 1009 93 4000 1.5 310 21:22 20.10.2019
5848 Mist 12 1009 93 4000 1.5 310 20:57 20.10.2019
5849 Mist 12 1008 100 10000 1.5 0 20:38 20.10.2019
5850 Clear 12 1008 93 10000 2.1 80 20:18 20.10.2019
5851 Clouds 12 1008 93 10000 2.6 100 19:55 20.10.2019
5852 Clouds 13 1008 93 10000 2.6 100 19:37 20.10.2019
5853 Mist 13 1008 93 10000 2.1 110 19:19 20.10.2019
5854 Mist 13 1008 93 10000 3.1 110 18:40 20.10.2019
5855 Mist 14 1008 82 10000 2.1 120 18:22 20.10.2019
5856 Mist 14 1008 82 10000 2.1 120 17:57 20.10.2019
5857 Mist 15 1008 82 10000 1.5 130 17:39 20.10.2019
5858 Mist 15 1008 77 10000 2.1 140 17:20 20.10.2019
5859 Mist 15 1008 82 10000 1.5 0 16:55 20.10.2019
5860 Mist 15 1008 82 10000 1.5 0 16:36 20.10.2019
5861 Mist 15 1008 82 10000 1.5 280 16:18 20.10.2019
5862 Mist 14 1008 87 10000 2.6 330 15:41 20.10.2019
5863 Mist 14 1008 87 10000 3.1 330 15:23 20.10.2019
5864 Mist 14 1008 87 10000 3.1 330 14:59 20.10.2019
5865 Mist 14 1008 87 10000 4.1 310 14:38 20.10.2019
5866 Mist 13 1008 93 6000 3.6 330 14:19 20.10.2019
5867 Mist 13 1008 93 6000 3.6 330 13:56 20.10.2019
5868 Mist 14 1008 87 6000 2.1 340 13:37 20.10.2019
5869 Mist 14 1008 93 6000 2.1 320 13:19 20.10.2019
5870 Mist 14 1008 93 6000 2.1 320 12:57 20.10.2019
5871 Mist 14 1009 87 6000 2.1 290 12:39 20.10.2019
5872 Mist 12 1009 93 6000 0.5 0 12:21 20.10.2019
5873 Mist 12 1009 93 6000 0.5 0 11:59 20.10.2019
5874 Mist 12 1009 93 5000 0.5 0 11:40 20.10.2019
5875 Mist 12 1009 100 4000 1 190 11:21 20.10.2019
5876 Mist 11 1009 100 4000 1 190 10:57 20.10.2019
5877 Mist 11 1009 93 4000 2.1 150 10:37 20.10.2019
5878 Mist 11 1009 100 3000 2.1 130 10:18 20.10.2019
5879 Mist 11 1009 100 2500 1.5 160 09:43 20.10.2019
5880 Fog 11 1009 100 1400 1.5 90 09:22 20.10.2019
5881 Fog 11 1009 100 1400 1.5 90 08:56 20.10.2019
5882 Fog 11 1009 100 900 1.5 110 08:37 20.10.2019
5883 Fog 11 1009 100 1200 1.5 110 08:18 20.10.2019
5884 Mist 11 1009 100 4000 1.5 130 07:43 20.10.2019
5885 Fog 11 1009 100 7000 1.5 150 07:24 20.10.2019
5886 Fog 11 1009 100 7000 1.5 150 07:24 20.10.2019
5887 Fog 11 1009 93 10000 1 0 06:26 20.10.2019
5888 Fog 11 1008 93 10000 1.5 210 04:28 20.10.2019
5889 Fog 11 1008 100 7000 0.5 0 03:49 20.10.2019
5890 Rain 11 1009 100 5000 1 0 03:21 20.10.2019
5891 Mist 11 1009 100 6000 1.5 70 02:45 20.10.2019
5892 Mist 11 1009 93 3100 1 0 02:18 20.10.2019
5893 Fog 11 1009 100 5000 1 0 01:43 20.10.2019
5894 Mist 11 1009 100 2500 1.5 0 01:19 20.10.2019
5895 Mist 11 1009 100 4000 0.5 0 00:42 20.10.2019
5896 Clouds 12 1009 100 5000 1.5 0 00:20 20.10.2019
5897 Mist 12 1009 100 3600 1.5 0 23:43 19.10.2019
5898 Mist 12 1010 93 3700 2.6 160 23:24 19.10.2019
5899 Mist 12 1010 93 3700 2.6 160 22:57 19.10.2019
5900 Clouds 12 1008 93 6000 2.1 40 22:39 19.10.2019
5901 Rain 12 1009 93 6000 1 0 22:20 19.10.2019
5902 Rain 12 1009 93 6000 1 0 21:46 19.10.2019
5903 Drizzle 12 1009 100 6000 1.5 310 21:25 19.10.2019
5904 Drizzle 12 1009 100 6000 1.5 310 20:57 19.10.2019
5905 Rain 12 1009 100 10000 1.5 320 20:38 19.10.2019
5906 Rain 12 1009 93 10000 2.1 260 20:20 19.10.2019
5907 Rain 13 1009 93 10000 2.1 290 19:41 19.10.2019
5908 Rain 13 1009 93 10000 1.5 0 19:23 19.10.2019
5909 Drizzle 13 1008 87 10000 2.1 260 18:43 19.10.2019
5910 Drizzle 14 1009 87 10000 2.1 260 18:25 19.10.2019
5911 Drizzle 14 1009 87 10000 2.1 260 17:59 19.10.2019
5912 Rain 14 1009 87 10000 2.6 310 17:37 19.10.2019
5913 Clouds 14 1009 87 10000 3.1 300 17:19 19.10.2019
5914 Clouds 14 1009 82 10000 3.1 310 16:54 19.10.2019
5915 Clouds 15 1009 82 10000 3.1 310 16:36 19.10.2019
5916 Clouds 15 1009 82 10000 3.6 290 16:18 19.10.2019
5917 Clouds 15 1009 82 10000 1.5 250 15:40 19.10.2019
5918 Clouds 15 1009 82 10000 1.5 250 15:40 19.10.2019
5919 Rain 15 1009 82 10000 1 240 15:22 19.10.2019
5920 Clouds 15 1010 82 10000 2.1 290 14:38 19.10.2019
5921 Rain 14 1010 77 10000 1 0 14:20 19.10.2019
5922 Rain 14 1010 77 10000 1 0 13:56 19.10.2019
5923 Drizzle 14 1011 93 10000 0.73 71.466 13:38 19.10.2019
5924 Rain 14 1011 87 10000 1.5 150 13:18 19.10.2019
5925 Rain 13 1011 93 10000 2.1 70 12:42 19.10.2019
5926 Rain 13 1012 93 10000 3.6 140 12:23 19.10.2019
5927 Rain 13 1012 93 10000 3.6 140 11:59 19.10.2019
5928 Rain 12 1012 93 10000 1.5 0 11:40 19.10.2019
5929 Rain 12 1012 100 10000 2.6 130 11:22 19.10.2019
5930 Rain 12 1012 100 10000 2.6 130 10:54 19.10.2019
5931 Rain 12 1012 93 9000 3.1 120 10:36 19.10.2019
5932 Rain 12 1013 93 5000 1.5 0 10:18 19.10.2019
5933 Rain 12 1012 100 4000 1 120 09:41 19.10.2019
5934 Rain 11 1012 100 4000 1 120 09:23 19.10.2019
5935 Rain 11 1012 100 4500 1 0 08:58 19.10.2019
5936 Rain 11 1012 100 4500 1 0 08:58 19.10.2019
5937 Rain 11 1011 100 4000 2.1 300 08:39 19.10.2019
5938 Rain 11 1011 100 4000 2.1 300 08:20 19.10.2019
5939 Rain 11 1011 100 10000 0.5 0 07:43 19.10.2019
5940 Rain 11 1011 100 10000 0.5 0 07:24 19.10.2019
5941 Rain 11 1011 100 10000 2.1 280 06:45 19.10.2019
5942 Rain 11 1011 100 10000 1 320 05:56 19.10.2019
5943 Drizzle 11 1011 100 10000 1 0 05:27 19.10.2019
5944 Rain 12 1012 93 10000 2.1 190 03:59 19.10.2019
5945 Rain 12 1013 93 10000 1.5 360 02:38 19.10.2019
5946 Rain 12 1013 93 10000 1.5 150 01:51 19.10.2019
5947 Rain 12 1013 100 10000 1.5 0 01:19 19.10.2019
5948 Rain 12 1014 93 6000 1 0 00:45 19.10.2019
5949 Rain 12 1014 100 7000 1 0 00:23 19.10.2019
5950 Rain 12 1014 100 6000 2.1 340 23:42 18.10.2019
5951 Rain 12 1014 93 10000 2.1 350 23:23 18.10.2019
5952 Rain 12 1014 100 6000 2.6 340 22:56 18.10.2019
5953 Rain 12 1014 100 6000 2.6 340 22:38 18.10.2019
5954 Rain 12 1014 87 10000 2.1 320 22:20 18.10.2019
5955 Rain 13 1014 87 10000 2.1 320 21:57 18.10.2019
5956 Rain 13 1013 87 10000 1.5 40 21:38 18.10.2019
5957 Rain 13 1013 87 10000 1 0 21:19 18.10.2019
5958 Rain 13 1013 87 10000 2.1 350 20:56 18.10.2019
5959 Rain 13 1013 87 10000 2.1 350 20:38 18.10.2019
5960 Rain 13 1014 87 10000 2.6 320 20:19 18.10.2019
5961 Rain 14 1013 82 10000 3.6 300 19:54 18.10.2019
5962 Rain 14 1013 82 10000 3.6 300 19:36 18.10.2019
5963 Rain 14 1013 77 10000 3.1 300 19:18 18.10.2019
5964 Drizzle 14 1013 82 10000 3.6 300 18:42 18.10.2019
5965 Clouds 15 1013 67 10000 4.1 300 18:23 18.10.2019
5966 Clouds 15 1013 67 10000 4.1 300 17:57 18.10.2019
5967 Clouds 16 1013 72 10000 4.1 330 17:38 18.10.2019
5968 Clouds 16 1013 77 10000 1.5 340 17:20 18.10.2019
5969 Clouds 16 1013 77 10000 1.5 330 16:44 18.10.2019
5970 Clouds 16 1013 77 10000 1.5 330 16:44 18.10.2019
5971 Clouds 16 1013 77 10000 0.5 0 16:22 18.10.2019
5972 Clouds 16 1013 77 10000 0.5 0 16:22 18.10.2019
5973 Clouds 16 1013 77 10000 0.5 0 15:59 18.10.2019
5974 Clouds 16 1014 77 10000 1 0 15:40 18.10.2019
5975 Clouds 16 1014 67 10000 1 0 15:21 18.10.2019
5976 Clouds 16 1014 67 10000 1 0 14:58 18.10.2019
5977 Clouds 16 1014 77 10000 1.5 0 14:39 18.10.2019
5978 Rain 16 1014 77 10000 1.5 0 14:21 18.10.2019
5979 Rain 15 1014 77 10000 1.5 0 13:58 18.10.2019
5980 Rain 15 1015 82 10000 1.5 100 13:39 18.10.2019
5981 Rain 14 1015 87 10000 1.5 140 13:21 18.10.2019
5982 Rain 14 1015 93 10000 1.5 0 12:56 18.10.2019
5983 Rain 14 1015 93 10000 1.5 0 12:38 18.10.2019
5984 Rain 13 1015 93 10000 1 0 12:20 18.10.2019
5985 Rain 13 1015 100 7000 1.5 110 11:54 18.10.2019
5986 Rain 13 1015 100 7000 1.5 110 11:36 18.10.2019
5987 Rain 12 1015 93 7000 1.5 230 11:18 18.10.2019
5988 Rain 12 1015 93 7000 1.5 230 11:18 18.10.2019
5989 Rain 12 1015 100 7000 2.1 150 10:41 18.10.2019
5990 Rain 11 1016 100 6000 2.1 10 10:22 18.10.2019
5991 Rain 11 1016 100 6000 2.1 10 09:58 18.10.2019
5992 Rain 11 1015 93 5000 2.6 290 09:40 18.10.2019
5993 Rain 11 1014 100 10000 1 0 09:20 18.10.2019
5994 Fog 10 1014 100 10000 1 0 08:57 18.10.2019
5995 Rain 10 1014 100 10000 1 110 08:38 18.10.2019
5996 Rain 10 1015 100 6000 2.6 140 08:20 18.10.2019
5997 Mist 11 1015 100 8000 1 0 07:41 18.10.2019
5998 Mist 11 1015 93 10000 1 0 07:19 18.10.2019
5999 Rain 11 1015 100 6000 2.1 110 06:39 18.10.2019
6000 Rain 11 1015 100 5000 2.6 100 06:20 18.10.2019
6001 Mist 11 1015 100 10000 2.6 90 05:54 18.10.2019
6002 Drizzle 11 1015 100 9000 2.1 100 05:20 18.10.2019
6003 Mist 11 1016 93 5000 0.5 0 03:42 18.10.2019
6004 Mist 11 1016 100 5000 1.5 100 03:22 18.10.2019
6005 Mist 11 1016 100 5000 1 0 02:33 18.10.2019
6006 Rain 12 1016 100 9000 0.5 0 01:43 18.10.2019
6007 Rain 12 1017 100 7000 0.5 0 01:23 18.10.2019
6008 Mist 12 1017 100 10000 1.5 90 00:43 18.10.2019
6009 Rain 12 1017 100 5000 0.5 0 00:20 18.10.2019
6010 Rain 12 1017 100 10000 1 0 23:41 17.10.2019
6011 Rain 12 1017 100 9000 0.5 0 23:21 17.10.2019
6012 Rain 12 1017 100 9000 0.5 0 22:58 17.10.2019
6013 Drizzle 12 1017 100 8000 0.5 0 22:39 17.10.2019
6014 Rain 12 1017 100 10000 0.5 0 22:20 17.10.2019
6015 Rain 12 1017 100 10000 0.5 0 21:58 17.10.2019
6016 Rain 12 1017 93 10000 0.5 0 21:39 17.10.2019
6017 Rain 13 1017 93 10000 0.5 0 21:20 17.10.2019
6018 Rain 13 1017 93 10000 0.5 0 20:58 17.10.2019
6019 Rain 13 1017 93 10000 0.5 0 20:58 17.10.2019
6020 Rain 13 1017 93 10000 1 0 20:39 17.10.2019
6021 Rain 13 1016 93 10000 1 0 20:19 17.10.2019
6022 Rain 13 1016 93 10000 1 0 20:19 17.10.2019
6023 Rain 13 1016 93 10000 1 0 20:19 17.10.2019
6024 Rain 13 1016 93 10000 1 0 19:59 17.10.2019
6025 Rain 13 1016 93 10000 1.5 0 19:39 17.10.2019
6026 Rain 13 1016 82 10000 1.5 360 19:19 17.10.2019
6027 Rain 14 1016 82 10000 1.5 360 18:58 17.10.2019
6028 Rain 14 1016 72 10000 2.6 290 18:38 17.10.2019
6029 Rain 15 1016 67 10000 3.1 280 18:20 17.10.2019
6030 Clouds 15 1015 63 10000 0.5 0 17:42 17.10.2019
6031 Clouds 16 1015 63 10000 0.5 0 17:23 17.10.2019
6032 Clouds 16 1015 63 10000 0.5 0 16:57 17.10.2019
6033 Clouds 16 1015 55 10000 1 0 16:38 17.10.2019
6034 Clouds 17 1015 55 10000 1 0 16:18 17.10.2019
6035 Clouds 17 1015 51 10000 1 0 15:55 17.10.2019
6036 Clouds 17 1015 51 10000 1 0 15:37 17.10.2019
6037 Clouds 16 1015 59 10000 1.5 340 15:19 17.10.2019
6038 Clouds 17 1016 52 10000 1.5 340 14:43 17.10.2019
6039 Clouds 17 1016 55 10000 1.237 304 14:24 17.10.2019
6040 Clouds 17 1016 55 10000 1.237 304 14:24 17.10.2019
6041 Clouds 17 1016 55 10000 2.1 250 13:57 17.10.2019
6042 Clouds 17 1016 55 10000 2.1 250 13:39 17.10.2019
6043 Clouds 16 1016 59 10000 1 0 13:19 17.10.2019
6044 Clouds 15 1017 62 10000 0.5 0 12:41 17.10.2019
6045 Clouds 15 1017 62 10000 0.5 0 12:21 17.10.2019
6046 Clouds 14 1017 76 10000 1 0 11:59 17.10.2019
6047 Clouds 14 1017 76 10000 1 0 11:41 17.10.2019
6048 Clouds 14 1017 76 10000 1 0 11:41 17.10.2019
6049 Clouds 14 1017 76 10000 1 0 11:41 17.10.2019
6050 Clouds 14 1017 76 10000 1 0 11:41 17.10.2019
6051 Clouds 13 1017 71 10000 2.1 130 11:20 17.10.2019
6052 Clouds 13 1017 81 10000 2.1 100 10:56 17.10.2019
6053 Clouds 13 1017 81 10000 2.1 100 10:56 17.10.2019
6054 Clouds 12 1017 81 10000 2.1 100 10:38 17.10.2019
6055 Clouds 11 1017 87 10000 1.5 150 10:18 17.10.2019
6056 Clouds 11 1017 87 10000 2.6 100 09:54 17.10.2019
6057 Clouds 11 1017 87 10000 2.6 100 09:36 17.10.2019
6058 Clouds 9 1017 100 10000 1 150 09:18 17.10.2019
6059 Clouds 9 1017 100 10000 1 150 09:18 17.10.2019
6060 Clouds 8 1017 93 10000 1 0 08:42 17.10.2019
6061 Clouds 8 1017 93 10000 2.1 110 08:24 17.10.2019
6062 Clouds 8 1017 93 10000 2.1 90 07:56 17.10.2019
6063 Clouds 8 1017 93 10000 2.1 90 07:37 17.10.2019
6064 Clouds 9 1017 93 10000 2.6 110 07:18 17.10.2019
6065 Clouds 9 1017 93 10000 2.1 120 06:40 17.10.2019
6066 Clouds 9 1017 93 10000 1 0 06:21 17.10.2019
6067 Clouds 9 1017 93 10000 0.5 0 05:54 17.10.2019
6068 Clouds 9 1017 93 10000 0.5 0 05:32 17.10.2019
6069 Clouds 8 1017 93 10000 1.5 0 04:55 17.10.2019
6070 Clouds 8 1017 100 10000 2.1 180 03:55 17.10.2019
6071 Clouds 8 1017 100 10000 1.5 110 02:37 17.10.2019
6072 Clouds 8 1017 93 10000 1.5 0 01:31 17.10.2019
6073 Clouds 8 1017 100 10000 1 0 00:40 17.10.2019
6074 Clouds 8 1017 93 10000 1 0 00:19 17.10.2019
6075 Clouds 8 1016 100 10000 0.5 0 23:42 16.10.2019
6076 Clouds 8 1017 100 10000 1 0 23:21 16.10.2019
6077 Clouds 8 1016 93 10000 1 0 22:56 16.10.2019
6078 Clouds 8 1016 93 10000 1 0 22:56 16.10.2019
6079 Clouds 8 1016 93 10000 1 0 22:37 16.10.2019
6080 Clouds 8 1016 93 10000 1 0 22:19 16.10.2019
6081 Clouds 8 1016 93 10000 1 0 21:56 16.10.2019
6082 Clouds 8 1016 93 10000 2.1 170 21:37 16.10.2019
6083 Clouds 9 1016 93 10000 2.6 130 21:19 16.10.2019
6084 Clouds 9 1016 93 10000 2.6 130 21:19 16.10.2019
6085 Clouds 9 1016 93 10000 2.6 130 20:57 16.10.2019
6086 Clouds 9 1016 93 10000 1.083 160 20:38 16.10.2019
6087 Clouds 9 1016 100 10000 1 0 20:20 16.10.2019
6088 Clouds 10 1016 100 10000 1 0 19:58 16.10.2019
6089 Clouds 10 1016 87 10000 1 0 19:38 16.10.2019
6090 Clouds 11 1015 81 10000 1.083 160 19:20 16.10.2019
6091 Clouds 12 1015 71 10000 0.5 0 18:39 16.10.2019
6092 Clear 13 1015 67 10000 1.5 230 18:20 16.10.2019
6093 Clear 15 1015 62 10000 1.5 220 17:58 16.10.2019
6094 Clear 15 1015 62 10000 1.5 220 17:58 16.10.2019
6095 Clear 15 1015 62 10000 1.5 220 17:39 16.10.2019
6096 Clear 15 1015 58 10000 1 0 17:21 16.10.2019
6097 Clear 15 1015 58 10000 1 0 16:59 16.10.2019
6098 Clear 15 1016 55 10000 2.1 300 16:41 16.10.2019
6099 Clear 15 1016 55 10000 0.5 0 16:21 16.10.2019
6100 Clear 15 1016 54 10000 1.5 300 15:57 16.10.2019
6101 Clear 15 1016 55 10000 0.5 0 15:56 16.10.2019
6102 Clear 15 1016 54 10000 1.5 300 15:56 16.10.2019
6103 Clear 15 1016 54 10000 1.5 300 15:56 16.10.2019
6104 Clear 15 1016 54 10000 1.5 300 15:38 16.10.2019
6105 Clear 15 1016 54 10000 1.5 0 15:18 16.10.2019
6106 Clear 15 1016 54 10000 1.5 0 14:56 16.10.2019
6107 Clear 15 1016 54 10000 1.5 0 14:56 16.10.2019
6108 Clear 15 1016 54 10000 1.5 0 14:37 16.10.2019
6109 Clouds 14 1017 58 10000 1 0 14:18 16.10.2019
6110 Clear 14 1017 66 10000 1 0 13:55 16.10.2019
6111 Clear 14 1017 66 10000 1 0 13:55 16.10.2019
6112 Clear 14 1017 66 10000 1 0 13:36 16.10.2019
6113 Clear 13 1017 66 10000 1 0 13:18 16.10.2019
6114 Clear 13 1018 71 10000 1 140 12:40 16.10.2019
6115 Clear 12 1018 76 10000 2.1 110 12:18 16.10.2019
6116 Clouds 11 1018 71 10000 1 90 11:42 16.10.2019
6117 Clouds 10 1018 81 10000 2.1 100 11:18 16.10.2019
6118 Clouds 10 1018 87 10000 1 100 10:39 16.10.2019
6119 Clouds 9 1018 100 10000 1 0 10:20 16.10.2019
6120 Clouds 8 1018 100 10000 1 0 09:56 16.10.2019
6121 Clouds 8 1018 93 10000 1.5 0 09:38 16.10.2019
6122 Clouds 7 1018 93 10000 1 0 09:19 16.10.2019
6123 Fog 6 1018 100 10000 2.1 110 08:43 16.10.2019
6124 -273 0 0 0 0 0 08:24 16.10.2019
6125 Fog 6 1018 100 900 1 0 07:46 16.10.2019
6126 Fog 6 1018 100 7000 0.5 0 07:25 16.10.2019
6127 Fog 6 1018 100 7000 0.5 0 06:59 16.10.2019
6128 Fog 7 1018 93 10000 1.5 100 06:39 16.10.2019
6129 Fog 7 1018 100 200 2.1 130 05:48 16.10.2019
6130 Clouds 8 1017 100 10000 1 0 03:24 16.10.2019
6131 Clouds 8 1017 93 10000 0.5 0 02:47 16.10.2019
6132 Clouds 9 1017 93 10000 1 0 01:19 16.10.2019
6133 Clouds 9 1017 93 10000 0.5 0 00:49 16.10.2019
6134 Clouds 9 1017 93 10000 0.5 0 00:28 16.10.2019
6135 Rain 9 1017 87 10000 2.6 240 23:41 15.10.2019
6136 Rain 9 1017 100 10000 1 0 23:22 15.10.2019
6137 Rain 9 1017 100 10000 1 0 22:56 15.10.2019
6138 Rain 10 1017 93 9000 2.6 250 22:38 15.10.2019
6139 Rain 10 1016 87 10000 2.1 250 22:20 15.10.2019
6140 Rain 10 1016 87 10000 2.1 250 21:56 15.10.2019
6141 -273 0 0 0 0 0 21:56 15.10.2019
6142 Rain 10 1015 87 10000 1.5 0 21:38 15.10.2019
6143 Rain 10 1015 87 10000 1 0 21:20 15.10.2019
6144 Rain 10 1015 87 10000 1 0 20:57 15.10.2019
6145 Rain 10 1015 87 10000 3.6 210 20:39 15.10.2019
6146 Rain 10 1015 87 10000 3.6 210 20:39 15.10.2019
6147 Rain 10 1015 87 10000 3.6 210 20:39 15.10.2019
6148 Rain 10 1014 81 9000 2.6 230 20:20 15.10.2019
6149 Rain 10 1014 81 9000 2.6 230 20:20 15.10.2019
6150 Rain 11 1014 81 9000 2.6 230 19:58 15.10.2019
6151 Rain 11 1013 87 10000 1 0 19:40 15.10.2019
6152 Rain 11 1012 87 10000 1.5 30 19:20 15.10.2019
6153 Rain 11 1012 87 9000 3.6 280 18:47 15.10.2019
6154 Rain 11 1012 87 9000 3.6 280 18:29 15.10.2019
6155 Rain 12 1011 81 6000 7.7 260 17:59 15.10.2019
6156 Rain 12 1010 93 6000 1.5 0 17:40 15.10.2019
6157 Rain 12 1010 93 6000 1.5 0 17:40 15.10.2019
6158 Rain 12 1010 93 2000 1.5 310 17:20 15.10.2019
6159 Rain 12 1009 100 6000 1.5 360 16:56 15.10.2019
6160 Rain 12 1009 100 6000 1.5 360 16:37 15.10.2019
6161 Rain 12 1009 100 6000 1 270 16:19 15.10.2019
6162 Rain 12 1009 93 6000 2.6 340 15:42 15.10.2019
6163 Rain 13 1009 93 6000 1.5 310 15:21 15.10.2019
6164 Rain 13 1009 93 6000 1.5 310 14:58 15.10.2019
6165 Rain 13 1010 93 6000 2.1 330 14:38 15.10.2019
6166 Rain 13 1010 93 6000 2.1 330 14:38 15.10.2019
6167 Rain 13 1010 93 6000 2.1 330 14:38 15.10.2019
6168 Rain 13 1010 93 6000 2.1 330 14:38 15.10.2019
6169 Rain 13 1010 93 9000 1.5 0 14:20 15.10.2019
6170 Rain 14 1010 93 10000 2.6 320 13:55 15.10.2019
6171 Rain 14 1010 93 10000 2.6 320 13:37 15.10.2019
6172 Rain 14 1010 93 10000 1.5 350 13:18 15.10.2019
6173 Rain 14 1010 87 10000 4.1 310 12:41 15.10.2019
6174 Rain 14 1010 87 10000 4.1 300 12:21 15.10.2019
6175 Rain 14 1010 93 10000 1 0 11:56 15.10.2019
6176 Rain 14 1010 93 10000 1 0 11:37 15.10.2019
6177 Clouds 13 1009 93 10000 2.1 180 11:19 15.10.2019
6178 Clouds 13 1009 93 10000 2.1 180 11:19 15.10.2019
6179 Clouds 13 1009 93 10000 1.5 0 10:44 15.10.2019
6180 Clouds 13 1009 93 10000 1.5 0 10:44 15.10.2019
6181 Rain 12 1009 93 10000 1 0 10:21 15.10.2019
6182 Rain 12 1009 93 10000 1 0 09:58 15.10.2019
6183 Rain 12 1008 100 10000 1 0 09:38 15.10.2019
6184 Mist 11 1008 100 10000 1.5 0 09:19 15.10.2019
6185 Mist 11 1007 100 10000 0.5 0 08:43 15.10.2019
6186 Fog 10 1007 93 10000 1 310 08:22 15.10.2019
6187 Fog 10 1007 100 10000 1.5 0 07:59 15.10.2019
6188 Fog 10 1007 100 10000 1.5 0 07:41 15.10.2019
6189 Fog 10 1008 100 10000 1 0 07:20 15.10.2019
6190 Mist 11 1008 93 10000 2.1 330 06:45 15.10.2019
6191 Fog 10 1008 100 8000 1 0 06:27 15.10.2019
6192 Fog 10 1009 93 10000 1 0 05:43 15.10.2019
6193 Fog 10 1009 100 300 0.5 0 05:24 15.10.2019
6194 Fog 10 1009 100 5000 1 0 04:33 15.10.2019
6195 Fog 10 1010 100 6000 0.5 0 03:38 15.10.2019
6196 Fog 11 1011 100 8000 1 0 02:42 15.10.2019
6197 Mist 11 1012 100 9000 0.5 0 01:49 15.10.2019
6198 Clouds 12 1012 100 10000 1 0 01:22 15.10.2019
6199 Fog 12 1012 93 10000 1 0 00:49 15.10.2019
6200 Clear 12 1013 100 10000 2.6 100 00:22 15.10.2019
6201 Clear 12 1013 93 10000 3.6 90 23:45 14.10.2019
6202 Mist 13 1013 100 10000 3.1 90 23:21 14.10.2019
6203 Mist 13 1013 100 10000 3.1 90 22:58 14.10.2019
6204 Clouds 13 1013 93 10000 3.6 110 22:38 14.10.2019
6205 Clear 13 1013 100 10000 0.5 0 22:19 14.10.2019
6206 Clear 13 1013 93 10000 16.5 0 21:56 14.10.2019
6207 Clear 13 1013 93 10000 16.5 0 21:37 14.10.2019
6208 Clear 13 1013 100 10000 1 0 21:19 14.10.2019
6209 Clear 14 1013 100 10000 1 0 20:55 14.10.2019
6210 Clear 14 1013 100 10000 1 0 20:55 14.10.2019
6211 Clear 14 1013 100 10000 1 0 20:54 14.10.2019
6212 -273 0 0 0 0 0 20:54 14.10.2019
6213 Clear 14 1013 100 10000 1 0 20:36 14.10.2019
6214 Clear 14 1013 100 10000 1 0 20:36 14.10.2019
6215 Clear 14 1013 93 10000 1 0 20:18 14.10.2019
6216 Clear 15 1013 87 10000 1 120 19:41 14.10.2019
6217 Clear 15 1013 87 10000 1 120 19:41 14.10.2019
6218 Clear 16 1012 82 10000 1.344 185 19:23 14.10.2019
6219 Clear 16 1012 82 10000 1.344 185 19:23 14.10.2019
6220 Clear 16 1013 77 10000 2.1 260 18:58 14.10.2019
6221 Clear 17 1013 77 10000 2.1 260 18:39 14.10.2019
6222 Clear 19 1013 68 10000 1.5 240 18:19 14.10.2019
6223 Clear 20 1013 60 10000 1 0 17:57 14.10.2019
6224 Clear 20 1013 60 10000 1 0 17:57 14.10.2019
6225 Clear 20 1013 60 10000 1 0 17:38 14.10.2019
6226 Clear 20 1013 60 10000 1 0 17:38 14.10.2019
6227 Clear 21 1013 64 10000 2.1 290 17:19 14.10.2019
6228 Clear 21 1014 56 10000 2.6 290 16:44 14.10.2019
6229 Clear 21 1014 56 10000 2.6 280 16:21 14.10.2019
6230 Clear 21 1015 53 10000 1.5 270 15:43 14.10.2019
6231 Clear 21 1015 60 10000 1.5 270 15:24 14.10.2019
6232 Clear 21 1015 60 10000 1.5 270 14:58 14.10.2019
6233 Clear 20 1015 56 10000 1.5 220 14:39 14.10.2019
6234 Clear 20 1016 64 10000 1 0 14:20 14.10.2019
6235 Clear 20 1016 63 10000 1 0 13:44 14.10.2019
6236 Clear 19 1017 63 10000 1 0 13:21 14.10.2019
6237 Clear 18 1017 72 10000 1.5 0 12:55 14.10.2019
6238 Clear 18 1017 72 10000 1.5 0 12:37 14.10.2019
6239 Clear 17 1017 68 10000 1.5 150 12:18 14.10.2019
6240 Mist 16 1017 77 10000 1.5 160 11:44 14.10.2019
6241 Clear 16 1018 82 10000 1.5 160 11:26 14.10.2019
6242 Fog 15 1018 93 10000 1 300 10:57 14.10.2019
6243 Fog 14 1018 93 10000 1 300 10:38 14.10.2019
6244 Fog 13 1018 100 10000 1 270 10:19 14.10.2019
6245 Fog 12 1018 100 10000 1 0 09:42 14.10.2019
6246 Fog 11 1018 100 10000 1.5 160 09:21 14.10.2019
6247 Fog 10 1017 100 6000 0.5 100 08:52 14.10.2019
6248 Fog 9 1017 100 6000 0.5 0 08:23 14.10.2019
6249 Fog 9 1017 100 6000 1 0 07:59 14.10.2019
6250 Fog 9 1017 100 6000 1 0 07:39 14.10.2019
6251 Fog 10 1017 100 5000 1 190 07:18 14.10.2019
6252 Fog 10 1017 100 5000 1 0 06:37 14.10.2019
6253 Fog 10 1018 100 10000 1.61 210.103 06:18 14.10.2019
6254 Fog 10 1018 100 500 1 150 05:42 14.10.2019
6255 Fog 10 1018 100 10000 0.5 100 04:42 14.10.2019
6256 Fog 11 1018 100 1100 0.5 0 03:27 14.10.2019
6257 Fog 12 1019 100 10000 1 0 02:42 14.10.2019
6258 Fog 12 1019 93 10000 1 0 01:23 14.10.2019
6259 Fog 12 1019 93 10000 1 0 00:53 14.10.2019
6260 Fog 12 1019 93 10000 1 0 00:53 14.10.2019
6261 Fog 13 1019 100 10000 1 0 00:19 14.10.2019
6262 Mist 13 1018 93 10000 0.5 0 23:44 13.10.2019
6263 Clear 13 1018 93 10000 0.5 0 23:20 13.10.2019
6264 Clear 13 1018 93 10000 0.5 0 22:58 13.10.2019
6265 Mist 13 1018 93 10000 1.5 0 22:40 13.10.2019
6266 Clear 14 1018 93 10000 1 0 22:21 13.10.2019
6267 Clear 14 1018 93 10000 1 0 21:58 13.10.2019
6268 Clear 14 1018 93 10000 1.5 0 21:37 13.10.2019
6269 Clear 15 1017 93 10000 2.1 110 21:19 13.10.2019
6270 Clear 15 1017 93 10000 2.1 110 21:19 13.10.2019
6271 Clear 15 1017 93 10000 2.1 110 20:57 13.10.2019
6272 Clear 15 1017 93 10000 2.1 110 20:57 13.10.2019
6273 Mist 15 1017 82 10000 3.1 90 20:38 13.10.2019
6274 Clear 16 1017 77 10000 3.1 100 20:20 13.10.2019
6275 Clear 16 1017 82 10000 3.6 110 19:58 13.10.2019
6276 Clear 15 1017 77 10000 3.1 100 19:58 13.10.2019
6277 Clear 15 1017 77 10000 3.1 100 19:57 13.10.2019
6278 Clear 17 1017 82 10000 3.6 110 19:39 13.10.2019
6279 Clear 17 1017 82 10000 3.6 110 19:39 13.10.2019
6280 Clear 17 1017 82 10000 2.1 110 19:20 13.10.2019
6281 Clear 18 1017 72 10000 1.5 0 18:55 13.10.2019
6282 Clear 19 1017 72 10000 1.5 0 18:36 13.10.2019
6283 Clear 20 1017 64 10000 2.1 180 18:18 13.10.2019
6284 Clear 21 1017 60 10000 1.5 190 17:44 13.10.2019
6285 -273 0 0 0 0 0 17:25 13.10.2019
6286 -273 0 0 0 0 0 17:25 13.10.2019
6287 Clear 21 1017 53 10000 1 0 17:25 13.10.2019
6288 Clear 22 1017 50 10000 3.17 205.132 16:54 13.10.2019
6289 -273 0 0 0 0 0 16:36 13.10.2019
6290 Clear 22 1017 56 10000 3.17 205.132 16:18 13.10.2019
6291 Clear 21 1017 56 10000 1 0 15:54 13.10.2019
6292 Clear 21 1017 56 10000 1 0 15:36 13.10.2019
6293 Clear 21 1017 56 10000 0.5 0 15:18 13.10.2019
6294 Clear 21 1018 56 10000 1 0 14:40 13.10.2019
6295 Clouds 21 1018 60 10000 1 0 14:22 13.10.2019
6296 Clouds 20 1018 60 10000 1 0 13:59 13.10.2019
6297 Clear 20 1018 64 10000 1.5 180 13:38 13.10.2019
6298 Clear 20 1018 64 10000 1.5 180 13:38 13.10.2019
6299 Clear 20 1018 64 10000 1.5 180 13:38 13.10.2019
6300 Clouds 20 1019 68 10000 2.1 160 13:20 13.10.2019
6301 Clear 19 1019 72 10000 2.1 140 12:56 13.10.2019
6302 Clear 18 1019 72 10000 2.1 140 12:38 13.10.2019
6303 Clear 17 1019 82 10000 2.1 160 12:19 13.10.2019
6304 Clear 16 1019 87 10000 1 0 11:56 13.10.2019
6305 Clear 15 1019 87 10000 1 0 11:38 13.10.2019
6306 Clear 14 1019 93 10000 0.5 0 11:18 13.10.2019
6307 Clear 14 1019 100 10000 0.5 0 10:42 13.10.2019
6308 Clear 14 1018 100 10000 1.5 230 10:23 13.10.2019
6309 Fog 13 1018 100 10000 2.1 0 09:56 13.10.2019
6310 Fog 13 1018 100 10000 2.1 0 09:37 13.10.2019
6311 Fog 11 1018 100 10000 1 0 09:19 13.10.2019
6312 Fog 11 1018 100 10000 1 140 08:42 13.10.2019
6313 -273 0 0 0 0 0 08:21 13.10.2019
6314 Fog 10 1018 93 10000 2.1 100 07:46 13.10.2019
6315 Fog 10 1018 93 10000 2.6 110 07:23 13.10.2019
6316 Fog 10 1018 93 10000 2.1 180 06:42 13.10.2019
6317 Fog 11 1019 93 10000 0.5 0 05:49 13.10.2019
6318 Mist 11 1019 93 10000 0.5 0 04:52 13.10.2019
6319 Mist 11 1019 93 10000 0.5 0 04:32 13.10.2019
6320 Mist 11 1019 100 10000 0.5 0 02:42 13.10.2019
6321 Mist 11 1019 100 10000 0.5 0 02:42 13.10.2019
6322 Mist 11 1019 93 10000 1 0 01:59 13.10.2019
6323 Mist 12 1019 93 10000 2.1 160 01:31 13.10.2019
6324 Fog 12 1019 100 10000 1.5 0 00:50 13.10.2019
6325 Clear 12 1019 93 10000 1.5 130 00:22 13.10.2019
6326 Clear 13 1019 93 10000 2.1 130 23:57 12.10.2019
6327 Clear 13 1019 93 10000 2.1 130 23:39 12.10.2019
6328 Mist 13 1019 93 10000 3.6 215.073 23:20 12.10.2019
6329 Clear 13 1019 93 10000 1.5 150 22:57 12.10.2019
6330 Clear 13 1019 100 10000 3.6 215.073 22:38 12.10.2019
6331 Clouds 14 1019 93 10000 1 230 22:20 12.10.2019
6332 Clouds 14 1019 93 10000 1 0 21:55 12.10.2019
6333 Clouds 14 1019 93 10000 1 0 21:37 12.10.2019
6334 Clouds 15 1019 82 10000 1.5 0 21:18 12.10.2019
6335 Rain 15 1019 82 10000 2.1 70 20:40 12.10.2019
6336 Clouds 15 1019 77 10000 2.6 100 20:22 12.10.2019
6337 Clouds 15 1019 82 10000 2.6 90 19:39 12.10.2019
6338 Clouds 15 1019 82 10000 2.6 90 19:39 12.10.2019
6339 Clouds 16 1018 72 10000 2.1 100 19:20 12.10.2019
6340 Clouds 16 1018 72 10000 2.1 100 18:59 12.10.2019
6341 Clouds 16 1018 72 10000 2.6 110 18:40 12.10.2019
6342 Clouds 16 1018 72 10000 2.6 110 18:40 12.10.2019
6343 Clouds 17 1018 67 10000 2.6 110 18:22 12.10.2019
6344 Clouds 18 1018 68 10000 1.5 0 17:43 12.10.2019
6345 Clouds 18 1018 68 10000 2.6 110 17:19 12.10.2019
6346 Clear 18 1019 59 10000 2.6 130 16:55 12.10.2019
6347 Clear 19 1019 59 10000 2.6 130 16:36 12.10.2019
6348 Clear 19 1019 59 10000 2.6 130 16:36 12.10.2019
6349 Clouds 19 1018 59 10000 1 0 16:18 12.10.2019
6350 Clouds 19 1018 63 10000 2.6 130 15:44 12.10.2019
6351 Clouds 18 1019 59 10000 1.5 320 15:25 12.10.2019
6352 Clouds 18 1019 59 10000 1 0 14:43 12.10.2019
6353 Clear 17 1019 63 10000 4.54 206.712 14:22 12.10.2019
6354 Clear 17 1019 63 10000 4.54 206.712 13:59 12.10.2019
6355 Clear 17 1019 67 10000 0.5 0 13:40 12.10.2019
6356 Clouds 17 1019 63 10000 0.5 0 13:21 12.10.2019
6357 Clear 16 1019 67 10000 2.1 140 12:40 12.10.2019
6358 Clear 16 1020 67 10000 1.5 0 12:22 12.10.2019
6359 Clear 15 1020 67 10000 1.5 0 11:59 12.10.2019
6360 Clear 14 1020 76 10000 2.1 140 11:39 12.10.2019
6361 Clear 13 1020 87 10000 2.1 100 11:20 12.10.2019
6362 Clear 13 1020 81 10000 2.1 140 10:45 12.10.2019
6363 Fog 11 1020 87 10000 2.1 90 10:25 12.10.2019
6364 Fog 11 1020 87 10000 2.1 90 09:58 12.10.2019
6365 Fog 11 1020 87 10000 2.1 90 09:58 12.10.2019
6366 Fog 11 1020 100 10000 0.5 0 09:40 12.10.2019
6367 Fog 8 1020 100 10000 0.5 0 09:22 12.10.2019
6368 Fog 8 1020 100 10000 0.5 0 08:58 12.10.2019
6369 Fog 7 1020 100 10000 0.5 0 08:38 12.10.2019
6370 Fog 7 1020 100 10000 0.5 0 08:20 12.10.2019
6371 Fog 7 1020 100 10000 0.5 0 08:20 12.10.2019
6372 Fog 7 1020 100 10000 1.5 0 07:35 12.10.2019
6373 Fog 7 1019 93 10000 0.5 0 06:57 12.10.2019
6374 Fog 7 1019 100 10000 0.5 0 05:48 12.10.2019
6375 Fog 7 1019 100 10000 0.5 0 05:23 12.10.2019
6376 Fog 7 1019 100 10000 1.5 0 04:24 12.10.2019
6377 Fog 8 1019 100 10000 1 0 03:33 12.10.2019
6378 Clear 8 1020 100 10000 1.5 0 01:50 12.10.2019
6379 Mist 9 1020 100 10000 2.1 110 01:24 12.10.2019
6380 Fog 9 1020 93 10000 2.1 110 00:42 12.10.2019
6381 Clear 9 1020 100 10000 1 0 00:19 12.10.2019
6382 Fog 9 1020 100 10000 2.6 90 23:40 11.10.2019
6383 Clear 9 1020 93 10000 0.5 0 23:20 11.10.2019
6384 Clear 10 1020 100 10000 0.5 0 22:41 11.10.2019
6385 Mist 10 1019 100 10000 1 0 22:22 11.10.2019
6386 Mist 10 1019 100 10000 1 0 21:59 11.10.2019
6387 Clear 10 1019 93 10000 1.5 0 21:40 11.10.2019
6388 Clear 10 1019 87 10000 2.1 120 21:21 11.10.2019
6389 Clear 10 1019 87 10000 1.5 100 20:45 11.10.2019
6390 Clear 11 1019 87 10000 1.5 100 20:27 11.10.2019
6391 Clear 11 1019 81 10000 1.5 140 19:59 11.10.2019
6392 Clear 12 1019 87 10000 0.5 0 19:39 11.10.2019
6393 Clear 12 1019 82 10000 0.5 0 19:18 11.10.2019
6394 Clear 12 1019 82 10000 0.5 0 19:18 11.10.2019
6395 Clear 12 1019 82 10000 0.5 0 19:18 11.10.2019
6396 Clear 12 1019 82 10000 0.5 0 19:18 11.10.2019
6397 Clear 12 1019 82 10000 0.5 0 19:18 11.10.2019
6398 Clear 13 1019 82 10000 0.5 0 18:59 11.10.2019
6399 Clear 13 1019 82 10000 0.5 0 18:59 11.10.2019
6400 Clear 14 1019 72 10000 1 250 18:38 11.10.2019
6401 Clear 15 1019 63 10000 1.5 220 18:19 11.10.2019
6402 Clear 15 1019 63 10000 1.5 220 18:19 11.10.2019
6403 Clear 16 1019 63 10000 1.5 220 17:59 11.10.2019
6404 Clear 16 1019 63 10000 1.5 220 17:59 11.10.2019
6405 Clear 17 1019 55 10000 1.5 230 17:38 11.10.2019
6406 Clear 17 1019 55 10000 2.6 250 17:19 11.10.2019
6407 Clear 17 1019 55 10000 2.6 250 16:58 11.10.2019
6408 Clear 17 1019 55 10000 3.1 250 16:39 11.10.2019
6409 Clear 17 1019 55 10000 1.5 160 16:19 11.10.2019
6410 Clear 17 1020 48 10000 3.02 205.384 15:42 11.10.2019
6411 Clear 17 1020 51 10000 1 0 15:22 11.10.2019
6412 Clear 16 1021 59 10000 1 0 14:59 11.10.2019
6413 Clear 16 1021 59 10000 1 0 14:40 11.10.2019
6414 Clear 16 1021 58 10000 2.1 330 14:21 11.10.2019
6415 Clear 15 1022 62 10000 2.6 320 13:45 11.10.2019
6416 Clear 15 1022 67 10000 1.5 0 13:25 11.10.2019
6417 Clear 14 1022 67 10000 1.5 0 12:57 11.10.2019
6418 Clear 14 1022 67 10000 1 0 12:39 11.10.2019
6419 Clear 13 1022 62 10000 0.5 0 12:20 11.10.2019
6420 Clear 12 1023 71 10000 1.5 150 11:58 11.10.2019
6421 Clear 12 1023 71 10000 1.5 150 11:38 11.10.2019
6422 Clear 11 1023 81 10000 1 140 11:20 11.10.2019
6423 Clear 11 1023 81 10000 1 185.143 10:55 11.10.2019
6424 Clear 10 1023 81 10000 1 185.143 10:36 11.10.2019
6425 Clear 9 1023 100 10000 1 0 10:18 11.10.2019
6426 Fog 8 1023 93 10000 0.5 0 09:42 11.10.2019
6427 Fog 6 1023 93 10000 1.5 0 09:21 11.10.2019
6428 Fog 6 1023 93 10000 1.5 0 08:57 11.10.2019
6429 Fog 5 1022 100 10000 0.59 231.69 08:38 11.10.2019
6430 Fog 5 1022 93 10000 2.6 120 08:20 11.10.2019
6431 Fog 5 1022 100 10000 1 0 07:53 11.10.2019
6432 Fog 5 1022 100 10000 1 0 07:34 11.10.2019
6433 Fog 5 1023 100 10000 1 250 06:50 11.10.2019
6434 Fog 5 1023 100 10000 0.5 0 06:25 11.10.2019
6435 Fog 5 1023 100 10000 0.5 0 05:47 11.10.2019
6436 Fog 5 1023 100 10000 0.5 0 05:29 11.10.2019
6437 Fog 5 1023 100 10000 1.5 170 04:58 11.10.2019
6438 Clear 6 1023 100 10000 1 0 03:27 11.10.2019
6439 Mist 7 1023 93 10000 0.5 0 01:18 11.10.2019
6440 Clear 7 1023 100 10000 1 0 00:31 11.10.2019
6441 Clear 7 1023 100 10000 1.5 0 23:58 10.10.2019
6442 Clear 7 1023 100 10000 1 160 23:40 10.10.2019
6443 Clear 8 1023 93 10000 0.5 0 23:19 10.10.2019
6444 Clear 8 1023 93 10000 0.5 0 22:56 10.10.2019
6445 Clear 8 1023 93 10000 2.6 90 22:36 10.10.2019
6446 Clear 8 1023 100 10000 0.5 0 22:18 10.10.2019
6447 Clear 9 1023 100 10000 0.5 0 21:42 10.10.2019
6448 Clear 9 1023 100 10000 0.5 0 21:22 10.10.2019
6449 Clear 9 1023 100 10000 0.5 0 20:58 10.10.2019
6450 Clear 10 1023 93 10000 0.5 0 20:39 10.10.2019
6451 Clear 10 1023 93 10000 0.5 0 20:20 10.10.2019
6452 Clear 11 1022 81 10000 0.5 0 19:57 10.10.2019
6453 Clear 11 1022 81 10000 0.5 0 19:57 10.10.2019
6454 Clear 11 1022 81 10000 0.5 0 19:39 10.10.2019
6455 Clear 11 1022 76 10000 0.5 0 19:19 10.10.2019
6456 Clear 12 1022 66 10000 1 0 18:42 10.10.2019
6457 Clouds 14 1022 54 10000 2.1 0 18:21 10.10.2019
6458 Clouds 14 1022 58 10000 3.6 280 17:59 10.10.2019
6459 Clouds 15 1022 58 10000 3.6 280 17:40 10.10.2019
6460 Clouds 15 1022 58 10000 3.6 280 17:40 10.10.2019
6461 Clouds 15 1021 58 10000 4.6 290 17:19 10.10.2019
6462 Clouds 15 1021 62 10000 5.1 280 16:56 10.10.2019
6463 Clouds 15 1021 62 10000 5.1 280 16:56 10.10.2019
6464 Clouds 15 1021 62 10000 5.1 280 16:37 10.10.2019
6465 Clouds 15 1021 51 10000 4.6 270 16:18 10.10.2019
6466 Rain 15 1021 62 10000 4.6 270 15:40 10.10.2019
6467 Clouds 15 1021 62 10000 6.2 290 15:22 10.10.2019
6468 Clouds 15 1021 62 10000 6.2 290 15:22 10.10.2019
6469 Rain 15 1021 58 9000 4.6 290 14:57 10.10.2019
6470 Rain 15 1021 58 9000 4.6 290 14:37 10.10.2019
6471 Rain 14 1021 54 10000 6.2 270 14:19 10.10.2019
6472 Rain 14 1021 54 10000 6.2 270 13:57 10.10.2019
6473 Rain 14 1021 58 10000 3.6 220 13:39 10.10.2019
6474 Rain 14 1021 58 10000 2.1 260 13:18 10.10.2019
6475 Clouds 14 1021 62 10000 2.6 250 12:42 10.10.2019
6476 Clouds 12 1021 62 10000 4.6 250 12:21 10.10.2019
6477 Rain 12 1021 66 10000 4.1 250 11:58 10.10.2019
6478 Rain 12 1021 66 10000 4.1 250 11:40 10.10.2019
6479 Drizzle 12 1021 62 10000 3.1 270 11:19 10.10.2019
6480 Rain 12 1021 66 10000 2.6 250 10:47 10.10.2019
6481 Rain 11 1021 66 10000 2.6 250 10:28 10.10.2019
6482 Rain 11 1020 62 10000 4.1 260 09:59 10.10.2019
6483 Rain 11 1020 71 10000 3.1 240 09:41 10.10.2019
6484 Rain 10 1019 71 10000 2.6 260 09:23 10.10.2019
6485 Rain 10 1019 71 10000 2.6 260 08:59 10.10.2019
6486 Rain 10 1019 66 10000 2.1 200 08:39 10.10.2019
6487 Rain 10 1019 66 10000 3.1 230 08:19 10.10.2019
6488 Rain 10 1019 76 10000 1.5 0 07:47 10.10.2019
6489 Clouds 10 1019 71 10000 1 0 07:25 10.10.2019
6490 Clouds 10 1018 76 10000 1.5 0 06:55 10.10.2019
6491 Clouds 10 1018 76 10000 1.5 0 06:36 10.10.2019
6492 Clouds 10 1018 71 10000 1 0 05:39 10.10.2019
6493 Clouds 10 1018 71 10000 2.1 0 05:18 10.10.2019
6494 Rain 10 1018 76 10000 2.6 200 04:34 10.10.2019
6495 Rain 10 1018 87 10000 1.5 110 02:29 10.10.2019
6496 Drizzle 10 1017 81 10000 1 0 01:37 10.10.2019
6497 Drizzle 10 1017 81 10000 1 0 01:37 10.10.2019
6498 Rain 10 1017 76 10000 1.5 250 01:18 10.10.2019
6499 Rain 10 1018 81 10000 4.1 320 00:29 10.10.2019
6500 Rain 10 1018 76 10000 3.1 210 23:42 09.10.2019
6501 Rain 10 1018 76 10000 5.1 250 23:24 09.10.2019
6502 Rain 10 1018 76 10000 5.1 250 22:59 09.10.2019
6503 Rain 10 1018 76 10000 0.5 0 22:41 09.10.2019
6504 Rain 10 1017 81 10000 2.1 150 22:22 09.10.2019
6505 Rain 10 1017 81 10000 2.1 150 22:22 09.10.2019
6506 Rain 10 1017 81 10000 2.1 150 21:56 09.10.2019
6507 Rain 10 1017 76 10000 3.1 200 21:38 09.10.2019
6508 Rain 10 1017 76 10000 3.1 200 21:38 09.10.2019
6509 Mist 10 1017 71 10000 2.6 240 21:18 09.10.2019
6510 Clouds 10 1017 71 10000 1 0 20:54 09.10.2019
6511 Clouds 10 1017 71 10000 1 0 20:36 09.10.2019
6512 Rain 10 1017 81 10000 1 0 20:18 09.10.2019
6513 Rain 10 1017 81 10000 1 0 20:18 09.10.2019
6514 Rain 10 1017 71 10000 1 0 19:43 09.10.2019
6515 Rain 10 1017 81 10000 2.1 340 19:22 09.10.2019
6516 Rain 10 1017 81 10000 1.5 0 18:39 09.10.2019
6517 Rain 11 1017 71 10000 3.6 310 18:21 09.10.2019
6518 Rain 11 1017 71 10000 3.6 310 17:58 09.10.2019
6519 Rain 11 1016 66 10000 3.1 250 17:40 09.10.2019
6520 Rain 10 1017 66 10000 3.6 260 17:22 09.10.2019
6521 Rain 11 1017 66 10000 3.6 260 16:57 09.10.2019
6522 Drizzle 11 1016 66 10000 2.1 250 16:39 09.10.2019
6523 Rain 11 1017 71 10000 5.1 210 16:21 09.10.2019
6524 Rain 11 1017 71 10000 5.1 210 16:21 09.10.2019
6525 Rain 11 1017 71 10000 5.1 210 15:57 09.10.2019
6526 Rain 11 1017 71 10000 4.1 240 15:38 09.10.2019
6527 Rain 11 1017 71 10000 4.1 240 15:38 09.10.2019
6528 Rain 11 1017 76 10000 3.6 270 15:19 09.10.2019
6529 Rain 11 1016 87 10000 3.1 270 14:55 09.10.2019
6530 Rain 11 1016 87 10000 3.1 270 14:36 09.10.2019
6531 Rain 11 1016 81 6000 6.2 280 14:18 09.10.2019
6532 Rain 11 1016 81 7000 7.2 280 13:38 09.10.2019
6533 Rain 11 1015 87 9000 4.6 280 13:20 09.10.2019
6534 Rain 11 1015 87 8000 5.1 270 12:56 09.10.2019
6535 Rain 11 1015 87 8000 5.1 270 12:37 09.10.2019
6536 Rain 11 1015 93 7000 3.6 330 12:19 09.10.2019
6537 Rain 12 1015 87 6000 4.6 300 11:40 09.10.2019
6538 Rain 12 1015 87 6000 4.6 300 11:40 09.10.2019
6539 Rain 12 1014 100 10000 5.1 320 11:21 09.10.2019
6540 Rain 12 1014 100 7000 5.1 310 10:59 09.10.2019
6541 Rain 12 1014 100 7000 5.1 310 10:40 09.10.2019
6542 Rain 12 1013 93 5000 3.6 320 10:19 09.10.2019
6543 Rain 12 1013 93 10000 2.6 320 09:56 09.10.2019
6544 Rain 13 1013 93 10000 2.6 320 09:38 09.10.2019
6545 Rain 13 1013 93 9000 4.1 290 09:18 09.10.2019
6546 Rain 13 1013 93 7000 4.6 300 08:39 09.10.2019
6547 Rain 13 1013 87 10000 4.6 290 08:20 09.10.2019
6548 Rain 13 1013 93 10000 3.6 310 07:47 09.10.2019
6549 Rain 13 1013 93 10000 3.6 310 07:47 09.10.2019
6550 Rain 13 1013 87 10000 3.6 300 07:25 09.10.2019
6551 Rain 13 1014 87 4800 5.1 260 06:58 09.10.2019
6552 Rain 13 1014 87 4800 5.1 260 06:40 09.10.2019
6553 Rain 13 1014 87 4300 5.1 280 05:53 09.10.2019
6554 Rain 13 1014 87 6000 3.6 250 04:56 09.10.2019
6555 Rain 14 1014 87 4900 5.7 270 03:48 09.10.2019
6556 Rain 14 1014 87 4900 5.7 270 03:48 09.10.2019
6557 Rain 14 1014 87 10000 5.7 320 02:34 09.10.2019
6558 Rain 15 1013 59 10000 5.7 300 01:39 09.10.2019
6559 Drizzle 15 1013 67 10000 2.1 290 01:18 09.10.2019
6560 Rain 15 1014 82 10000 2.1 120 00:42 09.10.2019
6561 Rain 15 1013 59 10000 4.6 260 00:23 09.10.2019
6562 Rain 15 1013 59 10000 4.6 260 23:58 08.10.2019
6563 Clouds 15 1014 82 10000 1 0 23:38 08.10.2019
6564 Rain 15 1014 82 10000 0.5 0 23:18 08.10.2019
6565 Rain 15 1014 82 10000 0.5 0 23:18 08.10.2019
6566 Clouds 15 1014 82 10000 1 0 22:55 08.10.2019
6567 Clouds 15 1014 82 10000 1 0 22:36 08.10.2019
6568 Clouds 15 1014 87 10000 2.1 110 22:18 08.10.2019
6569 Clouds 15 1014 87 10000 1.5 0 21:55 08.10.2019
6570 Clouds 15 1014 87 10000 1.5 0 21:36 08.10.2019
6571 Clouds 15 1014 87 10000 1.5 0 21:36 08.10.2019
6572 Clouds 15 1014 82 10000 2.1 120 21:18 08.10.2019
6573 Clouds 15 1014 87 10000 1.5 0 20:54 08.10.2019
6574 Clouds 15 1014 87 10000 1.5 0 20:36 08.10.2019
6575 Clouds 15 1014 87 10000 1.5 0 20:18 08.10.2019
6576 Clouds 15 1014 82 10000 1.5 120 19:41 08.10.2019
6577 Clouds 15 1014 72 10000 1.5 150 19:23 08.10.2019
6578 Clouds 16 1013 67 10000 2.6 100 18:57 08.10.2019
6579 Clouds 16 1013 67 10000 2.6 100 18:39 08.10.2019
6580 Clouds 17 1014 67 10000 3.1 140 18:19 08.10.2019
6581 Clouds 17 1014 59 10000 3.1 140 17:56 08.10.2019
6582 Clouds 17 1014 59 10000 3.1 140 17:38 08.10.2019
6583 Clouds 18 1014 56 10000 1.5 150 17:18 08.10.2019
6584 Clouds 18 1014 63 10000 4.6 230 16:41 08.10.2019
6585 Clouds 18 1015 56 10000 2.1 140 16:22 08.10.2019
6586 Clouds 18 1015 52 10000 1 0 15:57 08.10.2019
6587 Clouds 17 1015 59 10000 4.6 240 15:38 08.10.2019
6588 Clouds 17 1015 52 10000 1.5 0 15:19 08.10.2019
6589 Clouds 16 1016 59 10000 2.1 140 14:42 08.10.2019
6590 Clouds 16 1016 59 10000 2.1 140 14:42 08.10.2019
6591 Clouds 16 1016 62 10000 2.6 140 14:21 08.10.2019
6592 Clouds 16 1017 67 10000 3.1 140 13:59 08.10.2019
6593 Clouds 16 1017 67 10000 3.1 140 13:39 08.10.2019
6594 Clouds 15 1017 67 10000 2.1 140 13:21 08.10.2019
6595 Clouds 15 1017 67 10000 2.1 140 12:59 08.10.2019
6596 Clouds 14 1017 67 10000 1.5 130 12:40 08.10.2019
6597 Clouds 13 1018 81 10000 2.1 150 12:20 08.10.2019
6598 Clouds 12 1018 81 10000 1.5 130 11:56 08.10.2019
6599 Clouds 12 1018 81 10000 1.5 130 11:37 08.10.2019
6600 Clouds 11 1018 81 10000 1 0 11:19 08.10.2019
6601 Clouds 11 1018 87 10000 1.5 0 10:40 08.10.2019
6602 Clouds 10 1018 93 10000 1.5 0 10:22 08.10.2019
6603 Clouds 10 1018 100 10000 1 0 09:58 08.10.2019
6604 Clouds 9 1018 100 10000 1 0 09:40 08.10.2019
6605 Clouds 9 1018 93 10000 1.5 0 09:20 08.10.2019
6606 Clouds 8 1019 93 10000 0.5 0 08:44 08.10.2019
6607 Clouds 8 1019 100 10000 1 180 08:25 08.10.2019
6608 Clouds 8 1019 93 10000 1.5 160 07:47 08.10.2019
6609 Clouds 7 1019 100 10000 2.77 229.166 07:23 08.10.2019
6610 Clouds 7 1019 93 10000 2.77 229.166 06:57 08.10.2019
6611 Clear 7 1019 100 10000 1 0 06:36 08.10.2019
6612 Fog 7 1019 100 10000 1.5 100 05:59 08.10.2019
6613 Fog 7 1019 100 10000 1.5 100 05:40 08.10.2019
6614 Fog 7 1019 93 10000 1.5 140 04:55 08.10.2019
6615 Fog 7 1020 100 10000 0.5 0 03:30 08.10.2019
6616 Fog 7 1020 100 10000 0.5 0 03:30 08.10.2019
6617 Clouds 7 1020 100 10000 0.5 0 02:40 08.10.2019
6618 Clouds 7 1020 100 10000 1 150 01:51 08.10.2019
6619 Clouds 7 1020 100 10000 1 150 01:32 08.10.2019
6620 Clear 7 1020 100 10000 1 0 00:55 08.10.2019
6621 Clear 7 1020 100 10000 1.5 170 00:22 08.10.2019
6622 Clouds 8 1020 100 10000 0.5 0 23:43 07.10.2019
6623 Clear 8 1020 93 10000 1 0 23:21 07.10.2019
6624 Clear 8 1020 93 10000 1 0 22:58 07.10.2019
6625 Clear 8 1020 93 10000 1 0 22:58 07.10.2019
6626 Clear 8 1020 93 10000 1 0 22:40 07.10.2019
6627 Clear 8 1020 100 10000 1 0 22:21 07.10.2019
6628 Clear 8 1020 100 10000 1 0 22:21 07.10.2019
6629 Clouds 8 1020 100 10000 1 150 21:58 07.10.2019
6630 Clouds 8 1020 100 10000 1 150 21:40 07.10.2019
6631 Clouds 8 1020 93 10000 1 110 21:20 07.10.2019
6632 Clouds 9 1019 93 10000 1 0 20:58 07.10.2019
6633 Clouds 9 1019 93 10000 1 0 20:39 07.10.2019
6634 Clouds 10 1019 93 10000 2.12 332.866 20:20 07.10.2019
6635 Clouds 10 1019 93 10000 2.12 332.866 19:58 07.10.2019
6636 Clouds 10 1019 81 10000 2.12 332.866 19:40 07.10.2019
6637 Clouds 11 1019 71 10000 1.5 320 19:20 07.10.2019
6638 Clouds 11 1019 71 10000 1.5 320 19:20 07.10.2019
6639 Clouds 11 1019 71 10000 1.5 320 18:58 07.10.2019
6640 Clear 12 1019 71 10000 2.1 310 18:38 07.10.2019
6641 Clouds 13 1019 51 10000 1 0 18:18 07.10.2019
6642 Clouds 14 1019 58 10000 1.16 307.827 17:43 07.10.2019
6643 Clouds 14 1019 58 10000 1.16 307.827 17:43 07.10.2019
6644 Clouds 14 1019 54 10000 0.5 0 17:22 07.10.2019
6645 Clouds 14 1019 54 10000 1 0 16:58 07.10.2019
6646 Clouds 14 1019 54 10000 1 0 16:39 07.10.2019
6647 Clouds 14 1019 54 10000 1 0 16:39 07.10.2019
6648 Clouds 14 1019 55 10000 1 40 16:20 07.10.2019
6649 Clouds 14 1019 62 10000 1.5 360 15:45 07.10.2019
6650 Clouds 14 1019 67 10000 2.1 150 15:26 07.10.2019
6651 Clouds 14 1019 67 10000 2.1 150 14:56 07.10.2019
6652 Clouds 14 1019 58 10000 1 0 14:38 07.10.2019
6653 Clouds 14 1019 62 10000 1.5 260 14:20 07.10.2019
6654 Clouds 14 1019 66 10000 2.6 310 13:43 07.10.2019
6655 Clouds 13 1019 66 10000 3.1 290 13:20 07.10.2019
6656 Clouds 13 1019 66 10000 2.6 310 12:56 07.10.2019
6657 Clouds 13 1019 66 10000 2.6 310 12:38 07.10.2019
6658 Clouds 12 1019 71 10000 1 0 12:19 07.10.2019
6659 Clouds 12 1019 71 10000 0.5 0 11:57 07.10.2019
6660 Clouds 11 1019 71 10000 0.5 0 11:37 07.10.2019
6661 Clouds 11 1019 81 10000 1 0 11:18 07.10.2019
6662 Rain 10 1019 76 10000 3.1 150 10:41 07.10.2019
6663 Rain 10 1019 76 10000 3.1 150 10:41 07.10.2019
6664 Clouds 10 1018 81 10000 3.1 150 10:20 07.10.2019
6665 Drizzle 9 1018 87 10000 3.1 140 09:42 07.10.2019
6666 Drizzle 8 1018 87 10000 3.1 110 09:23 07.10.2019
6667 Drizzle 8 1018 87 10000 3.1 110 08:57 07.10.2019
6668 Drizzle 8 1018 100 10000 2.1 110 08:38 07.10.2019
6669 Drizzle 8 1018 100 10000 1.5 260 08:19 07.10.2019
6670 Clouds 7 1017 93 10000 3.1 120 07:41 07.10.2019
6671 Drizzle 7 1017 100 10000 2.1 100 07:22 07.10.2019
6672 Clouds 7 1017 93 10000 1.5 100 06:54 07.10.2019
6673 Clouds 7 1017 93 10000 1.5 100 06:34 07.10.2019
6674 Rain 8 1017 93 10000 1.5 0 05:47 07.10.2019
6675 Rain 8 1016 100 10000 0.5 0 05:22 07.10.2019
6676 Rain 8 1016 100 10000 1 0 04:25 07.10.2019
6677 Rain 8 1016 93 10000 0.5 0 03:45 07.10.2019
6678 Rain 9 1016 93 10000 1.5 0 03:21 07.10.2019
6679 Rain 9 1016 93 10000 1 0 02:22 07.10.2019
6680 Rain 9 1016 93 10000 2.6 90 01:52 07.10.2019
6681 Rain 9 1015 93 10000 1.5 0 01:21 07.10.2019
6682 Rain 10 1015 93 10000 0.5 0 00:39 07.10.2019
6683 Rain 10 1015 93 10000 0.5 0 00:39 07.10.2019
6684 Rain 10 1015 93 10000 4.1 330 00:20 07.10.2019
6685 Rain 11 1014 87 10000 6.2 280 23:42 06.10.2019
6686 Rain 11 1014 87 10000 6.2 280 23:42 06.10.2019
6687 Rain 11 1013 81 10000 5.7 260 23:22 06.10.2019
6688 Rain 11 1013 81 10000 5.7 260 22:59 06.10.2019
6689 Rain 11 1012 82 10000 6.7 260 22:41 06.10.2019
6690 Rain 11 1012 93 6000 2.1 350 22:22 06.10.2019
6691 Rain 12 1012 93 6000 2.1 350 21:58 06.10.2019
6692 Rain 12 1012 93 10000 0.5 0 21:38 06.10.2019
6693 Rain 12 1012 93 10000 2.1 330 21:19 06.10.2019
6694 Rain 12 1012 93 10000 2.1 330 20:58 06.10.2019
6695 Rain 12 1012 93 10000 2.1 330 20:58 06.10.2019
6696 Rain 12 1012 87 10000 3.1 330 20:40 06.10.2019
6697 Rain 12 1012 87 10000 3.1 330 20:40 06.10.2019
6698 Rain 12 1012 87 10000 3.6 310 20:20 06.10.2019
6699 Rain 12 1012 87 10000 3.6 310 19:57 06.10.2019
6700 Rain 12 1013 76 10000 5.1 270 19:37 06.10.2019
6701 Rain 12 1012 76 10000 4.1 270 19:19 06.10.2019
6702 Rain 13 1012 72 10000 2.1 290 18:57 06.10.2019
6703 Drizzle 13 1012 72 10000 2.1 290 18:38 06.10.2019
6704 Rain 14 1013 72 10000 3.6 290 18:19 06.10.2019
6705 Rain 14 1013 72 10000 3.6 290 17:57 06.10.2019
6706 Rain 14 1013 72 10000 4.6 280 17:38 06.10.2019
6707 Rain 14 1013 67 10000 5.7 260 17:18 06.10.2019
6708 Clouds 14 1013 67 10000 2.1 270 16:42 06.10.2019
6709 Rain 15 1013 67 10000 2.6 260 16:23 06.10.2019
6710 Clouds 15 1014 67 10000 1 0 15:54 06.10.2019
6711 Clouds 15 1014 67 10000 1 0 15:36 06.10.2019
6712 Clouds 15 1014 67 10000 1.5 310 15:18 06.10.2019
6713 Clouds 14 1015 67 10000 3.1 290 14:42 06.10.2019
6714 Clouds 14 1015 67 10000 3.1 290 14:42 06.10.2019
6715 Clouds 14 1015 77 10000 2.6 270 14:24 06.10.2019
6716 Clouds 14 1015 82 10000 0.5 0 13:56 06.10.2019
6717 Clouds 14 1015 82 10000 0.5 0 13:38 06.10.2019
6718 Clouds 14 1016 82 10000 0.5 0 13:19 06.10.2019
6719 Clouds 14 1016 82 10000 0.5 0 12:56 06.10.2019
6720 Clouds 13 1016 82 10000 0.5 0 12:37 06.10.2019
6721 Clouds 13 1016 87 10000 1 0 12:19 06.10.2019
6722 Clouds 13 1016 87 10000 1.5 0 11:55 06.10.2019
6723 Clouds 12 1016 87 10000 1.5 0 11:36 06.10.2019
6724 Clouds 12 1016 87 10000 1.5 0 11:36 06.10.2019
6725 Mist 12 1017 87 10000 1 0 11:18 06.10.2019
6726 Clouds 12 1016 93 10000 2.1 130 10:42 06.10.2019
6727 Mist 12 1017 93 10000 1 0 10:24 06.10.2019
6728 Rain 11 1017 93 10000 1 0 09:42 06.10.2019
6729 Rain 11 1017 100 10000 1.5 90 09:21 06.10.2019
6730 Drizzle 11 1016 100 10000 1.5 130 08:59 06.10.2019
6731 Drizzle 11 1016 100 10000 1.5 130 08:40 06.10.2019
6732 Drizzle 10 1016 100 10000 1 0 08:20 06.10.2019
6733 Clouds 10 1016 100 10000 1 120 07:42 06.10.2019
6734 Drizzle 11 1016 100 9000 2.1 120 07:18 06.10.2019
6735 Mist 10 1017 100 10000 1.5 100 06:18 06.10.2019
6736 Rain 10 1017 100 8000 1 120 05:27 06.10.2019
6737 Rain 11 1017 100 10000 0.5 0 03:23 06.10.2019
6738 Rain 11 1017 100 10000 1 110 02:40 06.10.2019
6739 Rain 11 1017 100 10000 1 110 02:40 06.10.2019
6740 Rain 11 1017 100 10000 0.5 0 01:57 06.10.2019
6741 Rain 11 1017 100 10000 0.5 0 01:37 06.10.2019
6742 Rain 11 1018 100 10000 1 130 01:18 06.10.2019
6743 Rain 11 1018 100 6000 2.1 160 00:45 06.10.2019
6744 Rain 11 1018 100 5000 0.5 0 00:21 06.10.2019
6745 Rain 11 1018 100 10000 1 20 23:43 05.10.2019
6746 Rain 11 1018 100 4700 0.5 0 23:21 05.10.2019
6747 Rain 11 1018 100 4700 0.5 0 22:57 05.10.2019
6748 Rain 11 1017 93 5000 2.1 340 22:38 05.10.2019
6749 Rain 12 1017 93 5000 1.5 0 22:19 05.10.2019
6750 Rain 12 1017 100 5000 2.1 310 21:43 05.10.2019
6751 Rain 12 1017 87 10000 1.5 290 21:24 05.10.2019
6752 Rain 12 1017 87 10000 1.5 290 20:59 05.10.2019
6753 Rain 12 1017 87 10000 1.5 290 20:59 05.10.2019
6754 Rain 12 1016 87 10000 1.5 300 20:40 05.10.2019
6755 Drizzle 12 1016 87 10000 0.5 0 20:20 05.10.2019
6756 Rain 12 1016 76 10000 1 240 19:58 05.10.2019
6757 Rain 12 1016 76 10000 1 240 19:37 05.10.2019
6758 Rain 13 1016 82 10000 1 0 19:18 05.10.2019
6759 Rain 13 1016 76 10000 1.5 310 18:55 05.10.2019
6760 Rain 13 1016 76 10000 1.5 310 18:36 05.10.2019
6761 Rain 14 1015 63 10000 2.1 270 18:18 05.10.2019
6762 Rain 14 1015 63 10000 2.6 270 17:42 05.10.2019
6763 Clouds 14 1015 63 10000 3.6 270 17:22 05.10.2019
6764 Clouds 15 1015 63 10000 3.1 270 16:56 05.10.2019
6765 Clouds 15 1015 63 10000 3.1 270